<?xml version="1.0" encoding="UTF-8" standalone="no" ?>
<gpx xmlns="http://www.topografix.com/GPX/1/1" xmlns:xsi="http://www.w3.org/2001/XMLSchema-instance" xsi:schemaLocation="http://www.topografix.com/GPX/1/1 http://www.topografix.com/GPX/1/1/gpx.xsd" version="1.1" creator="VisuGPX - https://www.visugpx.com">
  <metadata>
    <name>Wallabies Tet Adriatique Juillet 2025/1</name>
    <desc><![CDATA[Les Wallabies Adriatique 2025]]></desc>
  </metadata>
  <trk>
    <name><![CDATA[6.2 Alt Easy ACT MNE_AL]]></name>
    <extensions>
      <line xmlns="http://www.topografix.com/GPX/gpx_style/0/2">
        <color>ff2600</color>
        <width>4</width>
      </line>
    </extensions>
    <trkseg>
      <trkpt lat="40.24077" lon="20.43017">
        <ele>320.53515625</ele>
      </trkpt>
      <trkpt lat="40.24077" lon="20.43016">
        <ele>320.54296875</ele>
      </trkpt>
      <trkpt lat="40.24081" lon="20.43005">
        <ele>320.625</ele>
      </trkpt>
      <trkpt lat="40.24084" lon="20.43">
        <ele>324.10000610352</ele>
        <time>2023-09-28T10:24:33.000Z</time>
      </trkpt>
      <trkpt lat="40.24088" lon="20.42995">
        <ele>324.57998657227</ele>
        <time>2023-09-28T10:24:32.000Z</time>
      </trkpt>
      <trkpt lat="40.24093" lon="20.4299">
        <ele>324.57998657227</ele>
        <time>2023-09-28T10:24:31.000Z</time>
      </trkpt>
      <trkpt lat="40.24096" lon="20.42983">
        <ele>325.05999755859</ele>
        <time>2023-09-28T10:24:30.000Z</time>
      </trkpt>
      <trkpt lat="40.24098" lon="20.42977">
        <ele>325.54000854492</ele>
        <time>2023-09-28T10:24:29.000Z</time>
      </trkpt>
      <trkpt lat="40.24101" lon="20.42968">
        <ele>325.54000854492</ele>
        <time>2023-09-28T10:24:28.000Z</time>
      </trkpt>
      <trkpt lat="40.24102" lon="20.4296">
        <ele>326.01998901367</ele>
        <time>2023-09-28T10:24:27.000Z</time>
      </trkpt>
      <trkpt lat="40.24101" lon="20.4295">
        <ele>326.01998901367</ele>
        <time>2023-09-28T10:24:26.000Z</time>
      </trkpt>
      <trkpt lat="40.24099" lon="20.4294">
        <ele>326.5</ele>
        <time>2023-09-28T10:24:25.000Z</time>
      </trkpt>
      <trkpt lat="40.24096" lon="20.42929">
        <ele>326.5</ele>
        <time>2023-09-28T10:24:24.000Z</time>
      </trkpt>
      <trkpt lat="40.24091" lon="20.42918">
        <ele>326.5</ele>
        <time>2023-09-28T10:24:23.000Z</time>
      </trkpt>
      <trkpt lat="40.2409" lon="20.42914">
        <ele>326.5</ele>
        <time>2023-09-28T10:24:22.000Z</time>
      </trkpt>
      <trkpt lat="40.24079" lon="20.42896">
        <ele>326.5</ele>
        <time>2023-09-28T10:24:21.000Z</time>
      </trkpt>
      <trkpt lat="40.24012" lon="20.42811">
        <ele>328.91000366211</ele>
        <time>2023-09-28T10:24:15.000Z</time>
      </trkpt>
      <trkpt lat="40.23996" lon="20.42796">
        <ele>329.86999511719</ele>
        <time>2023-09-28T10:24:14.000Z</time>
      </trkpt>
      <trkpt lat="40.23983" lon="20.42788">
        <ele>330.82998657227</ele>
        <time>2023-09-28T10:24:13.000Z</time>
      </trkpt>
      <trkpt lat="40.23971" lon="20.42782">
        <ele>331.79000854492</ele>
        <time>2023-09-28T10:24:12.000Z</time>
      </trkpt>
      <trkpt lat="40.23964" lon="20.42779">
        <ele>331.79000854492</ele>
        <time>2023-09-28T10:24:11.000Z</time>
      </trkpt>
      <trkpt lat="40.23903" lon="20.42763">
        <ele>334.67999267578</ele>
        <time>2023-09-28T10:24:07.000Z</time>
      </trkpt>
      <trkpt lat="40.23892" lon="20.42762">
        <ele>335.16000366211</ele>
        <time>2023-09-28T10:24:06.000Z</time>
      </trkpt>
      <trkpt lat="40.23881" lon="20.42764">
        <ele>336.11999511719</ele>
        <time>2023-09-28T10:24:05.000Z</time>
      </trkpt>
      <trkpt lat="40.23872" lon="20.42766">
        <ele>336.60000610352</ele>
        <time>2023-09-28T10:24:04.000Z</time>
      </trkpt>
      <trkpt lat="40.23863" lon="20.42768">
        <ele>337.07998657227</ele>
        <time>2023-09-28T10:24:03.000Z</time>
      </trkpt>
      <trkpt lat="40.23855" lon="20.42766">
        <ele>337.55999755859</ele>
        <time>2023-09-28T10:24:02.000Z</time>
      </trkpt>
      <trkpt lat="40.23848" lon="20.4276">
        <ele>338.04000854492</ele>
        <time>2023-09-28T10:24:01.000Z</time>
      </trkpt>
      <trkpt lat="40.23843" lon="20.42753">
        <ele>339</ele>
        <time>2023-09-28T10:24:00.000Z</time>
      </trkpt>
      <trkpt lat="40.23821" lon="20.4272">
        <ele>342.85000610352</ele>
        <time>2023-09-28T10:23:57.000Z</time>
      </trkpt>
      <trkpt lat="40.23816" lon="20.42709">
        <ele>343.32998657227</ele>
        <time>2023-09-28T10:23:56.000Z</time>
      </trkpt>
      <trkpt lat="40.23814" lon="20.42697">
        <ele>344.29000854492</ele>
        <time>2023-09-28T10:23:55.000Z</time>
      </trkpt>
      <trkpt lat="40.23813" lon="20.42684">
        <ele>345.25</ele>
        <time>2023-09-28T10:23:54.000Z</time>
      </trkpt>
      <trkpt lat="40.23814" lon="20.42671">
        <ele>346.69000244141</ele>
        <time>2023-09-28T10:23:53.000Z</time>
      </trkpt>
      <trkpt lat="40.23817" lon="20.42658">
        <ele>347.64999389648</ele>
        <time>2023-09-28T10:23:52.000Z</time>
      </trkpt>
      <trkpt lat="40.23821" lon="20.42647">
        <ele>348.61999511719</ele>
        <time>2023-09-28T10:23:51.000Z</time>
      </trkpt>
      <trkpt lat="40.23825" lon="20.42638">
        <ele>349.57998657227</ele>
        <time>2023-09-28T10:23:50.000Z</time>
      </trkpt>
      <trkpt lat="40.23846" lon="20.42605">
        <ele>351.98001098633</ele>
        <time>2023-09-28T10:23:47.000Z</time>
      </trkpt>
      <trkpt lat="40.23854" lon="20.42597">
        <ele>352.45999145508</ele>
        <time>2023-09-28T10:23:46.000Z</time>
      </trkpt>
      <trkpt lat="40.23875" lon="20.42575">
        <ele>353.42001342773</ele>
        <time>2023-09-28T10:23:43.000Z</time>
      </trkpt>
      <trkpt lat="40.23886" lon="20.42563">
        <ele>353.89999389648</ele>
        <time>2023-09-28T10:23:42.000Z</time>
      </trkpt>
      <trkpt lat="40.23919" lon="20.42515">
        <ele>356.79000854492</ele>
        <time>2023-09-28T10:23:38.000Z</time>
      </trkpt>
      <trkpt lat="40.23924" lon="20.42506">
        <ele>357.75</ele>
        <time>2023-09-28T10:23:37.000Z</time>
      </trkpt>
      <trkpt lat="40.23931" lon="20.42492">
        <ele>358.23001098633</ele>
        <time>2023-09-28T10:23:36.000Z</time>
      </trkpt>
      <trkpt lat="40.23937" lon="20.4248">
        <ele>359.19000244141</ele>
        <time>2023-09-28T10:23:35.000Z</time>
      </trkpt>
      <trkpt lat="40.23943" lon="20.42468">
        <ele>359.67001342773</ele>
        <time>2023-09-28T10:23:34.000Z</time>
      </trkpt>
      <trkpt lat="40.23951" lon="20.42457">
        <ele>360.63000488281</ele>
        <time>2023-09-28T10:23:33.000Z</time>
      </trkpt>
      <trkpt lat="40.23959" lon="20.42449">
        <ele>361.10998535156</ele>
        <time>2023-09-28T10:23:32.000Z</time>
      </trkpt>
      <trkpt lat="40.23969" lon="20.4244">
        <ele>361.58999633789</ele>
        <time>2023-09-28T10:23:31.000Z</time>
      </trkpt>
      <trkpt lat="40.2398" lon="20.42432">
        <ele>361.58999633789</ele>
        <time>2023-09-28T10:23:30.000Z</time>
      </trkpt>
      <trkpt lat="40.23993" lon="20.42424">
        <ele>361.58999633789</ele>
        <time>2023-09-28T10:23:29.000Z</time>
      </trkpt>
      <trkpt lat="40.24005" lon="20.42418">
        <ele>361.58999633789</ele>
        <time>2023-09-28T10:23:28.000Z</time>
      </trkpt>
      <trkpt lat="40.24021" lon="20.4241">
        <ele>361.58999633789</ele>
        <time>2023-09-28T10:23:27.000Z</time>
      </trkpt>
      <trkpt lat="40.24025" lon="20.42408">
        <ele>361.58999633789</ele>
        <time>2023-09-28T10:23:26.000Z</time>
      </trkpt>
      <trkpt lat="40.24051" lon="20.42393">
        <ele>361.10998535156</ele>
        <time>2023-09-28T10:23:25.000Z</time>
      </trkpt>
      <trkpt lat="40.24064" lon="20.42387">
        <ele>360.14999389648</ele>
        <time>2023-09-28T10:23:24.000Z</time>
      </trkpt>
      <trkpt lat="40.24076" lon="20.42383">
        <ele>359.19000244141</ele>
        <time>2023-09-28T10:23:23.000Z</time>
      </trkpt>
      <trkpt lat="40.24084" lon="20.42376">
        <ele>358.23001098633</ele>
        <time>2023-09-28T10:23:22.000Z</time>
      </trkpt>
      <trkpt lat="40.2409" lon="20.42366">
        <ele>358.23001098633</ele>
        <time>2023-09-28T10:23:21.000Z</time>
      </trkpt>
      <trkpt lat="40.24095" lon="20.42355">
        <ele>358.23001098633</ele>
        <time>2023-09-28T10:23:20.000Z</time>
      </trkpt>
      <trkpt lat="40.241" lon="20.4234">
        <ele>357.75</ele>
        <time>2023-09-28T10:23:19.000Z</time>
      </trkpt>
      <trkpt lat="40.24109" lon="20.42314">
        <ele>357.75</ele>
        <time>2023-09-28T10:23:17.000Z</time>
      </trkpt>
      <trkpt lat="40.24113" lon="20.42301">
        <ele>358.70999145508</ele>
        <time>2023-09-28T10:23:16.000Z</time>
      </trkpt>
      <trkpt lat="40.24116" lon="20.42287">
        <ele>359.67001342773</ele>
        <time>2023-09-28T10:23:15.000Z</time>
      </trkpt>
      <trkpt lat="40.24117" lon="20.4228">
        <ele>360.14999389648</ele>
        <time>2023-09-28T10:23:14.000Z</time>
      </trkpt>
      <trkpt lat="40.24117" lon="20.42272">
        <ele>361.10998535156</ele>
        <time>2023-09-28T10:23:13.000Z</time>
      </trkpt>
      <trkpt lat="40.24116" lon="20.42265">
        <ele>362.07000732422</ele>
        <time>2023-09-28T10:23:12.000Z</time>
      </trkpt>
      <trkpt lat="40.24116" lon="20.42262">
        <ele>362.54998779297</ele>
        <time>2023-09-28T10:23:11.000Z</time>
      </trkpt>
      <trkpt lat="40.24103" lon="20.42253">
        <ele>365.44000244141</ele>
        <time>2023-09-28T10:23:07.000Z</time>
      </trkpt>
      <trkpt lat="40.24095" lon="20.42256">
        <ele>365.44000244141</ele>
        <time>2023-09-28T10:23:06.000Z</time>
      </trkpt>
      <trkpt lat="40.24088" lon="20.4226">
        <ele>365.92001342773</ele>
        <time>2023-09-28T10:23:05.000Z</time>
      </trkpt>
      <trkpt lat="40.24076" lon="20.42268">
        <ele>365.92001342773</ele>
        <time>2023-09-28T10:23:04.000Z</time>
      </trkpt>
      <trkpt lat="40.24064" lon="20.42275">
        <ele>366.39999389648</ele>
        <time>2023-09-28T10:23:03.000Z</time>
      </trkpt>
      <trkpt lat="40.2405" lon="20.42281">
        <ele>366.39999389648</ele>
        <time>2023-09-28T10:23:02.000Z</time>
      </trkpt>
      <trkpt lat="40.24039" lon="20.42287">
        <ele>365.92001342773</ele>
        <time>2023-09-28T10:23:01.000Z</time>
      </trkpt>
      <trkpt lat="40.24033" lon="20.42292">
        <ele>365.92001342773</ele>
        <time>2023-09-28T10:23:00.000Z</time>
      </trkpt>
      <trkpt lat="40.24012" lon="20.42307">
        <ele>365.44000244141</ele>
        <time>2023-09-28T10:22:59.000Z</time>
      </trkpt>
      <trkpt lat="40.23999" lon="20.42313">
        <ele>364.95999145508</ele>
        <time>2023-09-28T10:22:58.000Z</time>
      </trkpt>
      <trkpt lat="40.23986" lon="20.42316">
        <ele>364.95999145508</ele>
        <time>2023-09-28T10:22:57.000Z</time>
      </trkpt>
      <trkpt lat="40.23975" lon="20.42317">
        <ele>364.95999145508</ele>
        <time>2023-09-28T10:22:56.000Z</time>
      </trkpt>
      <trkpt lat="40.23927" lon="20.42318">
        <ele>363.51998901367</ele>
        <time>2023-09-28T10:22:53.000Z</time>
      </trkpt>
      <trkpt lat="40.23913" lon="20.42321">
        <ele>363.51998901367</ele>
        <time>2023-09-28T10:22:52.000Z</time>
      </trkpt>
      <trkpt lat="40.23898" lon="20.42326">
        <ele>362.54998779297</ele>
        <time>2023-09-28T10:22:51.000Z</time>
      </trkpt>
      <trkpt lat="40.23887" lon="20.42333">
        <ele>361.58999633789</ele>
        <time>2023-09-28T10:22:50.000Z</time>
      </trkpt>
      <trkpt lat="40.23884" lon="20.42335">
        <ele>361.10998535156</ele>
        <time>2023-09-28T10:22:49.000Z</time>
      </trkpt>
      <trkpt lat="40.23865" lon="20.42349">
        <ele>359.19000244141</ele>
        <time>2023-09-28T10:22:48.000Z</time>
      </trkpt>
      <trkpt lat="40.23758" lon="20.42424">
        <ele>350.05999755859</ele>
        <time>2023-09-28T10:22:41.000Z</time>
      </trkpt>
      <trkpt lat="40.23744" lon="20.42436">
        <ele>349.10000610352</ele>
        <time>2023-09-28T10:22:39.000Z</time>
      </trkpt>
      <trkpt lat="40.23727" lon="20.4245">
        <ele>347.64999389648</ele>
        <time>2023-09-28T10:22:38.000Z</time>
      </trkpt>
      <trkpt lat="40.23717" lon="20.42454">
        <ele>346.69000244141</ele>
        <time>2023-09-28T10:22:37.000Z</time>
      </trkpt>
      <trkpt lat="40.23707" lon="20.42454">
        <ele>346.69000244141</ele>
        <time>2023-09-28T10:22:36.000Z</time>
      </trkpt>
      <trkpt lat="40.23698" lon="20.42449">
        <ele>346.20999145508</ele>
        <time>2023-09-28T10:22:35.000Z</time>
      </trkpt>
      <trkpt lat="40.23691" lon="20.42442">
        <ele>346.20999145508</ele>
        <time>2023-09-28T10:22:34.000Z</time>
      </trkpt>
      <trkpt lat="40.23658" lon="20.42406">
        <ele>344.76998901367</ele>
        <time>2023-09-28T10:22:31.000Z</time>
      </trkpt>
      <trkpt lat="40.23644" lon="20.42393">
        <ele>343.32998657227</ele>
        <time>2023-09-28T10:22:30.000Z</time>
      </trkpt>
      <trkpt lat="40.23632" lon="20.42385">
        <ele>342.36999511719</ele>
        <time>2023-09-28T10:22:29.000Z</time>
      </trkpt>
      <trkpt lat="40.23559" lon="20.42345">
        <ele>336.60000610352</ele>
        <time>2023-09-28T10:22:24.000Z</time>
      </trkpt>
      <trkpt lat="40.23544" lon="20.42334">
        <ele>335.16000366211</ele>
        <time>2023-09-28T10:22:23.000Z</time>
      </trkpt>
      <trkpt lat="40.23542" lon="20.42332">
        <ele>335.16000366211</ele>
        <time>2023-09-28T10:22:22.000Z</time>
      </trkpt>
      <trkpt lat="40.23483" lon="20.42274">
        <ele>327.95001220703</ele>
        <time>2023-09-28T10:22:18.000Z</time>
      </trkpt>
      <trkpt lat="40.23471" lon="20.42265">
        <ele>326.5</ele>
        <time>2023-09-28T10:22:17.000Z</time>
      </trkpt>
      <trkpt lat="40.23458" lon="20.42257">
        <ele>325.05999755859</ele>
        <time>2023-09-28T10:22:16.000Z</time>
      </trkpt>
      <trkpt lat="40.23449" lon="20.42252">
        <ele>324.10000610352</ele>
        <time>2023-09-28T10:22:15.000Z</time>
      </trkpt>
      <trkpt lat="40.23441" lon="20.42244">
        <ele>323.14001464844</ele>
        <time>2023-09-28T10:22:14.000Z</time>
      </trkpt>
      <trkpt lat="40.23436" lon="20.42236">
        <ele>321.70001220703</ele>
        <time>2023-09-28T10:22:13.000Z</time>
      </trkpt>
      <trkpt lat="40.23434" lon="20.42226">
        <ele>320.73999023438</ele>
        <time>2023-09-28T10:22:12.000Z</time>
      </trkpt>
      <trkpt lat="40.23434" lon="20.42214">
        <ele>319.7799987793</ele>
        <time>2023-09-28T10:22:11.000Z</time>
      </trkpt>
      <trkpt lat="40.23436" lon="20.42199">
        <ele>318.80999755859</ele>
        <time>2023-09-28T10:22:10.000Z</time>
      </trkpt>
      <trkpt lat="40.23439" lon="20.42186">
        <ele>317.85000610352</ele>
        <time>2023-09-28T10:22:09.000Z</time>
      </trkpt>
      <trkpt lat="40.23442" lon="20.42173">
        <ele>317.36999511719</ele>
        <time>2023-09-28T10:22:08.000Z</time>
      </trkpt>
      <trkpt lat="40.23444" lon="20.42161">
        <ele>316.89001464844</ele>
        <time>2023-09-28T10:22:07.000Z</time>
      </trkpt>
      <trkpt lat="40.23441" lon="20.42153">
        <ele>316.89001464844</ele>
        <time>2023-09-28T10:22:06.000Z</time>
      </trkpt>
      <trkpt lat="40.23435" lon="20.42146">
        <ele>316.89001464844</ele>
        <time>2023-09-28T10:22:05.000Z</time>
      </trkpt>
      <trkpt lat="40.23426" lon="20.42139">
        <ele>316.89001464844</ele>
        <time>2023-09-28T10:22:04.000Z</time>
      </trkpt>
      <trkpt lat="40.23417" lon="20.4213">
        <ele>317.36999511719</ele>
        <time>2023-09-28T10:22:03.000Z</time>
      </trkpt>
      <trkpt lat="40.23411" lon="20.4212">
        <ele>317.36999511719</ele>
        <time>2023-09-28T10:22:02.000Z</time>
      </trkpt>
      <trkpt lat="40.23393" lon="20.42087">
        <ele>317.36999511719</ele>
        <time>2023-09-28T10:22:00.000Z</time>
      </trkpt>
      <trkpt lat="40.23325" lon="20.41973">
        <ele>315.92999267578</ele>
        <time>2023-09-28T10:21:52.000Z</time>
      </trkpt>
      <trkpt lat="40.23317" lon="20.41963">
        <ele>315.45001220703</ele>
        <time>2023-09-28T10:21:51.000Z</time>
      </trkpt>
      <trkpt lat="40.23307" lon="20.41957">
        <ele>314.01000976562</ele>
        <time>2023-09-28T10:21:50.000Z</time>
      </trkpt>
      <trkpt lat="40.23298" lon="20.41955">
        <ele>313.5299987793</ele>
        <time>2023-09-28T10:21:49.000Z</time>
      </trkpt>
      <trkpt lat="40.23282" lon="20.41954">
        <ele>313.04998779297</ele>
        <time>2023-09-28T10:21:48.000Z</time>
      </trkpt>
      <trkpt lat="40.23269" lon="20.4195">
        <ele>312.08999633789</ele>
        <time>2023-09-28T10:21:47.000Z</time>
      </trkpt>
      <trkpt lat="40.23256" lon="20.41943">
        <ele>312.08999633789</ele>
        <time>2023-09-28T10:21:46.000Z</time>
      </trkpt>
      <trkpt lat="40.23254" lon="20.41942">
        <ele>312.08999633789</ele>
        <time>2023-09-28T10:21:45.000Z</time>
      </trkpt>
      <trkpt lat="40.23231" lon="20.41926">
        <ele>311.60000610352</ele>
        <time>2023-09-28T10:21:44.000Z</time>
      </trkpt>
      <trkpt lat="40.23219" lon="20.4192">
        <ele>311.60000610352</ele>
        <time>2023-09-28T10:21:43.000Z</time>
      </trkpt>
      <trkpt lat="40.23091" lon="20.4185">
        <ele>313.5299987793</ele>
        <time>2023-09-28T10:21:35.000Z</time>
      </trkpt>
      <trkpt lat="40.23078" lon="20.41838">
        <ele>314.01000976562</ele>
        <time>2023-09-28T10:21:34.000Z</time>
      </trkpt>
      <trkpt lat="40.23065" lon="20.41822">
        <ele>314.01000976562</ele>
        <time>2023-09-28T10:21:33.000Z</time>
      </trkpt>
      <trkpt lat="40.23043" lon="20.4179">
        <ele>314.01000976562</ele>
        <time>2023-09-28T10:21:31.000Z</time>
      </trkpt>
      <trkpt lat="40.2303" lon="20.41777">
        <ele>313.04998779297</ele>
        <time>2023-09-28T10:21:30.000Z</time>
      </trkpt>
      <trkpt lat="40.23024" lon="20.41771">
        <ele>312.57000732422</ele>
        <time>2023-09-28T10:21:29.000Z</time>
      </trkpt>
      <trkpt lat="40.22973" lon="20.41735">
        <ele>310.16000366211</ele>
        <time>2023-09-28T10:21:25.000Z</time>
      </trkpt>
      <trkpt lat="40.22861" lon="20.41683">
        <ele>307.2799987793</ele>
        <time>2023-09-28T10:21:18.000Z</time>
      </trkpt>
      <trkpt lat="40.22848" lon="20.41675">
        <ele>306.79998779297</ele>
        <time>2023-09-28T10:21:17.000Z</time>
      </trkpt>
      <trkpt lat="40.22837" lon="20.41665">
        <ele>306.79998779297</ele>
        <time>2023-09-28T10:21:16.000Z</time>
      </trkpt>
      <trkpt lat="40.22834" lon="20.41662">
        <ele>306.32000732422</ele>
        <time>2023-09-28T10:21:15.000Z</time>
      </trkpt>
      <trkpt lat="40.22761" lon="20.41583">
        <ele>303.42999267578</ele>
        <time>2023-09-28T10:21:10.000Z</time>
      </trkpt>
      <trkpt lat="40.22749" lon="20.41568">
        <ele>303.42999267578</ele>
        <time>2023-09-28T10:21:09.000Z</time>
      </trkpt>
      <trkpt lat="40.22744" lon="20.41561">
        <ele>303.42999267578</ele>
        <time>2023-09-28T10:21:08.000Z</time>
      </trkpt>
      <trkpt lat="40.2272" lon="20.41524">
        <ele>304.88000488281</ele>
        <time>2023-09-28T10:21:06.000Z</time>
      </trkpt>
      <trkpt lat="40.2271" lon="20.41513">
        <ele>304.88000488281</ele>
        <time>2023-09-28T10:21:05.000Z</time>
      </trkpt>
      <trkpt lat="40.22699" lon="20.41505">
        <ele>304.39001464844</ele>
        <time>2023-09-28T10:21:04.000Z</time>
      </trkpt>
      <trkpt lat="40.22694" lon="20.41503">
        <ele>304.39001464844</ele>
        <time>2023-09-28T10:21:03.000Z</time>
      </trkpt>
      <trkpt lat="40.22609" lon="20.41463">
        <ele>301.0299987793</ele>
        <time>2023-09-28T10:20:58.000Z</time>
      </trkpt>
      <trkpt lat="40.22542" lon="20.41416">
        <ele>300.54998779297</ele>
        <time>2023-09-28T10:20:53.000Z</time>
      </trkpt>
      <trkpt lat="40.22532" lon="20.41407">
        <ele>300.54998779297</ele>
        <time>2023-09-28T10:20:52.000Z</time>
      </trkpt>
      <trkpt lat="40.22524" lon="20.41396">
        <ele>300.54998779297</ele>
        <time>2023-09-28T10:20:51.000Z</time>
      </trkpt>
      <trkpt lat="40.22517" lon="20.41386">
        <ele>300.54998779297</ele>
        <time>2023-09-28T10:20:50.000Z</time>
      </trkpt>
      <trkpt lat="40.22512" lon="20.41375">
        <ele>300.54998779297</ele>
        <time>2023-09-28T10:20:49.000Z</time>
      </trkpt>
      <trkpt lat="40.2251" lon="20.41363">
        <ele>300.54998779297</ele>
        <time>2023-09-28T10:20:48.000Z</time>
      </trkpt>
      <trkpt lat="40.22511" lon="20.41349">
        <ele>300.07000732422</ele>
        <time>2023-09-28T10:20:47.000Z</time>
      </trkpt>
      <trkpt lat="40.22516" lon="20.41325">
        <ele>299.58999633789</ele>
        <time>2023-09-28T10:20:45.000Z</time>
      </trkpt>
      <trkpt lat="40.22523" lon="20.4127">
        <ele>298.63000488281</ele>
        <time>2023-09-28T10:20:42.000Z</time>
      </trkpt>
      <trkpt lat="40.22524" lon="20.41263">
        <ele>298.63000488281</ele>
        <time>2023-09-28T10:20:41.000Z</time>
      </trkpt>
      <trkpt lat="40.22523" lon="20.41246">
        <ele>298.63000488281</ele>
        <time>2023-09-28T10:20:40.000Z</time>
      </trkpt>
      <trkpt lat="40.22522" lon="20.41235">
        <ele>298.63000488281</ele>
        <time>2023-09-28T10:20:39.000Z</time>
      </trkpt>
      <trkpt lat="40.2252" lon="20.41228">
        <ele>298.63000488281</ele>
        <time>2023-09-28T10:20:38.000Z</time>
      </trkpt>
      <trkpt lat="40.22515" lon="20.41224">
        <ele>299.10998535156</ele>
        <time>2023-09-28T10:20:37.000Z</time>
      </trkpt>
      <trkpt lat="40.22508" lon="20.41222">
        <ele>299.58999633789</ele>
        <time>2023-09-28T10:20:36.000Z</time>
      </trkpt>
      <trkpt lat="40.22497" lon="20.41223">
        <ele>300.07000732422</ele>
        <time>2023-09-28T10:20:35.000Z</time>
      </trkpt>
      <trkpt lat="40.22488" lon="20.41225">
        <ele>300.07000732422</ele>
        <time>2023-09-28T10:20:34.000Z</time>
      </trkpt>
      <trkpt lat="40.22478" lon="20.41226">
        <ele>300.54998779297</ele>
        <time>2023-09-28T10:20:33.000Z</time>
      </trkpt>
      <trkpt lat="40.22468" lon="20.41223">
        <ele>301.51000976562</ele>
        <time>2023-09-28T10:20:32.000Z</time>
      </trkpt>
      <trkpt lat="40.22458" lon="20.41215">
        <ele>301.98999023438</ele>
        <time>2023-09-28T10:20:31.000Z</time>
      </trkpt>
      <trkpt lat="40.22449" lon="20.41203">
        <ele>302.95001220703</ele>
        <time>2023-09-28T10:20:30.000Z</time>
      </trkpt>
      <trkpt lat="40.22445" lon="20.41196">
        <ele>303.42999267578</ele>
        <time>2023-09-28T10:20:29.000Z</time>
      </trkpt>
      <trkpt lat="40.22438" lon="20.41184">
        <ele>303.91000366211</ele>
        <time>2023-09-28T10:20:28.000Z</time>
      </trkpt>
      <trkpt lat="40.22358" lon="20.41054">
        <ele>307.76000976562</ele>
        <time>2023-09-28T10:20:21.000Z</time>
      </trkpt>
      <trkpt lat="40.22349" lon="20.41039">
        <ele>308.23999023438</ele>
        <time>2023-09-28T10:20:20.000Z</time>
      </trkpt>
      <trkpt lat="40.22342" lon="20.41023">
        <ele>309.20001220703</ele>
        <time>2023-09-28T10:20:19.000Z</time>
      </trkpt>
      <trkpt lat="40.2234" lon="20.41018">
        <ele>309.20001220703</ele>
        <time>2023-09-28T10:20:18.000Z</time>
      </trkpt>
      <trkpt lat="40.22321" lon="20.40947">
        <ele>314.01000976562</ele>
        <time>2023-09-28T10:20:14.000Z</time>
      </trkpt>
      <trkpt lat="40.22294" lon="20.40843">
        <ele>315.92999267578</ele>
        <time>2023-09-28T10:20:07.000Z</time>
      </trkpt>
      <trkpt lat="40.22292" lon="20.40835">
        <ele>315.92999267578</ele>
        <time>2023-09-28T10:20:06.000Z</time>
      </trkpt>
      <trkpt lat="40.22288" lon="20.40826">
        <ele>315.92999267578</ele>
        <time>2023-09-28T10:20:05.000Z</time>
      </trkpt>
      <trkpt lat="40.22278" lon="20.40802">
        <ele>316.41000366211</ele>
        <time>2023-09-28T10:20:01.000Z</time>
      </trkpt>
      <trkpt lat="40.22274" lon="20.40793">
        <ele>316.41000366211</ele>
        <time>2023-09-28T10:19:59.000Z</time>
      </trkpt>
      <trkpt lat="40.22261" lon="20.40777">
        <ele>316.41000366211</ele>
        <time>2023-09-28T10:19:51.000Z</time>
      </trkpt>
      <trkpt lat="40.22256" lon="20.40774">
        <ele>315.92999267578</ele>
        <time>2023-09-28T10:19:50.000Z</time>
      </trkpt>
      <trkpt lat="40.22249" lon="20.40771">
        <ele>315.45001220703</ele>
        <time>2023-09-28T10:19:49.000Z</time>
      </trkpt>
      <trkpt lat="40.22246" lon="20.4077">
        <ele>314.9700012207</ele>
        <time>2023-09-28T10:19:48.000Z</time>
      </trkpt>
      <trkpt lat="40.22234" lon="20.40767">
        <ele>313.5299987793</ele>
        <time>2023-09-28T10:19:47.000Z</time>
      </trkpt>
      <trkpt lat="40.22117" lon="20.4073">
        <ele>307.76000976562</ele>
        <time>2023-09-28T10:19:39.000Z</time>
      </trkpt>
      <trkpt lat="40.22101" lon="20.4072">
        <ele>308.7200012207</ele>
        <time>2023-09-28T10:19:37.000Z</time>
      </trkpt>
      <trkpt lat="40.22072" lon="20.40699">
        <ele>310.64001464844</ele>
        <time>2023-09-28T10:19:35.000Z</time>
      </trkpt>
      <trkpt lat="40.22064" lon="20.4069">
        <ele>311.11999511719</ele>
        <time>2023-09-28T10:19:34.000Z</time>
      </trkpt>
      <trkpt lat="40.22061" lon="20.40686">
        <ele>311.60000610352</ele>
        <time>2023-09-28T10:19:33.000Z</time>
      </trkpt>
      <trkpt lat="40.22052" lon="20.40673">
        <ele>312.08999633789</ele>
        <time>2023-09-28T10:19:32.000Z</time>
      </trkpt>
      <trkpt lat="40.22044" lon="20.40666">
        <ele>311.60000610352</ele>
        <time>2023-09-28T10:19:31.000Z</time>
      </trkpt>
      <trkpt lat="40.22035" lon="20.40661">
        <ele>311.11999511719</ele>
        <time>2023-09-28T10:19:30.000Z</time>
      </trkpt>
      <trkpt lat="40.22027" lon="20.40659">
        <ele>310.64001464844</ele>
        <time>2023-09-28T10:19:29.000Z</time>
      </trkpt>
      <trkpt lat="40.22014" lon="20.40657">
        <ele>310.64001464844</ele>
        <time>2023-09-28T10:19:28.000Z</time>
      </trkpt>
      <trkpt lat="40.2201" lon="20.40656">
        <ele>310.16000366211</ele>
        <time>2023-09-28T10:19:27.000Z</time>
      </trkpt>
      <trkpt lat="40.21969" lon="20.40653">
        <ele>307.2799987793</ele>
        <time>2023-09-28T10:19:24.000Z</time>
      </trkpt>
      <trkpt lat="40.21961" lon="20.40652">
        <ele>306.79998779297</ele>
        <time>2023-09-28T10:19:23.000Z</time>
      </trkpt>
      <trkpt lat="40.21925" lon="20.40649">
        <ele>304.39001464844</ele>
        <time>2023-09-28T10:19:21.000Z</time>
      </trkpt>
      <trkpt lat="40.21916" lon="20.40649">
        <ele>303.42999267578</ele>
        <time>2023-09-28T10:19:20.000Z</time>
      </trkpt>
      <trkpt lat="40.21884" lon="20.40651">
        <ele>301.51000976562</ele>
        <time>2023-09-28T10:19:18.000Z</time>
      </trkpt>
      <trkpt lat="40.21863" lon="20.40655">
        <ele>300.54998779297</ele>
        <time>2023-09-28T10:19:17.000Z</time>
      </trkpt>
      <trkpt lat="40.21739" lon="20.40685">
        <ele>298.14999389648</ele>
        <time>2023-09-28T10:19:10.000Z</time>
      </trkpt>
      <trkpt lat="40.2163" lon="20.40726">
        <ele>298.63000488281</ele>
        <time>2023-09-28T10:19:04.000Z</time>
      </trkpt>
      <trkpt lat="40.21615" lon="20.40734">
        <ele>298.14999389648</ele>
        <time>2023-09-28T10:19:03.000Z</time>
      </trkpt>
      <trkpt lat="40.21602" lon="20.40746">
        <ele>297.17999267578</ele>
        <time>2023-09-28T10:19:02.000Z</time>
      </trkpt>
      <trkpt lat="40.216" lon="20.40749">
        <ele>297.17999267578</ele>
        <time>2023-09-28T10:19:01.000Z</time>
      </trkpt>
      <trkpt lat="40.21553" lon="20.40811">
        <ele>291.89999389648</ele>
        <time>2023-09-28T10:18:58.000Z</time>
      </trkpt>
      <trkpt lat="40.21539" lon="20.40835">
        <ele>289.48999023438</ele>
        <time>2023-09-28T10:18:56.000Z</time>
      </trkpt>
      <trkpt lat="40.21524" lon="20.40865">
        <ele>286.60998535156</ele>
        <time>2023-09-28T10:18:55.000Z</time>
      </trkpt>
      <trkpt lat="40.21516" lon="20.40884">
        <ele>285.17001342773</ele>
        <time>2023-09-28T10:18:54.000Z</time>
      </trkpt>
      <trkpt lat="40.21515" lon="20.40888">
        <ele>285.17001342773</ele>
        <time>2023-09-28T10:18:53.000Z</time>
      </trkpt>
      <trkpt lat="40.21506" lon="20.40919">
        <ele>283.25</ele>
        <time>2023-09-28T10:18:52.000Z</time>
      </trkpt>
      <trkpt lat="40.21493" lon="20.40957">
        <ele>281.79998779297</ele>
        <time>2023-09-28T10:18:49.000Z</time>
      </trkpt>
      <trkpt lat="40.2149" lon="20.40966">
        <ele>281.79998779297</ele>
        <time>2023-09-28T10:18:48.000Z</time>
      </trkpt>
      <trkpt lat="40.21488" lon="20.40972">
        <ele>281.79998779297</ele>
        <time>2023-09-28T10:18:47.000Z</time>
      </trkpt>
      <trkpt lat="40.21486" lon="20.40984">
        <ele>282.2799987793</ele>
        <time>2023-09-28T10:18:44.000Z</time>
      </trkpt>
      <trkpt lat="40.21483" lon="20.40992">
        <ele>282.2799987793</ele>
        <time>2023-09-28T10:18:43.000Z</time>
      </trkpt>
      <trkpt lat="40.21479" lon="20.41002">
        <ele>282.2799987793</ele>
        <time>2023-09-28T10:18:42.000Z</time>
      </trkpt>
      <trkpt lat="40.21471" lon="20.41012">
        <ele>282.2799987793</ele>
        <time>2023-09-28T10:18:41.000Z</time>
      </trkpt>
      <trkpt lat="40.21461" lon="20.41022">
        <ele>282.2799987793</ele>
        <time>2023-09-28T10:18:40.000Z</time>
      </trkpt>
      <trkpt lat="40.21418" lon="20.41054">
        <ele>280.83999633789</ele>
        <time>2023-09-28T10:18:37.000Z</time>
      </trkpt>
      <trkpt lat="40.21398" lon="20.41066">
        <ele>280.35998535156</ele>
        <time>2023-09-28T10:18:36.000Z</time>
      </trkpt>
      <trkpt lat="40.21336" lon="20.41108">
        <ele>280.83999633789</ele>
        <time>2023-09-28T10:18:32.000Z</time>
      </trkpt>
      <trkpt lat="40.21219" lon="20.41191">
        <ele>285.64999389648</ele>
        <time>2023-09-28T10:18:24.000Z</time>
      </trkpt>
      <trkpt lat="40.21203" lon="20.41204">
        <ele>286.13000488281</ele>
        <time>2023-09-28T10:18:23.000Z</time>
      </trkpt>
      <trkpt lat="40.21183" lon="20.41224">
        <ele>285.17001342773</ele>
        <time>2023-09-28T10:18:21.000Z</time>
      </trkpt>
      <trkpt lat="40.21171" lon="20.41234">
        <ele>285.17001342773</ele>
        <time>2023-09-28T10:18:20.000Z</time>
      </trkpt>
      <trkpt lat="40.21165" lon="20.41239">
        <ele>284.69000244141</ele>
        <time>2023-09-28T10:18:19.000Z</time>
      </trkpt>
      <trkpt lat="40.21129" lon="20.41258">
        <ele>283.25</ele>
        <time>2023-09-28T10:18:17.000Z</time>
      </trkpt>
      <trkpt lat="40.21117" lon="20.41263">
        <ele>282.76998901367</ele>
        <time>2023-09-28T10:18:16.000Z</time>
      </trkpt>
      <trkpt lat="40.21099" lon="20.41268">
        <ele>281.79998779297</ele>
        <time>2023-09-28T10:18:15.000Z</time>
      </trkpt>
      <trkpt lat="40.21026" lon="20.4128">
        <ele>278.44000244141</ele>
        <time>2023-09-28T10:18:10.000Z</time>
      </trkpt>
      <trkpt lat="40.21012" lon="20.41281">
        <ele>277.95999145508</ele>
        <time>2023-09-28T10:18:09.000Z</time>
      </trkpt>
      <trkpt lat="40.20998" lon="20.4128">
        <ele>277</ele>
        <time>2023-09-28T10:18:08.000Z</time>
      </trkpt>
      <trkpt lat="40.20992" lon="20.41279">
        <ele>277</ele>
        <time>2023-09-28T10:18:07.000Z</time>
      </trkpt>
      <trkpt lat="40.2089" lon="20.4125">
        <ele>273.63000488281</ele>
        <time>2023-09-28T10:18:00.000Z</time>
      </trkpt>
      <trkpt lat="40.20816" lon="20.4123">
        <ele>271.70999145508</ele>
        <time>2023-09-28T10:17:53.000Z</time>
      </trkpt>
      <trkpt lat="40.2081" lon="20.41226">
        <ele>271.70999145508</ele>
        <time>2023-09-28T10:17:52.000Z</time>
      </trkpt>
      <trkpt lat="40.20818" lon="20.41365">
        <ele>267.38000488281</ele>
        <time>2023-09-28T09:39:08.000Z</time>
      </trkpt>
      <trkpt lat="40.20818" lon="20.41384">
        <ele>266.42001342773</ele>
        <time>2023-09-28T09:39:07.000Z</time>
      </trkpt>
      <trkpt lat="40.20816" lon="20.41399">
        <ele>264.98001098633</ele>
        <time>2023-09-28T09:39:06.000Z</time>
      </trkpt>
      <trkpt lat="40.20812" lon="20.41415">
        <ele>264.01998901367</ele>
        <time>2023-09-28T09:39:05.000Z</time>
      </trkpt>
      <trkpt lat="40.20808" lon="20.4143">
        <ele>263.05999755859</ele>
        <time>2023-09-28T09:39:04.000Z</time>
      </trkpt>
      <trkpt lat="40.20806" lon="20.41448">
        <ele>261.14001464844</ele>
        <time>2023-09-28T09:39:03.000Z</time>
      </trkpt>
      <trkpt lat="40.20805" lon="20.41462">
        <ele>260.17001342773</ele>
        <time>2023-09-28T09:39:02.000Z</time>
      </trkpt>
      <trkpt lat="40.20805" lon="20.41475">
        <ele>259.20999145508</ele>
        <time>2023-09-28T09:39:01.000Z</time>
      </trkpt>
      <trkpt lat="40.20806" lon="20.41485">
        <ele>258.73001098633</ele>
        <time>2023-09-28T09:39:00.000Z</time>
      </trkpt>
      <trkpt lat="40.20809" lon="20.41499">
        <ele>258.25</ele>
        <time>2023-09-28T09:38:59.000Z</time>
      </trkpt>
      <trkpt lat="40.20809" lon="20.41507">
        <ele>257.76998901367</ele>
        <time>2023-09-28T09:38:58.000Z</time>
      </trkpt>
      <trkpt lat="40.20808" lon="20.41515">
        <ele>257.76998901367</ele>
        <time>2023-09-28T09:38:57.000Z</time>
      </trkpt>
      <trkpt lat="40.20802" lon="20.41542">
        <ele>257.29000854492</ele>
        <time>2023-09-28T09:38:54.000Z</time>
      </trkpt>
      <trkpt lat="40.20777" lon="20.41652">
        <ele>256.80999755859</ele>
        <time>2023-09-28T09:38:46.000Z</time>
      </trkpt>
      <trkpt lat="40.20775" lon="20.41664">
        <ele>256.80999755859</ele>
        <time>2023-09-28T09:38:45.000Z</time>
      </trkpt>
      <trkpt lat="40.20772" lon="20.41722">
        <ele>257.76998901367</ele>
        <time>2023-09-28T09:38:41.000Z</time>
      </trkpt>
      <trkpt lat="40.20771" lon="20.41731">
        <ele>257.76998901367</ele>
        <time>2023-09-28T09:38:40.000Z</time>
      </trkpt>
      <trkpt lat="40.20771" lon="20.41737">
        <ele>257.76998901367</ele>
        <time>2023-09-28T09:38:39.000Z</time>
      </trkpt>
      <trkpt lat="40.2077" lon="20.41818">
        <ele>258.73001098633</ele>
        <time>2023-09-28T09:38:33.000Z</time>
      </trkpt>
      <trkpt lat="40.20769" lon="20.41828">
        <ele>258.73001098633</ele>
        <time>2023-09-28T09:38:32.000Z</time>
      </trkpt>
      <trkpt lat="40.20768" lon="20.41838">
        <ele>258.73001098633</ele>
        <time>2023-09-28T09:38:31.000Z</time>
      </trkpt>
      <trkpt lat="40.20766" lon="20.41846">
        <ele>258.73001098633</ele>
        <time>2023-09-28T09:38:30.000Z</time>
      </trkpt>
      <trkpt lat="40.20757" lon="20.41887">
        <ele>259.20999145508</ele>
        <time>2023-09-28T09:38:27.000Z</time>
      </trkpt>
      <trkpt lat="40.20756" lon="20.41891">
        <ele>259.20999145508</ele>
        <time>2023-09-28T09:38:26.000Z</time>
      </trkpt>
      <trkpt lat="40.20749" lon="20.41925">
        <ele>259.20999145508</ele>
        <time>2023-09-28T09:38:23.000Z</time>
      </trkpt>
      <trkpt lat="40.20739" lon="20.41961">
        <ele>259.20999145508</ele>
        <time>2023-09-28T09:38:20.000Z</time>
      </trkpt>
      <trkpt lat="40.20722" lon="20.42025">
        <ele>260.17001342773</ele>
        <time>2023-09-28T09:38:14.000Z</time>
      </trkpt>
      <trkpt lat="40.20718" lon="20.4204">
        <ele>260.17001342773</ele>
        <time>2023-09-28T09:38:13.000Z</time>
      </trkpt>
      <trkpt lat="40.20714" lon="20.42052">
        <ele>260.17001342773</ele>
        <time>2023-09-28T09:38:12.000Z</time>
      </trkpt>
      <trkpt lat="40.20698" lon="20.42093">
        <ele>259.69000244141</ele>
        <time>2023-09-28T09:38:09.000Z</time>
      </trkpt>
      <trkpt lat="40.20688" lon="20.42119">
        <ele>259.69000244141</ele>
        <time>2023-09-28T09:38:08.000Z</time>
      </trkpt>
      <trkpt lat="40.20681" lon="20.4213">
        <ele>260.17001342773</ele>
        <time>2023-09-28T09:38:07.000Z</time>
      </trkpt>
      <trkpt lat="40.20675" lon="20.42138">
        <ele>260.64999389648</ele>
        <time>2023-09-28T09:38:06.000Z</time>
      </trkpt>
      <trkpt lat="40.20665" lon="20.42148">
        <ele>261.14001464844</ele>
        <time>2023-09-28T09:38:05.000Z</time>
      </trkpt>
      <trkpt lat="40.20651" lon="20.42161">
        <ele>261.61999511719</ele>
        <time>2023-09-28T09:38:03.000Z</time>
      </trkpt>
      <trkpt lat="40.20624" lon="20.42183">
        <ele>263.05999755859</ele>
        <time>2023-09-28T09:38:01.000Z</time>
      </trkpt>
      <trkpt lat="40.20616" lon="20.42188">
        <ele>263.54000854492</ele>
        <time>2023-09-28T09:38:00.000Z</time>
      </trkpt>
      <trkpt lat="40.20587" lon="20.42207">
        <ele>265.45999145508</ele>
        <time>2023-09-28T09:37:58.000Z</time>
      </trkpt>
      <trkpt lat="40.20578" lon="20.42215">
        <ele>265.94000244141</ele>
        <time>2023-09-28T09:37:57.000Z</time>
      </trkpt>
      <trkpt lat="40.20573" lon="20.4222">
        <ele>266.42001342773</ele>
        <time>2023-09-28T09:37:56.000Z</time>
      </trkpt>
      <trkpt lat="40.20505" lon="20.42297">
        <ele>270.75</ele>
        <time>2023-09-28T09:37:51.000Z</time>
      </trkpt>
      <trkpt lat="40.20479" lon="20.42322">
        <ele>271.70999145508</ele>
        <time>2023-09-28T09:37:49.000Z</time>
      </trkpt>
      <trkpt lat="40.20469" lon="20.42335">
        <ele>271.70999145508</ele>
        <time>2023-09-28T09:37:48.000Z</time>
      </trkpt>
      <trkpt lat="40.2046" lon="20.4235">
        <ele>271.23001098633</ele>
        <time>2023-09-28T09:37:47.000Z</time>
      </trkpt>
      <trkpt lat="40.20455" lon="20.42367">
        <ele>271.70999145508</ele>
        <time>2023-09-28T09:37:46.000Z</time>
      </trkpt>
      <trkpt lat="40.20444" lon="20.42418">
        <ele>273.63000488281</ele>
        <time>2023-09-28T09:37:43.000Z</time>
      </trkpt>
      <trkpt lat="40.20437" lon="20.42446">
        <ele>274.10998535156</ele>
        <time>2023-09-28T09:37:41.000Z</time>
      </trkpt>
      <trkpt lat="40.20433" lon="20.42456">
        <ele>274.10998535156</ele>
        <time>2023-09-28T09:37:40.000Z</time>
      </trkpt>
      <trkpt lat="40.20428" lon="20.42462">
        <ele>274.10998535156</ele>
        <time>2023-09-28T09:37:39.000Z</time>
      </trkpt>
      <trkpt lat="40.2042" lon="20.42465">
        <ele>274.10998535156</ele>
        <time>2023-09-28T09:37:38.000Z</time>
      </trkpt>
      <trkpt lat="40.20417" lon="20.42465">
        <ele>274.10998535156</ele>
        <time>2023-09-28T09:37:37.000Z</time>
      </trkpt>
      <trkpt lat="40.20392" lon="20.42463">
        <ele>274.58999633789</ele>
        <time>2023-09-28T09:37:35.000Z</time>
      </trkpt>
      <trkpt lat="40.20386" lon="20.42463">
        <ele>274.58999633789</ele>
        <time>2023-09-28T09:37:34.000Z</time>
      </trkpt>
      <trkpt lat="40.20344" lon="20.42468">
        <ele>276.04000854492</ele>
        <time>2023-09-28T09:37:30.000Z</time>
      </trkpt>
      <trkpt lat="40.20333" lon="20.42468">
        <ele>276.04000854492</ele>
        <time>2023-09-28T09:37:29.000Z</time>
      </trkpt>
      <trkpt lat="40.20325" lon="20.42467">
        <ele>276.04000854492</ele>
        <time>2023-09-28T09:37:28.000Z</time>
      </trkpt>
      <trkpt lat="40.20311" lon="20.42463">
        <ele>276.04000854492</ele>
        <time>2023-09-28T09:37:26.000Z</time>
      </trkpt>
      <trkpt lat="40.20279" lon="20.42454">
        <ele>274.58999633789</ele>
        <time>2023-09-28T09:37:23.000Z</time>
      </trkpt>
      <trkpt lat="40.20261" lon="20.42452">
        <ele>273.63000488281</ele>
        <time>2023-09-28T09:37:22.000Z</time>
      </trkpt>
      <trkpt lat="40.20249" lon="20.42452">
        <ele>272.67001342773</ele>
        <time>2023-09-28T09:37:21.000Z</time>
      </trkpt>
      <trkpt lat="40.20234" lon="20.42453">
        <ele>271.23001098633</ele>
        <time>2023-09-28T09:37:20.000Z</time>
      </trkpt>
      <trkpt lat="40.20221" lon="20.42458">
        <ele>270.26998901367</ele>
        <time>2023-09-28T09:37:19.000Z</time>
      </trkpt>
      <trkpt lat="40.20216" lon="20.42461">
        <ele>269.79000854492</ele>
        <time>2023-09-28T09:37:18.000Z</time>
      </trkpt>
      <trkpt lat="40.20179" lon="20.42484">
        <ele>267.85998535156</ele>
        <time>2023-09-28T09:37:16.000Z</time>
      </trkpt>
      <trkpt lat="40.20166" lon="20.42494">
        <ele>267.85998535156</ele>
        <time>2023-09-28T09:37:15.000Z</time>
      </trkpt>
      <trkpt lat="40.20155" lon="20.42508">
        <ele>267.85998535156</ele>
        <time>2023-09-28T09:37:14.000Z</time>
      </trkpt>
      <trkpt lat="40.20145" lon="20.42526">
        <ele>268.35000610352</ele>
        <time>2023-09-28T09:37:13.000Z</time>
      </trkpt>
      <trkpt lat="40.20111" lon="20.42604">
        <ele>268.35000610352</ele>
        <time>2023-09-28T09:37:09.000Z</time>
      </trkpt>
      <trkpt lat="40.20106" lon="20.42621">
        <ele>267.85998535156</ele>
        <time>2023-09-28T09:37:08.000Z</time>
      </trkpt>
      <trkpt lat="40.20099" lon="20.42648">
        <ele>266.89999389648</ele>
        <time>2023-09-28T09:37:07.000Z</time>
      </trkpt>
      <trkpt lat="40.20091" lon="20.42666">
        <ele>266.42001342773</ele>
        <time>2023-09-28T09:37:06.000Z</time>
      </trkpt>
      <trkpt lat="40.20087" lon="20.42673">
        <ele>266.42001342773</ele>
        <time>2023-09-28T09:37:05.000Z</time>
      </trkpt>
      <trkpt lat="40.2007" lon="20.427">
        <ele>266.89999389648</ele>
        <time>2023-09-28T09:37:04.000Z</time>
      </trkpt>
      <trkpt lat="40.20061" lon="20.42717">
        <ele>267.38000488281</ele>
        <time>2023-09-28T09:37:03.000Z</time>
      </trkpt>
      <trkpt lat="40.2006" lon="20.42721">
        <ele>267.38000488281</ele>
        <time>2023-09-28T09:37:02.000Z</time>
      </trkpt>
      <trkpt lat="40.20006" lon="20.42871">
        <ele>268.82998657227</ele>
        <time>2023-09-28T09:36:56.000Z</time>
      </trkpt>
      <trkpt lat="40.2" lon="20.42895">
        <ele>268.82998657227</ele>
        <time>2023-09-28T09:36:55.000Z</time>
      </trkpt>
      <trkpt lat="40.19998" lon="20.42916">
        <ele>268.82998657227</ele>
        <time>2023-09-28T09:36:54.000Z</time>
      </trkpt>
      <trkpt lat="40.19997" lon="20.4293">
        <ele>269.30999755859</ele>
        <time>2023-09-28T09:36:53.000Z</time>
      </trkpt>
      <trkpt lat="40.19998" lon="20.43098">
        <ele>270.75</ele>
        <time>2023-09-28T09:36:46.000Z</time>
      </trkpt>
      <trkpt lat="40.2" lon="20.43298">
        <ele>274.10998535156</ele>
        <time>2023-09-28T09:36:40.000Z</time>
      </trkpt>
      <trkpt lat="40.19999" lon="20.43322">
        <ele>274.58999633789</ele>
        <time>2023-09-28T09:36:39.000Z</time>
      </trkpt>
      <trkpt lat="40.19994" lon="20.43346">
        <ele>275.07000732422</ele>
        <time>2023-09-28T09:36:38.000Z</time>
      </trkpt>
      <trkpt lat="40.19987" lon="20.4337">
        <ele>275.55999755859</ele>
        <time>2023-09-28T09:36:37.000Z</time>
      </trkpt>
      <trkpt lat="40.19982" lon="20.43383">
        <ele>276.04000854492</ele>
        <time>2023-09-28T09:36:36.000Z</time>
      </trkpt>
      <trkpt lat="40.19943" lon="20.43451">
        <ele>276.04000854492</ele>
        <time>2023-09-28T09:36:33.000Z</time>
      </trkpt>
      <trkpt lat="40.19929" lon="20.43466">
        <ele>275.55999755859</ele>
        <time>2023-09-28T09:36:32.000Z</time>
      </trkpt>
      <trkpt lat="40.19923" lon="20.43472">
        <ele>275.55999755859</ele>
        <time>2023-09-28T09:36:31.000Z</time>
      </trkpt>
      <trkpt lat="40.19883" lon="20.43503">
        <ele>275.55999755859</ele>
        <time>2023-09-28T09:36:29.000Z</time>
      </trkpt>
      <trkpt lat="40.19692" lon="20.43686">
        <ele>282.2799987793</ele>
        <time>2023-09-28T09:36:19.000Z</time>
      </trkpt>
      <trkpt lat="40.19675" lon="20.43704">
        <ele>282.76998901367</ele>
        <time>2023-09-28T09:36:18.000Z</time>
      </trkpt>
      <trkpt lat="40.19548" lon="20.43819">
        <ele>288.5299987793</ele>
        <time>2023-09-28T09:36:12.000Z</time>
      </trkpt>
      <trkpt lat="40.19534" lon="20.43833">
        <ele>289.9700012207</ele>
        <time>2023-09-28T09:36:11.000Z</time>
      </trkpt>
      <trkpt lat="40.19531" lon="20.43837">
        <ele>289.9700012207</ele>
        <time>2023-09-28T09:36:10.000Z</time>
      </trkpt>
      <trkpt lat="40.19481" lon="20.43904">
        <ele>293.33999633789</ele>
        <time>2023-09-28T09:36:07.000Z</time>
      </trkpt>
      <trkpt lat="40.19398" lon="20.44014">
        <ele>298.14999389648</ele>
        <time>2023-09-28T09:36:01.000Z</time>
      </trkpt>
      <trkpt lat="40.19388" lon="20.44032">
        <ele>298.63000488281</ele>
        <time>2023-09-28T09:36:00.000Z</time>
      </trkpt>
      <trkpt lat="40.19381" lon="20.44048">
        <ele>298.63000488281</ele>
        <time>2023-09-28T09:35:59.000Z</time>
      </trkpt>
      <trkpt lat="40.19377" lon="20.44065">
        <ele>298.63000488281</ele>
        <time>2023-09-28T09:35:58.000Z</time>
      </trkpt>
      <trkpt lat="40.19374" lon="20.44082">
        <ele>298.14999389648</ele>
        <time>2023-09-28T09:35:57.000Z</time>
      </trkpt>
      <trkpt lat="40.19374" lon="20.44088">
        <ele>297.67001342773</ele>
        <time>2023-09-28T09:35:56.000Z</time>
      </trkpt>
      <trkpt lat="40.19372" lon="20.44119">
        <ele>296.70001220703</ele>
        <time>2023-09-28T09:35:55.000Z</time>
      </trkpt>
      <trkpt lat="40.1937" lon="20.44138">
        <ele>295.73999023438</ele>
        <time>2023-09-28T09:35:54.000Z</time>
      </trkpt>
      <trkpt lat="40.19367" lon="20.44157">
        <ele>294.29998779297</ele>
        <time>2023-09-28T09:35:53.000Z</time>
      </trkpt>
      <trkpt lat="40.19365" lon="20.44167">
        <ele>293.33999633789</ele>
        <time>2023-09-28T09:35:52.000Z</time>
      </trkpt>
      <trkpt lat="40.19358" lon="20.44188">
        <ele>292.38000488281</ele>
        <time>2023-09-28T09:35:51.000Z</time>
      </trkpt>
      <trkpt lat="40.19356" lon="20.44194">
        <ele>292.85998535156</ele>
        <time>2023-09-28T09:35:50.000Z</time>
      </trkpt>
      <trkpt lat="40.19352" lon="20.44218">
        <ele>292.85998535156</ele>
        <time>2023-09-28T09:35:49.000Z</time>
      </trkpt>
      <trkpt lat="40.19348" lon="20.44229">
        <ele>293.33999633789</ele>
        <time>2023-09-28T09:35:48.000Z</time>
      </trkpt>
      <trkpt lat="40.19343" lon="20.44238">
        <ele>293.82000732422</ele>
        <time>2023-09-28T09:35:47.000Z</time>
      </trkpt>
      <trkpt lat="40.19334" lon="20.44243">
        <ele>293.82000732422</ele>
        <time>2023-09-28T09:35:46.000Z</time>
      </trkpt>
      <trkpt lat="40.19326" lon="20.44246">
        <ele>294.29998779297</ele>
        <time>2023-09-28T09:35:45.000Z</time>
      </trkpt>
      <trkpt lat="40.19311" lon="20.44247">
        <ele>295.73999023438</ele>
        <time>2023-09-28T09:35:44.000Z</time>
      </trkpt>
      <trkpt lat="40.193" lon="20.44252">
        <ele>296.70001220703</ele>
        <time>2023-09-28T09:35:43.000Z</time>
      </trkpt>
      <trkpt lat="40.1929" lon="20.44262">
        <ele>297.67001342773</ele>
        <time>2023-09-28T09:35:42.000Z</time>
      </trkpt>
      <trkpt lat="40.19281" lon="20.44275">
        <ele>298.63000488281</ele>
        <time>2023-09-28T09:35:41.000Z</time>
      </trkpt>
      <trkpt lat="40.19278" lon="20.44281">
        <ele>298.63000488281</ele>
        <time>2023-09-28T09:35:40.000Z</time>
      </trkpt>
      <trkpt lat="40.19267" lon="20.44306">
        <ele>300.07000732422</ele>
        <time>2023-09-28T09:35:39.000Z</time>
      </trkpt>
      <trkpt lat="40.19257" lon="20.44324">
        <ele>301.51000976562</ele>
        <time>2023-09-28T09:35:38.000Z</time>
      </trkpt>
      <trkpt lat="40.19249" lon="20.44337">
        <ele>302.4700012207</ele>
        <time>2023-09-28T09:35:37.000Z</time>
      </trkpt>
      <trkpt lat="40.19241" lon="20.44352">
        <ele>302.95001220703</ele>
        <time>2023-09-28T09:35:36.000Z</time>
      </trkpt>
      <trkpt lat="40.19236" lon="20.44366">
        <ele>303.42999267578</ele>
        <time>2023-09-28T09:35:35.000Z</time>
      </trkpt>
      <trkpt lat="40.19235" lon="20.44381">
        <ele>303.91000366211</ele>
        <time>2023-09-28T09:35:34.000Z</time>
      </trkpt>
      <trkpt lat="40.19237" lon="20.44397">
        <ele>304.39001464844</ele>
        <time>2023-09-28T09:35:33.000Z</time>
      </trkpt>
      <trkpt lat="40.19242" lon="20.44414">
        <ele>304.88000488281</ele>
        <time>2023-09-28T09:35:32.000Z</time>
      </trkpt>
      <trkpt lat="40.19245" lon="20.44423">
        <ele>304.88000488281</ele>
        <time>2023-09-28T09:35:31.000Z</time>
      </trkpt>
      <trkpt lat="40.19254" lon="20.44448">
        <ele>305.83999633789</ele>
        <time>2023-09-28T09:35:30.000Z</time>
      </trkpt>
      <trkpt lat="40.19258" lon="20.4446">
        <ele>306.32000732422</ele>
        <time>2023-09-28T09:35:29.000Z</time>
      </trkpt>
      <trkpt lat="40.19258" lon="20.44472">
        <ele>306.79998779297</ele>
        <time>2023-09-28T09:35:28.000Z</time>
      </trkpt>
      <trkpt lat="40.19254" lon="20.44485">
        <ele>306.79998779297</ele>
        <time>2023-09-28T09:35:27.000Z</time>
      </trkpt>
      <trkpt lat="40.19252" lon="20.44491">
        <ele>306.79998779297</ele>
        <time>2023-09-28T09:35:26.000Z</time>
      </trkpt>
      <trkpt lat="40.1924" lon="20.44517">
        <ele>305.83999633789</ele>
        <time>2023-09-28T09:35:25.000Z</time>
      </trkpt>
      <trkpt lat="40.19233" lon="20.44529">
        <ele>305.35998535156</ele>
        <time>2023-09-28T09:35:24.000Z</time>
      </trkpt>
      <trkpt lat="40.1922" lon="20.44551">
        <ele>304.39001464844</ele>
        <time>2023-09-28T09:35:23.000Z</time>
      </trkpt>
      <trkpt lat="40.19212" lon="20.44567">
        <ele>303.91000366211</ele>
        <time>2023-09-28T09:35:22.000Z</time>
      </trkpt>
      <trkpt lat="40.19209" lon="20.44581">
        <ele>303.91000366211</ele>
        <time>2023-09-28T09:35:21.000Z</time>
      </trkpt>
      <trkpt lat="40.19207" lon="20.44596">
        <ele>304.39001464844</ele>
        <time>2023-09-28T09:35:20.000Z</time>
      </trkpt>
      <trkpt lat="40.19203" lon="20.44606">
        <ele>304.88000488281</ele>
        <time>2023-09-28T09:35:19.000Z</time>
      </trkpt>
      <trkpt lat="40.19197" lon="20.44613">
        <ele>304.88000488281</ele>
        <time>2023-09-28T09:35:18.000Z</time>
      </trkpt>
      <trkpt lat="40.19188" lon="20.44616">
        <ele>304.39001464844</ele>
        <time>2023-09-28T09:35:17.000Z</time>
      </trkpt>
      <trkpt lat="40.19176" lon="20.44616">
        <ele>304.39001464844</ele>
        <time>2023-09-28T09:35:16.000Z</time>
      </trkpt>
      <trkpt lat="40.19149" lon="20.44614">
        <ele>302.95001220703</ele>
        <time>2023-09-28T09:35:14.000Z</time>
      </trkpt>
      <trkpt lat="40.19135" lon="20.44616">
        <ele>302.4700012207</ele>
        <time>2023-09-28T09:35:13.000Z</time>
      </trkpt>
      <trkpt lat="40.1912" lon="20.44621">
        <ele>302.4700012207</ele>
        <time>2023-09-28T09:35:12.000Z</time>
      </trkpt>
      <trkpt lat="40.19108" lon="20.44627">
        <ele>301.98999023438</ele>
        <time>2023-09-28T09:35:11.000Z</time>
      </trkpt>
      <trkpt lat="40.19097" lon="20.44636">
        <ele>301.51000976562</ele>
        <time>2023-09-28T09:35:10.000Z</time>
      </trkpt>
      <trkpt lat="40.19091" lon="20.44641">
        <ele>301.51000976562</ele>
        <time>2023-09-28T09:35:09.000Z</time>
      </trkpt>
      <trkpt lat="40.19081" lon="20.44652">
        <ele>300.54998779297</ele>
        <time>2023-09-28T09:35:08.000Z</time>
      </trkpt>
      <trkpt lat="40.19065" lon="20.44669">
        <ele>299.58999633789</ele>
        <time>2023-09-28T09:35:07.000Z</time>
      </trkpt>
      <trkpt lat="40.19058" lon="20.44676">
        <ele>298.63000488281</ele>
        <time>2023-09-28T09:35:06.000Z</time>
      </trkpt>
      <trkpt lat="40.19043" lon="20.44697">
        <ele>297.17999267578</ele>
        <time>2023-09-28T09:35:05.000Z</time>
      </trkpt>
      <trkpt lat="40.19031" lon="20.44708">
        <ele>296.2200012207</ele>
        <time>2023-09-28T09:35:04.000Z</time>
      </trkpt>
      <trkpt lat="40.19023" lon="20.44714">
        <ele>295.73999023438</ele>
        <time>2023-09-28T09:35:03.000Z</time>
      </trkpt>
      <trkpt lat="40.19004" lon="20.44726">
        <ele>294.7799987793</ele>
        <time>2023-09-28T09:35:01.000Z</time>
      </trkpt>
      <trkpt lat="40.18953" lon="20.44766">
        <ele>291.42001342773</ele>
        <time>2023-09-28T09:34:57.000Z</time>
      </trkpt>
      <trkpt lat="40.18817" lon="20.44872">
        <ele>288.5299987793</ele>
        <time>2023-09-28T09:34:47.000Z</time>
      </trkpt>
      <trkpt lat="40.18717" lon="20.44957">
        <ele>289.48999023438</ele>
        <time>2023-09-28T09:34:39.000Z</time>
      </trkpt>
      <trkpt lat="40.18613" lon="20.45063">
        <ele>292.38000488281</ele>
        <time>2023-09-28T09:34:32.000Z</time>
      </trkpt>
      <trkpt lat="40.18439" lon="20.45243">
        <ele>296.70001220703</ele>
        <time>2023-09-28T09:34:23.000Z</time>
      </trkpt>
      <trkpt lat="40.18304" lon="20.45381">
        <ele>301.51000976562</ele>
        <time>2023-09-28T09:34:15.000Z</time>
      </trkpt>
      <trkpt lat="40.18205" lon="20.45482">
        <ele>306.32000732422</ele>
        <time>2023-09-28T09:34:07.000Z</time>
      </trkpt>
      <trkpt lat="40.18149" lon="20.45538">
        <ele>310.16000366211</ele>
        <time>2023-09-28T09:34:00.000Z</time>
      </trkpt>
      <trkpt lat="40.18144" lon="20.45544">
        <ele>310.64001464844</ele>
        <time>2023-09-28T09:33:59.000Z</time>
      </trkpt>
      <trkpt lat="40.18126" lon="20.45563">
        <ele>311.60000610352</ele>
        <time>2023-09-28T09:33:56.000Z</time>
      </trkpt>
      <trkpt lat="40.1812" lon="20.4557">
        <ele>312.08999633789</ele>
        <time>2023-09-28T09:33:55.000Z</time>
      </trkpt>
      <trkpt lat="40.18107" lon="20.45585">
        <ele>312.57000732422</ele>
        <time>2023-09-28T09:33:52.000Z</time>
      </trkpt>
      <trkpt lat="40.18102" lon="20.4559">
        <ele>312.57000732422</ele>
        <time>2023-09-28T09:33:51.000Z</time>
      </trkpt>
      <trkpt lat="40.18094" lon="20.456">
        <ele>312.57000732422</ele>
        <time>2023-09-28T09:33:50.000Z</time>
      </trkpt>
      <trkpt lat="40.18087" lon="20.45609">
        <ele>313.04998779297</ele>
        <time>2023-09-28T09:33:48.000Z</time>
      </trkpt>
      <trkpt lat="40.18082" lon="20.45614">
        <ele>312.57000732422</ele>
        <time>2023-09-28T09:33:47.000Z</time>
      </trkpt>
      <trkpt lat="40.18055" lon="20.45641">
        <ele>312.57000732422</ele>
        <time>2023-09-28T09:33:39.000Z</time>
      </trkpt>
      <trkpt lat="40.18052" lon="20.45643">
        <ele>312.57000732422</ele>
        <time>2023-09-28T09:33:38.000Z</time>
      </trkpt>
      <trkpt lat="40.18048" lon="20.45645">
        <ele>312.57000732422</ele>
        <time>2023-09-28T09:33:37.000Z</time>
      </trkpt>
      <trkpt lat="40.18046" lon="20.45646">
        <ele>312.08999633789</ele>
        <time>2023-09-28T09:33:36.000Z</time>
      </trkpt>
      <trkpt lat="40.18038" lon="20.4565">
        <ele>312.08999633789</ele>
        <time>2023-09-28T09:33:35.000Z</time>
      </trkpt>
      <trkpt lat="40.18034" lon="20.45652">
        <ele>312.08999633789</ele>
        <time>2023-09-28T09:33:34.000Z</time>
      </trkpt>
      <trkpt lat="40.18023" lon="20.45657">
        <ele>312.08999633789</ele>
        <time>2023-09-28T09:33:32.000Z</time>
      </trkpt>
      <trkpt lat="40.18021" lon="20.45658">
        <ele>312.08999633789</ele>
        <time>2023-09-28T09:33:31.000Z</time>
      </trkpt>
      <trkpt lat="40.1801" lon="20.45663">
        <ele>312.57000732422</ele>
        <time>2023-09-28T09:33:29.000Z</time>
      </trkpt>
      <trkpt lat="40.17991" lon="20.45672">
        <ele>312.57000732422</ele>
        <time>2023-09-28T09:33:26.000Z</time>
      </trkpt>
      <trkpt lat="40.17983" lon="20.45676">
        <ele>312.57000732422</ele>
        <time>2023-09-28T09:33:25.000Z</time>
      </trkpt>
      <trkpt lat="40.17977" lon="20.45678">
        <ele>313.04998779297</ele>
        <time>2023-09-28T09:33:24.000Z</time>
      </trkpt>
      <trkpt lat="40.17972" lon="20.45681">
        <ele>313.04998779297</ele>
        <time>2023-09-28T09:33:23.000Z</time>
      </trkpt>
      <trkpt lat="40.17966" lon="20.45686">
        <ele>313.5299987793</ele>
        <time>2023-09-28T09:33:22.000Z</time>
      </trkpt>
      <trkpt lat="40.17962" lon="20.45689">
        <ele>314.01000976562</ele>
        <time>2023-09-28T09:33:21.000Z</time>
      </trkpt>
      <trkpt lat="40.1795" lon="20.45696">
        <ele>314.01000976562</ele>
        <time>2023-09-28T09:33:19.000Z</time>
      </trkpt>
      <trkpt lat="40.17938" lon="20.45702">
        <ele>314.48999023438</ele>
        <time>2023-09-28T09:33:17.000Z</time>
      </trkpt>
      <trkpt lat="40.17936" lon="20.45703">
        <ele>314.48999023438</ele>
        <time>2023-09-28T09:33:16.000Z</time>
      </trkpt>
      <trkpt lat="40.17912" lon="20.45711">
        <ele>314.9700012207</ele>
        <time>2023-09-28T09:33:13.000Z</time>
      </trkpt>
      <trkpt lat="40.17896" lon="20.45716">
        <ele>315.45001220703</ele>
        <time>2023-09-28T09:33:11.000Z</time>
      </trkpt>
      <trkpt lat="40.17882" lon="20.45722">
        <ele>315.92999267578</ele>
        <time>2023-09-28T09:33:09.000Z</time>
      </trkpt>
      <trkpt lat="40.17878" lon="20.45724">
        <ele>316.41000366211</ele>
        <time>2023-09-28T09:33:08.000Z</time>
      </trkpt>
      <trkpt lat="40.17863" lon="20.45728">
        <ele>317.36999511719</ele>
        <time>2023-09-28T09:33:07.000Z</time>
      </trkpt>
      <trkpt lat="40.17843" lon="20.45736">
        <ele>318.80999755859</ele>
        <time>2023-09-28T09:33:05.000Z</time>
      </trkpt>
      <trkpt lat="40.17836" lon="20.45741">
        <ele>319.29998779297</ele>
        <time>2023-09-28T09:33:04.000Z</time>
      </trkpt>
      <trkpt lat="40.17809" lon="20.45765">
        <ele>321.2200012207</ele>
        <time>2023-09-28T09:33:01.000Z</time>
      </trkpt>
      <trkpt lat="40.178" lon="20.45769">
        <ele>321.70001220703</ele>
        <time>2023-09-28T09:33:00.000Z</time>
      </trkpt>
      <trkpt lat="40.17792" lon="20.45771">
        <ele>321.70001220703</ele>
        <time>2023-09-28T09:32:59.000Z</time>
      </trkpt>
      <trkpt lat="40.17789" lon="20.45771">
        <ele>321.70001220703</ele>
        <time>2023-09-28T09:32:58.000Z</time>
      </trkpt>
      <trkpt lat="40.17772" lon="20.45769">
        <ele>322.66000366211</ele>
        <time>2023-09-28T09:32:56.000Z</time>
      </trkpt>
      <trkpt lat="40.17745" lon="20.45766">
        <ele>325.54000854492</ele>
        <time>2023-09-28T09:32:54.000Z</time>
      </trkpt>
      <trkpt lat="40.1773" lon="20.45765">
        <ele>326.5</ele>
        <time>2023-09-28T09:32:53.000Z</time>
      </trkpt>
      <trkpt lat="40.17694" lon="20.4576">
        <ele>330.35000610352</ele>
        <time>2023-09-28T09:32:51.000Z</time>
      </trkpt>
      <trkpt lat="40.17686" lon="20.45759">
        <ele>331.30999755859</ele>
        <time>2023-09-28T09:32:50.000Z</time>
      </trkpt>
      <trkpt lat="40.17666" lon="20.45756">
        <ele>332.75</ele>
        <time>2023-09-28T09:32:49.000Z</time>
      </trkpt>
      <trkpt lat="40.17654" lon="20.45755">
        <ele>333.70999145508</ele>
        <time>2023-09-28T09:32:48.000Z</time>
      </trkpt>
      <trkpt lat="40.1764" lon="20.45755">
        <ele>335.16000366211</ele>
        <time>2023-09-28T09:32:47.000Z</time>
      </trkpt>
      <trkpt lat="40.17628" lon="20.45759">
        <ele>336.11999511719</ele>
        <time>2023-09-28T09:32:46.000Z</time>
      </trkpt>
      <trkpt lat="40.17617" lon="20.45767">
        <ele>337.07998657227</ele>
        <time>2023-09-28T09:32:45.000Z</time>
      </trkpt>
      <trkpt lat="40.1761" lon="20.45775">
        <ele>338.51998901367</ele>
        <time>2023-09-28T09:32:44.000Z</time>
      </trkpt>
      <trkpt lat="40.17578" lon="20.45824">
        <ele>342.85000610352</ele>
        <time>2023-09-28T09:32:40.000Z</time>
      </trkpt>
      <trkpt lat="40.17574" lon="20.45831">
        <ele>343.32998657227</ele>
        <time>2023-09-28T09:32:39.000Z</time>
      </trkpt>
      <trkpt lat="40.17568" lon="20.45844">
        <ele>344.76998901367</ele>
        <time>2023-09-28T09:32:38.000Z</time>
      </trkpt>
      <trkpt lat="40.17564" lon="20.45851">
        <ele>345.25</ele>
        <time>2023-09-28T09:32:37.000Z</time>
      </trkpt>
      <trkpt lat="40.17559" lon="20.45855">
        <ele>345.25</ele>
        <time>2023-09-28T09:32:36.000Z</time>
      </trkpt>
      <trkpt lat="40.17552" lon="20.45855">
        <ele>345.73001098633</ele>
        <time>2023-09-28T09:32:35.000Z</time>
      </trkpt>
      <trkpt lat="40.17545" lon="20.4585">
        <ele>346.20999145508</ele>
        <time>2023-09-28T09:32:34.000Z</time>
      </trkpt>
      <trkpt lat="40.17541" lon="20.45846">
        <ele>346.69000244141</ele>
        <time>2023-09-28T09:32:33.000Z</time>
      </trkpt>
      <trkpt lat="40.1753" lon="20.45835">
        <ele>347.64999389648</ele>
        <time>2023-09-28T09:32:32.000Z</time>
      </trkpt>
      <trkpt lat="40.17524" lon="20.45825">
        <ele>348.61999511719</ele>
        <time>2023-09-28T09:32:31.000Z</time>
      </trkpt>
      <trkpt lat="40.17517" lon="20.45814">
        <ele>350.05999755859</ele>
        <time>2023-09-28T09:32:30.000Z</time>
      </trkpt>
      <trkpt lat="40.1751" lon="20.45805">
        <ele>351.01998901367</ele>
        <time>2023-09-28T09:32:29.000Z</time>
      </trkpt>
      <trkpt lat="40.17501" lon="20.45799">
        <ele>351.5</ele>
        <time>2023-09-28T09:32:28.000Z</time>
      </trkpt>
      <trkpt lat="40.17499" lon="20.45798">
        <ele>351.98001098633</ele>
        <time>2023-09-28T09:32:27.000Z</time>
      </trkpt>
      <trkpt lat="40.17485" lon="20.45792">
        <ele>352.45999145508</ele>
        <time>2023-09-28T09:32:26.000Z</time>
      </trkpt>
      <trkpt lat="40.17477" lon="20.45789">
        <ele>352.94000244141</ele>
        <time>2023-09-28T09:32:25.000Z</time>
      </trkpt>
      <trkpt lat="40.17471" lon="20.4579">
        <ele>353.42001342773</ele>
        <time>2023-09-28T09:32:24.000Z</time>
      </trkpt>
      <trkpt lat="40.17468" lon="20.45794">
        <ele>354.38000488281</ele>
        <time>2023-09-28T09:32:23.000Z</time>
      </trkpt>
      <trkpt lat="40.17469" lon="20.458">
        <ele>355.82998657227</ele>
        <time>2023-09-28T09:32:22.000Z</time>
      </trkpt>
      <trkpt lat="40.17473" lon="20.45806">
        <ele>356.79000854492</ele>
        <time>2023-09-28T09:32:21.000Z</time>
      </trkpt>
      <trkpt lat="40.17478" lon="20.45807">
        <ele>357.26998901367</ele>
        <time>2023-09-28T09:32:20.000Z</time>
      </trkpt>
      <trkpt lat="40.17487" lon="20.45808">
        <ele>357.75</ele>
        <time>2023-09-28T09:32:19.000Z</time>
      </trkpt>
      <trkpt lat="40.17494" lon="20.45812">
        <ele>358.70999145508</ele>
        <time>2023-09-28T09:32:18.000Z</time>
      </trkpt>
      <trkpt lat="40.17499" lon="20.45821">
        <ele>359.19000244141</ele>
        <time>2023-09-28T09:32:17.000Z</time>
      </trkpt>
      <trkpt lat="40.17501" lon="20.45832">
        <ele>360.14999389648</ele>
        <time>2023-09-28T09:32:16.000Z</time>
      </trkpt>
      <trkpt lat="40.175" lon="20.45841">
        <ele>360.63000488281</ele>
        <time>2023-09-28T09:32:15.000Z</time>
      </trkpt>
      <trkpt lat="40.17499" lon="20.45857">
        <ele>361.58999633789</ele>
        <time>2023-09-28T09:32:14.000Z</time>
      </trkpt>
      <trkpt lat="40.17498" lon="20.45876">
        <ele>362.54998779297</ele>
        <time>2023-09-28T09:32:13.000Z</time>
      </trkpt>
      <trkpt lat="40.17496" lon="20.45893">
        <ele>363.51998901367</ele>
        <time>2023-09-28T09:32:12.000Z</time>
      </trkpt>
      <trkpt lat="40.17495" lon="20.45899">
        <ele>364</ele>
        <time>2023-09-28T09:32:11.000Z</time>
      </trkpt>
      <trkpt lat="40.17491" lon="20.45924">
        <ele>365.44000244141</ele>
        <time>2023-09-28T09:32:10.000Z</time>
      </trkpt>
      <trkpt lat="40.17491" lon="20.4594">
        <ele>366.39999389648</ele>
        <time>2023-09-28T09:32:09.000Z</time>
      </trkpt>
      <trkpt lat="40.17491" lon="20.45954">
        <ele>367.35998535156</ele>
        <time>2023-09-28T09:32:08.000Z</time>
      </trkpt>
      <trkpt lat="40.17494" lon="20.45985">
        <ele>369.2799987793</ele>
        <time>2023-09-28T09:32:06.000Z</time>
      </trkpt>
      <trkpt lat="40.17492" lon="20.45999">
        <ele>370.23999023438</ele>
        <time>2023-09-28T09:32:05.000Z</time>
      </trkpt>
      <trkpt lat="40.17488" lon="20.4601">
        <ele>371.20999145508</ele>
        <time>2023-09-28T09:32:04.000Z</time>
      </trkpt>
      <trkpt lat="40.17482" lon="20.46019">
        <ele>371.69000244141</ele>
        <time>2023-09-28T09:32:03.000Z</time>
      </trkpt>
      <trkpt lat="40.17475" lon="20.46024">
        <ele>372.17001342773</ele>
        <time>2023-09-28T09:32:02.000Z</time>
      </trkpt>
      <trkpt lat="40.17465" lon="20.46031">
        <ele>373.13000488281</ele>
        <time>2023-09-28T09:32:01.000Z</time>
      </trkpt>
      <trkpt lat="40.1746" lon="20.46038">
        <ele>373.13000488281</ele>
        <time>2023-09-28T09:32:00.000Z</time>
      </trkpt>
      <trkpt lat="40.17456" lon="20.46049">
        <ele>373.60998535156</ele>
        <time>2023-09-28T09:31:59.000Z</time>
      </trkpt>
      <trkpt lat="40.17455" lon="20.46065">
        <ele>373.60998535156</ele>
        <time>2023-09-28T09:31:58.000Z</time>
      </trkpt>
      <trkpt lat="40.17454" lon="20.461">
        <ele>374.08999633789</ele>
        <time>2023-09-28T09:31:56.000Z</time>
      </trkpt>
      <trkpt lat="40.17449" lon="20.46116">
        <ele>374.08999633789</ele>
        <time>2023-09-28T09:31:55.000Z</time>
      </trkpt>
      <trkpt lat="40.17447" lon="20.46123">
        <ele>374.57000732422</ele>
        <time>2023-09-28T09:31:54.000Z</time>
      </trkpt>
      <trkpt lat="40.17417" lon="20.46182">
        <ele>376.01000976562</ele>
        <time>2023-09-28T09:31:51.000Z</time>
      </trkpt>
      <trkpt lat="40.17407" lon="20.46194">
        <ele>375.5299987793</ele>
        <time>2023-09-28T09:31:50.000Z</time>
      </trkpt>
      <trkpt lat="40.17395" lon="20.46205">
        <ele>375.04998779297</ele>
        <time>2023-09-28T09:31:49.000Z</time>
      </trkpt>
      <trkpt lat="40.17392" lon="20.46207">
        <ele>374.57000732422</ele>
        <time>2023-09-28T09:31:48.000Z</time>
      </trkpt>
      <trkpt lat="40.17316" lon="20.46253">
        <ele>371.69000244141</ele>
        <time>2023-09-28T09:31:44.000Z</time>
      </trkpt>
      <trkpt lat="40.17302" lon="20.46259">
        <ele>371.20999145508</ele>
        <time>2023-09-28T09:31:43.000Z</time>
      </trkpt>
      <trkpt lat="40.17271" lon="20.46267">
        <ele>369.76000976562</ele>
        <time>2023-09-28T09:31:41.000Z</time>
      </trkpt>
      <trkpt lat="40.17257" lon="20.4627">
        <ele>368.79998779297</ele>
        <time>2023-09-28T09:31:40.000Z</time>
      </trkpt>
      <trkpt lat="40.17244" lon="20.46269">
        <ele>368.32000732422</ele>
        <time>2023-09-28T09:31:39.000Z</time>
      </trkpt>
      <trkpt lat="40.17232" lon="20.46263">
        <ele>367.83999633789</ele>
        <time>2023-09-28T09:31:38.000Z</time>
      </trkpt>
      <trkpt lat="40.17224" lon="20.46257">
        <ele>367.35998535156</ele>
        <time>2023-09-28T09:31:37.000Z</time>
      </trkpt>
      <trkpt lat="40.17202" lon="20.46238">
        <ele>365.92001342773</ele>
        <time>2023-09-28T09:31:35.000Z</time>
      </trkpt>
      <trkpt lat="40.17196" lon="20.46235">
        <ele>365.44000244141</ele>
        <time>2023-09-28T09:31:34.000Z</time>
      </trkpt>
      <trkpt lat="40.1719" lon="20.46237">
        <ele>364.95999145508</ele>
        <time>2023-09-28T09:31:33.000Z</time>
      </trkpt>
      <trkpt lat="40.17187" lon="20.46243">
        <ele>363.51998901367</ele>
        <time>2023-09-28T09:31:32.000Z</time>
      </trkpt>
      <trkpt lat="40.17189" lon="20.46254">
        <ele>362.07000732422</ele>
        <time>2023-09-28T09:31:31.000Z</time>
      </trkpt>
      <trkpt lat="40.17195" lon="20.46267">
        <ele>361.10998535156</ele>
        <time>2023-09-28T09:31:30.000Z</time>
      </trkpt>
      <trkpt lat="40.17203" lon="20.4628">
        <ele>360.14999389648</ele>
        <time>2023-09-28T09:31:29.000Z</time>
      </trkpt>
      <trkpt lat="40.17211" lon="20.46288">
        <ele>359.67001342773</ele>
        <time>2023-09-28T09:31:28.000Z</time>
      </trkpt>
      <trkpt lat="40.1722" lon="20.46298">
        <ele>358.70999145508</ele>
        <time>2023-09-28T09:31:27.000Z</time>
      </trkpt>
      <trkpt lat="40.17227" lon="20.46308">
        <ele>357.26998901367</ele>
        <time>2023-09-28T09:31:26.000Z</time>
      </trkpt>
      <trkpt lat="40.17229" lon="20.46318">
        <ele>356.79000854492</ele>
        <time>2023-09-28T09:31:25.000Z</time>
      </trkpt>
      <trkpt lat="40.17228" lon="20.46331">
        <ele>355.82998657227</ele>
        <time>2023-09-28T09:31:24.000Z</time>
      </trkpt>
      <trkpt lat="40.17224" lon="20.46346">
        <ele>354.38000488281</ele>
        <time>2023-09-28T09:31:23.000Z</time>
      </trkpt>
      <trkpt lat="40.17217" lon="20.46361">
        <ele>352.94000244141</ele>
        <time>2023-09-28T09:31:22.000Z</time>
      </trkpt>
      <trkpt lat="40.17214" lon="20.46367">
        <ele>352.45999145508</ele>
        <time>2023-09-28T09:31:21.000Z</time>
      </trkpt>
      <trkpt lat="40.17201" lon="20.46387">
        <ele>349.57998657227</ele>
        <time>2023-09-28T09:31:20.000Z</time>
      </trkpt>
      <trkpt lat="40.17196" lon="20.46399">
        <ele>348.61999511719</ele>
        <time>2023-09-28T09:31:19.000Z</time>
      </trkpt>
      <trkpt lat="40.17193" lon="20.46411">
        <ele>347.64999389648</ele>
        <time>2023-09-28T09:31:18.000Z</time>
      </trkpt>
      <trkpt lat="40.17191" lon="20.46421">
        <ele>346.69000244141</ele>
        <time>2023-09-28T09:31:17.000Z</time>
      </trkpt>
      <trkpt lat="40.17188" lon="20.46438">
        <ele>345.73001098633</ele>
        <time>2023-09-28T09:31:16.000Z</time>
      </trkpt>
      <trkpt lat="40.17183" lon="20.46447">
        <ele>345.25</ele>
        <time>2023-09-28T09:31:15.000Z</time>
      </trkpt>
      <trkpt lat="40.17175" lon="20.46453">
        <ele>344.76998901367</ele>
        <time>2023-09-28T09:31:14.000Z</time>
      </trkpt>
      <trkpt lat="40.17165" lon="20.46456">
        <ele>344.76998901367</ele>
        <time>2023-09-28T09:31:13.000Z</time>
      </trkpt>
      <trkpt lat="40.17155" lon="20.46456">
        <ele>344.29000854492</ele>
        <time>2023-09-28T09:31:12.000Z</time>
      </trkpt>
      <trkpt lat="40.17107" lon="20.46456">
        <ele>342.36999511719</ele>
        <time>2023-09-28T09:31:09.000Z</time>
      </trkpt>
      <trkpt lat="40.17095" lon="20.46459">
        <ele>341.89001464844</ele>
        <time>2023-09-28T09:31:08.000Z</time>
      </trkpt>
      <trkpt lat="40.17082" lon="20.46465">
        <ele>340.92001342773</ele>
        <time>2023-09-28T09:31:07.000Z</time>
      </trkpt>
      <trkpt lat="40.17069" lon="20.46475">
        <ele>339.48001098633</ele>
        <time>2023-09-28T09:31:06.000Z</time>
      </trkpt>
      <trkpt lat="40.16975" lon="20.46565">
        <ele>336.60000610352</ele>
        <time>2023-09-28T09:31:00.000Z</time>
      </trkpt>
      <trkpt lat="40.16959" lon="20.46576">
        <ele>337.07998657227</ele>
        <time>2023-09-28T09:30:59.000Z</time>
      </trkpt>
      <trkpt lat="40.16943" lon="20.46582">
        <ele>337.07998657227</ele>
        <time>2023-09-28T09:30:58.000Z</time>
      </trkpt>
      <trkpt lat="40.16934" lon="20.46584">
        <ele>337.55999755859</ele>
        <time>2023-09-28T09:30:57.000Z</time>
      </trkpt>
      <trkpt lat="40.16912" lon="20.46588">
        <ele>337.07998657227</ele>
        <time>2023-09-28T09:30:56.000Z</time>
      </trkpt>
      <trkpt lat="40.169" lon="20.46593">
        <ele>337.07998657227</ele>
        <time>2023-09-28T09:30:55.000Z</time>
      </trkpt>
      <trkpt lat="40.16896" lon="20.46595">
        <ele>336.60000610352</ele>
        <time>2023-09-28T09:30:54.000Z</time>
      </trkpt>
      <trkpt lat="40.16855" lon="20.4662">
        <ele>334.67999267578</ele>
        <time>2023-09-28T09:30:52.000Z</time>
      </trkpt>
      <trkpt lat="40.16837" lon="20.4663">
        <ele>333.23001098633</ele>
        <time>2023-09-28T09:30:51.000Z</time>
      </trkpt>
      <trkpt lat="40.16821" lon="20.46637">
        <ele>332.26998901367</ele>
        <time>2023-09-28T09:30:50.000Z</time>
      </trkpt>
      <trkpt lat="40.16816" lon="20.46639">
        <ele>332.26998901367</ele>
        <time>2023-09-28T09:30:49.000Z</time>
      </trkpt>
      <trkpt lat="40.16765" lon="20.46652">
        <ele>327.95001220703</ele>
        <time>2023-09-28T09:30:47.000Z</time>
      </trkpt>
      <trkpt lat="40.1675" lon="20.46659">
        <ele>326.5</ele>
        <time>2023-09-28T09:30:46.000Z</time>
      </trkpt>
      <trkpt lat="40.16722" lon="20.46676">
        <ele>324.10000610352</ele>
        <time>2023-09-28T09:30:44.000Z</time>
      </trkpt>
      <trkpt lat="40.16633" lon="20.46733">
        <ele>317.85000610352</ele>
        <time>2023-09-28T09:30:39.000Z</time>
      </trkpt>
      <trkpt lat="40.16621" lon="20.46743">
        <ele>316.89001464844</ele>
        <time>2023-09-28T09:30:38.000Z</time>
      </trkpt>
      <trkpt lat="40.16614" lon="20.46754">
        <ele>315.92999267578</ele>
        <time>2023-09-28T09:30:37.000Z</time>
      </trkpt>
      <trkpt lat="40.16609" lon="20.46767">
        <ele>314.9700012207</ele>
        <time>2023-09-28T09:30:36.000Z</time>
      </trkpt>
      <trkpt lat="40.16608" lon="20.46773">
        <ele>314.48999023438</ele>
        <time>2023-09-28T09:30:35.000Z</time>
      </trkpt>
      <trkpt lat="40.16597" lon="20.4684">
        <ele>311.60000610352</ele>
        <time>2023-09-28T09:30:32.000Z</time>
      </trkpt>
      <trkpt lat="40.16593" lon="20.46859">
        <ele>311.60000610352</ele>
        <time>2023-09-28T09:30:31.000Z</time>
      </trkpt>
      <trkpt lat="40.16548" lon="20.47003">
        <ele>310.16000366211</ele>
        <time>2023-09-28T09:30:25.000Z</time>
      </trkpt>
      <trkpt lat="40.16528" lon="20.47077">
        <ele>309.20001220703</ele>
        <time>2023-09-28T09:30:22.000Z</time>
      </trkpt>
      <trkpt lat="40.16496" lon="20.47174">
        <ele>310.16000366211</ele>
        <time>2023-09-28T09:30:17.000Z</time>
      </trkpt>
      <trkpt lat="40.16491" lon="20.47186">
        <ele>310.64001464844</ele>
        <time>2023-09-28T09:30:16.000Z</time>
      </trkpt>
      <trkpt lat="40.16484" lon="20.47193">
        <ele>311.11999511719</ele>
        <time>2023-09-28T09:30:15.000Z</time>
      </trkpt>
      <trkpt lat="40.16476" lon="20.47196">
        <ele>312.08999633789</ele>
        <time>2023-09-28T09:30:14.000Z</time>
      </trkpt>
      <trkpt lat="40.16465" lon="20.47196">
        <ele>312.57000732422</ele>
        <time>2023-09-28T09:30:13.000Z</time>
      </trkpt>
      <trkpt lat="40.16455" lon="20.47201">
        <ele>312.57000732422</ele>
        <time>2023-09-28T09:30:12.000Z</time>
      </trkpt>
      <trkpt lat="40.16445" lon="20.47211">
        <ele>313.04998779297</ele>
        <time>2023-09-28T09:30:11.000Z</time>
      </trkpt>
      <trkpt lat="40.16438" lon="20.47224">
        <ele>313.04998779297</ele>
        <time>2023-09-28T09:30:10.000Z</time>
      </trkpt>
      <trkpt lat="40.16432" lon="20.47235">
        <ele>313.04998779297</ele>
        <time>2023-09-28T09:30:09.000Z</time>
      </trkpt>
      <trkpt lat="40.16371" lon="20.4735">
        <ele>310.64001464844</ele>
        <time>2023-09-28T09:30:03.000Z</time>
      </trkpt>
      <trkpt lat="40.16363" lon="20.47368">
        <ele>310.64001464844</ele>
        <time>2023-09-28T09:30:02.000Z</time>
      </trkpt>
      <trkpt lat="40.16359" lon="20.47384">
        <ele>310.16000366211</ele>
        <time>2023-09-28T09:30:01.000Z</time>
      </trkpt>
      <trkpt lat="40.16358" lon="20.47402">
        <ele>310.16000366211</ele>
        <time>2023-09-28T09:30:00.000Z</time>
      </trkpt>
      <trkpt lat="40.16358" lon="20.47409">
        <ele>310.16000366211</ele>
        <time>2023-09-28T09:29:59.000Z</time>
      </trkpt>
      <trkpt lat="40.16366" lon="20.47491">
        <ele>311.11999511719</ele>
        <time>2023-09-28T09:29:55.000Z</time>
      </trkpt>
      <trkpt lat="40.16375" lon="20.4759">
        <ele>314.01000976562</ele>
        <time>2023-09-28T09:29:52.000Z</time>
      </trkpt>
      <trkpt lat="40.16377" lon="20.47616">
        <ele>314.48999023438</ele>
        <time>2023-09-28T09:29:51.000Z</time>
      </trkpt>
      <trkpt lat="40.16377" lon="20.47636">
        <ele>314.48999023438</ele>
        <time>2023-09-28T09:29:50.000Z</time>
      </trkpt>
      <trkpt lat="40.16376" lon="20.4765">
        <ele>314.48999023438</ele>
        <time>2023-09-28T09:29:49.000Z</time>
      </trkpt>
      <trkpt lat="40.16373" lon="20.47677">
        <ele>314.01000976562</ele>
        <time>2023-09-28T09:29:48.000Z</time>
      </trkpt>
      <trkpt lat="40.16371" lon="20.47695">
        <ele>314.01000976562</ele>
        <time>2023-09-28T09:29:47.000Z</time>
      </trkpt>
      <trkpt lat="40.16373" lon="20.47711">
        <ele>313.5299987793</ele>
        <time>2023-09-28T09:29:46.000Z</time>
      </trkpt>
      <trkpt lat="40.16376" lon="20.4772">
        <ele>313.04998779297</ele>
        <time>2023-09-28T09:29:45.000Z</time>
      </trkpt>
      <trkpt lat="40.16396" lon="20.47774">
        <ele>311.11999511719</ele>
        <time>2023-09-28T09:29:42.000Z</time>
      </trkpt>
      <trkpt lat="40.16406" lon="20.47796">
        <ele>310.16000366211</ele>
        <time>2023-09-28T09:29:41.000Z</time>
      </trkpt>
      <trkpt lat="40.16408" lon="20.478">
        <ele>309.67999267578</ele>
        <time>2023-09-28T09:29:40.000Z</time>
      </trkpt>
      <trkpt lat="40.16426" lon="20.4783">
        <ele>308.23999023438</ele>
        <time>2023-09-28T09:29:39.000Z</time>
      </trkpt>
      <trkpt lat="40.16435" lon="20.47849">
        <ele>307.2799987793</ele>
        <time>2023-09-28T09:29:38.000Z</time>
      </trkpt>
      <trkpt lat="40.16441" lon="20.47869">
        <ele>306.32000732422</ele>
        <time>2023-09-28T09:29:37.000Z</time>
      </trkpt>
      <trkpt lat="40.16446" lon="20.4789">
        <ele>304.88000488281</ele>
        <time>2023-09-28T09:29:36.000Z</time>
      </trkpt>
      <trkpt lat="40.16448" lon="20.47905">
        <ele>303.42999267578</ele>
        <time>2023-09-28T09:29:35.000Z</time>
      </trkpt>
      <trkpt lat="40.1645" lon="20.47932">
        <ele>301.0299987793</ele>
        <time>2023-09-28T09:29:34.000Z</time>
      </trkpt>
      <trkpt lat="40.1645" lon="20.47951">
        <ele>300.07000732422</ele>
        <time>2023-09-28T09:29:33.000Z</time>
      </trkpt>
      <trkpt lat="40.16447" lon="20.4797">
        <ele>300.07000732422</ele>
        <time>2023-09-28T09:29:32.000Z</time>
      </trkpt>
      <trkpt lat="40.16444" lon="20.4798">
        <ele>300.07000732422</ele>
        <time>2023-09-28T09:29:31.000Z</time>
      </trkpt>
      <trkpt lat="40.16437" lon="20.48">
        <ele>301.0299987793</ele>
        <time>2023-09-28T09:29:30.000Z</time>
      </trkpt>
      <trkpt lat="40.16417" lon="20.48068">
        <ele>301.51000976562</ele>
        <time>2023-09-28T09:29:27.000Z</time>
      </trkpt>
      <trkpt lat="40.16415" lon="20.48087">
        <ele>301.0299987793</ele>
        <time>2023-09-28T09:29:26.000Z</time>
      </trkpt>
      <trkpt lat="40.16415" lon="20.48091">
        <ele>301.0299987793</ele>
        <time>2023-09-28T09:29:25.000Z</time>
      </trkpt>
      <trkpt lat="40.16413" lon="20.48143">
        <ele>300.54998779297</ele>
        <time>2023-09-28T09:29:23.000Z</time>
      </trkpt>
      <trkpt lat="40.1641" lon="20.4816">
        <ele>300.54998779297</ele>
        <time>2023-09-28T09:29:22.000Z</time>
      </trkpt>
      <trkpt lat="40.16403" lon="20.48174">
        <ele>300.54998779297</ele>
        <time>2023-09-28T09:29:21.000Z</time>
      </trkpt>
      <trkpt lat="40.16395" lon="20.48184">
        <ele>301.0299987793</ele>
        <time>2023-09-28T09:29:20.000Z</time>
      </trkpt>
      <trkpt lat="40.16351" lon="20.48233">
        <ele>299.10998535156</ele>
        <time>2023-09-28T09:29:17.000Z</time>
      </trkpt>
      <trkpt lat="40.16336" lon="20.48245">
        <ele>298.63000488281</ele>
        <time>2023-09-28T09:29:16.000Z</time>
      </trkpt>
      <trkpt lat="40.1633" lon="20.48249">
        <ele>298.14999389648</ele>
        <time>2023-09-28T09:29:15.000Z</time>
      </trkpt>
      <trkpt lat="40.16308" lon="20.4826">
        <ele>298.14999389648</ele>
        <time>2023-09-28T09:29:14.000Z</time>
      </trkpt>
      <trkpt lat="40.16289" lon="20.48268">
        <ele>298.63000488281</ele>
        <time>2023-09-28T09:29:13.000Z</time>
      </trkpt>
      <trkpt lat="40.16273" lon="20.48272">
        <ele>297.67001342773</ele>
        <time>2023-09-28T09:29:12.000Z</time>
      </trkpt>
      <trkpt lat="40.1627" lon="20.48273">
        <ele>297.67001342773</ele>
        <time>2023-09-28T09:29:11.000Z</time>
      </trkpt>
      <trkpt lat="40.16219" lon="20.48278">
        <ele>296.2200012207</ele>
        <time>2023-09-28T09:29:09.000Z</time>
      </trkpt>
      <trkpt lat="40.162" lon="20.48279">
        <ele>295.73999023438</ele>
        <time>2023-09-28T09:29:08.000Z</time>
      </trkpt>
      <trkpt lat="40.16187" lon="20.48278">
        <ele>295.73999023438</ele>
        <time>2023-09-28T09:29:07.000Z</time>
      </trkpt>
      <trkpt lat="40.16152" lon="20.48274">
        <ele>295.26000976562</ele>
        <time>2023-09-28T09:29:06.000Z</time>
      </trkpt>
      <trkpt lat="40.16021" lon="20.48262">
        <ele>301.98999023438</ele>
        <time>2023-09-28T09:29:00.000Z</time>
      </trkpt>
      <trkpt lat="40.16002" lon="20.48264">
        <ele>303.42999267578</ele>
        <time>2023-09-28T09:28:59.000Z</time>
      </trkpt>
      <trkpt lat="40.15986" lon="20.48268">
        <ele>304.88000488281</ele>
        <time>2023-09-28T09:28:58.000Z</time>
      </trkpt>
      <trkpt lat="40.15972" lon="20.48269">
        <ele>305.83999633789</ele>
        <time>2023-09-28T09:28:57.000Z</time>
      </trkpt>
      <trkpt lat="40.15965" lon="20.48268">
        <ele>306.79998779297</ele>
        <time>2023-09-28T09:28:56.000Z</time>
      </trkpt>
      <trkpt lat="40.1595" lon="20.48266">
        <ele>307.76000976562</ele>
        <time>2023-09-28T09:28:55.000Z</time>
      </trkpt>
      <trkpt lat="40.15943" lon="20.48269">
        <ele>308.7200012207</ele>
        <time>2023-09-28T09:28:54.000Z</time>
      </trkpt>
      <trkpt lat="40.15936" lon="20.48277">
        <ele>310.16000366211</ele>
        <time>2023-09-28T09:28:53.000Z</time>
      </trkpt>
      <trkpt lat="40.1592" lon="20.48302">
        <ele>312.57000732422</ele>
        <time>2023-09-28T09:28:51.000Z</time>
      </trkpt>
      <trkpt lat="40.15915" lon="20.48311">
        <ele>313.5299987793</ele>
        <time>2023-09-28T09:28:50.000Z</time>
      </trkpt>
      <trkpt lat="40.15912" lon="20.48322">
        <ele>314.48999023438</ele>
        <time>2023-09-28T09:28:49.000Z</time>
      </trkpt>
      <trkpt lat="40.15912" lon="20.48331">
        <ele>314.9700012207</ele>
        <time>2023-09-28T09:28:48.000Z</time>
      </trkpt>
      <trkpt lat="40.15911" lon="20.48344">
        <ele>315.45001220703</ele>
        <time>2023-09-28T09:28:47.000Z</time>
      </trkpt>
      <trkpt lat="40.15909" lon="20.48352">
        <ele>315.45001220703</ele>
        <time>2023-09-28T09:28:46.000Z</time>
      </trkpt>
      <trkpt lat="40.15903" lon="20.48357">
        <ele>315.45001220703</ele>
        <time>2023-09-28T09:28:45.000Z</time>
      </trkpt>
      <trkpt lat="40.15893" lon="20.48357">
        <ele>315.92999267578</ele>
        <time>2023-09-28T09:28:44.000Z</time>
      </trkpt>
      <trkpt lat="40.15885" lon="20.48356">
        <ele>316.41000366211</ele>
        <time>2023-09-28T09:28:43.000Z</time>
      </trkpt>
      <trkpt lat="40.15866" lon="20.48352">
        <ele>317.85000610352</ele>
        <time>2023-09-28T09:28:42.000Z</time>
      </trkpt>
      <trkpt lat="40.15854" lon="20.48349">
        <ele>318.32998657227</ele>
        <time>2023-09-28T09:28:41.000Z</time>
      </trkpt>
      <trkpt lat="40.1578" lon="20.48344">
        <ele>316.89001464844</ele>
        <time>2023-09-28T09:28:37.000Z</time>
      </trkpt>
      <trkpt lat="40.15766" lon="20.48348">
        <ele>316.41000366211</ele>
        <time>2023-09-28T09:28:36.000Z</time>
      </trkpt>
      <trkpt lat="40.15752" lon="20.48354">
        <ele>315.92999267578</ele>
        <time>2023-09-28T09:28:35.000Z</time>
      </trkpt>
      <trkpt lat="40.15663" lon="20.48412">
        <ele>315.45001220703</ele>
        <time>2023-09-28T09:28:30.000Z</time>
      </trkpt>
      <trkpt lat="40.155" lon="20.48519">
        <ele>313.04998779297</ele>
        <time>2023-09-28T09:28:22.000Z</time>
      </trkpt>
      <trkpt lat="40.15344" lon="20.4859">
        <ele>307.76000976562</ele>
        <time>2023-09-28T09:28:13.000Z</time>
      </trkpt>
      <trkpt lat="40.15193" lon="20.48652">
        <ele>309.20001220703</ele>
        <time>2023-09-28T09:28:06.000Z</time>
      </trkpt>
      <trkpt lat="40.15176" lon="20.48656">
        <ele>309.20001220703</ele>
        <time>2023-09-28T09:28:05.000Z</time>
      </trkpt>
      <trkpt lat="40.1516" lon="20.48658">
        <ele>309.20001220703</ele>
        <time>2023-09-28T09:28:04.000Z</time>
      </trkpt>
      <trkpt lat="40.15124" lon="20.48656">
        <ele>309.67999267578</ele>
        <time>2023-09-28T09:28:02.000Z</time>
      </trkpt>
      <trkpt lat="40.14995" lon="20.48649">
        <ele>312.08999633789</ele>
        <time>2023-09-28T09:27:54.000Z</time>
      </trkpt>
      <trkpt lat="40.1496" lon="20.48648">
        <ele>312.08999633789</ele>
        <time>2023-09-28T09:27:52.000Z</time>
      </trkpt>
      <trkpt lat="40.14946" lon="20.48647">
        <ele>312.57000732422</ele>
        <time>2023-09-28T09:27:51.000Z</time>
      </trkpt>
      <trkpt lat="40.149" lon="20.48645">
        <ele>312.08999633789</ele>
        <time>2023-09-28T09:27:48.000Z</time>
      </trkpt>
      <trkpt lat="40.14884" lon="20.48645">
        <ele>311.60000610352</ele>
        <time>2023-09-28T09:27:47.000Z</time>
      </trkpt>
      <trkpt lat="40.14871" lon="20.48648">
        <ele>310.64001464844</ele>
        <time>2023-09-28T09:27:46.000Z</time>
      </trkpt>
      <trkpt lat="40.14859" lon="20.48653">
        <ele>310.16000366211</ele>
        <time>2023-09-28T09:27:45.000Z</time>
      </trkpt>
      <trkpt lat="40.14848" lon="20.48662">
        <ele>309.67999267578</ele>
        <time>2023-09-28T09:27:44.000Z</time>
      </trkpt>
      <trkpt lat="40.14839" lon="20.48674">
        <ele>308.7200012207</ele>
        <time>2023-09-28T09:27:43.000Z</time>
      </trkpt>
      <trkpt lat="40.14832" lon="20.4869">
        <ele>308.23999023438</ele>
        <time>2023-09-28T09:27:42.000Z</time>
      </trkpt>
      <trkpt lat="40.14827" lon="20.48703">
        <ele>307.76000976562</ele>
        <time>2023-09-28T09:27:41.000Z</time>
      </trkpt>
      <trkpt lat="40.14824" lon="20.48712">
        <ele>307.2799987793</ele>
        <time>2023-09-28T09:27:40.000Z</time>
      </trkpt>
      <trkpt lat="40.14805" lon="20.48825">
        <ele>304.88000488281</ele>
        <time>2023-09-28T09:27:34.000Z</time>
      </trkpt>
      <trkpt lat="40.14802" lon="20.48837">
        <ele>304.88000488281</ele>
        <time>2023-09-28T09:27:33.000Z</time>
      </trkpt>
      <trkpt lat="40.14797" lon="20.48848">
        <ele>305.35998535156</ele>
        <time>2023-09-28T09:27:32.000Z</time>
      </trkpt>
      <trkpt lat="40.14791" lon="20.48855">
        <ele>305.35998535156</ele>
        <time>2023-09-28T09:27:31.000Z</time>
      </trkpt>
      <trkpt lat="40.14784" lon="20.4886">
        <ele>305.83999633789</ele>
        <time>2023-09-28T09:27:30.000Z</time>
      </trkpt>
      <trkpt lat="40.14777" lon="20.4886">
        <ele>306.32000732422</ele>
        <time>2023-09-28T09:27:29.000Z</time>
      </trkpt>
      <trkpt lat="40.14769" lon="20.48855">
        <ele>306.32000732422</ele>
        <time>2023-09-28T09:27:28.000Z</time>
      </trkpt>
      <trkpt lat="40.14763" lon="20.4885">
        <ele>306.32000732422</ele>
        <time>2023-09-28T09:27:27.000Z</time>
      </trkpt>
      <trkpt lat="40.14749" lon="20.48836">
        <ele>307.2799987793</ele>
        <time>2023-09-28T09:27:26.000Z</time>
      </trkpt>
      <trkpt lat="40.14737" lon="20.4883">
        <ele>307.76000976562</ele>
        <time>2023-09-28T09:27:25.000Z</time>
      </trkpt>
      <trkpt lat="40.14725" lon="20.48826">
        <ele>308.23999023438</ele>
        <time>2023-09-28T09:27:24.000Z</time>
      </trkpt>
      <trkpt lat="40.14713" lon="20.48827">
        <ele>308.7200012207</ele>
        <time>2023-09-28T09:27:23.000Z</time>
      </trkpt>
      <trkpt lat="40.14703" lon="20.48833">
        <ele>309.67999267578</ele>
        <time>2023-09-28T09:27:22.000Z</time>
      </trkpt>
      <trkpt lat="40.14696" lon="20.48845">
        <ele>310.64001464844</ele>
        <time>2023-09-28T09:27:21.000Z</time>
      </trkpt>
      <trkpt lat="40.14692" lon="20.48852">
        <ele>310.64001464844</ele>
        <time>2023-09-28T09:27:20.000Z</time>
      </trkpt>
      <trkpt lat="40.14661" lon="20.48926">
        <ele>313.5299987793</ele>
        <time>2023-09-28T09:27:16.000Z</time>
      </trkpt>
      <trkpt lat="40.14548" lon="20.49187">
        <ele>318.80999755859</ele>
        <time>2023-09-28T09:27:06.000Z</time>
      </trkpt>
      <trkpt lat="40.14473" lon="20.49365">
        <ele>321.2200012207</ele>
        <time>2023-09-28T09:26:58.000Z</time>
      </trkpt>
      <trkpt lat="40.14438" lon="20.49446">
        <ele>325.05999755859</ele>
        <time>2023-09-28T09:26:54.000Z</time>
      </trkpt>
      <trkpt lat="40.14433" lon="20.49463">
        <ele>325.54000854492</ele>
        <time>2023-09-28T09:26:53.000Z</time>
      </trkpt>
      <trkpt lat="40.14432" lon="20.4948">
        <ele>326.5</ele>
        <time>2023-09-28T09:26:52.000Z</time>
      </trkpt>
      <trkpt lat="40.14434" lon="20.49499">
        <ele>327.4700012207</ele>
        <time>2023-09-28T09:26:51.000Z</time>
      </trkpt>
      <trkpt lat="40.14438" lon="20.49518">
        <ele>328.91000366211</ele>
        <time>2023-09-28T09:26:50.000Z</time>
      </trkpt>
      <trkpt lat="40.14445" lon="20.49538">
        <ele>330.35000610352</ele>
        <time>2023-09-28T09:26:49.000Z</time>
      </trkpt>
      <trkpt lat="40.14453" lon="20.49555">
        <ele>331.30999755859</ele>
        <time>2023-09-28T09:26:48.000Z</time>
      </trkpt>
      <trkpt lat="40.1446" lon="20.49568">
        <ele>331.79000854492</ele>
        <time>2023-09-28T09:26:47.000Z</time>
      </trkpt>
      <trkpt lat="40.14468" lon="20.49579">
        <ele>332.75</ele>
        <time>2023-09-28T09:26:46.000Z</time>
      </trkpt>
      <trkpt lat="40.14481" lon="20.49596">
        <ele>333.70999145508</ele>
        <time>2023-09-28T09:26:45.000Z</time>
      </trkpt>
      <trkpt lat="40.14491" lon="20.49609">
        <ele>333.70999145508</ele>
        <time>2023-09-28T09:26:44.000Z</time>
      </trkpt>
      <trkpt lat="40.14497" lon="20.49623">
        <ele>333.70999145508</ele>
        <time>2023-09-28T09:26:43.000Z</time>
      </trkpt>
      <trkpt lat="40.14498" lon="20.49639">
        <ele>334.20001220703</ele>
        <time>2023-09-28T09:26:42.000Z</time>
      </trkpt>
      <trkpt lat="40.14497" lon="20.49652">
        <ele>335.16000366211</ele>
        <time>2023-09-28T09:26:41.000Z</time>
      </trkpt>
      <trkpt lat="40.14494" lon="20.49676">
        <ele>336.60000610352</ele>
        <time>2023-09-28T09:26:40.000Z</time>
      </trkpt>
      <trkpt lat="40.14492" lon="20.49695">
        <ele>337.07998657227</ele>
        <time>2023-09-28T09:26:39.000Z</time>
      </trkpt>
      <trkpt lat="40.14493" lon="20.49712">
        <ele>337.55999755859</ele>
        <time>2023-09-28T09:26:38.000Z</time>
      </trkpt>
      <trkpt lat="40.14496" lon="20.49729">
        <ele>338.51998901367</ele>
        <time>2023-09-28T09:26:37.000Z</time>
      </trkpt>
      <trkpt lat="40.14501" lon="20.49743">
        <ele>339</ele>
        <time>2023-09-28T09:26:36.000Z</time>
      </trkpt>
      <trkpt lat="40.14505" lon="20.4975">
        <ele>339.48001098633</ele>
        <time>2023-09-28T09:26:35.000Z</time>
      </trkpt>
      <trkpt lat="40.14513" lon="20.49765">
        <ele>339.95999145508</ele>
        <time>2023-09-28T09:26:34.000Z</time>
      </trkpt>
      <trkpt lat="40.14516" lon="20.49775">
        <ele>340.44000244141</ele>
        <time>2023-09-28T09:26:33.000Z</time>
      </trkpt>
      <trkpt lat="40.14513" lon="20.49789">
        <ele>340.92001342773</ele>
        <time>2023-09-28T09:26:32.000Z</time>
      </trkpt>
      <trkpt lat="40.14506" lon="20.49803">
        <ele>341.41000366211</ele>
        <time>2023-09-28T09:26:31.000Z</time>
      </trkpt>
      <trkpt lat="40.14497" lon="20.49815">
        <ele>342.36999511719</ele>
        <time>2023-09-28T09:26:30.000Z</time>
      </trkpt>
      <trkpt lat="40.1449" lon="20.49821">
        <ele>342.85000610352</ele>
        <time>2023-09-28T09:26:29.000Z</time>
      </trkpt>
      <trkpt lat="40.14457" lon="20.49854">
        <ele>346.20999145508</ele>
        <time>2023-09-28T09:26:27.000Z</time>
      </trkpt>
      <trkpt lat="40.14447" lon="20.49868">
        <ele>346.69000244141</ele>
        <time>2023-09-28T09:26:26.000Z</time>
      </trkpt>
      <trkpt lat="40.14439" lon="20.49884">
        <ele>347.64999389648</ele>
        <time>2023-09-28T09:26:25.000Z</time>
      </trkpt>
      <trkpt lat="40.14435" lon="20.49901">
        <ele>348.13000488281</ele>
        <time>2023-09-28T09:26:24.000Z</time>
      </trkpt>
      <trkpt lat="40.14434" lon="20.49919">
        <ele>348.61999511719</ele>
        <time>2023-09-28T09:26:23.000Z</time>
      </trkpt>
      <trkpt lat="40.14436" lon="20.49936">
        <ele>349.10000610352</ele>
        <time>2023-09-28T09:26:22.000Z</time>
      </trkpt>
      <trkpt lat="40.14439" lon="20.49955">
        <ele>349.10000610352</ele>
        <time>2023-09-28T09:26:21.000Z</time>
      </trkpt>
      <trkpt lat="40.14438" lon="20.49974">
        <ele>349.10000610352</ele>
        <time>2023-09-28T09:26:20.000Z</time>
      </trkpt>
      <trkpt lat="40.14434" lon="20.4999">
        <ele>350.05999755859</ele>
        <time>2023-09-28T09:26:19.000Z</time>
      </trkpt>
      <trkpt lat="40.14428" lon="20.50012">
        <ele>351.01998901367</ele>
        <time>2023-09-28T09:26:18.000Z</time>
      </trkpt>
      <trkpt lat="40.14424" lon="20.50031">
        <ele>352.45999145508</ele>
        <time>2023-09-28T09:26:17.000Z</time>
      </trkpt>
      <trkpt lat="40.14422" lon="20.50051">
        <ele>353.89999389648</ele>
        <time>2023-09-28T09:26:16.000Z</time>
      </trkpt>
      <trkpt lat="40.14422" lon="20.50067">
        <ele>354.85998535156</ele>
        <time>2023-09-28T09:26:15.000Z</time>
      </trkpt>
      <trkpt lat="40.14424" lon="20.50097">
        <ele>356.79000854492</ele>
        <time>2023-09-28T09:26:13.000Z</time>
      </trkpt>
      <trkpt lat="40.14425" lon="20.50134">
        <ele>359.19000244141</ele>
        <time>2023-09-28T09:26:12.000Z</time>
      </trkpt>
      <trkpt lat="40.14429" lon="20.50152">
        <ele>361.10998535156</ele>
        <time>2023-09-28T09:26:11.000Z</time>
      </trkpt>
      <trkpt lat="40.14434" lon="20.50166">
        <ele>362.07000732422</ele>
        <time>2023-09-28T09:26:10.000Z</time>
      </trkpt>
      <trkpt lat="40.14439" lon="20.50178">
        <ele>363.04000854492</ele>
        <time>2023-09-28T09:26:09.000Z</time>
      </trkpt>
      <trkpt lat="40.1445" lon="20.502">
        <ele>364</ele>
        <time>2023-09-28T09:26:08.000Z</time>
      </trkpt>
      <trkpt lat="40.1446" lon="20.50218">
        <ele>365.44000244141</ele>
        <time>2023-09-28T09:26:07.000Z</time>
      </trkpt>
      <trkpt lat="40.14471" lon="20.50236">
        <ele>366.88000488281</ele>
        <time>2023-09-28T09:26:06.000Z</time>
      </trkpt>
      <trkpt lat="40.14477" lon="20.50253">
        <ele>367.35998535156</ele>
        <time>2023-09-28T09:26:05.000Z</time>
      </trkpt>
      <trkpt lat="40.14478" lon="20.50272">
        <ele>368.79998779297</ele>
        <time>2023-09-28T09:26:04.000Z</time>
      </trkpt>
      <trkpt lat="40.14479" lon="20.50337">
        <ele>373.13000488281</ele>
        <time>2023-09-28T09:26:01.000Z</time>
      </trkpt>
      <trkpt lat="40.1448" lon="20.50355">
        <ele>374.08999633789</ele>
        <time>2023-09-28T09:26:00.000Z</time>
      </trkpt>
      <trkpt lat="40.14483" lon="20.50371">
        <ele>374.57000732422</ele>
        <time>2023-09-28T09:25:59.000Z</time>
      </trkpt>
      <trkpt lat="40.14488" lon="20.50385">
        <ele>375.04998779297</ele>
        <time>2023-09-28T09:25:58.000Z</time>
      </trkpt>
      <trkpt lat="40.14495" lon="20.50395">
        <ele>375.5299987793</ele>
        <time>2023-09-28T09:25:57.000Z</time>
      </trkpt>
      <trkpt lat="40.14505" lon="20.50401">
        <ele>375.5299987793</ele>
        <time>2023-09-28T09:25:56.000Z</time>
      </trkpt>
      <trkpt lat="40.14513" lon="20.50404">
        <ele>376.01000976562</ele>
        <time>2023-09-28T09:25:55.000Z</time>
      </trkpt>
      <trkpt lat="40.14526" lon="20.50406">
        <ele>376.01000976562</ele>
        <time>2023-09-28T09:25:54.000Z</time>
      </trkpt>
      <trkpt lat="40.14533" lon="20.50411">
        <ele>376.01000976562</ele>
        <time>2023-09-28T09:25:53.000Z</time>
      </trkpt>
      <trkpt lat="40.14537" lon="20.5042">
        <ele>376.01000976562</ele>
        <time>2023-09-28T09:25:52.000Z</time>
      </trkpt>
      <trkpt lat="40.14536" lon="20.5043">
        <ele>376.9700012207</ele>
        <time>2023-09-28T09:25:51.000Z</time>
      </trkpt>
      <trkpt lat="40.14535" lon="20.50435">
        <ele>376.9700012207</ele>
        <time>2023-09-28T09:25:50.000Z</time>
      </trkpt>
      <trkpt lat="40.14527" lon="20.50452">
        <ele>377.45001220703</ele>
        <time>2023-09-28T09:25:49.000Z</time>
      </trkpt>
      <trkpt lat="40.14521" lon="20.50459">
        <ele>377.45001220703</ele>
        <time>2023-09-28T09:25:48.000Z</time>
      </trkpt>
      <trkpt lat="40.14513" lon="20.50461">
        <ele>377.94000244141</ele>
        <time>2023-09-28T09:25:47.000Z</time>
      </trkpt>
      <trkpt lat="40.14503" lon="20.50458">
        <ele>378.89999389648</ele>
        <time>2023-09-28T09:25:46.000Z</time>
      </trkpt>
      <trkpt lat="40.14499" lon="20.50456">
        <ele>379.38000488281</ele>
        <time>2023-09-28T09:25:45.000Z</time>
      </trkpt>
      <trkpt lat="40.14482" lon="20.50444">
        <ele>380.82000732422</ele>
        <time>2023-09-28T09:25:44.000Z</time>
      </trkpt>
      <trkpt lat="40.14473" lon="20.50438">
        <ele>381.29998779297</ele>
        <time>2023-09-28T09:25:43.000Z</time>
      </trkpt>
      <trkpt lat="40.14464" lon="20.50436">
        <ele>382.26000976562</ele>
        <time>2023-09-28T09:25:42.000Z</time>
      </trkpt>
      <trkpt lat="40.14457" lon="20.50439">
        <ele>382.73999023438</ele>
        <time>2023-09-28T09:25:41.000Z</time>
      </trkpt>
      <trkpt lat="40.14447" lon="20.50447">
        <ele>383.70001220703</ele>
        <time>2023-09-28T09:25:40.000Z</time>
      </trkpt>
      <trkpt lat="40.14444" lon="20.5045">
        <ele>384.17999267578</ele>
        <time>2023-09-28T09:25:39.000Z</time>
      </trkpt>
      <trkpt lat="40.14401" lon="20.505">
        <ele>388.98999023438</ele>
        <time>2023-09-28T09:25:36.000Z</time>
      </trkpt>
      <trkpt lat="40.14385" lon="20.50516">
        <ele>390.42999267578</ele>
        <time>2023-09-28T09:25:35.000Z</time>
      </trkpt>
      <trkpt lat="40.14375" lon="20.50524">
        <ele>390.91000366211</ele>
        <time>2023-09-28T09:25:34.000Z</time>
      </trkpt>
      <trkpt lat="40.14366" lon="20.50529">
        <ele>390.91000366211</ele>
        <time>2023-09-28T09:25:33.000Z</time>
      </trkpt>
      <trkpt lat="40.14357" lon="20.50528">
        <ele>390.91000366211</ele>
        <time>2023-09-28T09:25:32.000Z</time>
      </trkpt>
      <trkpt lat="40.1435" lon="20.50523">
        <ele>391.39001464844</ele>
        <time>2023-09-28T09:25:31.000Z</time>
      </trkpt>
      <trkpt lat="40.14347" lon="20.50518">
        <ele>391.86999511719</ele>
        <time>2023-09-28T09:25:30.000Z</time>
      </trkpt>
      <trkpt lat="40.14337" lon="20.50503">
        <ele>393.32000732422</ele>
        <time>2023-09-28T09:25:29.000Z</time>
      </trkpt>
      <trkpt lat="40.14329" lon="20.50495">
        <ele>394.2799987793</ele>
        <time>2023-09-28T09:25:28.000Z</time>
      </trkpt>
      <trkpt lat="40.1432" lon="20.5049">
        <ele>394.76000976562</ele>
        <time>2023-09-28T09:25:27.000Z</time>
      </trkpt>
      <trkpt lat="40.14311" lon="20.50485">
        <ele>395.7200012207</ele>
        <time>2023-09-28T09:25:26.000Z</time>
      </trkpt>
      <trkpt lat="40.14305" lon="20.50482">
        <ele>396.20001220703</ele>
        <time>2023-09-28T09:25:25.000Z</time>
      </trkpt>
      <trkpt lat="40.143" lon="20.50475">
        <ele>396.67999267578</ele>
        <time>2023-09-28T09:25:24.000Z</time>
      </trkpt>
      <trkpt lat="40.14299" lon="20.50467">
        <ele>398.60000610352</ele>
        <time>2023-09-28T09:25:23.000Z</time>
      </trkpt>
      <trkpt lat="40.14299" lon="20.50459">
        <ele>399.07998657227</ele>
        <time>2023-09-28T09:25:22.000Z</time>
      </trkpt>
      <trkpt lat="40.14302" lon="20.50445">
        <ele>400.04998779297</ele>
        <time>2023-09-28T09:25:21.000Z</time>
      </trkpt>
      <trkpt lat="40.14302" lon="20.50432">
        <ele>401.01000976562</ele>
        <time>2023-09-28T09:25:20.000Z</time>
      </trkpt>
      <trkpt lat="40.14299" lon="20.50419">
        <ele>401.48999023438</ele>
        <time>2023-09-28T09:25:19.000Z</time>
      </trkpt>
      <trkpt lat="40.14294" lon="20.50406">
        <ele>402.45001220703</ele>
        <time>2023-09-28T09:25:18.000Z</time>
      </trkpt>
      <trkpt lat="40.14289" lon="20.50394">
        <ele>402.92999267578</ele>
        <time>2023-09-28T09:25:17.000Z</time>
      </trkpt>
      <trkpt lat="40.14283" lon="20.50383">
        <ele>403.41000366211</ele>
        <time>2023-09-28T09:25:16.000Z</time>
      </trkpt>
      <trkpt lat="40.14277" lon="20.50375">
        <ele>403.89001464844</ele>
        <time>2023-09-28T09:25:15.000Z</time>
      </trkpt>
      <trkpt lat="40.1427" lon="20.50367">
        <ele>404.36999511719</ele>
        <time>2023-09-28T09:25:14.000Z</time>
      </trkpt>
      <trkpt lat="40.14265" lon="20.50362">
        <ele>404.85000610352</ele>
        <time>2023-09-28T09:25:13.000Z</time>
      </trkpt>
      <trkpt lat="40.14255" lon="20.50353">
        <ele>406.29000854492</ele>
        <time>2023-09-28T09:25:12.000Z</time>
      </trkpt>
      <trkpt lat="40.14249" lon="20.50344">
        <ele>406.76998901367</ele>
        <time>2023-09-28T09:25:11.000Z</time>
      </trkpt>
      <trkpt lat="40.14247" lon="20.50335">
        <ele>407.73999023438</ele>
        <time>2023-09-28T09:25:10.000Z</time>
      </trkpt>
      <trkpt lat="40.14249" lon="20.50323">
        <ele>408.70001220703</ele>
        <time>2023-09-28T09:25:09.000Z</time>
      </trkpt>
      <trkpt lat="40.14254" lon="20.5031">
        <ele>409.66000366211</ele>
        <time>2023-09-28T09:25:08.000Z</time>
      </trkpt>
      <trkpt lat="40.14258" lon="20.50297">
        <ele>410.14001464844</ele>
        <time>2023-09-28T09:25:07.000Z</time>
      </trkpt>
      <trkpt lat="40.1426" lon="20.50284">
        <ele>411.10000610352</ele>
        <time>2023-09-28T09:25:06.000Z</time>
      </trkpt>
      <trkpt lat="40.14259" lon="20.50269">
        <ele>412.05999755859</ele>
        <time>2023-09-28T09:25:05.000Z</time>
      </trkpt>
      <trkpt lat="40.14256" lon="20.50252">
        <ele>412.54000854492</ele>
        <time>2023-09-28T09:25:04.000Z</time>
      </trkpt>
      <trkpt lat="40.14254" lon="20.50246">
        <ele>413.01998901367</ele>
        <time>2023-09-28T09:25:03.000Z</time>
      </trkpt>
      <trkpt lat="40.14248" lon="20.50222">
        <ele>413.98001098633</ele>
        <time>2023-09-28T09:25:02.000Z</time>
      </trkpt>
      <trkpt lat="40.14246" lon="20.50209">
        <ele>414.95001220703</ele>
        <time>2023-09-28T09:25:01.000Z</time>
      </trkpt>
      <trkpt lat="40.14243" lon="20.50191">
        <ele>415.91000366211</ele>
        <time>2023-09-28T09:25:00.000Z</time>
      </trkpt>
      <trkpt lat="40.14241" lon="20.50168">
        <ele>417.82998657227</ele>
        <time>2023-09-28T09:24:58.000Z</time>
      </trkpt>
      <trkpt lat="40.14239" lon="20.50158">
        <ele>418.30999755859</ele>
        <time>2023-09-28T09:24:57.000Z</time>
      </trkpt>
      <trkpt lat="40.14235" lon="20.50152">
        <ele>419.75</ele>
        <time>2023-09-28T09:24:56.000Z</time>
      </trkpt>
      <trkpt lat="40.14229" lon="20.50152">
        <ele>420.70999145508</ele>
        <time>2023-09-28T09:24:55.000Z</time>
      </trkpt>
      <trkpt lat="40.14225" lon="20.50157">
        <ele>421.67999267578</ele>
        <time>2023-09-28T09:24:54.000Z</time>
      </trkpt>
      <trkpt lat="40.14222" lon="20.50165">
        <ele>422.64001464844</ele>
        <time>2023-09-28T09:24:53.000Z</time>
      </trkpt>
      <trkpt lat="40.14217" lon="20.50179">
        <ele>423.60000610352</ele>
        <time>2023-09-28T09:24:52.000Z</time>
      </trkpt>
      <trkpt lat="40.14211" lon="20.50195">
        <ele>424.55999755859</ele>
        <time>2023-09-28T09:24:51.000Z</time>
      </trkpt>
      <trkpt lat="40.14204" lon="20.5021">
        <ele>425.51998901367</ele>
        <time>2023-09-28T09:24:50.000Z</time>
      </trkpt>
      <trkpt lat="40.14194" lon="20.50229">
        <ele>426</ele>
        <time>2023-09-28T09:24:49.000Z</time>
      </trkpt>
      <trkpt lat="40.14184" lon="20.50243">
        <ele>426.48001098633</ele>
        <time>2023-09-28T09:24:48.000Z</time>
      </trkpt>
      <trkpt lat="40.14175" lon="20.50255">
        <ele>426.48001098633</ele>
        <time>2023-09-28T09:24:47.000Z</time>
      </trkpt>
      <trkpt lat="40.14171" lon="20.50259">
        <ele>426.48001098633</ele>
        <time>2023-09-28T09:24:46.000Z</time>
      </trkpt>
      <trkpt lat="40.14154" lon="20.50276">
        <ele>427.44000244141</ele>
        <time>2023-09-28T09:24:45.000Z</time>
      </trkpt>
      <trkpt lat="40.14148" lon="20.50286">
        <ele>427.92001342773</ele>
        <time>2023-09-28T09:24:44.000Z</time>
      </trkpt>
      <trkpt lat="40.1414" lon="20.50302">
        <ele>426.95999145508</ele>
        <time>2023-09-28T09:24:43.000Z</time>
      </trkpt>
      <trkpt lat="40.14131" lon="20.50314">
        <ele>427.44000244141</ele>
        <time>2023-09-28T09:24:42.000Z</time>
      </trkpt>
      <trkpt lat="40.14121" lon="20.50322">
        <ele>427.44000244141</ele>
        <time>2023-09-28T09:24:41.000Z</time>
      </trkpt>
      <trkpt lat="40.14109" lon="20.50328">
        <ele>426.95999145508</ele>
        <time>2023-09-28T09:24:40.000Z</time>
      </trkpt>
      <trkpt lat="40.14096" lon="20.50331">
        <ele>425.51998901367</ele>
        <time>2023-09-28T09:24:39.000Z</time>
      </trkpt>
      <trkpt lat="40.14082" lon="20.50329">
        <ele>425.04000854492</ele>
        <time>2023-09-28T09:24:38.000Z</time>
      </trkpt>
      <trkpt lat="40.14074" lon="20.50326">
        <ele>425.04000854492</ele>
        <time>2023-09-28T09:24:37.000Z</time>
      </trkpt>
      <trkpt lat="40.14034" lon="20.50303">
        <ele>424.55999755859</ele>
        <time>2023-09-28T09:24:34.000Z</time>
      </trkpt>
      <trkpt lat="40.14026" lon="20.50295">
        <ele>424.55999755859</ele>
        <time>2023-09-28T09:24:33.000Z</time>
      </trkpt>
      <trkpt lat="40.14019" lon="20.50286">
        <ele>424.55999755859</ele>
        <time>2023-09-28T09:24:32.000Z</time>
      </trkpt>
      <trkpt lat="40.14011" lon="20.50277">
        <ele>424.55999755859</ele>
        <time>2023-09-28T09:24:31.000Z</time>
      </trkpt>
      <trkpt lat="40.14003" lon="20.50277">
        <ele>424.07998657227</ele>
        <time>2023-09-28T09:24:30.000Z</time>
      </trkpt>
      <trkpt lat="40.13995" lon="20.5028">
        <ele>424.07998657227</ele>
        <time>2023-09-28T09:24:29.000Z</time>
      </trkpt>
      <trkpt lat="40.13988" lon="20.50286">
        <ele>424.07998657227</ele>
        <time>2023-09-28T09:24:28.000Z</time>
      </trkpt>
      <trkpt lat="40.13976" lon="20.50297">
        <ele>424.07998657227</ele>
        <time>2023-09-28T09:24:27.000Z</time>
      </trkpt>
      <trkpt lat="40.13966" lon="20.50305">
        <ele>424.07998657227</ele>
        <time>2023-09-28T09:24:26.000Z</time>
      </trkpt>
      <trkpt lat="40.13957" lon="20.5031">
        <ele>424.55999755859</ele>
        <time>2023-09-28T09:24:25.000Z</time>
      </trkpt>
      <trkpt lat="40.13941" lon="20.50315">
        <ele>425.04000854492</ele>
        <time>2023-09-28T09:24:24.000Z</time>
      </trkpt>
      <trkpt lat="40.1393" lon="20.5032">
        <ele>425.51998901367</ele>
        <time>2023-09-28T09:24:23.000Z</time>
      </trkpt>
      <trkpt lat="40.13918" lon="20.50328">
        <ele>425.51998901367</ele>
        <time>2023-09-28T09:24:22.000Z</time>
      </trkpt>
      <trkpt lat="40.13908" lon="20.50337">
        <ele>426</ele>
        <time>2023-09-28T09:24:21.000Z</time>
      </trkpt>
      <trkpt lat="40.139" lon="20.50347">
        <ele>426.48001098633</ele>
        <time>2023-09-28T09:24:20.000Z</time>
      </trkpt>
      <trkpt lat="40.13895" lon="20.50359">
        <ele>426.48001098633</ele>
        <time>2023-09-28T09:24:19.000Z</time>
      </trkpt>
      <trkpt lat="40.13893" lon="20.50371">
        <ele>426.48001098633</ele>
        <time>2023-09-28T09:24:18.000Z</time>
      </trkpt>
      <trkpt lat="40.13896" lon="20.50383">
        <ele>426.48001098633</ele>
        <time>2023-09-28T09:24:17.000Z</time>
      </trkpt>
      <trkpt lat="40.13902" lon="20.50395">
        <ele>426.48001098633</ele>
        <time>2023-09-28T09:24:16.000Z</time>
      </trkpt>
      <trkpt lat="40.1391" lon="20.50405">
        <ele>426.48001098633</ele>
        <time>2023-09-28T09:24:15.000Z</time>
      </trkpt>
      <trkpt lat="40.13921" lon="20.50411">
        <ele>426.48001098633</ele>
        <time>2023-09-28T09:24:14.000Z</time>
      </trkpt>
      <trkpt lat="40.13935" lon="20.50415">
        <ele>425.51998901367</ele>
        <time>2023-09-28T09:24:13.000Z</time>
      </trkpt>
      <trkpt lat="40.13948" lon="20.5042">
        <ele>426</ele>
        <time>2023-09-28T09:24:12.000Z</time>
      </trkpt>
      <trkpt lat="40.1396" lon="20.50427">
        <ele>426</ele>
        <time>2023-09-28T09:24:11.000Z</time>
      </trkpt>
      <trkpt lat="40.1397" lon="20.50436">
        <ele>426</ele>
        <time>2023-09-28T09:24:10.000Z</time>
      </trkpt>
      <trkpt lat="40.13978" lon="20.50447">
        <ele>425.51998901367</ele>
        <time>2023-09-28T09:24:09.000Z</time>
      </trkpt>
      <trkpt lat="40.13982" lon="20.50462">
        <ele>425.04000854492</ele>
        <time>2023-09-28T09:24:08.000Z</time>
      </trkpt>
      <trkpt lat="40.13982" lon="20.50472">
        <ele>425.04000854492</ele>
        <time>2023-09-28T09:24:07.000Z</time>
      </trkpt>
      <trkpt lat="40.13982" lon="20.50495">
        <ele>425.04000854492</ele>
        <time>2023-09-28T09:24:06.000Z</time>
      </trkpt>
      <trkpt lat="40.13984" lon="20.50509">
        <ele>424.55999755859</ele>
        <time>2023-09-28T09:24:05.000Z</time>
      </trkpt>
      <trkpt lat="40.13988" lon="20.50526">
        <ele>424.55999755859</ele>
        <time>2023-09-28T09:24:04.000Z</time>
      </trkpt>
      <trkpt lat="40.13989" lon="20.5054">
        <ele>425.04000854492</ele>
        <time>2023-09-28T09:24:03.000Z</time>
      </trkpt>
      <trkpt lat="40.13985" lon="20.50554">
        <ele>426</ele>
        <time>2023-09-28T09:24:02.000Z</time>
      </trkpt>
      <trkpt lat="40.13979" lon="20.50567">
        <ele>426.48001098633</ele>
        <time>2023-09-28T09:24:01.000Z</time>
      </trkpt>
      <trkpt lat="40.1397" lon="20.50578">
        <ele>426.95999145508</ele>
        <time>2023-09-28T09:24:00.000Z</time>
      </trkpt>
      <trkpt lat="40.13959" lon="20.50586">
        <ele>426.95999145508</ele>
        <time>2023-09-28T09:23:59.000Z</time>
      </trkpt>
      <trkpt lat="40.13947" lon="20.50588">
        <ele>426.95999145508</ele>
        <time>2023-09-28T09:23:58.000Z</time>
      </trkpt>
      <trkpt lat="40.13935" lon="20.50586">
        <ele>426.48001098633</ele>
        <time>2023-09-28T09:23:57.000Z</time>
      </trkpt>
      <trkpt lat="40.13923" lon="20.50582">
        <ele>426.48001098633</ele>
        <time>2023-09-28T09:23:56.000Z</time>
      </trkpt>
      <trkpt lat="40.13911" lon="20.5058">
        <ele>426</ele>
        <time>2023-09-28T09:23:55.000Z</time>
      </trkpt>
      <trkpt lat="40.13902" lon="20.50584">
        <ele>425.51998901367</ele>
        <time>2023-09-28T09:23:54.000Z</time>
      </trkpt>
      <trkpt lat="40.13895" lon="20.50592">
        <ele>425.51998901367</ele>
        <time>2023-09-28T09:23:53.000Z</time>
      </trkpt>
      <trkpt lat="40.13893" lon="20.50602">
        <ele>425.04000854492</ele>
        <time>2023-09-28T09:23:52.000Z</time>
      </trkpt>
      <trkpt lat="40.13895" lon="20.50613">
        <ele>425.04000854492</ele>
        <time>2023-09-28T09:23:51.000Z</time>
      </trkpt>
      <trkpt lat="40.13898" lon="20.50621">
        <ele>424.55999755859</ele>
        <time>2023-09-28T09:23:50.000Z</time>
      </trkpt>
      <trkpt lat="40.13908" lon="20.50642">
        <ele>424.07998657227</ele>
        <time>2023-09-28T09:23:49.000Z</time>
      </trkpt>
      <trkpt lat="40.13916" lon="20.50651">
        <ele>423.11999511719</ele>
        <time>2023-09-28T09:23:48.000Z</time>
      </trkpt>
      <trkpt lat="40.13927" lon="20.50657">
        <ele>422.64001464844</ele>
        <time>2023-09-28T09:23:47.000Z</time>
      </trkpt>
      <trkpt lat="40.13938" lon="20.5066">
        <ele>422.16000366211</ele>
        <time>2023-09-28T09:23:46.000Z</time>
      </trkpt>
      <trkpt lat="40.13952" lon="20.50659">
        <ele>421.67999267578</ele>
        <time>2023-09-28T09:23:45.000Z</time>
      </trkpt>
      <trkpt lat="40.13964" lon="20.50659">
        <ele>420.70999145508</ele>
        <time>2023-09-28T09:23:44.000Z</time>
      </trkpt>
      <trkpt lat="40.13973" lon="20.50661">
        <ele>420.23001098633</ele>
        <time>2023-09-28T09:23:43.000Z</time>
      </trkpt>
      <trkpt lat="40.1398" lon="20.50666">
        <ele>419.75</ele>
        <time>2023-09-28T09:23:42.000Z</time>
      </trkpt>
      <trkpt lat="40.13982" lon="20.50676">
        <ele>418.79000854492</ele>
        <time>2023-09-28T09:23:41.000Z</time>
      </trkpt>
      <trkpt lat="40.13979" lon="20.50687">
        <ele>418.79000854492</ele>
        <time>2023-09-28T09:23:40.000Z</time>
      </trkpt>
      <trkpt lat="40.13976" lon="20.50693">
        <ele>418.30999755859</ele>
        <time>2023-09-28T09:23:39.000Z</time>
      </trkpt>
      <trkpt lat="40.13967" lon="20.50706">
        <ele>417.82998657227</ele>
        <time>2023-09-28T09:23:38.000Z</time>
      </trkpt>
      <trkpt lat="40.13964" lon="20.50718">
        <ele>416.86999511719</ele>
        <time>2023-09-28T09:23:37.000Z</time>
      </trkpt>
      <trkpt lat="40.13963" lon="20.50726">
        <ele>416.39001464844</ele>
        <time>2023-09-28T09:23:36.000Z</time>
      </trkpt>
      <trkpt lat="40.1396" lon="20.50744">
        <ele>414.4700012207</ele>
        <time>2023-09-28T09:23:35.000Z</time>
      </trkpt>
      <trkpt lat="40.13955" lon="20.50753">
        <ele>413.5</ele>
        <time>2023-09-28T09:23:34.000Z</time>
      </trkpt>
      <trkpt lat="40.13945" lon="20.50759">
        <ele>413.01998901367</ele>
        <time>2023-09-28T09:23:33.000Z</time>
      </trkpt>
      <trkpt lat="40.13933" lon="20.50764">
        <ele>412.05999755859</ele>
        <time>2023-09-28T09:23:32.000Z</time>
      </trkpt>
      <trkpt lat="40.13914" lon="20.50772">
        <ele>411.10000610352</ele>
        <time>2023-09-28T09:23:30.000Z</time>
      </trkpt>
      <trkpt lat="40.13906" lon="20.50777">
        <ele>410.14001464844</ele>
        <time>2023-09-28T09:23:29.000Z</time>
      </trkpt>
      <trkpt lat="40.13902" lon="20.50783">
        <ele>409.17999267578</ele>
        <time>2023-09-28T09:23:28.000Z</time>
      </trkpt>
      <trkpt lat="40.13902" lon="20.50794">
        <ele>407.73999023438</ele>
        <time>2023-09-28T09:23:27.000Z</time>
      </trkpt>
      <trkpt lat="40.13906" lon="20.50807">
        <ele>407.26000976562</ele>
        <time>2023-09-28T09:23:26.000Z</time>
      </trkpt>
      <trkpt lat="40.13911" lon="20.5082">
        <ele>406.76998901367</ele>
        <time>2023-09-28T09:23:25.000Z</time>
      </trkpt>
      <trkpt lat="40.13913" lon="20.50829">
        <ele>406.29000854492</ele>
        <time>2023-09-28T09:23:24.000Z</time>
      </trkpt>
      <trkpt lat="40.13912" lon="20.50839">
        <ele>405.80999755859</ele>
        <time>2023-09-28T09:23:23.000Z</time>
      </trkpt>
      <trkpt lat="40.13907" lon="20.50844">
        <ele>405.32998657227</ele>
        <time>2023-09-28T09:23:22.000Z</time>
      </trkpt>
      <trkpt lat="40.13899" lon="20.50847">
        <ele>405.32998657227</ele>
        <time>2023-09-28T09:23:21.000Z</time>
      </trkpt>
      <trkpt lat="40.1389" lon="20.50846">
        <ele>404.36999511719</ele>
        <time>2023-09-28T09:23:20.000Z</time>
      </trkpt>
      <trkpt lat="40.1388" lon="20.50843">
        <ele>403.41000366211</ele>
        <time>2023-09-28T09:23:19.000Z</time>
      </trkpt>
      <trkpt lat="40.13874" lon="20.50844">
        <ele>402.92999267578</ele>
        <time>2023-09-28T09:23:18.000Z</time>
      </trkpt>
      <trkpt lat="40.13867" lon="20.50851">
        <ele>401.9700012207</ele>
        <time>2023-09-28T09:23:17.000Z</time>
      </trkpt>
      <trkpt lat="40.13858" lon="20.50864">
        <ele>401.48999023438</ele>
        <time>2023-09-28T09:23:16.000Z</time>
      </trkpt>
      <trkpt lat="40.13849" lon="20.50874">
        <ele>401.01000976562</ele>
        <time>2023-09-28T09:23:15.000Z</time>
      </trkpt>
      <trkpt lat="40.1384" lon="20.50879">
        <ele>400.5299987793</ele>
        <time>2023-09-28T09:23:14.000Z</time>
      </trkpt>
      <trkpt lat="40.13832" lon="20.50884">
        <ele>400.04998779297</ele>
        <time>2023-09-28T09:23:13.000Z</time>
      </trkpt>
      <trkpt lat="40.13826" lon="20.5089">
        <ele>398.60000610352</ele>
        <time>2023-09-28T09:23:12.000Z</time>
      </trkpt>
      <trkpt lat="40.13825" lon="20.50898">
        <ele>397.64001464844</ele>
        <time>2023-09-28T09:23:11.000Z</time>
      </trkpt>
      <trkpt lat="40.13828" lon="20.50906">
        <ele>396.20001220703</ele>
        <time>2023-09-28T09:23:10.000Z</time>
      </trkpt>
      <trkpt lat="40.1383" lon="20.50911">
        <ele>395.7200012207</ele>
        <time>2023-09-28T09:23:09.000Z</time>
      </trkpt>
      <trkpt lat="40.1384" lon="20.50932">
        <ele>395.23999023438</ele>
        <time>2023-09-28T09:23:08.000Z</time>
      </trkpt>
      <trkpt lat="40.13847" lon="20.50946">
        <ele>393.79998779297</ele>
        <time>2023-09-28T09:23:07.000Z</time>
      </trkpt>
      <trkpt lat="40.13857" lon="20.50955">
        <ele>392.83999633789</ele>
        <time>2023-09-28T09:23:06.000Z</time>
      </trkpt>
      <trkpt lat="40.13869" lon="20.50961">
        <ele>392.35998535156</ele>
        <time>2023-09-28T09:23:05.000Z</time>
      </trkpt>
      <trkpt lat="40.13877" lon="20.50964">
        <ele>392.35998535156</ele>
        <time>2023-09-28T09:23:04.000Z</time>
      </trkpt>
      <trkpt lat="40.13892" lon="20.50965">
        <ele>391.86999511719</ele>
        <time>2023-09-28T09:23:03.000Z</time>
      </trkpt>
      <trkpt lat="40.13906" lon="20.50965">
        <ele>391.86999511719</ele>
        <time>2023-09-28T09:23:02.000Z</time>
      </trkpt>
      <trkpt lat="40.13917" lon="20.50966">
        <ele>391.86999511719</ele>
        <time>2023-09-28T09:23:01.000Z</time>
      </trkpt>
      <trkpt lat="40.13923" lon="20.50972">
        <ele>391.86999511719</ele>
        <time>2023-09-28T09:23:00.000Z</time>
      </trkpt>
      <trkpt lat="40.13926" lon="20.50982">
        <ele>390.91000366211</ele>
        <time>2023-09-28T09:22:59.000Z</time>
      </trkpt>
      <trkpt lat="40.13926" lon="20.50994">
        <ele>390.42999267578</ele>
        <time>2023-09-28T09:22:58.000Z</time>
      </trkpt>
      <trkpt lat="40.13922" lon="20.51006">
        <ele>389.95001220703</ele>
        <time>2023-09-28T09:22:57.000Z</time>
      </trkpt>
      <trkpt lat="40.13915" lon="20.51015">
        <ele>389.4700012207</ele>
        <time>2023-09-28T09:22:56.000Z</time>
      </trkpt>
      <trkpt lat="40.13905" lon="20.51021">
        <ele>388.98999023438</ele>
        <time>2023-09-28T09:22:55.000Z</time>
      </trkpt>
      <trkpt lat="40.13894" lon="20.51023">
        <ele>387.54998779297</ele>
        <time>2023-09-28T09:22:54.000Z</time>
      </trkpt>
      <trkpt lat="40.1388" lon="20.51021">
        <ele>387.07000732422</ele>
        <time>2023-09-28T09:22:53.000Z</time>
      </trkpt>
      <trkpt lat="40.13866" lon="20.51019">
        <ele>386.10998535156</ele>
        <time>2023-09-28T09:22:52.000Z</time>
      </trkpt>
      <trkpt lat="40.13854" lon="20.51021">
        <ele>385.14999389648</ele>
        <time>2023-09-28T09:22:51.000Z</time>
      </trkpt>
      <trkpt lat="40.13843" lon="20.51025">
        <ele>384.17999267578</ele>
        <time>2023-09-28T09:22:50.000Z</time>
      </trkpt>
      <trkpt lat="40.13835" lon="20.51031">
        <ele>382.73999023438</ele>
        <time>2023-09-28T09:22:49.000Z</time>
      </trkpt>
      <trkpt lat="40.13829" lon="20.51041">
        <ele>381.7799987793</ele>
        <time>2023-09-28T09:22:48.000Z</time>
      </trkpt>
      <trkpt lat="40.13825" lon="20.51054">
        <ele>380.33999633789</ele>
        <time>2023-09-28T09:22:47.000Z</time>
      </trkpt>
      <trkpt lat="40.13823" lon="20.5107">
        <ele>379.38000488281</ele>
        <time>2023-09-28T09:22:46.000Z</time>
      </trkpt>
      <trkpt lat="40.13822" lon="20.51089">
        <ele>378.89999389648</ele>
        <time>2023-09-28T09:22:45.000Z</time>
      </trkpt>
      <trkpt lat="40.1382" lon="20.51104">
        <ele>378.42001342773</ele>
        <time>2023-09-28T09:22:44.000Z</time>
      </trkpt>
      <trkpt lat="40.13815" lon="20.51117">
        <ele>377.94000244141</ele>
        <time>2023-09-28T09:22:43.000Z</time>
      </trkpt>
      <trkpt lat="40.13809" lon="20.51125">
        <ele>378.42001342773</ele>
        <time>2023-09-28T09:22:42.000Z</time>
      </trkpt>
      <trkpt lat="40.13802" lon="20.51129">
        <ele>378.42001342773</ele>
        <time>2023-09-28T09:22:41.000Z</time>
      </trkpt>
      <trkpt lat="40.13795" lon="20.51127">
        <ele>378.42001342773</ele>
        <time>2023-09-28T09:22:40.000Z</time>
      </trkpt>
      <trkpt lat="40.13789" lon="20.5112">
        <ele>377.94000244141</ele>
        <time>2023-09-28T09:22:39.000Z</time>
      </trkpt>
      <trkpt lat="40.13785" lon="20.51108">
        <ele>378.42001342773</ele>
        <time>2023-09-28T09:22:38.000Z</time>
      </trkpt>
      <trkpt lat="40.13784" lon="20.51102">
        <ele>378.89999389648</ele>
        <time>2023-09-28T09:22:37.000Z</time>
      </trkpt>
      <trkpt lat="40.1378" lon="20.51075">
        <ele>380.82000732422</ele>
        <time>2023-09-28T09:22:36.000Z</time>
      </trkpt>
      <trkpt lat="40.13779" lon="20.51063">
        <ele>381.29998779297</ele>
        <time>2023-09-28T09:22:35.000Z</time>
      </trkpt>
      <trkpt lat="40.13777" lon="20.51033">
        <ele>382.26000976562</ele>
        <time>2023-09-28T09:22:34.000Z</time>
      </trkpt>
      <trkpt lat="40.13773" lon="20.51016">
        <ele>383.2200012207</ele>
        <time>2023-09-28T09:22:33.000Z</time>
      </trkpt>
      <trkpt lat="40.13766" lon="20.51002">
        <ele>384.17999267578</ele>
        <time>2023-09-28T09:22:32.000Z</time>
      </trkpt>
      <trkpt lat="40.13756" lon="20.50988">
        <ele>385.14999389648</ele>
        <time>2023-09-28T09:22:31.000Z</time>
      </trkpt>
      <trkpt lat="40.13743" lon="20.50972">
        <ele>386.58999633789</ele>
        <time>2023-09-28T09:22:30.000Z</time>
      </trkpt>
      <trkpt lat="40.13735" lon="20.50963">
        <ele>387.07000732422</ele>
        <time>2023-09-28T09:22:29.000Z</time>
      </trkpt>
      <trkpt lat="40.13725" lon="20.50954">
        <ele>388.0299987793</ele>
        <time>2023-09-28T09:22:28.000Z</time>
      </trkpt>
      <trkpt lat="40.1368" lon="20.5092">
        <ele>392.35998535156</ele>
        <time>2023-09-28T09:22:26.000Z</time>
      </trkpt>
      <trkpt lat="40.13668" lon="20.50909">
        <ele>393.32000732422</ele>
        <time>2023-09-28T09:22:25.000Z</time>
      </trkpt>
      <trkpt lat="40.13653" lon="20.50894">
        <ele>394.2799987793</ele>
        <time>2023-09-28T09:22:24.000Z</time>
      </trkpt>
      <trkpt lat="40.13639" lon="20.50881">
        <ele>395.23999023438</ele>
        <time>2023-09-28T09:22:23.000Z</time>
      </trkpt>
      <trkpt lat="40.13629" lon="20.50872">
        <ele>396.20001220703</ele>
        <time>2023-09-28T09:22:22.000Z</time>
      </trkpt>
      <trkpt lat="40.13616" lon="20.50864">
        <ele>397.16000366211</ele>
        <time>2023-09-28T09:22:21.000Z</time>
      </trkpt>
      <trkpt lat="40.13607" lon="20.50861">
        <ele>397.64001464844</ele>
        <time>2023-09-28T09:22:20.000Z</time>
      </trkpt>
      <trkpt lat="40.136" lon="20.50861">
        <ele>398.60000610352</ele>
        <time>2023-09-28T09:22:19.000Z</time>
      </trkpt>
      <trkpt lat="40.13594" lon="20.50866">
        <ele>399.07998657227</ele>
        <time>2023-09-28T09:22:18.000Z</time>
      </trkpt>
      <trkpt lat="40.13591" lon="20.50876">
        <ele>400.04998779297</ele>
        <time>2023-09-28T09:22:17.000Z</time>
      </trkpt>
      <trkpt lat="40.13592" lon="20.50887">
        <ele>401.01000976562</ele>
        <time>2023-09-28T09:22:16.000Z</time>
      </trkpt>
      <trkpt lat="40.13595" lon="20.50898">
        <ele>401.48999023438</ele>
        <time>2023-09-28T09:22:15.000Z</time>
      </trkpt>
      <trkpt lat="40.13595" lon="20.50912">
        <ele>401.01000976562</ele>
        <time>2023-09-28T09:22:14.000Z</time>
      </trkpt>
      <trkpt lat="40.13591" lon="20.50927">
        <ele>401.48999023438</ele>
        <time>2023-09-28T09:22:13.000Z</time>
      </trkpt>
      <trkpt lat="40.13584" lon="20.50938">
        <ele>402.45001220703</ele>
        <time>2023-09-28T09:22:12.000Z</time>
      </trkpt>
      <trkpt lat="40.13575" lon="20.50948">
        <ele>403.41000366211</ele>
        <time>2023-09-28T09:22:11.000Z</time>
      </trkpt>
      <trkpt lat="40.13569" lon="20.5096">
        <ele>404.36999511719</ele>
        <time>2023-09-28T09:22:10.000Z</time>
      </trkpt>
      <trkpt lat="40.13567" lon="20.50974">
        <ele>404.85000610352</ele>
        <time>2023-09-28T09:22:09.000Z</time>
      </trkpt>
      <trkpt lat="40.13567" lon="20.50977">
        <ele>405.32998657227</ele>
        <time>2023-09-28T09:22:08.000Z</time>
      </trkpt>
      <trkpt lat="40.13566" lon="20.51007">
        <ele>406.29000854492</ele>
        <time>2023-09-28T09:22:07.000Z</time>
      </trkpt>
      <trkpt lat="40.13566" lon="20.51015">
        <ele>406.29000854492</ele>
        <time>2023-09-28T09:22:06.000Z</time>
      </trkpt>
      <trkpt lat="40.13562" lon="20.51047">
        <ele>407.73999023438</ele>
        <time>2023-09-28T09:22:05.000Z</time>
      </trkpt>
      <trkpt lat="40.13561" lon="20.51066">
        <ele>408.70001220703</ele>
        <time>2023-09-28T09:22:04.000Z</time>
      </trkpt>
      <trkpt lat="40.13562" lon="20.51102">
        <ele>410.61999511719</ele>
        <time>2023-09-28T09:22:02.000Z</time>
      </trkpt>
      <trkpt lat="40.13565" lon="20.51118">
        <ele>411.10000610352</ele>
        <time>2023-09-28T09:22:01.000Z</time>
      </trkpt>
      <trkpt lat="40.1357" lon="20.51131">
        <ele>411.57998657227</ele>
        <time>2023-09-28T09:22:00.000Z</time>
      </trkpt>
      <trkpt lat="40.13579" lon="20.51152">
        <ele>413.01998901367</ele>
        <time>2023-09-28T09:21:59.000Z</time>
      </trkpt>
      <trkpt lat="40.13584" lon="20.51169">
        <ele>413.5</ele>
        <time>2023-09-28T09:21:58.000Z</time>
      </trkpt>
      <trkpt lat="40.13585" lon="20.51186">
        <ele>413.98001098633</ele>
        <time>2023-09-28T09:21:57.000Z</time>
      </trkpt>
      <trkpt lat="40.13584" lon="20.51196">
        <ele>414.95001220703</ele>
        <time>2023-09-28T09:21:56.000Z</time>
      </trkpt>
      <trkpt lat="40.1358" lon="20.51217">
        <ele>415.42999267578</ele>
        <time>2023-09-28T09:21:55.000Z</time>
      </trkpt>
      <trkpt lat="40.13581" lon="20.51232">
        <ele>415.42999267578</ele>
        <time>2023-09-28T09:21:54.000Z</time>
      </trkpt>
      <trkpt lat="40.13583" lon="20.51241">
        <ele>415.91000366211</ele>
        <time>2023-09-28T09:21:53.000Z</time>
      </trkpt>
      <trkpt lat="40.13588" lon="20.5126">
        <ele>416.86999511719</ele>
        <time>2023-09-28T09:21:52.000Z</time>
      </trkpt>
      <trkpt lat="40.13589" lon="20.51273">
        <ele>417.35000610352</ele>
        <time>2023-09-28T09:21:51.000Z</time>
      </trkpt>
      <trkpt lat="40.13585" lon="20.51284">
        <ele>418.30999755859</ele>
        <time>2023-09-28T09:21:50.000Z</time>
      </trkpt>
      <trkpt lat="40.13583" lon="20.51289">
        <ele>418.79000854492</ele>
        <time>2023-09-28T09:21:49.000Z</time>
      </trkpt>
      <trkpt lat="40.13566" lon="20.51319">
        <ele>421.19000244141</ele>
        <time>2023-09-28T09:21:47.000Z</time>
      </trkpt>
      <trkpt lat="40.13558" lon="20.51326">
        <ele>421.19000244141</ele>
        <time>2023-09-28T09:21:46.000Z</time>
      </trkpt>
      <trkpt lat="40.13551" lon="20.51328">
        <ele>421.19000244141</ele>
        <time>2023-09-28T09:21:45.000Z</time>
      </trkpt>
      <trkpt lat="40.13542" lon="20.51325">
        <ele>421.19000244141</ele>
        <time>2023-09-28T09:21:44.000Z</time>
      </trkpt>
      <trkpt lat="40.13533" lon="20.51316">
        <ele>421.67999267578</ele>
        <time>2023-09-28T09:21:43.000Z</time>
      </trkpt>
      <trkpt lat="40.13527" lon="20.51307">
        <ele>422.16000366211</ele>
        <time>2023-09-28T09:21:42.000Z</time>
      </trkpt>
      <trkpt lat="40.13519" lon="20.51299">
        <ele>422.64001464844</ele>
        <time>2023-09-28T09:21:41.000Z</time>
      </trkpt>
      <trkpt lat="40.1351" lon="20.51294">
        <ele>423.60000610352</ele>
        <time>2023-09-28T09:21:40.000Z</time>
      </trkpt>
      <trkpt lat="40.13504" lon="20.51296">
        <ele>423.60000610352</ele>
        <time>2023-09-28T09:21:39.000Z</time>
      </trkpt>
      <trkpt lat="40.135" lon="20.51303">
        <ele>424.07998657227</ele>
        <time>2023-09-28T09:21:38.000Z</time>
      </trkpt>
      <trkpt lat="40.13498" lon="20.51313">
        <ele>424.07998657227</ele>
        <time>2023-09-28T09:21:37.000Z</time>
      </trkpt>
      <trkpt lat="40.13498" lon="20.5133">
        <ele>424.55999755859</ele>
        <time>2023-09-28T09:21:36.000Z</time>
      </trkpt>
      <trkpt lat="40.135" lon="20.51351">
        <ele>424.55999755859</ele>
        <time>2023-09-28T09:21:35.000Z</time>
      </trkpt>
      <trkpt lat="40.13504" lon="20.51368">
        <ele>425.04000854492</ele>
        <time>2023-09-28T09:21:34.000Z</time>
      </trkpt>
      <trkpt lat="40.13508" lon="20.51382">
        <ele>426</ele>
        <time>2023-09-28T09:21:33.000Z</time>
      </trkpt>
      <trkpt lat="40.13523" lon="20.51424">
        <ele>427.92001342773</ele>
        <time>2023-09-28T09:21:31.000Z</time>
      </trkpt>
      <trkpt lat="40.13529" lon="20.51437">
        <ele>428.89001464844</ele>
        <time>2023-09-28T09:21:30.000Z</time>
      </trkpt>
      <trkpt lat="40.13533" lon="20.5145">
        <ele>429.36999511719</ele>
        <time>2023-09-28T09:21:29.000Z</time>
      </trkpt>
      <trkpt lat="40.13533" lon="20.51461">
        <ele>429.36999511719</ele>
        <time>2023-09-28T09:21:28.000Z</time>
      </trkpt>
      <trkpt lat="40.1353" lon="20.51471">
        <ele>429.85000610352</ele>
        <time>2023-09-28T09:21:27.000Z</time>
      </trkpt>
      <trkpt lat="40.13525" lon="20.51476">
        <ele>430.32998657227</ele>
        <time>2023-09-28T09:21:26.000Z</time>
      </trkpt>
      <trkpt lat="40.13517" lon="20.51477">
        <ele>430.80999755859</ele>
        <time>2023-09-28T09:21:25.000Z</time>
      </trkpt>
      <trkpt lat="40.13508" lon="20.51473">
        <ele>431.29000854492</ele>
        <time>2023-09-28T09:21:24.000Z</time>
      </trkpt>
      <trkpt lat="40.13504" lon="20.51471">
        <ele>431.29000854492</ele>
        <time>2023-09-28T09:21:23.000Z</time>
      </trkpt>
      <trkpt lat="40.1349" lon="20.5146">
        <ele>431.76998901367</ele>
        <time>2023-09-28T09:21:22.000Z</time>
      </trkpt>
      <trkpt lat="40.1348" lon="20.51455">
        <ele>432.73001098633</ele>
        <time>2023-09-28T09:21:21.000Z</time>
      </trkpt>
      <trkpt lat="40.1347" lon="20.51456">
        <ele>433.20999145508</ele>
        <time>2023-09-28T09:21:20.000Z</time>
      </trkpt>
      <trkpt lat="40.13459" lon="20.51461">
        <ele>433.69000244141</ele>
        <time>2023-09-28T09:21:19.000Z</time>
      </trkpt>
      <trkpt lat="40.13448" lon="20.51465">
        <ele>433.69000244141</ele>
        <time>2023-09-28T09:21:18.000Z</time>
      </trkpt>
      <trkpt lat="40.13438" lon="20.51462">
        <ele>434.17001342773</ele>
        <time>2023-09-28T09:21:17.000Z</time>
      </trkpt>
      <trkpt lat="40.13428" lon="20.51455">
        <ele>435.13000488281</ele>
        <time>2023-09-28T09:21:16.000Z</time>
      </trkpt>
      <trkpt lat="40.13419" lon="20.51442">
        <ele>436.10000610352</ele>
        <time>2023-09-28T09:21:15.000Z</time>
      </trkpt>
      <trkpt lat="40.13411" lon="20.51432">
        <ele>437.05999755859</ele>
        <time>2023-09-28T09:21:14.000Z</time>
      </trkpt>
      <trkpt lat="40.13401" lon="20.51428">
        <ele>438.01998901367</ele>
        <time>2023-09-28T09:21:13.000Z</time>
      </trkpt>
      <trkpt lat="40.13394" lon="20.51428">
        <ele>438.5</ele>
        <time>2023-09-28T09:21:12.000Z</time>
      </trkpt>
      <trkpt lat="40.13379" lon="20.51431">
        <ele>438.98001098633</ele>
        <time>2023-09-28T09:21:11.000Z</time>
      </trkpt>
      <trkpt lat="40.13367" lon="20.51432">
        <ele>439.45999145508</ele>
        <time>2023-09-28T09:21:10.000Z</time>
      </trkpt>
      <trkpt lat="40.13355" lon="20.51427">
        <ele>440.42001342773</ele>
        <time>2023-09-28T09:21:09.000Z</time>
      </trkpt>
      <trkpt lat="40.13344" lon="20.51418">
        <ele>440.89999389648</ele>
        <time>2023-09-28T09:21:08.000Z</time>
      </trkpt>
      <trkpt lat="40.13335" lon="20.51407">
        <ele>441.38000488281</ele>
        <time>2023-09-28T09:21:07.000Z</time>
      </trkpt>
      <trkpt lat="40.13328" lon="20.51394">
        <ele>441.85998535156</ele>
        <time>2023-09-28T09:21:06.000Z</time>
      </trkpt>
      <trkpt lat="40.13321" lon="20.51384">
        <ele>442.33999633789</ele>
        <time>2023-09-28T09:21:05.000Z</time>
      </trkpt>
      <trkpt lat="40.13312" lon="20.51377">
        <ele>442.33999633789</ele>
        <time>2023-09-28T09:21:04.000Z</time>
      </trkpt>
      <trkpt lat="40.13302" lon="20.51376">
        <ele>442.33999633789</ele>
        <time>2023-09-28T09:21:03.000Z</time>
      </trkpt>
      <trkpt lat="40.13293" lon="20.51381">
        <ele>443.30999755859</ele>
        <time>2023-09-28T09:21:02.000Z</time>
      </trkpt>
      <trkpt lat="40.13285" lon="20.51388">
        <ele>443.79000854492</ele>
        <time>2023-09-28T09:21:01.000Z</time>
      </trkpt>
      <trkpt lat="40.13254" lon="20.51424">
        <ele>444.75</ele>
        <time>2023-09-28T09:20:58.000Z</time>
      </trkpt>
      <trkpt lat="40.13246" lon="20.51435">
        <ele>445.23001098633</ele>
        <time>2023-09-28T09:20:57.000Z</time>
      </trkpt>
      <trkpt lat="40.1324" lon="20.51449">
        <ele>445.70999145508</ele>
        <time>2023-09-28T09:20:56.000Z</time>
      </trkpt>
      <trkpt lat="40.13239" lon="20.51452">
        <ele>445.70999145508</ele>
        <time>2023-09-28T09:20:55.000Z</time>
      </trkpt>
      <trkpt lat="40.13224" lon="20.5153">
        <ele>446.19000244141</ele>
        <time>2023-09-28T09:20:51.000Z</time>
      </trkpt>
      <trkpt lat="40.13224" lon="20.51541">
        <ele>446.67001342773</ele>
        <time>2023-09-28T09:20:50.000Z</time>
      </trkpt>
      <trkpt lat="40.13228" lon="20.51552">
        <ele>446.67001342773</ele>
        <time>2023-09-28T09:20:49.000Z</time>
      </trkpt>
      <trkpt lat="40.13235" lon="20.51562">
        <ele>446.67001342773</ele>
        <time>2023-09-28T09:20:48.000Z</time>
      </trkpt>
      <trkpt lat="40.13243" lon="20.51574">
        <ele>446.19000244141</ele>
        <time>2023-09-28T09:20:47.000Z</time>
      </trkpt>
      <trkpt lat="40.13247" lon="20.51588">
        <ele>445.23001098633</ele>
        <time>2023-09-28T09:20:46.000Z</time>
      </trkpt>
      <trkpt lat="40.13249" lon="20.51607">
        <ele>445.23001098633</ele>
        <time>2023-09-28T09:20:45.000Z</time>
      </trkpt>
      <trkpt lat="40.13248" lon="20.51625">
        <ele>445.23001098633</ele>
        <time>2023-09-28T09:20:44.000Z</time>
      </trkpt>
      <trkpt lat="40.13245" lon="20.51639">
        <ele>445.23001098633</ele>
        <time>2023-09-28T09:20:43.000Z</time>
      </trkpt>
      <trkpt lat="40.13243" lon="20.51653">
        <ele>445.70999145508</ele>
        <time>2023-09-28T09:20:42.000Z</time>
      </trkpt>
      <trkpt lat="40.13244" lon="20.51665">
        <ele>445.70999145508</ele>
        <time>2023-09-28T09:20:41.000Z</time>
      </trkpt>
      <trkpt lat="40.13249" lon="20.51674">
        <ele>445.70999145508</ele>
        <time>2023-09-28T09:20:40.000Z</time>
      </trkpt>
      <trkpt lat="40.13257" lon="20.51682">
        <ele>445.70999145508</ele>
        <time>2023-09-28T09:20:39.000Z</time>
      </trkpt>
      <trkpt lat="40.13266" lon="20.51687">
        <ele>445.70999145508</ele>
        <time>2023-09-28T09:20:38.000Z</time>
      </trkpt>
      <trkpt lat="40.1328" lon="20.51693">
        <ele>445.23001098633</ele>
        <time>2023-09-28T09:20:37.000Z</time>
      </trkpt>
      <trkpt lat="40.1329" lon="20.51701">
        <ele>444.75</ele>
        <time>2023-09-28T09:20:36.000Z</time>
      </trkpt>
      <trkpt lat="40.13297" lon="20.51712">
        <ele>444.75</ele>
        <time>2023-09-28T09:20:35.000Z</time>
      </trkpt>
      <trkpt lat="40.13302" lon="20.51724">
        <ele>444.75</ele>
        <time>2023-09-28T09:20:34.000Z</time>
      </trkpt>
      <trkpt lat="40.13308" lon="20.51732">
        <ele>444.75</ele>
        <time>2023-09-28T09:20:33.000Z</time>
      </trkpt>
      <trkpt lat="40.13315" lon="20.51736">
        <ele>445.70999145508</ele>
        <time>2023-09-28T09:20:32.000Z</time>
      </trkpt>
      <trkpt lat="40.1332" lon="20.51737">
        <ele>445.70999145508</ele>
        <time>2023-09-28T09:20:31.000Z</time>
      </trkpt>
      <trkpt lat="40.13364" lon="20.51745">
        <ele>444.26998901367</ele>
        <time>2023-09-28T09:20:28.000Z</time>
      </trkpt>
      <trkpt lat="40.13375" lon="20.51748">
        <ele>444.26998901367</ele>
        <time>2023-09-28T09:20:27.000Z</time>
      </trkpt>
      <trkpt lat="40.1338" lon="20.5175">
        <ele>444.26998901367</ele>
        <time>2023-09-28T09:20:26.000Z</time>
      </trkpt>
      <trkpt lat="40.1339" lon="20.51754">
        <ele>444.26998901367</ele>
        <time>2023-09-28T09:20:25.000Z</time>
      </trkpt>
      <trkpt lat="40.13395" lon="20.51758">
        <ele>444.75</ele>
        <time>2023-09-28T09:20:24.000Z</time>
      </trkpt>
      <trkpt lat="40.13397" lon="20.51764">
        <ele>444.26998901367</ele>
        <time>2023-09-28T09:20:23.000Z</time>
      </trkpt>
      <trkpt lat="40.13396" lon="20.51771">
        <ele>444.75</ele>
        <time>2023-09-28T09:20:22.000Z</time>
      </trkpt>
      <trkpt lat="40.13394" lon="20.51778">
        <ele>444.26998901367</ele>
        <time>2023-09-28T09:20:21.000Z</time>
      </trkpt>
      <trkpt lat="40.13389" lon="20.51784">
        <ele>444.26998901367</ele>
        <time>2023-09-28T09:20:20.000Z</time>
      </trkpt>
      <trkpt lat="40.13382" lon="20.51788">
        <ele>443.79000854492</ele>
        <time>2023-09-28T09:20:19.000Z</time>
      </trkpt>
      <trkpt lat="40.13374" lon="20.51791">
        <ele>443.79000854492</ele>
        <time>2023-09-28T09:20:18.000Z</time>
      </trkpt>
      <trkpt lat="40.13367" lon="20.51795">
        <ele>442.82000732422</ele>
        <time>2023-09-28T09:20:17.000Z</time>
      </trkpt>
      <trkpt lat="40.13365" lon="20.51802">
        <ele>441.85998535156</ele>
        <time>2023-09-28T09:20:16.000Z</time>
      </trkpt>
      <trkpt lat="40.13365" lon="20.51816">
        <ele>441.85998535156</ele>
        <time>2023-09-28T09:20:15.000Z</time>
      </trkpt>
      <trkpt lat="40.13367" lon="20.51829">
        <ele>441.85998535156</ele>
        <time>2023-09-28T09:20:14.000Z</time>
      </trkpt>
      <trkpt lat="40.13371" lon="20.51846">
        <ele>441.85998535156</ele>
        <time>2023-09-28T09:20:13.000Z</time>
      </trkpt>
      <trkpt lat="40.13375" lon="20.51859">
        <ele>441.85998535156</ele>
        <time>2023-09-28T09:20:12.000Z</time>
      </trkpt>
      <trkpt lat="40.13377" lon="20.51865">
        <ele>441.85998535156</ele>
        <time>2023-09-28T09:20:11.000Z</time>
      </trkpt>
      <trkpt lat="40.13384" lon="20.51881">
        <ele>441.85998535156</ele>
        <time>2023-09-28T09:20:10.000Z</time>
      </trkpt>
      <trkpt lat="40.13386" lon="20.51891">
        <ele>441.85998535156</ele>
        <time>2023-09-28T09:20:09.000Z</time>
      </trkpt>
      <trkpt lat="40.13383" lon="20.51897">
        <ele>442.33999633789</ele>
        <time>2023-09-28T09:20:08.000Z</time>
      </trkpt>
      <trkpt lat="40.13377" lon="20.51901">
        <ele>441.85998535156</ele>
        <time>2023-09-28T09:20:07.000Z</time>
      </trkpt>
      <trkpt lat="40.13369" lon="20.519">
        <ele>441.38000488281</ele>
        <time>2023-09-28T09:20:06.000Z</time>
      </trkpt>
      <trkpt lat="40.13361" lon="20.51895">
        <ele>441.38000488281</ele>
        <time>2023-09-28T09:20:05.000Z</time>
      </trkpt>
      <trkpt lat="40.13356" lon="20.51891">
        <ele>441.38000488281</ele>
        <time>2023-09-28T09:20:04.000Z</time>
      </trkpt>
      <trkpt lat="40.13346" lon="20.51881">
        <ele>441.38000488281</ele>
        <time>2023-09-28T09:20:03.000Z</time>
      </trkpt>
      <trkpt lat="40.13329" lon="20.51864">
        <ele>441.38000488281</ele>
        <time>2023-09-28T09:20:02.000Z</time>
      </trkpt>
      <trkpt lat="40.13318" lon="20.51855">
        <ele>441.38000488281</ele>
        <time>2023-09-28T09:20:01.000Z</time>
      </trkpt>
      <trkpt lat="40.13306" lon="20.51849">
        <ele>441.38000488281</ele>
        <time>2023-09-28T09:20:00.000Z</time>
      </trkpt>
      <trkpt lat="40.13294" lon="20.51847">
        <ele>440.89999389648</ele>
        <time>2023-09-28T09:19:59.000Z</time>
      </trkpt>
      <trkpt lat="40.13282" lon="20.51851">
        <ele>440.89999389648</ele>
        <time>2023-09-28T09:19:58.000Z</time>
      </trkpt>
      <trkpt lat="40.13272" lon="20.51858">
        <ele>441.38000488281</ele>
        <time>2023-09-28T09:19:57.000Z</time>
      </trkpt>
      <trkpt lat="40.13263" lon="20.51866">
        <ele>441.85998535156</ele>
        <time>2023-09-28T09:19:56.000Z</time>
      </trkpt>
      <trkpt lat="40.13255" lon="20.51873">
        <ele>441.85998535156</ele>
        <time>2023-09-28T09:19:55.000Z</time>
      </trkpt>
      <trkpt lat="40.13246" lon="20.51875">
        <ele>441.38000488281</ele>
        <time>2023-09-28T09:19:54.000Z</time>
      </trkpt>
      <trkpt lat="40.13239" lon="20.51874">
        <ele>441.38000488281</ele>
        <time>2023-09-28T09:19:53.000Z</time>
      </trkpt>
      <trkpt lat="40.13232" lon="20.51869">
        <ele>441.85998535156</ele>
        <time>2023-09-28T09:19:52.000Z</time>
      </trkpt>
      <trkpt lat="40.13225" lon="20.5186">
        <ele>441.85998535156</ele>
        <time>2023-09-28T09:19:51.000Z</time>
      </trkpt>
      <trkpt lat="40.13218" lon="20.51854">
        <ele>441.38000488281</ele>
        <time>2023-09-28T09:19:50.000Z</time>
      </trkpt>
      <trkpt lat="40.13208" lon="20.5185">
        <ele>441.85998535156</ele>
        <time>2023-09-28T09:19:49.000Z</time>
      </trkpt>
      <trkpt lat="40.13195" lon="20.51849">
        <ele>441.85998535156</ele>
        <time>2023-09-28T09:19:48.000Z</time>
      </trkpt>
      <trkpt lat="40.13183" lon="20.51853">
        <ele>441.38000488281</ele>
        <time>2023-09-28T09:19:47.000Z</time>
      </trkpt>
      <trkpt lat="40.13172" lon="20.5186">
        <ele>441.38000488281</ele>
        <time>2023-09-28T09:19:46.000Z</time>
      </trkpt>
      <trkpt lat="40.13162" lon="20.51872">
        <ele>441.38000488281</ele>
        <time>2023-09-28T09:19:45.000Z</time>
      </trkpt>
      <trkpt lat="40.13156" lon="20.51881">
        <ele>440.89999389648</ele>
        <time>2023-09-28T09:19:44.000Z</time>
      </trkpt>
      <trkpt lat="40.13145" lon="20.519">
        <ele>440.89999389648</ele>
        <time>2023-09-28T09:19:43.000Z</time>
      </trkpt>
      <trkpt lat="40.13137" lon="20.51912">
        <ele>440.89999389648</ele>
        <time>2023-09-28T09:19:42.000Z</time>
      </trkpt>
      <trkpt lat="40.13129" lon="20.5192">
        <ele>440.89999389648</ele>
        <time>2023-09-28T09:19:41.000Z</time>
      </trkpt>
      <trkpt lat="40.13118" lon="20.51923">
        <ele>440.42001342773</ele>
        <time>2023-09-28T09:19:40.000Z</time>
      </trkpt>
      <trkpt lat="40.13107" lon="20.51918">
        <ele>440.42001342773</ele>
        <time>2023-09-28T09:19:39.000Z</time>
      </trkpt>
      <trkpt lat="40.13096" lon="20.51909">
        <ele>440.42001342773</ele>
        <time>2023-09-28T09:19:38.000Z</time>
      </trkpt>
      <trkpt lat="40.13087" lon="20.51895">
        <ele>440.42001342773</ele>
        <time>2023-09-28T09:19:37.000Z</time>
      </trkpt>
      <trkpt lat="40.13081" lon="20.51882">
        <ele>440.42001342773</ele>
        <time>2023-09-28T09:19:36.000Z</time>
      </trkpt>
      <trkpt lat="40.13073" lon="20.51864">
        <ele>440.42001342773</ele>
        <time>2023-09-28T09:19:35.000Z</time>
      </trkpt>
      <trkpt lat="40.13065" lon="20.51851">
        <ele>440.89999389648</ele>
        <time>2023-09-28T09:19:34.000Z</time>
      </trkpt>
      <trkpt lat="40.13056" lon="20.51843">
        <ele>440.89999389648</ele>
        <time>2023-09-28T09:19:33.000Z</time>
      </trkpt>
      <trkpt lat="40.13046" lon="20.51838">
        <ele>440.42001342773</ele>
        <time>2023-09-28T09:19:32.000Z</time>
      </trkpt>
      <trkpt lat="40.13036" lon="20.51837">
        <ele>440.42001342773</ele>
        <time>2023-09-28T09:19:31.000Z</time>
      </trkpt>
      <trkpt lat="40.13029" lon="20.5184">
        <ele>440.42001342773</ele>
        <time>2023-09-28T09:19:30.000Z</time>
      </trkpt>
      <trkpt lat="40.13021" lon="20.51848">
        <ele>440.42001342773</ele>
        <time>2023-09-28T09:19:29.000Z</time>
      </trkpt>
      <trkpt lat="40.13015" lon="20.51858">
        <ele>440.89999389648</ele>
        <time>2023-09-28T09:19:28.000Z</time>
      </trkpt>
      <trkpt lat="40.13015" lon="20.51868">
        <ele>441.38000488281</ele>
        <time>2023-09-28T09:19:27.000Z</time>
      </trkpt>
      <trkpt lat="40.13018" lon="20.51879">
        <ele>441.38000488281</ele>
        <time>2023-09-28T09:19:26.000Z</time>
      </trkpt>
      <trkpt lat="40.13026" lon="20.51891">
        <ele>440.89999389648</ele>
        <time>2023-09-28T09:19:25.000Z</time>
      </trkpt>
      <trkpt lat="40.13034" lon="20.51904">
        <ele>439.45999145508</ele>
        <time>2023-09-28T09:19:24.000Z</time>
      </trkpt>
      <trkpt lat="40.13039" lon="20.51919">
        <ele>438.5</ele>
        <time>2023-09-28T09:19:23.000Z</time>
      </trkpt>
      <trkpt lat="40.13041" lon="20.51936">
        <ele>437.54000854492</ele>
        <time>2023-09-28T09:19:22.000Z</time>
      </trkpt>
      <trkpt lat="40.13041" lon="20.5194">
        <ele>437.54000854492</ele>
        <time>2023-09-28T09:19:21.000Z</time>
      </trkpt>
      <trkpt lat="40.1304" lon="20.52024">
        <ele>434.17001342773</ele>
        <time>2023-09-28T09:19:17.000Z</time>
      </trkpt>
      <trkpt lat="40.13041" lon="20.5204">
        <ele>433.69000244141</ele>
        <time>2023-09-28T09:19:16.000Z</time>
      </trkpt>
      <trkpt lat="40.13045" lon="20.52054">
        <ele>433.69000244141</ele>
        <time>2023-09-28T09:19:15.000Z</time>
      </trkpt>
      <trkpt lat="40.13047" lon="20.52059">
        <ele>433.69000244141</ele>
        <time>2023-09-28T09:19:14.000Z</time>
      </trkpt>
      <trkpt lat="40.13057" lon="20.52079">
        <ele>433.69000244141</ele>
        <time>2023-09-28T09:19:13.000Z</time>
      </trkpt>
      <trkpt lat="40.13067" lon="20.52096">
        <ele>433.69000244141</ele>
        <time>2023-09-28T09:19:12.000Z</time>
      </trkpt>
      <trkpt lat="40.13075" lon="20.52105">
        <ele>433.20999145508</ele>
        <time>2023-09-28T09:19:11.000Z</time>
      </trkpt>
      <trkpt lat="40.13081" lon="20.5211">
        <ele>433.20999145508</ele>
        <time>2023-09-28T09:19:10.000Z</time>
      </trkpt>
      <trkpt lat="40.13099" lon="20.52123">
        <ele>432.73001098633</ele>
        <time>2023-09-28T09:19:09.000Z</time>
      </trkpt>
      <trkpt lat="40.13107" lon="20.52132">
        <ele>432.25</ele>
        <time>2023-09-28T09:19:08.000Z</time>
      </trkpt>
      <trkpt lat="40.13112" lon="20.52145">
        <ele>431.76998901367</ele>
        <time>2023-09-28T09:19:07.000Z</time>
      </trkpt>
      <trkpt lat="40.13113" lon="20.5216">
        <ele>432.25</ele>
        <time>2023-09-28T09:19:06.000Z</time>
      </trkpt>
      <trkpt lat="40.13114" lon="20.52172">
        <ele>432.73001098633</ele>
        <time>2023-09-28T09:19:05.000Z</time>
      </trkpt>
      <trkpt lat="40.13114" lon="20.52181">
        <ele>432.73001098633</ele>
        <time>2023-09-28T09:19:04.000Z</time>
      </trkpt>
      <trkpt lat="40.13116" lon="20.52202">
        <ele>432.25</ele>
        <time>2023-09-28T09:19:03.000Z</time>
      </trkpt>
      <trkpt lat="40.13116" lon="20.52214">
        <ele>432.25</ele>
        <time>2023-09-28T09:19:02.000Z</time>
      </trkpt>
      <trkpt lat="40.13112" lon="20.52226">
        <ele>431.76998901367</ele>
        <time>2023-09-28T09:19:01.000Z</time>
      </trkpt>
      <trkpt lat="40.13107" lon="20.52233">
        <ele>431.76998901367</ele>
        <time>2023-09-28T09:19:00.000Z</time>
      </trkpt>
      <trkpt lat="40.131" lon="20.52242">
        <ele>431.29000854492</ele>
        <time>2023-09-28T09:18:59.000Z</time>
      </trkpt>
      <trkpt lat="40.13095" lon="20.5225">
        <ele>430.80999755859</ele>
        <time>2023-09-28T09:18:58.000Z</time>
      </trkpt>
      <trkpt lat="40.13093" lon="20.52257">
        <ele>430.32998657227</ele>
        <time>2023-09-28T09:18:57.000Z</time>
      </trkpt>
      <trkpt lat="40.13095" lon="20.52265">
        <ele>430.32998657227</ele>
        <time>2023-09-28T09:18:56.000Z</time>
      </trkpt>
      <trkpt lat="40.13101" lon="20.52273">
        <ele>430.32998657227</ele>
        <time>2023-09-28T09:18:55.000Z</time>
      </trkpt>
      <trkpt lat="40.1311" lon="20.52277">
        <ele>429.85000610352</ele>
        <time>2023-09-28T09:18:54.000Z</time>
      </trkpt>
      <trkpt lat="40.13118" lon="20.52276">
        <ele>429.36999511719</ele>
        <time>2023-09-28T09:18:53.000Z</time>
      </trkpt>
      <trkpt lat="40.13119" lon="20.52276">
        <ele>429.36999511719</ele>
        <time>2023-09-28T09:18:52.000Z</time>
      </trkpt>
      <trkpt lat="40.13134" lon="20.52271">
        <ele>428.89001464844</ele>
        <time>2023-09-28T09:18:51.000Z</time>
      </trkpt>
      <trkpt lat="40.13141" lon="20.52273">
        <ele>427.92001342773</ele>
        <time>2023-09-28T09:18:50.000Z</time>
      </trkpt>
      <trkpt lat="40.13146" lon="20.52279">
        <ele>427.44000244141</ele>
        <time>2023-09-28T09:18:49.000Z</time>
      </trkpt>
      <trkpt lat="40.13147" lon="20.52287">
        <ele>426.48001098633</ele>
        <time>2023-09-28T09:18:48.000Z</time>
      </trkpt>
      <trkpt lat="40.13143" lon="20.52298">
        <ele>426</ele>
        <time>2023-09-28T09:18:47.000Z</time>
      </trkpt>
      <trkpt lat="40.13136" lon="20.52307">
        <ele>425.04000854492</ele>
        <time>2023-09-28T09:18:46.000Z</time>
      </trkpt>
      <trkpt lat="40.13132" lon="20.52311">
        <ele>424.55999755859</ele>
        <time>2023-09-28T09:18:45.000Z</time>
      </trkpt>
      <trkpt lat="40.13117" lon="20.52324">
        <ele>423.11999511719</ele>
        <time>2023-09-28T09:18:44.000Z</time>
      </trkpt>
      <trkpt lat="40.13108" lon="20.52337">
        <ele>422.16000366211</ele>
        <time>2023-09-28T09:18:43.000Z</time>
      </trkpt>
      <trkpt lat="40.13099" lon="20.52353">
        <ele>420.70999145508</ele>
        <time>2023-09-28T09:18:42.000Z</time>
      </trkpt>
      <trkpt lat="40.13092" lon="20.52371">
        <ele>419.75</ele>
        <time>2023-09-28T09:18:41.000Z</time>
      </trkpt>
      <trkpt lat="40.13087" lon="20.52388">
        <ele>418.79000854492</ele>
        <time>2023-09-28T09:18:40.000Z</time>
      </trkpt>
      <trkpt lat="40.13086" lon="20.52405">
        <ele>417.82998657227</ele>
        <time>2023-09-28T09:18:39.000Z</time>
      </trkpt>
      <trkpt lat="40.13085" lon="20.52408">
        <ele>417.82998657227</ele>
        <time>2023-09-28T09:18:38.000Z</time>
      </trkpt>
      <trkpt lat="40.13086" lon="20.52466">
        <ele>413.98001098633</ele>
        <time>2023-09-28T09:18:35.000Z</time>
      </trkpt>
      <trkpt lat="40.13085" lon="20.52476">
        <ele>413.5</ele>
        <time>2023-09-28T09:18:34.000Z</time>
      </trkpt>
      <trkpt lat="40.13078" lon="20.52487">
        <ele>413.01998901367</ele>
        <time>2023-09-28T09:18:33.000Z</time>
      </trkpt>
      <trkpt lat="40.13071" lon="20.52492">
        <ele>412.05999755859</ele>
        <time>2023-09-28T09:18:32.000Z</time>
      </trkpt>
      <trkpt lat="40.13057" lon="20.525">
        <ele>411.10000610352</ele>
        <time>2023-09-28T09:18:31.000Z</time>
      </trkpt>
      <trkpt lat="40.13047" lon="20.5251">
        <ele>410.14001464844</ele>
        <time>2023-09-28T09:18:30.000Z</time>
      </trkpt>
      <trkpt lat="40.13039" lon="20.52523">
        <ele>408.70001220703</ele>
        <time>2023-09-28T09:18:29.000Z</time>
      </trkpt>
      <trkpt lat="40.13033" lon="20.52539">
        <ele>407.73999023438</ele>
        <time>2023-09-28T09:18:28.000Z</time>
      </trkpt>
      <trkpt lat="40.13032" lon="20.52542">
        <ele>407.26000976562</ele>
        <time>2023-09-28T09:18:27.000Z</time>
      </trkpt>
      <trkpt lat="40.13024" lon="20.52572">
        <ele>405.80999755859</ele>
        <time>2023-09-28T09:18:26.000Z</time>
      </trkpt>
      <trkpt lat="40.13018" lon="20.52588">
        <ele>404.85000610352</ele>
        <time>2023-09-28T09:18:25.000Z</time>
      </trkpt>
      <trkpt lat="40.13012" lon="20.52603">
        <ele>403.41000366211</ele>
        <time>2023-09-28T09:18:24.000Z</time>
      </trkpt>
      <trkpt lat="40.13004" lon="20.52614">
        <ele>402.45001220703</ele>
        <time>2023-09-28T09:18:23.000Z</time>
      </trkpt>
      <trkpt lat="40.12995" lon="20.52621">
        <ele>401.48999023438</ele>
        <time>2023-09-28T09:18:22.000Z</time>
      </trkpt>
      <trkpt lat="40.12985" lon="20.52629">
        <ele>401.01000976562</ele>
        <time>2023-09-28T09:18:21.000Z</time>
      </trkpt>
      <trkpt lat="40.12976" lon="20.52642">
        <ele>400.04998779297</ele>
        <time>2023-09-28T09:18:20.000Z</time>
      </trkpt>
      <trkpt lat="40.12969" lon="20.52652">
        <ele>399.07998657227</ele>
        <time>2023-09-28T09:18:19.000Z</time>
      </trkpt>
      <trkpt lat="40.1296" lon="20.52657">
        <ele>398.11999511719</ele>
        <time>2023-09-28T09:18:18.000Z</time>
      </trkpt>
      <trkpt lat="40.12949" lon="20.52657">
        <ele>397.64001464844</ele>
        <time>2023-09-28T09:18:17.000Z</time>
      </trkpt>
      <trkpt lat="40.12937" lon="20.52654">
        <ele>396.67999267578</ele>
        <time>2023-09-28T09:18:16.000Z</time>
      </trkpt>
      <trkpt lat="40.12927" lon="20.5265">
        <ele>395.7200012207</ele>
        <time>2023-09-28T09:18:15.000Z</time>
      </trkpt>
      <trkpt lat="40.12918" lon="20.52648">
        <ele>395.23999023438</ele>
        <time>2023-09-28T09:18:14.000Z</time>
      </trkpt>
      <trkpt lat="40.12911" lon="20.5265">
        <ele>394.2799987793</ele>
        <time>2023-09-28T09:18:13.000Z</time>
      </trkpt>
      <trkpt lat="40.12904" lon="20.52658">
        <ele>392.83999633789</ele>
        <time>2023-09-28T09:18:12.000Z</time>
      </trkpt>
      <trkpt lat="40.12898" lon="20.52671">
        <ele>391.86999511719</ele>
        <time>2023-09-28T09:18:11.000Z</time>
      </trkpt>
      <trkpt lat="40.12894" lon="20.52687">
        <ele>391.39001464844</ele>
        <time>2023-09-28T09:18:10.000Z</time>
      </trkpt>
      <trkpt lat="40.12895" lon="20.52703">
        <ele>390.42999267578</ele>
        <time>2023-09-28T09:18:09.000Z</time>
      </trkpt>
      <trkpt lat="40.12896" lon="20.5271">
        <ele>390.42999267578</ele>
        <time>2023-09-28T09:18:08.000Z</time>
      </trkpt>
      <trkpt lat="40.12901" lon="20.52735">
        <ele>388.51000976562</ele>
        <time>2023-09-28T09:18:07.000Z</time>
      </trkpt>
      <trkpt lat="40.129" lon="20.5275">
        <ele>387.54998779297</ele>
        <time>2023-09-28T09:18:06.000Z</time>
      </trkpt>
      <trkpt lat="40.12895" lon="20.52766">
        <ele>386.10998535156</ele>
        <time>2023-09-28T09:18:05.000Z</time>
      </trkpt>
      <trkpt lat="40.12886" lon="20.52781">
        <ele>384.66000366211</ele>
        <time>2023-09-28T09:18:04.000Z</time>
      </trkpt>
      <trkpt lat="40.12884" lon="20.52784">
        <ele>384.66000366211</ele>
        <time>2023-09-28T09:18:03.000Z</time>
      </trkpt>
      <trkpt lat="40.12869" lon="20.52805">
        <ele>383.2200012207</ele>
        <time>2023-09-28T09:18:02.000Z</time>
      </trkpt>
      <trkpt lat="40.12855" lon="20.52825">
        <ele>382.26000976562</ele>
        <time>2023-09-28T09:18:01.000Z</time>
      </trkpt>
      <trkpt lat="40.12846" lon="20.52835">
        <ele>380.82000732422</ele>
        <time>2023-09-28T09:18:00.000Z</time>
      </trkpt>
      <trkpt lat="40.12836" lon="20.52841">
        <ele>379.85998535156</ele>
        <time>2023-09-28T09:17:59.000Z</time>
      </trkpt>
      <trkpt lat="40.12826" lon="20.52843">
        <ele>378.89999389648</ele>
        <time>2023-09-28T09:17:58.000Z</time>
      </trkpt>
      <trkpt lat="40.12811" lon="20.52846">
        <ele>377.45001220703</ele>
        <time>2023-09-28T09:17:57.000Z</time>
      </trkpt>
      <trkpt lat="40.128" lon="20.52854">
        <ele>376.48999023438</ele>
        <time>2023-09-28T09:17:56.000Z</time>
      </trkpt>
      <trkpt lat="40.12757" lon="20.52889">
        <ele>372.64999389648</ele>
        <time>2023-09-28T09:17:52.000Z</time>
      </trkpt>
      <trkpt lat="40.12747" lon="20.52899">
        <ele>371.69000244141</ele>
        <time>2023-09-28T09:17:51.000Z</time>
      </trkpt>
      <trkpt lat="40.12738" lon="20.52912">
        <ele>371.69000244141</ele>
        <time>2023-09-28T09:17:50.000Z</time>
      </trkpt>
      <trkpt lat="40.12732" lon="20.52925">
        <ele>371.20999145508</ele>
        <time>2023-09-28T09:17:49.000Z</time>
      </trkpt>
      <trkpt lat="40.1273" lon="20.52941">
        <ele>370.23999023438</ele>
        <time>2023-09-28T09:17:48.000Z</time>
      </trkpt>
      <trkpt lat="40.12729" lon="20.52961">
        <ele>369.76000976562</ele>
        <time>2023-09-28T09:17:47.000Z</time>
      </trkpt>
      <trkpt lat="40.1273" lon="20.52994">
        <ele>368.32000732422</ele>
        <time>2023-09-28T09:17:45.000Z</time>
      </trkpt>
      <trkpt lat="40.1273" lon="20.53009">
        <ele>367.83999633789</ele>
        <time>2023-09-28T09:17:44.000Z</time>
      </trkpt>
      <trkpt lat="40.12727" lon="20.53021">
        <ele>367.35998535156</ele>
        <time>2023-09-28T09:17:43.000Z</time>
      </trkpt>
      <trkpt lat="40.12721" lon="20.53029">
        <ele>367.35998535156</ele>
        <time>2023-09-28T09:17:42.000Z</time>
      </trkpt>
      <trkpt lat="40.12713" lon="20.53033">
        <ele>366.88000488281</ele>
        <time>2023-09-28T09:17:41.000Z</time>
      </trkpt>
      <trkpt lat="40.12703" lon="20.5303">
        <ele>366.39999389648</ele>
        <time>2023-09-28T09:17:40.000Z</time>
      </trkpt>
      <trkpt lat="40.12694" lon="20.53026">
        <ele>365.44000244141</ele>
        <time>2023-09-28T09:17:39.000Z</time>
      </trkpt>
      <trkpt lat="40.1268" lon="20.5302">
        <ele>364.48001098633</ele>
        <time>2023-09-28T09:17:38.000Z</time>
      </trkpt>
      <trkpt lat="40.12666" lon="20.53017">
        <ele>363.51998901367</ele>
        <time>2023-09-28T09:17:37.000Z</time>
      </trkpt>
      <trkpt lat="40.12658" lon="20.53017">
        <ele>362.54998779297</ele>
        <time>2023-09-28T09:17:36.000Z</time>
      </trkpt>
      <trkpt lat="40.12639" lon="20.53017">
        <ele>360.63000488281</ele>
        <time>2023-09-28T09:17:35.000Z</time>
      </trkpt>
      <trkpt lat="40.1263" lon="20.53015">
        <ele>359.67001342773</ele>
        <time>2023-09-28T09:17:34.000Z</time>
      </trkpt>
      <trkpt lat="40.12614" lon="20.53009">
        <ele>358.23001098633</ele>
        <time>2023-09-28T09:17:33.000Z</time>
      </trkpt>
      <trkpt lat="40.12605" lon="20.53008">
        <ele>357.26998901367</ele>
        <time>2023-09-28T09:17:32.000Z</time>
      </trkpt>
      <trkpt lat="40.12595" lon="20.53012">
        <ele>356.30999755859</ele>
        <time>2023-09-28T09:17:31.000Z</time>
      </trkpt>
      <trkpt lat="40.12586" lon="20.53022">
        <ele>355.33999633789</ele>
        <time>2023-09-28T09:17:30.000Z</time>
      </trkpt>
      <trkpt lat="40.1258" lon="20.53033">
        <ele>353.89999389648</ele>
        <time>2023-09-28T09:17:29.000Z</time>
      </trkpt>
      <trkpt lat="40.1257" lon="20.53042">
        <ele>352.94000244141</ele>
        <time>2023-09-28T09:17:28.000Z</time>
      </trkpt>
      <trkpt lat="40.12559" lon="20.53048">
        <ele>352.45999145508</ele>
        <time>2023-09-28T09:17:27.000Z</time>
      </trkpt>
      <trkpt lat="40.12544" lon="20.53056">
        <ele>351.01998901367</ele>
        <time>2023-09-28T09:17:26.000Z</time>
      </trkpt>
      <trkpt lat="40.12532" lon="20.53059">
        <ele>350.05999755859</ele>
        <time>2023-09-28T09:17:25.000Z</time>
      </trkpt>
      <trkpt lat="40.12519" lon="20.53058">
        <ele>349.10000610352</ele>
        <time>2023-09-28T09:17:24.000Z</time>
      </trkpt>
      <trkpt lat="40.1251" lon="20.53058">
        <ele>348.13000488281</ele>
        <time>2023-09-28T09:17:23.000Z</time>
      </trkpt>
      <trkpt lat="40.12501" lon="20.53062">
        <ele>347.17001342773</ele>
        <time>2023-09-28T09:17:22.000Z</time>
      </trkpt>
      <trkpt lat="40.12495" lon="20.53069">
        <ele>346.20999145508</ele>
        <time>2023-09-28T09:17:21.000Z</time>
      </trkpt>
      <trkpt lat="40.12492" lon="20.53082">
        <ele>345.25</ele>
        <time>2023-09-28T09:17:20.000Z</time>
      </trkpt>
      <trkpt lat="40.12493" lon="20.53094">
        <ele>344.76998901367</ele>
        <time>2023-09-28T09:17:19.000Z</time>
      </trkpt>
      <trkpt lat="40.12497" lon="20.53106">
        <ele>343.80999755859</ele>
        <time>2023-09-28T09:17:18.000Z</time>
      </trkpt>
      <trkpt lat="40.125" lon="20.5312">
        <ele>342.36999511719</ele>
        <time>2023-09-28T09:17:17.000Z</time>
      </trkpt>
      <trkpt lat="40.12499" lon="20.53134">
        <ele>341.89001464844</ele>
        <time>2023-09-28T09:17:16.000Z</time>
      </trkpt>
      <trkpt lat="40.12493" lon="20.53145">
        <ele>340.92001342773</ele>
        <time>2023-09-28T09:17:15.000Z</time>
      </trkpt>
      <trkpt lat="40.12485" lon="20.53153">
        <ele>340.44000244141</ele>
        <time>2023-09-28T09:17:14.000Z</time>
      </trkpt>
      <trkpt lat="40.12475" lon="20.53158">
        <ele>339.48001098633</ele>
        <time>2023-09-28T09:17:13.000Z</time>
      </trkpt>
      <trkpt lat="40.12464" lon="20.53163">
        <ele>338.51998901367</ele>
        <time>2023-09-28T09:17:12.000Z</time>
      </trkpt>
      <trkpt lat="40.12456" lon="20.53172">
        <ele>337.07998657227</ele>
        <time>2023-09-28T09:17:11.000Z</time>
      </trkpt>
      <trkpt lat="40.12449" lon="20.53186">
        <ele>336.11999511719</ele>
        <time>2023-09-28T09:17:10.000Z</time>
      </trkpt>
      <trkpt lat="40.12442" lon="20.53206">
        <ele>334.67999267578</ele>
        <time>2023-09-28T09:17:09.000Z</time>
      </trkpt>
      <trkpt lat="40.12433" lon="20.53223">
        <ele>333.23001098633</ele>
        <time>2023-09-28T09:17:08.000Z</time>
      </trkpt>
      <trkpt lat="40.12421" lon="20.53239">
        <ele>331.79000854492</ele>
        <time>2023-09-28T09:17:07.000Z</time>
      </trkpt>
      <trkpt lat="40.12418" lon="20.53243">
        <ele>331.30999755859</ele>
        <time>2023-09-28T09:17:06.000Z</time>
      </trkpt>
      <trkpt lat="40.12402" lon="20.53259">
        <ele>330.82998657227</ele>
        <time>2023-09-28T09:17:05.000Z</time>
      </trkpt>
      <trkpt lat="40.12189" lon="20.53477">
        <ele>330.82998657227</ele>
        <time>2023-09-28T09:16:54.000Z</time>
      </trkpt>
      <trkpt lat="40.12045" lon="20.53621">
        <ele>332.26998901367</ele>
        <time>2023-09-28T09:16:47.000Z</time>
      </trkpt>
      <trkpt lat="40.11926" lon="20.53746">
        <ele>332.26998901367</ele>
        <time>2023-09-28T09:16:40.000Z</time>
      </trkpt>
      <trkpt lat="40.11911" lon="20.53758">
        <ele>331.79000854492</ele>
        <time>2023-09-28T09:16:39.000Z</time>
      </trkpt>
      <trkpt lat="40.11897" lon="20.53766">
        <ele>331.30999755859</ele>
        <time>2023-09-28T09:16:38.000Z</time>
      </trkpt>
      <trkpt lat="40.11889" lon="20.53769">
        <ele>331.30999755859</ele>
        <time>2023-09-28T09:16:37.000Z</time>
      </trkpt>
      <trkpt lat="40.11783" lon="20.53809">
        <ele>332.26998901367</ele>
        <time>2023-09-28T09:16:30.000Z</time>
      </trkpt>
      <trkpt lat="40.11769" lon="20.53813">
        <ele>332.75</ele>
        <time>2023-09-28T09:16:29.000Z</time>
      </trkpt>
      <trkpt lat="40.11763" lon="20.53814">
        <ele>333.23001098633</ele>
        <time>2023-09-28T09:16:28.000Z</time>
      </trkpt>
      <trkpt lat="40.11746" lon="20.53817">
        <ele>332.75</ele>
        <time>2023-09-28T09:16:27.000Z</time>
      </trkpt>
      <trkpt lat="40.11737" lon="20.53821">
        <ele>332.26998901367</ele>
        <time>2023-09-28T09:16:26.000Z</time>
      </trkpt>
      <trkpt lat="40.1173" lon="20.53828">
        <ele>331.79000854492</ele>
        <time>2023-09-28T09:16:25.000Z</time>
      </trkpt>
      <trkpt lat="40.11725" lon="20.53838">
        <ele>331.30999755859</ele>
        <time>2023-09-28T09:16:24.000Z</time>
      </trkpt>
      <trkpt lat="40.11722" lon="20.53852">
        <ele>330.35000610352</ele>
        <time>2023-09-28T09:16:23.000Z</time>
      </trkpt>
      <trkpt lat="40.1172" lon="20.53866">
        <ele>329.39001464844</ele>
        <time>2023-09-28T09:16:22.000Z</time>
      </trkpt>
      <trkpt lat="40.11722" lon="20.53879">
        <ele>328.91000366211</ele>
        <time>2023-09-28T09:16:21.000Z</time>
      </trkpt>
      <trkpt lat="40.11726" lon="20.53893">
        <ele>327.4700012207</ele>
        <time>2023-09-28T09:16:20.000Z</time>
      </trkpt>
      <trkpt lat="40.11731" lon="20.53903">
        <ele>326.98999023438</ele>
        <time>2023-09-28T09:16:19.000Z</time>
      </trkpt>
      <trkpt lat="40.11739" lon="20.53915">
        <ele>326.01998901367</ele>
        <time>2023-09-28T09:16:18.000Z</time>
      </trkpt>
      <trkpt lat="40.11742" lon="20.53924">
        <ele>325.54000854492</ele>
        <time>2023-09-28T09:16:17.000Z</time>
      </trkpt>
      <trkpt lat="40.11743" lon="20.53933">
        <ele>325.05999755859</ele>
        <time>2023-09-28T09:16:16.000Z</time>
      </trkpt>
      <trkpt lat="40.11741" lon="20.53944">
        <ele>325.05999755859</ele>
        <time>2023-09-28T09:16:15.000Z</time>
      </trkpt>
      <trkpt lat="40.11729" lon="20.53972">
        <ele>325.05999755859</ele>
        <time>2023-09-28T09:16:12.000Z</time>
      </trkpt>
      <trkpt lat="40.11727" lon="20.53981">
        <ele>325.05999755859</ele>
        <time>2023-09-28T09:16:11.000Z</time>
      </trkpt>
      <trkpt lat="40.11726" lon="20.5399">
        <ele>325.05999755859</ele>
        <time>2023-09-28T09:16:10.000Z</time>
      </trkpt>
      <trkpt lat="40.11727" lon="20.54">
        <ele>324.57998657227</ele>
        <time>2023-09-28T09:16:09.000Z</time>
      </trkpt>
      <trkpt lat="40.1173" lon="20.5401">
        <ele>324.57998657227</ele>
        <time>2023-09-28T09:16:08.000Z</time>
      </trkpt>
      <trkpt lat="40.11733" lon="20.54018">
        <ele>324.57998657227</ele>
        <time>2023-09-28T09:16:07.000Z</time>
      </trkpt>
      <trkpt lat="40.11738" lon="20.54026">
        <ele>324.57998657227</ele>
        <time>2023-09-28T09:16:06.000Z</time>
      </trkpt>
      <trkpt lat="40.11747" lon="20.54043">
        <ele>324.57998657227</ele>
        <time>2023-09-28T09:16:05.000Z</time>
      </trkpt>
      <trkpt lat="40.11753" lon="20.54051">
        <ele>325.05999755859</ele>
        <time>2023-09-28T09:16:04.000Z</time>
      </trkpt>
      <trkpt lat="40.11763" lon="20.54065">
        <ele>325.54000854492</ele>
        <time>2023-09-28T09:16:03.000Z</time>
      </trkpt>
      <trkpt lat="40.11783" lon="20.54091">
        <ele>326.98999023438</ele>
        <time>2023-09-28T09:16:00.000Z</time>
      </trkpt>
      <trkpt lat="40.11795" lon="20.54106">
        <ele>327.4700012207</ele>
        <time>2023-09-28T09:15:59.000Z</time>
      </trkpt>
      <trkpt lat="40.11801" lon="20.54112">
        <ele>327.4700012207</ele>
        <time>2023-09-28T09:15:58.000Z</time>
      </trkpt>
      <trkpt lat="40.11871" lon="20.54178">
        <ele>330.35000610352</ele>
        <time>2023-09-28T09:15:50.000Z</time>
      </trkpt>
      <trkpt lat="40.11895" lon="20.542">
        <ele>331.79000854492</ele>
        <time>2023-09-28T09:15:47.000Z</time>
      </trkpt>
      <trkpt lat="40.11902" lon="20.54207">
        <ele>332.26998901367</ele>
        <time>2023-09-28T09:15:46.000Z</time>
      </trkpt>
      <trkpt lat="40.11907" lon="20.54213">
        <ele>332.75</ele>
        <time>2023-09-28T09:15:45.000Z</time>
      </trkpt>
      <trkpt lat="40.11917" lon="20.54222">
        <ele>333.70999145508</ele>
        <time>2023-09-28T09:15:44.000Z</time>
      </trkpt>
      <trkpt lat="40.11919" lon="20.54224">
        <ele>333.70999145508</ele>
        <time>2023-09-28T09:15:43.000Z</time>
      </trkpt>
      <trkpt lat="40.11941" lon="20.54246">
        <ele>336.11999511719</ele>
        <time>2023-09-28T09:15:41.000Z</time>
      </trkpt>
      <trkpt lat="40.11966" lon="20.54277">
        <ele>339.48001098633</ele>
        <time>2023-09-28T09:15:38.000Z</time>
      </trkpt>
      <trkpt lat="40.11973" lon="20.54285">
        <ele>340.44000244141</ele>
        <time>2023-09-28T09:15:37.000Z</time>
      </trkpt>
      <trkpt lat="40.11981" lon="20.54291">
        <ele>340.92001342773</ele>
        <time>2023-09-28T09:15:36.000Z</time>
      </trkpt>
      <trkpt lat="40.11988" lon="20.54296">
        <ele>342.36999511719</ele>
        <time>2023-09-28T09:15:35.000Z</time>
      </trkpt>
      <trkpt lat="40.11992" lon="20.54299">
        <ele>342.36999511719</ele>
        <time>2023-09-28T09:15:34.000Z</time>
      </trkpt>
      <trkpt lat="40.12003" lon="20.54304">
        <ele>343.32998657227</ele>
        <time>2023-09-28T09:15:33.000Z</time>
      </trkpt>
      <trkpt lat="40.12011" lon="20.54308">
        <ele>343.80999755859</ele>
        <time>2023-09-28T09:15:32.000Z</time>
      </trkpt>
      <trkpt lat="40.12021" lon="20.54312">
        <ele>344.29000854492</ele>
        <time>2023-09-28T09:15:31.000Z</time>
      </trkpt>
      <trkpt lat="40.12036" lon="20.54321">
        <ele>345.25</ele>
        <time>2023-09-28T09:15:29.000Z</time>
      </trkpt>
      <trkpt lat="40.12044" lon="20.54325">
        <ele>345.73001098633</ele>
        <time>2023-09-28T09:15:28.000Z</time>
      </trkpt>
      <trkpt lat="40.12052" lon="20.5433">
        <ele>346.20999145508</ele>
        <time>2023-09-28T09:15:27.000Z</time>
      </trkpt>
      <trkpt lat="40.12068" lon="20.5434">
        <ele>347.17001342773</ele>
        <time>2023-09-28T09:15:25.000Z</time>
      </trkpt>
      <trkpt lat="40.12084" lon="20.54351">
        <ele>347.17001342773</ele>
        <time>2023-09-28T09:15:24.000Z</time>
      </trkpt>
      <trkpt lat="40.12095" lon="20.54357">
        <ele>347.17001342773</ele>
        <time>2023-09-28T09:15:23.000Z</time>
      </trkpt>
      <trkpt lat="40.12102" lon="20.54359">
        <ele>347.17001342773</ele>
        <time>2023-09-28T09:15:22.000Z</time>
      </trkpt>
      <trkpt lat="40.12114" lon="20.54361">
        <ele>347.17001342773</ele>
        <time>2023-09-28T09:15:21.000Z</time>
      </trkpt>
      <trkpt lat="40.12124" lon="20.54361">
        <ele>346.69000244141</ele>
        <time>2023-09-28T09:15:20.000Z</time>
      </trkpt>
      <trkpt lat="40.12134" lon="20.54357">
        <ele>346.69000244141</ele>
        <time>2023-09-28T09:15:19.000Z</time>
      </trkpt>
      <trkpt lat="40.12136" lon="20.54357">
        <ele>346.69000244141</ele>
        <time>2023-09-28T09:15:18.000Z</time>
      </trkpt>
      <trkpt lat="40.12165" lon="20.54342">
        <ele>346.20999145508</ele>
        <time>2023-09-28T09:15:16.000Z</time>
      </trkpt>
      <trkpt lat="40.12197" lon="20.54328">
        <ele>344.76998901367</ele>
        <time>2023-09-28T09:15:13.000Z</time>
      </trkpt>
      <trkpt lat="40.12206" lon="20.54326">
        <ele>344.76998901367</ele>
        <time>2023-09-28T09:15:12.000Z</time>
      </trkpt>
      <trkpt lat="40.12215" lon="20.54324">
        <ele>344.76998901367</ele>
        <time>2023-09-28T09:15:11.000Z</time>
      </trkpt>
      <trkpt lat="40.1222" lon="20.54323">
        <ele>344.76998901367</ele>
        <time>2023-09-28T09:15:10.000Z</time>
      </trkpt>
      <trkpt lat="40.12247" lon="20.54323">
        <ele>345.25</ele>
        <time>2023-09-28T09:15:07.000Z</time>
      </trkpt>
      <trkpt lat="40.12254" lon="20.54324">
        <ele>345.25</ele>
        <time>2023-09-28T09:15:06.000Z</time>
      </trkpt>
      <trkpt lat="40.12263" lon="20.54327">
        <ele>345.25</ele>
        <time>2023-09-28T09:15:05.000Z</time>
      </trkpt>
      <trkpt lat="40.12266" lon="20.54328">
        <ele>345.73001098633</ele>
        <time>2023-09-28T09:15:04.000Z</time>
      </trkpt>
      <trkpt lat="40.12276" lon="20.54333">
        <ele>345.73001098633</ele>
        <time>2023-09-28T09:15:03.000Z</time>
      </trkpt>
      <trkpt lat="40.1228" lon="20.54334">
        <ele>345.73001098633</ele>
        <time>2023-09-28T09:15:02.000Z</time>
      </trkpt>
      <trkpt lat="40.1229" lon="20.54339">
        <ele>346.20999145508</ele>
        <time>2023-09-28T09:15:01.000Z</time>
      </trkpt>
      <trkpt lat="40.1231" lon="20.54348">
        <ele>347.17001342773</ele>
        <time>2023-09-28T09:14:59.000Z</time>
      </trkpt>
      <trkpt lat="40.1232" lon="20.54352">
        <ele>347.64999389648</ele>
        <time>2023-09-28T09:14:58.000Z</time>
      </trkpt>
      <trkpt lat="40.12329" lon="20.54354">
        <ele>347.64999389648</ele>
        <time>2023-09-28T09:14:57.000Z</time>
      </trkpt>
      <trkpt lat="40.12331" lon="20.54355">
        <ele>348.13000488281</ele>
        <time>2023-09-28T09:14:56.000Z</time>
      </trkpt>
      <trkpt lat="40.12362" lon="20.5436">
        <ele>347.17001342773</ele>
        <time>2023-09-28T09:14:53.000Z</time>
      </trkpt>
      <trkpt lat="40.12365" lon="20.5436">
        <ele>347.17001342773</ele>
        <time>2023-09-28T09:14:52.000Z</time>
      </trkpt>
      <trkpt lat="40.12374" lon="20.5436">
        <ele>347.64999389648</ele>
        <time>2023-09-28T09:14:51.000Z</time>
      </trkpt>
      <trkpt lat="40.12376" lon="20.54361">
        <ele>347.64999389648</ele>
        <time>2023-09-28T09:14:50.000Z</time>
      </trkpt>
      <trkpt lat="40.12382" lon="20.54361">
        <ele>348.13000488281</ele>
        <time>2023-09-28T09:14:49.000Z</time>
      </trkpt>
      <trkpt lat="40.12408" lon="20.54361">
        <ele>349.10000610352</ele>
        <time>2023-09-28T09:14:42.000Z</time>
      </trkpt>
      <trkpt lat="40.12414" lon="20.54364">
        <ele>349.10000610352</ele>
        <time>2023-09-28T09:14:41.000Z</time>
      </trkpt>
      <trkpt lat="40.12424" lon="20.5437">
        <ele>349.57998657227</ele>
        <time>2023-09-28T09:14:40.000Z</time>
      </trkpt>
      <trkpt lat="40.12436" lon="20.54379">
        <ele>350.05999755859</ele>
        <time>2023-09-28T09:14:39.000Z</time>
      </trkpt>
      <trkpt lat="40.12446" lon="20.54389">
        <ele>350.05999755859</ele>
        <time>2023-09-28T09:14:38.000Z</time>
      </trkpt>
      <trkpt lat="40.12451" lon="20.54396">
        <ele>350.05999755859</ele>
        <time>2023-09-28T09:14:37.000Z</time>
      </trkpt>
      <trkpt lat="40.12488" lon="20.54442">
        <ele>351.98001098633</ele>
        <time>2023-09-28T09:14:34.000Z</time>
      </trkpt>
      <trkpt lat="40.125" lon="20.54454">
        <ele>352.45999145508</ele>
        <time>2023-09-28T09:14:33.000Z</time>
      </trkpt>
      <trkpt lat="40.12516" lon="20.54468">
        <ele>354.38000488281</ele>
        <time>2023-09-28T09:14:32.000Z</time>
      </trkpt>
      <trkpt lat="40.12532" lon="20.5448">
        <ele>355.33999633789</ele>
        <time>2023-09-28T09:14:30.000Z</time>
      </trkpt>
      <trkpt lat="40.12581" lon="20.54515">
        <ele>357.75</ele>
        <time>2023-09-28T09:14:27.000Z</time>
      </trkpt>
      <trkpt lat="40.12588" lon="20.54521">
        <ele>358.23001098633</ele>
        <time>2023-09-28T09:14:26.000Z</time>
      </trkpt>
      <trkpt lat="40.12596" lon="20.54528">
        <ele>358.70999145508</ele>
        <time>2023-09-28T09:14:25.000Z</time>
      </trkpt>
      <trkpt lat="40.12612" lon="20.54544">
        <ele>360.14999389648</ele>
        <time>2023-09-28T09:14:24.000Z</time>
      </trkpt>
      <trkpt lat="40.1262" lon="20.54555">
        <ele>361.10998535156</ele>
        <time>2023-09-28T09:14:23.000Z</time>
      </trkpt>
      <trkpt lat="40.12633" lon="20.54573">
        <ele>363.04000854492</ele>
        <time>2023-09-28T09:14:22.000Z</time>
      </trkpt>
      <trkpt lat="40.12644" lon="20.54583">
        <ele>364.48001098633</ele>
        <time>2023-09-28T09:14:21.000Z</time>
      </trkpt>
      <trkpt lat="40.12656" lon="20.5459">
        <ele>365.92001342773</ele>
        <time>2023-09-28T09:14:20.000Z</time>
      </trkpt>
      <trkpt lat="40.12668" lon="20.54595">
        <ele>366.88000488281</ele>
        <time>2023-09-28T09:14:19.000Z</time>
      </trkpt>
      <trkpt lat="40.12683" lon="20.546">
        <ele>368.32000732422</ele>
        <time>2023-09-28T09:14:18.000Z</time>
      </trkpt>
      <trkpt lat="40.12692" lon="20.54602">
        <ele>369.2799987793</ele>
        <time>2023-09-28T09:14:17.000Z</time>
      </trkpt>
      <trkpt lat="40.12707" lon="20.54605">
        <ele>370.23999023438</ele>
        <time>2023-09-28T09:14:16.000Z</time>
      </trkpt>
      <trkpt lat="40.12718" lon="20.54607">
        <ele>370.73001098633</ele>
        <time>2023-09-28T09:14:15.000Z</time>
      </trkpt>
      <trkpt lat="40.12729" lon="20.54608">
        <ele>371.69000244141</ele>
        <time>2023-09-28T09:14:14.000Z</time>
      </trkpt>
      <trkpt lat="40.12739" lon="20.5461">
        <ele>372.17001342773</ele>
        <time>2023-09-28T09:14:13.000Z</time>
      </trkpt>
      <trkpt lat="40.12747" lon="20.54615">
        <ele>372.64999389648</ele>
        <time>2023-09-28T09:14:12.000Z</time>
      </trkpt>
      <trkpt lat="40.12752" lon="20.54625">
        <ele>373.13000488281</ele>
        <time>2023-09-28T09:14:11.000Z</time>
      </trkpt>
      <trkpt lat="40.12755" lon="20.54635">
        <ele>373.60998535156</ele>
        <time>2023-09-28T09:14:10.000Z</time>
      </trkpt>
      <trkpt lat="40.12756" lon="20.54639">
        <ele>373.60998535156</ele>
        <time>2023-09-28T09:14:09.000Z</time>
      </trkpt>
      <trkpt lat="40.12763" lon="20.54666">
        <ele>374.57000732422</ele>
        <time>2023-09-28T09:14:08.000Z</time>
      </trkpt>
      <trkpt lat="40.12764" lon="20.54669">
        <ele>374.57000732422</ele>
        <time>2023-09-28T09:14:07.000Z</time>
      </trkpt>
      <trkpt lat="40.12783" lon="20.54731">
        <ele>376.9700012207</ele>
        <time>2023-09-28T09:14:04.000Z</time>
      </trkpt>
      <trkpt lat="40.128" lon="20.54789">
        <ele>380.82000732422</ele>
        <time>2023-09-28T09:14:01.000Z</time>
      </trkpt>
      <trkpt lat="40.12804" lon="20.54802">
        <ele>381.7799987793</ele>
        <time>2023-09-28T09:14:00.000Z</time>
      </trkpt>
      <trkpt lat="40.1281" lon="20.54814">
        <ele>382.73999023438</ele>
        <time>2023-09-28T09:13:59.000Z</time>
      </trkpt>
      <trkpt lat="40.12817" lon="20.54824">
        <ele>383.70001220703</ele>
        <time>2023-09-28T09:13:58.000Z</time>
      </trkpt>
      <trkpt lat="40.12822" lon="20.54829">
        <ele>384.17999267578</ele>
        <time>2023-09-28T09:13:57.000Z</time>
      </trkpt>
      <trkpt lat="40.12835" lon="20.54841">
        <ele>384.66000366211</ele>
        <time>2023-09-28T09:13:56.000Z</time>
      </trkpt>
      <trkpt lat="40.12842" lon="20.5485">
        <ele>385.63000488281</ele>
        <time>2023-09-28T09:13:55.000Z</time>
      </trkpt>
      <trkpt lat="40.12847" lon="20.5486">
        <ele>386.10998535156</ele>
        <time>2023-09-28T09:13:54.000Z</time>
      </trkpt>
      <trkpt lat="40.12849" lon="20.54873">
        <ele>387.07000732422</ele>
        <time>2023-09-28T09:13:53.000Z</time>
      </trkpt>
      <trkpt lat="40.1285" lon="20.54881">
        <ele>388.0299987793</ele>
        <time>2023-09-28T09:13:52.000Z</time>
      </trkpt>
      <trkpt lat="40.1285" lon="20.5489">
        <ele>388.51000976562</ele>
        <time>2023-09-28T09:13:51.000Z</time>
      </trkpt>
      <trkpt lat="40.12848" lon="20.54933">
        <ele>391.86999511719</ele>
        <time>2023-09-28T09:13:48.000Z</time>
      </trkpt>
      <trkpt lat="40.12847" lon="20.54953">
        <ele>393.79998779297</ele>
        <time>2023-09-28T09:13:47.000Z</time>
      </trkpt>
      <trkpt lat="40.12847" lon="20.54964">
        <ele>394.2799987793</ele>
        <time>2023-09-28T09:13:46.000Z</time>
      </trkpt>
      <trkpt lat="40.1285" lon="20.54975">
        <ele>394.76000976562</ele>
        <time>2023-09-28T09:13:45.000Z</time>
      </trkpt>
      <trkpt lat="40.12854" lon="20.54983">
        <ele>394.76000976562</ele>
        <time>2023-09-28T09:13:44.000Z</time>
      </trkpt>
      <trkpt lat="40.1286" lon="20.54989">
        <ele>395.23999023438</ele>
        <time>2023-09-28T09:13:43.000Z</time>
      </trkpt>
      <trkpt lat="40.12868" lon="20.54991">
        <ele>395.23999023438</ele>
        <time>2023-09-28T09:13:42.000Z</time>
      </trkpt>
      <trkpt lat="40.12875" lon="20.54989">
        <ele>395.7200012207</ele>
        <time>2023-09-28T09:13:41.000Z</time>
      </trkpt>
      <trkpt lat="40.12882" lon="20.54984">
        <ele>396.20001220703</ele>
        <time>2023-09-28T09:13:40.000Z</time>
      </trkpt>
      <trkpt lat="40.12889" lon="20.54977">
        <ele>396.20001220703</ele>
        <time>2023-09-28T09:13:39.000Z</time>
      </trkpt>
      <trkpt lat="40.12895" lon="20.54967">
        <ele>396.67999267578</ele>
        <time>2023-09-28T09:13:38.000Z</time>
      </trkpt>
      <trkpt lat="40.12898" lon="20.54955">
        <ele>396.67999267578</ele>
        <time>2023-09-28T09:13:37.000Z</time>
      </trkpt>
      <trkpt lat="40.129" lon="20.5494">
        <ele>397.16000366211</ele>
        <time>2023-09-28T09:13:36.000Z</time>
      </trkpt>
      <trkpt lat="40.129" lon="20.54926">
        <ele>397.64001464844</ele>
        <time>2023-09-28T09:13:35.000Z</time>
      </trkpt>
      <trkpt lat="40.12901" lon="20.54913">
        <ele>398.11999511719</ele>
        <time>2023-09-28T09:13:34.000Z</time>
      </trkpt>
      <trkpt lat="40.12903" lon="20.54902">
        <ele>398.60000610352</ele>
        <time>2023-09-28T09:13:33.000Z</time>
      </trkpt>
      <trkpt lat="40.12909" lon="20.54895">
        <ele>398.60000610352</ele>
        <time>2023-09-28T09:13:32.000Z</time>
      </trkpt>
      <trkpt lat="40.12917" lon="20.54891">
        <ele>398.11999511719</ele>
        <time>2023-09-28T09:13:31.000Z</time>
      </trkpt>
      <trkpt lat="40.12925" lon="20.54892">
        <ele>398.60000610352</ele>
        <time>2023-09-28T09:13:30.000Z</time>
      </trkpt>
      <trkpt lat="40.12932" lon="20.54895">
        <ele>397.64001464844</ele>
        <time>2023-09-28T09:13:29.000Z</time>
      </trkpt>
      <trkpt lat="40.12944" lon="20.54901">
        <ele>397.16000366211</ele>
        <time>2023-09-28T09:13:28.000Z</time>
      </trkpt>
      <trkpt lat="40.12981" lon="20.54917">
        <ele>396.67999267578</ele>
        <time>2023-09-28T09:13:25.000Z</time>
      </trkpt>
      <trkpt lat="40.12991" lon="20.54922">
        <ele>397.16000366211</ele>
        <time>2023-09-28T09:13:24.000Z</time>
      </trkpt>
      <trkpt lat="40.13" lon="20.54926">
        <ele>397.16000366211</ele>
        <time>2023-09-28T09:13:23.000Z</time>
      </trkpt>
      <trkpt lat="40.13024" lon="20.5494">
        <ele>398.11999511719</ele>
        <time>2023-09-28T09:13:21.000Z</time>
      </trkpt>
      <trkpt lat="40.13044" lon="20.54951">
        <ele>398.11999511719</ele>
        <time>2023-09-28T09:13:20.000Z</time>
      </trkpt>
      <trkpt lat="40.13058" lon="20.54956">
        <ele>398.11999511719</ele>
        <time>2023-09-28T09:13:19.000Z</time>
      </trkpt>
      <trkpt lat="40.13065" lon="20.54959">
        <ele>397.64001464844</ele>
        <time>2023-09-28T09:13:18.000Z</time>
      </trkpt>
      <trkpt lat="40.13098" lon="20.54967">
        <ele>398.11999511719</ele>
        <time>2023-09-28T09:13:16.000Z</time>
      </trkpt>
      <trkpt lat="40.13108" lon="20.5497">
        <ele>398.60000610352</ele>
        <time>2023-09-28T09:13:15.000Z</time>
      </trkpt>
      <trkpt lat="40.13116" lon="20.54976">
        <ele>399.07998657227</ele>
        <time>2023-09-28T09:13:14.000Z</time>
      </trkpt>
      <trkpt lat="40.13125" lon="20.54985">
        <ele>399.57000732422</ele>
        <time>2023-09-28T09:13:13.000Z</time>
      </trkpt>
      <trkpt lat="40.13132" lon="20.54993">
        <ele>399.57000732422</ele>
        <time>2023-09-28T09:13:12.000Z</time>
      </trkpt>
      <trkpt lat="40.13141" lon="20.54999">
        <ele>400.04998779297</ele>
        <time>2023-09-28T09:13:11.000Z</time>
      </trkpt>
      <trkpt lat="40.13149" lon="20.55002">
        <ele>400.04998779297</ele>
        <time>2023-09-28T09:13:10.000Z</time>
      </trkpt>
      <trkpt lat="40.13156" lon="20.55003">
        <ele>400.04998779297</ele>
        <time>2023-09-28T09:13:09.000Z</time>
      </trkpt>
      <trkpt lat="40.13164" lon="20.55001">
        <ele>400.04998779297</ele>
        <time>2023-09-28T09:13:08.000Z</time>
      </trkpt>
      <trkpt lat="40.13171" lon="20.54996">
        <ele>400.5299987793</ele>
        <time>2023-09-28T09:13:07.000Z</time>
      </trkpt>
      <trkpt lat="40.13177" lon="20.54992">
        <ele>400.5299987793</ele>
        <time>2023-09-28T09:13:06.000Z</time>
      </trkpt>
      <trkpt lat="40.13187" lon="20.54983">
        <ele>400.5299987793</ele>
        <time>2023-09-28T09:13:05.000Z</time>
      </trkpt>
      <trkpt lat="40.13195" lon="20.54977">
        <ele>400.04998779297</ele>
        <time>2023-09-28T09:13:04.000Z</time>
      </trkpt>
      <trkpt lat="40.13204" lon="20.54973">
        <ele>400.04998779297</ele>
        <time>2023-09-28T09:13:03.000Z</time>
      </trkpt>
      <trkpt lat="40.13207" lon="20.54973">
        <ele>400.04998779297</ele>
        <time>2023-09-28T09:13:02.000Z</time>
      </trkpt>
      <trkpt lat="40.13284" lon="20.54972">
        <ele>399.07998657227</ele>
        <time>2023-09-28T09:12:56.000Z</time>
      </trkpt>
      <trkpt lat="40.13297" lon="20.54975">
        <ele>398.60000610352</ele>
        <time>2023-09-28T09:12:55.000Z</time>
      </trkpt>
      <trkpt lat="40.13304" lon="20.54979">
        <ele>397.16000366211</ele>
        <time>2023-09-28T09:12:54.000Z</time>
      </trkpt>
      <trkpt lat="40.13316" lon="20.54987">
        <ele>396.20001220703</ele>
        <time>2023-09-28T09:12:53.000Z</time>
      </trkpt>
      <trkpt lat="40.13327" lon="20.54991">
        <ele>396.20001220703</ele>
        <time>2023-09-28T09:12:52.000Z</time>
      </trkpt>
      <trkpt lat="40.13338" lon="20.54993">
        <ele>396.20001220703</ele>
        <time>2023-09-28T09:12:51.000Z</time>
      </trkpt>
      <trkpt lat="40.13347" lon="20.54994">
        <ele>396.67999267578</ele>
        <time>2023-09-28T09:12:50.000Z</time>
      </trkpt>
      <trkpt lat="40.13363" lon="20.54996">
        <ele>397.16000366211</ele>
        <time>2023-09-28T09:12:49.000Z</time>
      </trkpt>
      <trkpt lat="40.13374" lon="20.54998">
        <ele>397.64001464844</ele>
        <time>2023-09-28T09:12:48.000Z</time>
      </trkpt>
      <trkpt lat="40.13385" lon="20.55001">
        <ele>398.60000610352</ele>
        <time>2023-09-28T09:12:47.000Z</time>
      </trkpt>
      <trkpt lat="40.13395" lon="20.55006">
        <ele>399.07998657227</ele>
        <time>2023-09-28T09:12:46.000Z</time>
      </trkpt>
      <trkpt lat="40.13405" lon="20.55012">
        <ele>399.57000732422</ele>
        <time>2023-09-28T09:12:45.000Z</time>
      </trkpt>
      <trkpt lat="40.13413" lon="20.55019">
        <ele>400.04998779297</ele>
        <time>2023-09-28T09:12:44.000Z</time>
      </trkpt>
      <trkpt lat="40.13418" lon="20.55023">
        <ele>400.5299987793</ele>
        <time>2023-09-28T09:12:43.000Z</time>
      </trkpt>
      <trkpt lat="40.13443" lon="20.55054">
        <ele>401.9700012207</ele>
        <time>2023-09-28T09:12:40.000Z</time>
      </trkpt>
      <trkpt lat="40.13444" lon="20.55055">
        <ele>401.9700012207</ele>
        <time>2023-09-28T09:12:39.000Z</time>
      </trkpt>
      <trkpt lat="40.13453" lon="20.55066">
        <ele>401.9700012207</ele>
        <time>2023-09-28T09:12:38.000Z</time>
      </trkpt>
      <trkpt lat="40.13459" lon="20.55073">
        <ele>401.9700012207</ele>
        <time>2023-09-28T09:12:37.000Z</time>
      </trkpt>
      <trkpt lat="40.13463" lon="20.55078">
        <ele>401.9700012207</ele>
        <time>2023-09-28T09:12:36.000Z</time>
      </trkpt>
      <trkpt lat="40.13466" lon="20.55082">
        <ele>401.9700012207</ele>
        <time>2023-09-28T09:12:35.000Z</time>
      </trkpt>
      <trkpt lat="40.13469" lon="20.55088">
        <ele>401.9700012207</ele>
        <time>2023-09-28T09:12:34.000Z</time>
      </trkpt>
      <trkpt lat="40.13471" lon="20.55092">
        <ele>402.45001220703</ele>
        <time>2023-09-28T09:12:33.000Z</time>
      </trkpt>
      <trkpt lat="40.13473" lon="20.551">
        <ele>402.45001220703</ele>
        <time>2023-09-28T09:12:32.000Z</time>
      </trkpt>
      <trkpt lat="40.13476" lon="20.55108">
        <ele>402.45001220703</ele>
        <time>2023-09-28T09:12:31.000Z</time>
      </trkpt>
      <trkpt lat="40.13477" lon="20.55109">
        <ele>402.45001220703</ele>
        <time>2023-09-28T09:12:30.000Z</time>
      </trkpt>
      <trkpt lat="40.13482" lon="20.5512">
        <ele>401.9700012207</ele>
        <time>2023-09-28T09:12:29.000Z</time>
      </trkpt>
      <trkpt lat="40.13483" lon="20.55123">
        <ele>401.9700012207</ele>
        <time>2023-09-28T09:12:28.000Z</time>
      </trkpt>
      <trkpt lat="40.13488" lon="20.55133">
        <ele>401.9700012207</ele>
        <time>2023-09-28T09:12:27.000Z</time>
      </trkpt>
      <trkpt lat="40.13493" lon="20.55142">
        <ele>401.9700012207</ele>
        <time>2023-09-28T09:12:25.000Z</time>
      </trkpt>
      <trkpt lat="40.13499" lon="20.55152">
        <ele>402.92999267578</ele>
        <time>2023-09-28T09:12:24.000Z</time>
      </trkpt>
      <trkpt lat="40.13507" lon="20.55164">
        <ele>402.92999267578</ele>
        <time>2023-09-28T09:12:22.000Z</time>
      </trkpt>
      <trkpt lat="40.13513" lon="20.55171">
        <ele>403.41000366211</ele>
        <time>2023-09-28T09:12:21.000Z</time>
      </trkpt>
      <trkpt lat="40.13518" lon="20.55177">
        <ele>403.41000366211</ele>
        <time>2023-09-28T09:12:20.000Z</time>
      </trkpt>
      <trkpt lat="40.13524" lon="20.5518">
        <ele>403.41000366211</ele>
        <time>2023-09-28T09:12:19.000Z</time>
      </trkpt>
      <trkpt lat="40.13532" lon="20.55185">
        <ele>403.41000366211</ele>
        <time>2023-09-28T09:12:18.000Z</time>
      </trkpt>
      <trkpt lat="40.1354" lon="20.55188">
        <ele>402.92999267578</ele>
        <time>2023-09-28T09:12:17.000Z</time>
      </trkpt>
      <trkpt lat="40.13548" lon="20.55189">
        <ele>402.92999267578</ele>
        <time>2023-09-28T09:12:16.000Z</time>
      </trkpt>
      <trkpt lat="40.13556" lon="20.5519">
        <ele>402.92999267578</ele>
        <time>2023-09-28T09:12:15.000Z</time>
      </trkpt>
      <trkpt lat="40.13563" lon="20.55189">
        <ele>402.45001220703</ele>
        <time>2023-09-28T09:12:14.000Z</time>
      </trkpt>
      <trkpt lat="40.13569" lon="20.55185">
        <ele>402.92999267578</ele>
        <time>2023-09-28T09:12:13.000Z</time>
      </trkpt>
      <trkpt lat="40.13576" lon="20.5518">
        <ele>402.92999267578</ele>
        <time>2023-09-28T09:12:12.000Z</time>
      </trkpt>
      <trkpt lat="40.1358" lon="20.55176">
        <ele>402.45001220703</ele>
        <time>2023-09-28T09:12:11.000Z</time>
      </trkpt>
      <trkpt lat="40.13587" lon="20.55169">
        <ele>402.45001220703</ele>
        <time>2023-09-28T09:12:10.000Z</time>
      </trkpt>
      <trkpt lat="40.13593" lon="20.55164">
        <ele>402.45001220703</ele>
        <time>2023-09-28T09:12:09.000Z</time>
      </trkpt>
      <trkpt lat="40.13599" lon="20.55162">
        <ele>402.45001220703</ele>
        <time>2023-09-28T09:12:08.000Z</time>
      </trkpt>
      <trkpt lat="40.13606" lon="20.55162">
        <ele>401.9700012207</ele>
        <time>2023-09-28T09:12:07.000Z</time>
      </trkpt>
      <trkpt lat="40.13612" lon="20.55164">
        <ele>401.9700012207</ele>
        <time>2023-09-28T09:12:06.000Z</time>
      </trkpt>
      <trkpt lat="40.13618" lon="20.55167">
        <ele>401.9700012207</ele>
        <time>2023-09-28T09:12:05.000Z</time>
      </trkpt>
      <trkpt lat="40.13622" lon="20.55174">
        <ele>401.9700012207</ele>
        <time>2023-09-28T09:12:04.000Z</time>
      </trkpt>
      <trkpt lat="40.13623" lon="20.55175">
        <ele>401.9700012207</ele>
        <time>2023-09-28T09:12:03.000Z</time>
      </trkpt>
      <trkpt lat="40.1363" lon="20.5519">
        <ele>401.9700012207</ele>
        <time>2023-09-28T09:12:02.000Z</time>
      </trkpt>
      <trkpt lat="40.13634" lon="20.55198">
        <ele>401.9700012207</ele>
        <time>2023-09-28T09:12:01.000Z</time>
      </trkpt>
      <trkpt lat="40.13638" lon="20.55204">
        <ele>401.9700012207</ele>
        <time>2023-09-28T09:12:00.000Z</time>
      </trkpt>
      <trkpt lat="40.13652" lon="20.55219">
        <ele>402.45001220703</ele>
        <time>2023-09-28T09:11:58.000Z</time>
      </trkpt>
      <trkpt lat="40.13659" lon="20.55225">
        <ele>402.45001220703</ele>
        <time>2023-09-28T09:11:57.000Z</time>
      </trkpt>
      <trkpt lat="40.13665" lon="20.55229">
        <ele>402.45001220703</ele>
        <time>2023-09-28T09:11:56.000Z</time>
      </trkpt>
      <trkpt lat="40.1367" lon="20.55232">
        <ele>402.92999267578</ele>
        <time>2023-09-28T09:11:55.000Z</time>
      </trkpt>
      <trkpt lat="40.13682" lon="20.55241">
        <ele>403.89001464844</ele>
        <time>2023-09-28T09:11:54.000Z</time>
      </trkpt>
      <trkpt lat="40.13701" lon="20.55254">
        <ele>405.32998657227</ele>
        <time>2023-09-28T09:11:52.000Z</time>
      </trkpt>
      <trkpt lat="40.13709" lon="20.55261">
        <ele>406.29000854492</ele>
        <time>2023-09-28T09:11:51.000Z</time>
      </trkpt>
      <trkpt lat="40.13715" lon="20.55268">
        <ele>407.26000976562</ele>
        <time>2023-09-28T09:11:50.000Z</time>
      </trkpt>
      <trkpt lat="40.13719" lon="20.55274">
        <ele>407.73999023438</ele>
        <time>2023-09-28T09:11:49.000Z</time>
      </trkpt>
      <trkpt lat="40.13722" lon="20.55283">
        <ele>408.70001220703</ele>
        <time>2023-09-28T09:11:48.000Z</time>
      </trkpt>
      <trkpt lat="40.13723" lon="20.55285">
        <ele>408.70001220703</ele>
        <time>2023-09-28T09:11:47.000Z</time>
      </trkpt>
      <trkpt lat="40.13727" lon="20.55299">
        <ele>409.66000366211</ele>
        <time>2023-09-28T09:11:46.000Z</time>
      </trkpt>
      <trkpt lat="40.13728" lon="20.55306">
        <ele>410.61999511719</ele>
        <time>2023-09-28T09:11:45.000Z</time>
      </trkpt>
      <trkpt lat="40.13731" lon="20.55323">
        <ele>411.57998657227</ele>
        <time>2023-09-28T09:11:43.000Z</time>
      </trkpt>
      <trkpt lat="40.13731" lon="20.55329">
        <ele>412.05999755859</ele>
        <time>2023-09-28T09:11:42.000Z</time>
      </trkpt>
      <trkpt lat="40.13731" lon="20.55339">
        <ele>413.01998901367</ele>
        <time>2023-09-28T09:11:41.000Z</time>
      </trkpt>
      <trkpt lat="40.13731" lon="20.55356">
        <ele>414.4700012207</ele>
        <time>2023-09-28T09:11:39.000Z</time>
      </trkpt>
      <trkpt lat="40.13731" lon="20.55371">
        <ele>415.42999267578</ele>
        <time>2023-09-28T09:11:38.000Z</time>
      </trkpt>
      <trkpt lat="40.1373" lon="20.55383">
        <ele>416.39001464844</ele>
        <time>2023-09-28T09:11:37.000Z</time>
      </trkpt>
      <trkpt lat="40.13728" lon="20.55397">
        <ele>418.30999755859</ele>
        <time>2023-09-28T09:11:36.000Z</time>
      </trkpt>
      <trkpt lat="40.13724" lon="20.55407">
        <ele>419.26998901367</ele>
        <time>2023-09-28T09:11:35.000Z</time>
      </trkpt>
      <trkpt lat="40.13718" lon="20.5542">
        <ele>420.70999145508</ele>
        <time>2023-09-28T09:11:34.000Z</time>
      </trkpt>
      <trkpt lat="40.13713" lon="20.55429">
        <ele>421.67999267578</ele>
        <time>2023-09-28T09:11:33.000Z</time>
      </trkpt>
      <trkpt lat="40.13712" lon="20.55438">
        <ele>422.64001464844</ele>
        <time>2023-09-28T09:11:32.000Z</time>
      </trkpt>
      <trkpt lat="40.13712" lon="20.55445">
        <ele>423.11999511719</ele>
        <time>2023-09-28T09:11:31.000Z</time>
      </trkpt>
      <trkpt lat="40.13717" lon="20.5545">
        <ele>423.60000610352</ele>
        <time>2023-09-28T09:11:30.000Z</time>
      </trkpt>
      <trkpt lat="40.13723" lon="20.5545">
        <ele>424.07998657227</ele>
        <time>2023-09-28T09:11:29.000Z</time>
      </trkpt>
      <trkpt lat="40.13731" lon="20.55445">
        <ele>424.07998657227</ele>
        <time>2023-09-28T09:11:28.000Z</time>
      </trkpt>
      <trkpt lat="40.13738" lon="20.55437">
        <ele>424.55999755859</ele>
        <time>2023-09-28T09:11:27.000Z</time>
      </trkpt>
      <trkpt lat="40.13744" lon="20.5543">
        <ele>424.55999755859</ele>
        <time>2023-09-28T09:11:26.000Z</time>
      </trkpt>
      <trkpt lat="40.13751" lon="20.55426">
        <ele>424.55999755859</ele>
        <time>2023-09-28T09:11:25.000Z</time>
      </trkpt>
      <trkpt lat="40.13757" lon="20.55425">
        <ele>425.04000854492</ele>
        <time>2023-09-28T09:11:24.000Z</time>
      </trkpt>
      <trkpt lat="40.13763" lon="20.5543">
        <ele>425.04000854492</ele>
        <time>2023-09-28T09:11:23.000Z</time>
      </trkpt>
      <trkpt lat="40.13768" lon="20.55439">
        <ele>425.51998901367</ele>
        <time>2023-09-28T09:11:22.000Z</time>
      </trkpt>
      <trkpt lat="40.1377" lon="20.55449">
        <ele>426</ele>
        <time>2023-09-28T09:11:21.000Z</time>
      </trkpt>
      <trkpt lat="40.13773" lon="20.55462">
        <ele>426</ele>
        <time>2023-09-28T09:11:20.000Z</time>
      </trkpt>
      <trkpt lat="40.13775" lon="20.55472">
        <ele>426</ele>
        <time>2023-09-28T09:11:19.000Z</time>
      </trkpt>
      <trkpt lat="40.13779" lon="20.55479">
        <ele>426.48001098633</ele>
        <time>2023-09-28T09:11:18.000Z</time>
      </trkpt>
      <trkpt lat="40.13785" lon="20.55483">
        <ele>426.48001098633</ele>
        <time>2023-09-28T09:11:17.000Z</time>
      </trkpt>
      <trkpt lat="40.13792" lon="20.55482">
        <ele>426.48001098633</ele>
        <time>2023-09-28T09:11:16.000Z</time>
      </trkpt>
      <trkpt lat="40.13799" lon="20.55477">
        <ele>426.48001098633</ele>
        <time>2023-09-28T09:11:15.000Z</time>
      </trkpt>
      <trkpt lat="40.13803" lon="20.55473">
        <ele>426.48001098633</ele>
        <time>2023-09-28T09:11:14.000Z</time>
      </trkpt>
      <trkpt lat="40.13811" lon="20.55463">
        <ele>426.48001098633</ele>
        <time>2023-09-28T09:11:13.000Z</time>
      </trkpt>
      <trkpt lat="40.13821" lon="20.5545">
        <ele>425.51998901367</ele>
        <time>2023-09-28T09:11:12.000Z</time>
      </trkpt>
      <trkpt lat="40.1383" lon="20.55443">
        <ele>425.04000854492</ele>
        <time>2023-09-28T09:11:11.000Z</time>
      </trkpt>
      <trkpt lat="40.13834" lon="20.55441">
        <ele>425.04000854492</ele>
        <time>2023-09-28T09:11:10.000Z</time>
      </trkpt>
      <trkpt lat="40.13862" lon="20.55427">
        <ele>426</ele>
        <time>2023-09-28T09:11:08.000Z</time>
      </trkpt>
      <trkpt lat="40.13873" lon="20.55425">
        <ele>426.48001098633</ele>
        <time>2023-09-28T09:11:07.000Z</time>
      </trkpt>
      <trkpt lat="40.13881" lon="20.55427">
        <ele>426.95999145508</ele>
        <time>2023-09-28T09:11:06.000Z</time>
      </trkpt>
      <trkpt lat="40.13888" lon="20.5543">
        <ele>427.44000244141</ele>
        <time>2023-09-28T09:11:05.000Z</time>
      </trkpt>
      <trkpt lat="40.13915" lon="20.55442">
        <ele>428.89001464844</ele>
        <time>2023-09-28T09:11:03.000Z</time>
      </trkpt>
      <trkpt lat="40.13927" lon="20.55444">
        <ele>429.36999511719</ele>
        <time>2023-09-28T09:11:02.000Z</time>
      </trkpt>
      <trkpt lat="40.13935" lon="20.55443">
        <ele>429.36999511719</ele>
        <time>2023-09-28T09:11:01.000Z</time>
      </trkpt>
      <trkpt lat="40.13947" lon="20.55442">
        <ele>429.85000610352</ele>
        <time>2023-09-28T09:11:00.000Z</time>
      </trkpt>
      <trkpt lat="40.13955" lon="20.55445">
        <ele>429.85000610352</ele>
        <time>2023-09-28T09:10:59.000Z</time>
      </trkpt>
      <trkpt lat="40.13961" lon="20.55451">
        <ele>430.32998657227</ele>
        <time>2023-09-28T09:10:58.000Z</time>
      </trkpt>
      <trkpt lat="40.13967" lon="20.55461">
        <ele>431.29000854492</ele>
        <time>2023-09-28T09:10:57.000Z</time>
      </trkpt>
      <trkpt lat="40.1397" lon="20.5547">
        <ele>432.25</ele>
        <time>2023-09-28T09:10:56.000Z</time>
      </trkpt>
      <trkpt lat="40.13983" lon="20.55503">
        <ele>434.64999389648</ele>
        <time>2023-09-28T09:10:54.000Z</time>
      </trkpt>
      <trkpt lat="40.13989" lon="20.55515">
        <ele>435.60998535156</ele>
        <time>2023-09-28T09:10:53.000Z</time>
      </trkpt>
      <trkpt lat="40.13997" lon="20.55524">
        <ele>436.10000610352</ele>
        <time>2023-09-28T09:10:52.000Z</time>
      </trkpt>
      <trkpt lat="40.14005" lon="20.5553">
        <ele>436.10000610352</ele>
        <time>2023-09-28T09:10:51.000Z</time>
      </trkpt>
      <trkpt lat="40.14015" lon="20.55533">
        <ele>436.10000610352</ele>
        <time>2023-09-28T09:10:50.000Z</time>
      </trkpt>
      <trkpt lat="40.14025" lon="20.55532">
        <ele>435.60998535156</ele>
        <time>2023-09-28T09:10:49.000Z</time>
      </trkpt>
      <trkpt lat="40.14029" lon="20.5553">
        <ele>435.60998535156</ele>
        <time>2023-09-28T09:10:48.000Z</time>
      </trkpt>
      <trkpt lat="40.14045" lon="20.55524">
        <ele>433.69000244141</ele>
        <time>2023-09-28T09:10:47.000Z</time>
      </trkpt>
      <trkpt lat="40.14054" lon="20.55524">
        <ele>433.20999145508</ele>
        <time>2023-09-28T09:10:46.000Z</time>
      </trkpt>
      <trkpt lat="40.14062" lon="20.55528">
        <ele>432.25</ele>
        <time>2023-09-28T09:10:45.000Z</time>
      </trkpt>
      <trkpt lat="40.1407" lon="20.55536">
        <ele>431.29000854492</ele>
        <time>2023-09-28T09:10:44.000Z</time>
      </trkpt>
      <trkpt lat="40.14077" lon="20.55543">
        <ele>430.32998657227</ele>
        <time>2023-09-28T09:10:43.000Z</time>
      </trkpt>
      <trkpt lat="40.14085" lon="20.55546">
        <ele>430.32998657227</ele>
        <time>2023-09-28T09:10:42.000Z</time>
      </trkpt>
      <trkpt lat="40.14093" lon="20.55545">
        <ele>429.36999511719</ele>
        <time>2023-09-28T09:10:41.000Z</time>
      </trkpt>
      <trkpt lat="40.14103" lon="20.5554">
        <ele>428.89001464844</ele>
        <time>2023-09-28T09:10:40.000Z</time>
      </trkpt>
      <trkpt lat="40.1411" lon="20.55536">
        <ele>428.39999389648</ele>
        <time>2023-09-28T09:10:39.000Z</time>
      </trkpt>
      <trkpt lat="40.14126" lon="20.55527">
        <ele>426.48001098633</ele>
        <time>2023-09-28T09:10:38.000Z</time>
      </trkpt>
      <trkpt lat="40.14138" lon="20.55524">
        <ele>425.04000854492</ele>
        <time>2023-09-28T09:10:37.000Z</time>
      </trkpt>
      <trkpt lat="40.14141" lon="20.55524">
        <ele>424.55999755859</ele>
        <time>2023-09-28T09:10:36.000Z</time>
      </trkpt>
      <trkpt lat="40.14167" lon="20.55522">
        <ele>423.60000610352</ele>
        <time>2023-09-28T09:10:35.000Z</time>
      </trkpt>
      <trkpt lat="40.14192" lon="20.5552">
        <ele>423.60000610352</ele>
        <time>2023-09-28T09:10:33.000Z</time>
      </trkpt>
      <trkpt lat="40.14224" lon="20.55518">
        <ele>424.07998657227</ele>
        <time>2023-09-28T09:10:31.000Z</time>
      </trkpt>
      <trkpt lat="40.14233" lon="20.55519">
        <ele>424.55999755859</ele>
        <time>2023-09-28T09:10:30.000Z</time>
      </trkpt>
      <trkpt lat="40.14242" lon="20.55524">
        <ele>424.55999755859</ele>
        <time>2023-09-28T09:10:29.000Z</time>
      </trkpt>
      <trkpt lat="40.14247" lon="20.55528">
        <ele>424.55999755859</ele>
        <time>2023-09-28T09:10:28.000Z</time>
      </trkpt>
      <trkpt lat="40.14267" lon="20.55551">
        <ele>426.48001098633</ele>
        <time>2023-09-28T09:10:26.000Z</time>
      </trkpt>
      <trkpt lat="40.14273" lon="20.55561">
        <ele>427.44000244141</ele>
        <time>2023-09-28T09:10:25.000Z</time>
      </trkpt>
      <trkpt lat="40.14276" lon="20.5557">
        <ele>427.92001342773</ele>
        <time>2023-09-28T09:10:24.000Z</time>
      </trkpt>
      <trkpt lat="40.1428" lon="20.55584">
        <ele>428.89001464844</ele>
        <time>2023-09-28T09:10:23.000Z</time>
      </trkpt>
      <trkpt lat="40.14283" lon="20.55598">
        <ele>429.36999511719</ele>
        <time>2023-09-28T09:10:22.000Z</time>
      </trkpt>
      <trkpt lat="40.14289" lon="20.55611">
        <ele>430.80999755859</ele>
        <time>2023-09-28T09:10:21.000Z</time>
      </trkpt>
      <trkpt lat="40.14295" lon="20.55621">
        <ele>432.25</ele>
        <time>2023-09-28T09:10:20.000Z</time>
      </trkpt>
      <trkpt lat="40.14302" lon="20.5563">
        <ele>433.20999145508</ele>
        <time>2023-09-28T09:10:19.000Z</time>
      </trkpt>
      <trkpt lat="40.1431" lon="20.55638">
        <ele>434.17001342773</ele>
        <time>2023-09-28T09:10:18.000Z</time>
      </trkpt>
      <trkpt lat="40.14317" lon="20.55643">
        <ele>434.64999389648</ele>
        <time>2023-09-28T09:10:17.000Z</time>
      </trkpt>
      <trkpt lat="40.14322" lon="20.55646">
        <ele>435.13000488281</ele>
        <time>2023-09-28T09:10:16.000Z</time>
      </trkpt>
      <trkpt lat="40.14329" lon="20.5565">
        <ele>436.10000610352</ele>
        <time>2023-09-28T09:10:15.000Z</time>
      </trkpt>
      <trkpt lat="40.14343" lon="20.55657">
        <ele>436.57998657227</ele>
        <time>2023-09-28T09:10:14.000Z</time>
      </trkpt>
      <trkpt lat="40.14349" lon="20.55661">
        <ele>437.05999755859</ele>
        <time>2023-09-28T09:10:13.000Z</time>
      </trkpt>
      <trkpt lat="40.14364" lon="20.55672">
        <ele>437.54000854492</ele>
        <time>2023-09-28T09:10:12.000Z</time>
      </trkpt>
      <trkpt lat="40.14373" lon="20.55677">
        <ele>437.54000854492</ele>
        <time>2023-09-28T09:10:11.000Z</time>
      </trkpt>
      <trkpt lat="40.1438" lon="20.55679">
        <ele>437.54000854492</ele>
        <time>2023-09-28T09:10:10.000Z</time>
      </trkpt>
      <trkpt lat="40.14386" lon="20.55681">
        <ele>438.01998901367</ele>
        <time>2023-09-28T09:10:09.000Z</time>
      </trkpt>
      <trkpt lat="40.14395" lon="20.55684">
        <ele>438.5</ele>
        <time>2023-09-28T09:10:08.000Z</time>
      </trkpt>
      <trkpt lat="40.144" lon="20.55685">
        <ele>438.98001098633</ele>
        <time>2023-09-28T09:10:07.000Z</time>
      </trkpt>
      <trkpt lat="40.14405" lon="20.55686">
        <ele>438.98001098633</ele>
        <time>2023-09-28T09:10:06.000Z</time>
      </trkpt>
      <trkpt lat="40.1441" lon="20.55688">
        <ele>439.45999145508</ele>
        <time>2023-09-28T09:10:05.000Z</time>
      </trkpt>
      <trkpt lat="40.14415" lon="20.55689">
        <ele>439.94000244141</ele>
        <time>2023-09-28T09:10:04.000Z</time>
      </trkpt>
      <trkpt lat="40.1442" lon="20.5569">
        <ele>439.94000244141</ele>
        <time>2023-09-28T09:10:03.000Z</time>
      </trkpt>
      <trkpt lat="40.14424" lon="20.55692">
        <ele>440.42001342773</ele>
        <time>2023-09-28T09:10:02.000Z</time>
      </trkpt>
      <trkpt lat="40.14427" lon="20.55696">
        <ele>440.42001342773</ele>
        <time>2023-09-28T09:10:01.000Z</time>
      </trkpt>
      <trkpt lat="40.14431" lon="20.557">
        <ele>440.89999389648</ele>
        <time>2023-09-28T09:10:00.000Z</time>
      </trkpt>
      <trkpt lat="40.14433" lon="20.55704">
        <ele>441.38000488281</ele>
        <time>2023-09-28T09:09:59.000Z</time>
      </trkpt>
      <trkpt lat="40.14437" lon="20.55715">
        <ele>441.85998535156</ele>
        <time>2023-09-28T09:09:57.000Z</time>
      </trkpt>
      <trkpt lat="40.14441" lon="20.55725">
        <ele>441.85998535156</ele>
        <time>2023-09-28T09:09:56.000Z</time>
      </trkpt>
      <trkpt lat="40.14446" lon="20.55734">
        <ele>442.33999633789</ele>
        <time>2023-09-28T09:09:55.000Z</time>
      </trkpt>
      <trkpt lat="40.14459" lon="20.55753">
        <ele>443.30999755859</ele>
        <time>2023-09-28T09:09:53.000Z</time>
      </trkpt>
      <trkpt lat="40.14478" lon="20.55778">
        <ele>444.75</ele>
        <time>2023-09-28T09:09:51.000Z</time>
      </trkpt>
      <trkpt lat="40.14486" lon="20.55792">
        <ele>445.23001098633</ele>
        <time>2023-09-28T09:09:50.000Z</time>
      </trkpt>
      <trkpt lat="40.14493" lon="20.55804">
        <ele>445.70999145508</ele>
        <time>2023-09-28T09:09:49.000Z</time>
      </trkpt>
      <trkpt lat="40.14498" lon="20.55817">
        <ele>446.67001342773</ele>
        <time>2023-09-28T09:09:48.000Z</time>
      </trkpt>
      <trkpt lat="40.145" lon="20.5583">
        <ele>448.10998535156</ele>
        <time>2023-09-28T09:09:47.000Z</time>
      </trkpt>
      <trkpt lat="40.14501" lon="20.55844">
        <ele>449.07000732422</ele>
        <time>2023-09-28T09:09:46.000Z</time>
      </trkpt>
      <trkpt lat="40.14499" lon="20.55879">
        <ele>451.95999145508</ele>
        <time>2023-09-28T09:09:44.000Z</time>
      </trkpt>
      <trkpt lat="40.145" lon="20.55892">
        <ele>452.92001342773</ele>
        <time>2023-09-28T09:09:43.000Z</time>
      </trkpt>
      <trkpt lat="40.14504" lon="20.55909">
        <ele>453.88000488281</ele>
        <time>2023-09-28T09:09:42.000Z</time>
      </trkpt>
      <trkpt lat="40.14505" lon="20.55922">
        <ele>454.83999633789</ele>
        <time>2023-09-28T09:09:41.000Z</time>
      </trkpt>
      <trkpt lat="40.14504" lon="20.55934">
        <ele>455.79998779297</ele>
        <time>2023-09-28T09:09:40.000Z</time>
      </trkpt>
      <trkpt lat="40.145" lon="20.55946">
        <ele>456.2799987793</ele>
        <time>2023-09-28T09:09:39.000Z</time>
      </trkpt>
      <trkpt lat="40.14495" lon="20.55957">
        <ele>457.7200012207</ele>
        <time>2023-09-28T09:09:38.000Z</time>
      </trkpt>
      <trkpt lat="40.14481" lon="20.5598">
        <ele>459.64999389648</ele>
        <time>2023-09-28T09:09:36.000Z</time>
      </trkpt>
      <trkpt lat="40.14475" lon="20.55993">
        <ele>460.60998535156</ele>
        <time>2023-09-28T09:09:35.000Z</time>
      </trkpt>
      <trkpt lat="40.14471" lon="20.56005">
        <ele>461.08999633789</ele>
        <time>2023-09-28T09:09:34.000Z</time>
      </trkpt>
      <trkpt lat="40.14456" lon="20.56062">
        <ele>462.04998779297</ele>
        <time>2023-09-28T09:09:30.000Z</time>
      </trkpt>
      <trkpt lat="40.14453" lon="20.56073">
        <ele>461.57000732422</ele>
        <time>2023-09-28T09:09:29.000Z</time>
      </trkpt>
      <trkpt lat="40.14454" lon="20.56083">
        <ele>461.08999633789</ele>
        <time>2023-09-28T09:09:28.000Z</time>
      </trkpt>
      <trkpt lat="40.14456" lon="20.56091">
        <ele>460.60998535156</ele>
        <time>2023-09-28T09:09:27.000Z</time>
      </trkpt>
      <trkpt lat="40.14461" lon="20.56096">
        <ele>460.60998535156</ele>
        <time>2023-09-28T09:09:26.000Z</time>
      </trkpt>
      <trkpt lat="40.14468" lon="20.56097">
        <ele>461.08999633789</ele>
        <time>2023-09-28T09:09:25.000Z</time>
      </trkpt>
      <trkpt lat="40.14476" lon="20.56096">
        <ele>461.08999633789</ele>
        <time>2023-09-28T09:09:24.000Z</time>
      </trkpt>
      <trkpt lat="40.14484" lon="20.56093">
        <ele>460.60998535156</ele>
        <time>2023-09-28T09:09:23.000Z</time>
      </trkpt>
      <trkpt lat="40.14491" lon="20.56089">
        <ele>460.60998535156</ele>
        <time>2023-09-28T09:09:22.000Z</time>
      </trkpt>
      <trkpt lat="40.14502" lon="20.56081">
        <ele>460.13000488281</ele>
        <time>2023-09-28T09:09:21.000Z</time>
      </trkpt>
      <trkpt lat="40.14509" lon="20.56073">
        <ele>459.64999389648</ele>
        <time>2023-09-28T09:09:20.000Z</time>
      </trkpt>
      <trkpt lat="40.14519" lon="20.56059">
        <ele>459.64999389648</ele>
        <time>2023-09-28T09:09:19.000Z</time>
      </trkpt>
      <trkpt lat="40.14528" lon="20.56047">
        <ele>459.17001342773</ele>
        <time>2023-09-28T09:09:18.000Z</time>
      </trkpt>
      <trkpt lat="40.14536" lon="20.56039">
        <ele>459.17001342773</ele>
        <time>2023-09-28T09:09:17.000Z</time>
      </trkpt>
      <trkpt lat="40.1454" lon="20.56036">
        <ele>459.17001342773</ele>
        <time>2023-09-28T09:09:16.000Z</time>
      </trkpt>
      <trkpt lat="40.1457" lon="20.5601">
        <ele>459.64999389648</ele>
        <time>2023-09-28T09:09:14.000Z</time>
      </trkpt>
      <trkpt lat="40.14581" lon="20.56001">
        <ele>460.13000488281</ele>
        <time>2023-09-28T09:09:13.000Z</time>
      </trkpt>
      <trkpt lat="40.14592" lon="20.55995">
        <ele>460.60998535156</ele>
        <time>2023-09-28T09:09:12.000Z</time>
      </trkpt>
      <trkpt lat="40.14601" lon="20.55993">
        <ele>461.08999633789</ele>
        <time>2023-09-28T09:09:11.000Z</time>
      </trkpt>
      <trkpt lat="40.14619" lon="20.55991">
        <ele>461.08999633789</ele>
        <time>2023-09-28T09:09:09.000Z</time>
      </trkpt>
      <trkpt lat="40.14632" lon="20.55989">
        <ele>461.57000732422</ele>
        <time>2023-09-28T09:09:08.000Z</time>
      </trkpt>
      <trkpt lat="40.14645" lon="20.55986">
        <ele>461.57000732422</ele>
        <time>2023-09-28T09:09:07.000Z</time>
      </trkpt>
      <trkpt lat="40.14653" lon="20.55987">
        <ele>461.08999633789</ele>
        <time>2023-09-28T09:09:06.000Z</time>
      </trkpt>
      <trkpt lat="40.1466" lon="20.55992">
        <ele>461.57000732422</ele>
        <time>2023-09-28T09:09:05.000Z</time>
      </trkpt>
      <trkpt lat="40.14667" lon="20.56">
        <ele>461.08999633789</ele>
        <time>2023-09-28T09:09:04.000Z</time>
      </trkpt>
      <trkpt lat="40.14683" lon="20.56023">
        <ele>461.57000732422</ele>
        <time>2023-09-28T09:09:02.000Z</time>
      </trkpt>
      <trkpt lat="40.14684" lon="20.56026">
        <ele>461.57000732422</ele>
        <time>2023-09-28T09:09:01.000Z</time>
      </trkpt>
      <trkpt lat="40.14698" lon="20.56045">
        <ele>461.57000732422</ele>
        <time>2023-09-28T09:09:00.000Z</time>
      </trkpt>
      <trkpt lat="40.14701" lon="20.56048">
        <ele>461.57000732422</ele>
        <time>2023-09-28T09:08:59.000Z</time>
      </trkpt>
      <trkpt lat="40.14714" lon="20.56066">
        <ele>462.04998779297</ele>
        <time>2023-09-28T09:08:58.000Z</time>
      </trkpt>
      <trkpt lat="40.14728" lon="20.56086">
        <ele>461.57000732422</ele>
        <time>2023-09-28T09:08:56.000Z</time>
      </trkpt>
      <trkpt lat="40.14734" lon="20.56091">
        <ele>461.57000732422</ele>
        <time>2023-09-28T09:08:55.000Z</time>
      </trkpt>
      <trkpt lat="40.14746" lon="20.56094">
        <ele>461.57000732422</ele>
        <time>2023-09-28T09:08:54.000Z</time>
      </trkpt>
      <trkpt lat="40.14755" lon="20.56095">
        <ele>462.04998779297</ele>
        <time>2023-09-28T09:08:53.000Z</time>
      </trkpt>
      <trkpt lat="40.14776" lon="20.56095">
        <ele>462.04998779297</ele>
        <time>2023-09-28T09:08:51.000Z</time>
      </trkpt>
      <trkpt lat="40.14796" lon="20.56096">
        <ele>462.04998779297</ele>
        <time>2023-09-28T09:08:50.000Z</time>
      </trkpt>
      <trkpt lat="40.14809" lon="20.56097">
        <ele>462.04998779297</ele>
        <time>2023-09-28T09:08:49.000Z</time>
      </trkpt>
      <trkpt lat="40.14823" lon="20.56096">
        <ele>462.04998779297</ele>
        <time>2023-09-28T09:08:48.000Z</time>
      </trkpt>
      <trkpt lat="40.14835" lon="20.56094">
        <ele>462.04998779297</ele>
        <time>2023-09-28T09:08:47.000Z</time>
      </trkpt>
      <trkpt lat="40.14843" lon="20.56092">
        <ele>462.04998779297</ele>
        <time>2023-09-28T09:08:46.000Z</time>
      </trkpt>
      <trkpt lat="40.14857" lon="20.56087">
        <ele>462.04998779297</ele>
        <time>2023-09-28T09:08:45.000Z</time>
      </trkpt>
      <trkpt lat="40.14866" lon="20.56085">
        <ele>462.04998779297</ele>
        <time>2023-09-28T09:08:44.000Z</time>
      </trkpt>
      <trkpt lat="40.14875" lon="20.56085">
        <ele>462.04998779297</ele>
        <time>2023-09-28T09:08:43.000Z</time>
      </trkpt>
      <trkpt lat="40.14882" lon="20.56087">
        <ele>462.04998779297</ele>
        <time>2023-09-28T09:08:42.000Z</time>
      </trkpt>
      <trkpt lat="40.14888" lon="20.56091">
        <ele>462.04998779297</ele>
        <time>2023-09-28T09:08:41.000Z</time>
      </trkpt>
      <trkpt lat="40.14893" lon="20.56098">
        <ele>461.57000732422</ele>
        <time>2023-09-28T09:08:40.000Z</time>
      </trkpt>
      <trkpt lat="40.14895" lon="20.56105">
        <ele>462.04998779297</ele>
        <time>2023-09-28T09:08:39.000Z</time>
      </trkpt>
      <trkpt lat="40.14895" lon="20.56114">
        <ele>462.04998779297</ele>
        <time>2023-09-28T09:08:38.000Z</time>
      </trkpt>
      <trkpt lat="40.14893" lon="20.56125">
        <ele>462.04998779297</ele>
        <time>2023-09-28T09:08:37.000Z</time>
      </trkpt>
      <trkpt lat="40.14892" lon="20.5613">
        <ele>462.04998779297</ele>
        <time>2023-09-28T09:08:36.000Z</time>
      </trkpt>
      <trkpt lat="40.14887" lon="20.56148">
        <ele>462.04998779297</ele>
        <time>2023-09-28T09:08:35.000Z</time>
      </trkpt>
      <trkpt lat="40.14885" lon="20.5616">
        <ele>461.57000732422</ele>
        <time>2023-09-28T09:08:34.000Z</time>
      </trkpt>
      <trkpt lat="40.14884" lon="20.56175">
        <ele>461.08999633789</ele>
        <time>2023-09-28T09:08:33.000Z</time>
      </trkpt>
      <trkpt lat="40.14885" lon="20.56187">
        <ele>461.08999633789</ele>
        <time>2023-09-28T09:08:32.000Z</time>
      </trkpt>
      <trkpt lat="40.14891" lon="20.56247">
        <ele>461.08999633789</ele>
        <time>2023-09-28T09:08:29.000Z</time>
      </trkpt>
      <trkpt lat="40.14894" lon="20.56263">
        <ele>461.08999633789</ele>
        <time>2023-09-28T09:08:28.000Z</time>
      </trkpt>
      <trkpt lat="40.14897" lon="20.56279">
        <ele>461.08999633789</ele>
        <time>2023-09-28T09:08:27.000Z</time>
      </trkpt>
      <trkpt lat="40.14901" lon="20.56293">
        <ele>461.57000732422</ele>
        <time>2023-09-28T09:08:26.000Z</time>
      </trkpt>
      <trkpt lat="40.14906" lon="20.56307">
        <ele>461.57000732422</ele>
        <time>2023-09-28T09:08:25.000Z</time>
      </trkpt>
      <trkpt lat="40.1491" lon="20.5632">
        <ele>461.57000732422</ele>
        <time>2023-09-28T09:08:24.000Z</time>
      </trkpt>
      <trkpt lat="40.14912" lon="20.56331">
        <ele>462.04998779297</ele>
        <time>2023-09-28T09:08:23.000Z</time>
      </trkpt>
      <trkpt lat="40.14912" lon="20.56342">
        <ele>462.5299987793</ele>
        <time>2023-09-28T09:08:22.000Z</time>
      </trkpt>
      <trkpt lat="40.14912" lon="20.56352">
        <ele>463.48999023438</ele>
        <time>2023-09-28T09:08:21.000Z</time>
      </trkpt>
      <trkpt lat="40.14916" lon="20.56359">
        <ele>463.9700012207</ele>
        <time>2023-09-28T09:08:20.000Z</time>
      </trkpt>
      <trkpt lat="40.14922" lon="20.56364">
        <ele>464.92999267578</ele>
        <time>2023-09-28T09:08:19.000Z</time>
      </trkpt>
      <trkpt lat="40.14928" lon="20.56364">
        <ele>465.89999389648</ele>
        <time>2023-09-28T09:08:18.000Z</time>
      </trkpt>
      <trkpt lat="40.14933" lon="20.56361">
        <ele>465.89999389648</ele>
        <time>2023-09-28T09:08:17.000Z</time>
      </trkpt>
      <trkpt lat="40.14938" lon="20.56354">
        <ele>466.85998535156</ele>
        <time>2023-09-28T09:08:16.000Z</time>
      </trkpt>
      <trkpt lat="40.14941" lon="20.56344">
        <ele>466.85998535156</ele>
        <time>2023-09-28T09:08:15.000Z</time>
      </trkpt>
      <trkpt lat="40.14943" lon="20.56338">
        <ele>467.33999633789</ele>
        <time>2023-09-28T09:08:14.000Z</time>
      </trkpt>
      <trkpt lat="40.14948" lon="20.56319">
        <ele>467.82000732422</ele>
        <time>2023-09-28T09:08:13.000Z</time>
      </trkpt>
      <trkpt lat="40.14953" lon="20.56308">
        <ele>468.7799987793</ele>
        <time>2023-09-28T09:08:12.000Z</time>
      </trkpt>
      <trkpt lat="40.14958" lon="20.563">
        <ele>468.7799987793</ele>
        <time>2023-09-28T09:08:11.000Z</time>
      </trkpt>
      <trkpt lat="40.1498" lon="20.56275">
        <ele>470.70001220703</ele>
        <time>2023-09-28T09:08:08.000Z</time>
      </trkpt>
      <trkpt lat="40.14992" lon="20.56261">
        <ele>471.17999267578</ele>
        <time>2023-09-28T09:08:07.000Z</time>
      </trkpt>
      <trkpt lat="40.15001" lon="20.56253">
        <ele>471.66000366211</ele>
        <time>2023-09-28T09:08:06.000Z</time>
      </trkpt>
      <trkpt lat="40.15007" lon="20.56249">
        <ele>471.66000366211</ele>
        <time>2023-09-28T09:08:05.000Z</time>
      </trkpt>
      <trkpt lat="40.15024" lon="20.56238">
        <ele>472.14001464844</ele>
        <time>2023-09-28T09:08:02.000Z</time>
      </trkpt>
      <trkpt lat="40.15034" lon="20.56232">
        <ele>472.14001464844</ele>
        <time>2023-09-28T09:08:01.000Z</time>
      </trkpt>
      <trkpt lat="40.15042" lon="20.56226">
        <ele>472.63000488281</ele>
        <time>2023-09-28T09:08:00.000Z</time>
      </trkpt>
      <trkpt lat="40.15048" lon="20.56224">
        <ele>473.10998535156</ele>
        <time>2023-09-28T09:07:59.000Z</time>
      </trkpt>
      <trkpt lat="40.15054" lon="20.56225">
        <ele>474.07000732422</ele>
        <time>2023-09-28T09:07:58.000Z</time>
      </trkpt>
      <trkpt lat="40.15058" lon="20.5623">
        <ele>475.0299987793</ele>
        <time>2023-09-28T09:07:57.000Z</time>
      </trkpt>
      <trkpt lat="40.1506" lon="20.56236">
        <ele>475.51000976562</ele>
        <time>2023-09-28T09:07:56.000Z</time>
      </trkpt>
      <trkpt lat="40.15058" lon="20.56242">
        <ele>475.98999023438</ele>
        <time>2023-09-28T09:07:55.000Z</time>
      </trkpt>
      <trkpt lat="40.15054" lon="20.56249">
        <ele>476.95001220703</ele>
        <time>2023-09-28T09:07:54.000Z</time>
      </trkpt>
      <trkpt lat="40.15049" lon="20.56253">
        <ele>477.91000366211</ele>
        <time>2023-09-28T09:07:53.000Z</time>
      </trkpt>
      <trkpt lat="40.15032" lon="20.56264">
        <ele>478.86999511719</ele>
        <time>2023-09-28T09:07:51.000Z</time>
      </trkpt>
      <trkpt lat="40.15025" lon="20.56271">
        <ele>479.83999633789</ele>
        <time>2023-09-28T09:07:50.000Z</time>
      </trkpt>
      <trkpt lat="40.15017" lon="20.56282">
        <ele>480.32000732422</ele>
        <time>2023-09-28T09:07:49.000Z</time>
      </trkpt>
      <trkpt lat="40.15015" lon="20.56285">
        <ele>480.79998779297</ele>
        <time>2023-09-28T09:07:48.000Z</time>
      </trkpt>
      <trkpt lat="40.14965" lon="20.56369">
        <ele>485.60000610352</ele>
        <time>2023-09-28T09:07:42.000Z</time>
      </trkpt>
      <trkpt lat="40.14959" lon="20.56381">
        <ele>486.55999755859</ele>
        <time>2023-09-28T09:07:41.000Z</time>
      </trkpt>
      <trkpt lat="40.14932" lon="20.56438">
        <ele>491.85000610352</ele>
        <time>2023-09-28T09:07:37.000Z</time>
      </trkpt>
      <trkpt lat="40.14907" lon="20.56488">
        <ele>496.66000366211</ele>
        <time>2023-09-28T09:07:33.000Z</time>
      </trkpt>
      <trkpt lat="40.14901" lon="20.56498">
        <ele>497.61999511719</ele>
        <time>2023-09-28T09:07:32.000Z</time>
      </trkpt>
      <trkpt lat="40.14895" lon="20.56509">
        <ele>499.05999755859</ele>
        <time>2023-09-28T09:07:31.000Z</time>
      </trkpt>
      <trkpt lat="40.14892" lon="20.56521">
        <ele>500.01998901367</ele>
        <time>2023-09-28T09:07:30.000Z</time>
      </trkpt>
      <trkpt lat="40.14892" lon="20.56534">
        <ele>501.45999145508</ele>
        <time>2023-09-28T09:07:29.000Z</time>
      </trkpt>
      <trkpt lat="40.14893" lon="20.56545">
        <ele>502.42999267578</ele>
        <time>2023-09-28T09:07:28.000Z</time>
      </trkpt>
      <trkpt lat="40.14895" lon="20.56559">
        <ele>503.86999511719</ele>
        <time>2023-09-28T09:07:27.000Z</time>
      </trkpt>
      <trkpt lat="40.14894" lon="20.56575">
        <ele>504.82998657227</ele>
        <time>2023-09-28T09:07:26.000Z</time>
      </trkpt>
      <trkpt lat="40.14893" lon="20.56584">
        <ele>505.30999755859</ele>
        <time>2023-09-28T09:07:25.000Z</time>
      </trkpt>
      <trkpt lat="40.1489" lon="20.56603">
        <ele>507.23001098633</ele>
        <time>2023-09-28T09:07:24.000Z</time>
      </trkpt>
      <trkpt lat="40.14887" lon="20.56616">
        <ele>508.19000244141</ele>
        <time>2023-09-28T09:07:23.000Z</time>
      </trkpt>
      <trkpt lat="40.14881" lon="20.56637">
        <ele>509.64001464844</ele>
        <time>2023-09-28T09:07:22.000Z</time>
      </trkpt>
      <trkpt lat="40.14877" lon="20.56647">
        <ele>510.60000610352</ele>
        <time>2023-09-28T09:07:21.000Z</time>
      </trkpt>
      <trkpt lat="40.14871" lon="20.56663">
        <ele>511.55999755859</ele>
        <time>2023-09-28T09:07:20.000Z</time>
      </trkpt>
      <trkpt lat="40.14862" lon="20.5668">
        <ele>512.52001953125</ele>
        <time>2023-09-28T09:07:19.000Z</time>
      </trkpt>
      <trkpt lat="40.14854" lon="20.56692">
        <ele>513.47998046875</ele>
        <time>2023-09-28T09:07:18.000Z</time>
      </trkpt>
      <trkpt lat="40.14847" lon="20.56701">
        <ele>514.44000244141</ele>
        <time>2023-09-28T09:07:17.000Z</time>
      </trkpt>
      <trkpt lat="40.14844" lon="20.56704">
        <ele>514.44000244141</ele>
        <time>2023-09-28T09:07:16.000Z</time>
      </trkpt>
      <trkpt lat="40.14827" lon="20.56721">
        <ele>515.88000488281</ele>
        <time>2023-09-28T09:07:15.000Z</time>
      </trkpt>
      <trkpt lat="40.14811" lon="20.56738">
        <ele>517.33001708984</ele>
        <time>2023-09-28T09:07:13.000Z</time>
      </trkpt>
      <trkpt lat="40.14804" lon="20.56746">
        <ele>518.28997802734</ele>
        <time>2023-09-28T09:07:12.000Z</time>
      </trkpt>
      <trkpt lat="40.14798" lon="20.56756">
        <ele>518.77001953125</ele>
        <time>2023-09-28T09:07:11.000Z</time>
      </trkpt>
      <trkpt lat="40.14794" lon="20.56767">
        <ele>519.25</ele>
        <time>2023-09-28T09:07:10.000Z</time>
      </trkpt>
      <trkpt lat="40.14788" lon="20.56778">
        <ele>519.25</ele>
        <time>2023-09-28T09:07:09.000Z</time>
      </trkpt>
      <trkpt lat="40.14783" lon="20.56786">
        <ele>519.25</ele>
        <time>2023-09-28T09:07:08.000Z</time>
      </trkpt>
      <trkpt lat="40.14776" lon="20.56795">
        <ele>519.72998046875</ele>
        <time>2023-09-28T09:07:07.000Z</time>
      </trkpt>
      <trkpt lat="40.14734" lon="20.56845">
        <ele>525.02001953125</ele>
        <time>2023-09-28T09:07:02.000Z</time>
      </trkpt>
      <trkpt lat="40.14727" lon="20.56854">
        <ele>526.46002197266</ele>
        <time>2023-09-28T09:07:01.000Z</time>
      </trkpt>
      <trkpt lat="40.14722" lon="20.5686">
        <ele>526.94000244141</ele>
        <time>2023-09-28T09:07:00.000Z</time>
      </trkpt>
      <trkpt lat="40.14717" lon="20.56865">
        <ele>527.41998291016</ele>
        <time>2023-09-28T09:06:59.000Z</time>
      </trkpt>
      <trkpt lat="40.14705" lon="20.56876">
        <ele>528.38000488281</ele>
        <time>2023-09-28T09:06:58.000Z</time>
      </trkpt>
      <trkpt lat="40.14704" lon="20.56877">
        <ele>528.38000488281</ele>
        <time>2023-09-28T09:06:57.000Z</time>
      </trkpt>
      <trkpt lat="40.1469" lon="20.56891">
        <ele>529.34002685547</ele>
        <time>2023-09-28T09:06:56.000Z</time>
      </trkpt>
      <trkpt lat="40.14684" lon="20.56898">
        <ele>529.34002685547</ele>
        <time>2023-09-28T09:06:55.000Z</time>
      </trkpt>
      <trkpt lat="40.14675" lon="20.56904">
        <ele>529.82000732422</ele>
        <time>2023-09-28T09:06:54.000Z</time>
      </trkpt>
      <trkpt lat="40.1467" lon="20.56906">
        <ele>529.82000732422</ele>
        <time>2023-09-28T09:06:53.000Z</time>
      </trkpt>
      <trkpt lat="40.14657" lon="20.56911">
        <ele>529.82000732422</ele>
        <time>2023-09-28T09:06:52.000Z</time>
      </trkpt>
      <trkpt lat="40.14649" lon="20.56916">
        <ele>530.29998779297</ele>
        <time>2023-09-28T09:06:51.000Z</time>
      </trkpt>
      <trkpt lat="40.14641" lon="20.56922">
        <ele>531.27001953125</ele>
        <time>2023-09-28T09:06:50.000Z</time>
      </trkpt>
      <trkpt lat="40.14634" lon="20.5693">
        <ele>532.22998046875</ele>
        <time>2023-09-28T09:06:49.000Z</time>
      </trkpt>
      <trkpt lat="40.14632" lon="20.56933">
        <ele>532.71002197266</ele>
        <time>2023-09-28T09:06:48.000Z</time>
      </trkpt>
      <trkpt lat="40.14601" lon="20.56975">
        <ele>537.51000976562</ele>
        <time>2023-09-28T09:06:45.000Z</time>
      </trkpt>
      <trkpt lat="40.14585" lon="20.57002">
        <ele>540.40002441406</ele>
        <time>2023-09-28T09:06:43.000Z</time>
      </trkpt>
      <trkpt lat="40.14578" lon="20.57013">
        <ele>541.35998535156</ele>
        <time>2023-09-28T09:06:42.000Z</time>
      </trkpt>
      <trkpt lat="40.14569" lon="20.57027">
        <ele>542.79998779297</ele>
        <time>2023-09-28T09:06:41.000Z</time>
      </trkpt>
      <trkpt lat="40.14563" lon="20.57037">
        <ele>543.76000976562</ele>
        <time>2023-09-28T09:06:40.000Z</time>
      </trkpt>
      <trkpt lat="40.14559" lon="20.57048">
        <ele>544.71997070312</ele>
        <time>2023-09-28T09:06:39.000Z</time>
      </trkpt>
      <trkpt lat="40.14557" lon="20.57056">
        <ele>545.69000244141</ele>
        <time>2023-09-28T09:06:38.000Z</time>
      </trkpt>
      <trkpt lat="40.14547" lon="20.57096">
        <ele>549.04998779297</ele>
        <time>2023-09-28T09:06:35.000Z</time>
      </trkpt>
      <trkpt lat="40.14544" lon="20.57108">
        <ele>550.01000976562</ele>
        <time>2023-09-28T09:06:34.000Z</time>
      </trkpt>
      <trkpt lat="40.14542" lon="20.57118">
        <ele>550.96997070312</ele>
        <time>2023-09-28T09:06:33.000Z</time>
      </trkpt>
      <trkpt lat="40.14542" lon="20.57129">
        <ele>551.92999267578</ele>
        <time>2023-09-28T09:06:32.000Z</time>
      </trkpt>
      <trkpt lat="40.14543" lon="20.5714">
        <ele>552.90002441406</ele>
        <time>2023-09-28T09:06:31.000Z</time>
      </trkpt>
      <trkpt lat="40.14544" lon="20.57151">
        <ele>553.85998535156</ele>
        <time>2023-09-28T09:06:30.000Z</time>
      </trkpt>
      <trkpt lat="40.14543" lon="20.57162">
        <ele>554.34002685547</ele>
        <time>2023-09-28T09:06:29.000Z</time>
      </trkpt>
      <trkpt lat="40.14541" lon="20.57173">
        <ele>554.82000732422</ele>
        <time>2023-09-28T09:06:28.000Z</time>
      </trkpt>
      <trkpt lat="40.14537" lon="20.57183">
        <ele>555.29998779297</ele>
        <time>2023-09-28T09:06:27.000Z</time>
      </trkpt>
      <trkpt lat="40.14533" lon="20.57192">
        <ele>556.26000976562</ele>
        <time>2023-09-28T09:06:26.000Z</time>
      </trkpt>
      <trkpt lat="40.14529" lon="20.57201">
        <ele>557.21997070312</ele>
        <time>2023-09-28T09:06:25.000Z</time>
      </trkpt>
      <trkpt lat="40.14526" lon="20.57208">
        <ele>557.70001220703</ele>
        <time>2023-09-28T09:06:24.000Z</time>
      </trkpt>
      <trkpt lat="40.14509" lon="20.57245">
        <ele>561.07000732422</ele>
        <time>2023-09-28T09:06:21.000Z</time>
      </trkpt>
      <trkpt lat="40.14465" lon="20.57343">
        <ele>568.28002929688</ele>
        <time>2023-09-28T09:06:15.000Z</time>
      </trkpt>
      <trkpt lat="40.14446" lon="20.57378">
        <ele>571.64001464844</ele>
        <time>2023-09-28T09:06:12.000Z</time>
      </trkpt>
      <trkpt lat="40.14443" lon="20.57387">
        <ele>572.59997558594</ele>
        <time>2023-09-28T09:06:11.000Z</time>
      </trkpt>
      <trkpt lat="40.14441" lon="20.57395">
        <ele>573.55999755859</ele>
        <time>2023-09-28T09:06:10.000Z</time>
      </trkpt>
      <trkpt lat="40.14443" lon="20.57403">
        <ele>574.53002929688</ele>
        <time>2023-09-28T09:06:09.000Z</time>
      </trkpt>
      <trkpt lat="40.14447" lon="20.57409">
        <ele>575.48999023438</ele>
        <time>2023-09-28T09:06:08.000Z</time>
      </trkpt>
      <trkpt lat="40.14453" lon="20.57411">
        <ele>576.45001220703</ele>
        <time>2023-09-28T09:06:07.000Z</time>
      </trkpt>
      <trkpt lat="40.14458" lon="20.57409">
        <ele>576.45001220703</ele>
        <time>2023-09-28T09:06:06.000Z</time>
      </trkpt>
      <trkpt lat="40.14462" lon="20.57403">
        <ele>577.40997314453</ele>
        <time>2023-09-28T09:06:05.000Z</time>
      </trkpt>
      <trkpt lat="40.14465" lon="20.57395">
        <ele>577.89001464844</ele>
        <time>2023-09-28T09:06:04.000Z</time>
      </trkpt>
      <trkpt lat="40.14468" lon="20.57386">
        <ele>578.36999511719</ele>
        <time>2023-09-28T09:06:03.000Z</time>
      </trkpt>
      <trkpt lat="40.14472" lon="20.57374">
        <ele>578.36999511719</ele>
        <time>2023-09-28T09:06:02.000Z</time>
      </trkpt>
      <trkpt lat="40.14478" lon="20.57363">
        <ele>578.84997558594</ele>
        <time>2023-09-28T09:06:01.000Z</time>
      </trkpt>
      <trkpt lat="40.14486" lon="20.57353">
        <ele>578.84997558594</ele>
        <time>2023-09-28T09:06:00.000Z</time>
      </trkpt>
      <trkpt lat="40.14494" lon="20.57345">
        <ele>578.84997558594</ele>
        <time>2023-09-28T09:05:59.000Z</time>
      </trkpt>
      <trkpt lat="40.14502" lon="20.5734">
        <ele>579.33001708984</ele>
        <time>2023-09-28T09:05:58.000Z</time>
      </trkpt>
      <trkpt lat="40.1451" lon="20.57338">
        <ele>580.28997802734</ele>
        <time>2023-09-28T09:05:57.000Z</time>
      </trkpt>
      <trkpt lat="40.14517" lon="20.57338">
        <ele>580.77001953125</ele>
        <time>2023-09-28T09:05:56.000Z</time>
      </trkpt>
      <trkpt lat="40.14527" lon="20.57339">
        <ele>581.72998046875</ele>
        <time>2023-09-28T09:05:55.000Z</time>
      </trkpt>
      <trkpt lat="40.14535" lon="20.57339">
        <ele>582.70001220703</ele>
        <time>2023-09-28T09:05:54.000Z</time>
      </trkpt>
      <trkpt lat="40.14543" lon="20.57337">
        <ele>583.17999267578</ele>
        <time>2023-09-28T09:05:53.000Z</time>
      </trkpt>
      <trkpt lat="40.14549" lon="20.57332">
        <ele>584.14001464844</ele>
        <time>2023-09-28T09:05:52.000Z</time>
      </trkpt>
      <trkpt lat="40.14554" lon="20.57325">
        <ele>585.09997558594</ele>
        <time>2023-09-28T09:05:51.000Z</time>
      </trkpt>
      <trkpt lat="40.14558" lon="20.57316">
        <ele>586.05999755859</ele>
        <time>2023-09-28T09:05:50.000Z</time>
      </trkpt>
      <trkpt lat="40.14559" lon="20.57314">
        <ele>586.05999755859</ele>
        <time>2023-09-28T09:05:49.000Z</time>
      </trkpt>
      <trkpt lat="40.14565" lon="20.57293">
        <ele>587.97998046875</ele>
        <time>2023-09-28T09:05:48.000Z</time>
      </trkpt>
      <trkpt lat="40.14571" lon="20.5728">
        <ele>588.46002197266</ele>
        <time>2023-09-28T09:05:47.000Z</time>
      </trkpt>
      <trkpt lat="40.14577" lon="20.57269">
        <ele>589.42999267578</ele>
        <time>2023-09-28T09:05:46.000Z</time>
      </trkpt>
      <trkpt lat="40.14585" lon="20.5726">
        <ele>589.90997314453</ele>
        <time>2023-09-28T09:05:45.000Z</time>
      </trkpt>
      <trkpt lat="40.14594" lon="20.57251">
        <ele>590.86999511719</ele>
        <time>2023-09-28T09:05:44.000Z</time>
      </trkpt>
      <trkpt lat="40.14601" lon="20.57243">
        <ele>591.83001708984</ele>
        <time>2023-09-28T09:05:43.000Z</time>
      </trkpt>
      <trkpt lat="40.14605" lon="20.57233">
        <ele>592.30999755859</ele>
        <time>2023-09-28T09:05:42.000Z</time>
      </trkpt>
      <trkpt lat="40.14607" lon="20.57224">
        <ele>593.27001953125</ele>
        <time>2023-09-28T09:05:41.000Z</time>
      </trkpt>
      <trkpt lat="40.14608" lon="20.5721">
        <ele>594.22998046875</ele>
        <time>2023-09-28T09:05:40.000Z</time>
      </trkpt>
      <trkpt lat="40.14611" lon="20.57198">
        <ele>594.71002197266</ele>
        <time>2023-09-28T09:05:39.000Z</time>
      </trkpt>
      <trkpt lat="40.14614" lon="20.57189">
        <ele>594.71002197266</ele>
        <time>2023-09-28T09:05:38.000Z</time>
      </trkpt>
      <trkpt lat="40.14618" lon="20.57178">
        <ele>594.71002197266</ele>
        <time>2023-09-28T09:05:37.000Z</time>
      </trkpt>
      <trkpt lat="40.1462" lon="20.57167">
        <ele>595.19000244141</ele>
        <time>2023-09-28T09:05:36.000Z</time>
      </trkpt>
      <trkpt lat="40.14621" lon="20.57155">
        <ele>595.19000244141</ele>
        <time>2023-09-28T09:05:35.000Z</time>
      </trkpt>
      <trkpt lat="40.1462" lon="20.57149">
        <ele>595.66998291016</ele>
        <time>2023-09-28T09:05:34.000Z</time>
      </trkpt>
      <trkpt lat="40.14617" lon="20.57132">
        <ele>596.15002441406</ele>
        <time>2023-09-28T09:05:33.000Z</time>
      </trkpt>
      <trkpt lat="40.14618" lon="20.57122">
        <ele>596.15002441406</ele>
        <time>2023-09-28T09:05:32.000Z</time>
      </trkpt>
      <trkpt lat="40.1462" lon="20.57112">
        <ele>596.64001464844</ele>
        <time>2023-09-28T09:05:31.000Z</time>
      </trkpt>
      <trkpt lat="40.14623" lon="20.57103">
        <ele>596.64001464844</ele>
        <time>2023-09-28T09:05:30.000Z</time>
      </trkpt>
      <trkpt lat="40.14628" lon="20.57096">
        <ele>596.15002441406</ele>
        <time>2023-09-28T09:05:29.000Z</time>
      </trkpt>
      <trkpt lat="40.14635" lon="20.57089">
        <ele>596.15002441406</ele>
        <time>2023-09-28T09:05:28.000Z</time>
      </trkpt>
      <trkpt lat="40.14643" lon="20.57084">
        <ele>597.11999511719</ele>
        <time>2023-09-28T09:05:27.000Z</time>
      </trkpt>
      <trkpt lat="40.14684" lon="20.5706">
        <ele>601.91998291016</ele>
        <time>2023-09-28T09:05:23.000Z</time>
      </trkpt>
      <trkpt lat="40.14693" lon="20.57057">
        <ele>602.88000488281</ele>
        <time>2023-09-28T09:05:22.000Z</time>
      </trkpt>
      <trkpt lat="40.14702" lon="20.57056">
        <ele>603.35998535156</ele>
        <time>2023-09-28T09:05:21.000Z</time>
      </trkpt>
      <trkpt lat="40.14711" lon="20.57058">
        <ele>603.84997558594</ele>
        <time>2023-09-28T09:05:20.000Z</time>
      </trkpt>
      <trkpt lat="40.14717" lon="20.57061">
        <ele>603.84997558594</ele>
        <time>2023-09-28T09:05:19.000Z</time>
      </trkpt>
      <trkpt lat="40.14726" lon="20.57066">
        <ele>604.80999755859</ele>
        <time>2023-09-28T09:05:18.000Z</time>
      </trkpt>
      <trkpt lat="40.14733" lon="20.57069">
        <ele>604.80999755859</ele>
        <time>2023-09-28T09:05:17.000Z</time>
      </trkpt>
      <trkpt lat="40.14739" lon="20.57067">
        <ele>604.80999755859</ele>
        <time>2023-09-28T09:05:16.000Z</time>
      </trkpt>
      <trkpt lat="40.14744" lon="20.57062">
        <ele>604.80999755859</ele>
        <time>2023-09-28T09:05:15.000Z</time>
      </trkpt>
      <trkpt lat="40.14747" lon="20.57054">
        <ele>604.33001708984</ele>
        <time>2023-09-28T09:05:14.000Z</time>
      </trkpt>
      <trkpt lat="40.1475" lon="20.57043">
        <ele>603.84997558594</ele>
        <time>2023-09-28T09:05:13.000Z</time>
      </trkpt>
      <trkpt lat="40.1475" lon="20.57034">
        <ele>603.84997558594</ele>
        <time>2023-09-28T09:05:12.000Z</time>
      </trkpt>
      <trkpt lat="40.14751" lon="20.57028">
        <ele>603.35998535156</ele>
        <time>2023-09-28T09:05:11.000Z</time>
      </trkpt>
      <trkpt lat="40.1475" lon="20.57018">
        <ele>601.91998291016</ele>
        <time>2023-09-28T09:05:10.000Z</time>
      </trkpt>
      <trkpt lat="40.14751" lon="20.5701">
        <ele>601.44000244141</ele>
        <time>2023-09-28T09:05:09.000Z</time>
      </trkpt>
      <trkpt lat="40.14755" lon="20.57002">
        <ele>600.96002197266</ele>
        <time>2023-09-28T09:05:08.000Z</time>
      </trkpt>
      <trkpt lat="40.14761" lon="20.56998">
        <ele>600.96002197266</ele>
        <time>2023-09-28T09:05:07.000Z</time>
      </trkpt>
      <trkpt lat="40.14769" lon="20.56998">
        <ele>600.47998046875</ele>
        <time>2023-09-28T09:05:06.000Z</time>
      </trkpt>
      <trkpt lat="40.14777" lon="20.57">
        <ele>600</ele>
        <time>2023-09-28T09:05:05.000Z</time>
      </trkpt>
      <trkpt lat="40.14785" lon="20.57005">
        <ele>600</ele>
        <time>2023-09-28T09:05:04.000Z</time>
      </trkpt>
      <trkpt lat="40.14794" lon="20.57008">
        <ele>600</ele>
        <time>2023-09-28T09:05:03.000Z</time>
      </trkpt>
      <trkpt lat="40.14803" lon="20.5701">
        <ele>600</ele>
        <time>2023-09-28T09:05:02.000Z</time>
      </trkpt>
      <trkpt lat="40.14811" lon="20.5701">
        <ele>600</ele>
        <time>2023-09-28T09:05:01.000Z</time>
      </trkpt>
      <trkpt lat="40.14832" lon="20.5701">
        <ele>600.96002197266</ele>
        <time>2023-09-28T09:04:59.000Z</time>
      </trkpt>
      <trkpt lat="40.14847" lon="20.5701">
        <ele>601.44000244141</ele>
        <time>2023-09-28T09:04:58.000Z</time>
      </trkpt>
      <trkpt lat="40.14854" lon="20.57008">
        <ele>601.44000244141</ele>
        <time>2023-09-28T09:04:57.000Z</time>
      </trkpt>
      <trkpt lat="40.14861" lon="20.57005">
        <ele>601.91998291016</ele>
        <time>2023-09-28T09:04:56.000Z</time>
      </trkpt>
      <trkpt lat="40.14867" lon="20.56998">
        <ele>602.40002441406</ele>
        <time>2023-09-28T09:04:55.000Z</time>
      </trkpt>
      <trkpt lat="40.14872" lon="20.56988">
        <ele>602.40002441406</ele>
        <time>2023-09-28T09:04:54.000Z</time>
      </trkpt>
      <trkpt lat="40.14873" lon="20.56986">
        <ele>602.40002441406</ele>
        <time>2023-09-28T09:04:53.000Z</time>
      </trkpt>
      <trkpt lat="40.14887" lon="20.56949">
        <ele>602.88000488281</ele>
        <time>2023-09-28T09:04:51.000Z</time>
      </trkpt>
      <trkpt lat="40.14895" lon="20.56925">
        <ele>603.35998535156</ele>
        <time>2023-09-28T09:04:49.000Z</time>
      </trkpt>
      <trkpt lat="40.149" lon="20.56912">
        <ele>603.35998535156</ele>
        <time>2023-09-28T09:04:48.000Z</time>
      </trkpt>
      <trkpt lat="40.14904" lon="20.56904">
        <ele>603.35998535156</ele>
        <time>2023-09-28T09:04:47.000Z</time>
      </trkpt>
      <trkpt lat="40.14909" lon="20.56898">
        <ele>603.35998535156</ele>
        <time>2023-09-28T09:04:46.000Z</time>
      </trkpt>
      <trkpt lat="40.14914" lon="20.56894">
        <ele>601.44000244141</ele>
        <time>2023-09-28T09:04:45.000Z</time>
      </trkpt>
      <trkpt lat="40.14919" lon="20.56894">
        <ele>599.52001953125</ele>
        <time>2023-09-28T09:04:44.000Z</time>
      </trkpt>
      <trkpt lat="40.14924" lon="20.56896">
        <ele>599.03997802734</ele>
        <time>2023-09-28T09:04:43.000Z</time>
      </trkpt>
      <trkpt lat="40.14928" lon="20.56898">
        <ele>598.55999755859</ele>
        <time>2023-09-28T09:04:42.000Z</time>
      </trkpt>
      <trkpt lat="40.14935" lon="20.56904">
        <ele>599.03997802734</ele>
        <time>2023-09-28T09:04:41.000Z</time>
      </trkpt>
      <trkpt lat="40.14942" lon="20.56907">
        <ele>600</ele>
        <time>2023-09-28T09:04:40.000Z</time>
      </trkpt>
      <trkpt lat="40.14949" lon="20.56906">
        <ele>600</ele>
        <time>2023-09-28T09:04:39.000Z</time>
      </trkpt>
      <trkpt lat="40.14957" lon="20.56902">
        <ele>600.47998046875</ele>
        <time>2023-09-28T09:04:38.000Z</time>
      </trkpt>
      <trkpt lat="40.1496" lon="20.569">
        <ele>600.47998046875</ele>
        <time>2023-09-28T09:04:37.000Z</time>
      </trkpt>
      <trkpt lat="40.14984" lon="20.56884">
        <ele>602.88000488281</ele>
        <time>2023-09-28T09:04:35.000Z</time>
      </trkpt>
      <trkpt lat="40.14996" lon="20.56878">
        <ele>603.84997558594</ele>
        <time>2023-09-28T09:04:34.000Z</time>
      </trkpt>
      <trkpt lat="40.15007" lon="20.56875">
        <ele>604.80999755859</ele>
        <time>2023-09-28T09:04:33.000Z</time>
      </trkpt>
      <trkpt lat="40.15018" lon="20.56874">
        <ele>605.77001953125</ele>
        <time>2023-09-28T09:04:32.000Z</time>
      </trkpt>
      <trkpt lat="40.15031" lon="20.56874">
        <ele>606.72998046875</ele>
        <time>2023-09-28T09:04:31.000Z</time>
      </trkpt>
      <trkpt lat="40.15043" lon="20.56872">
        <ele>608.16998291016</ele>
        <time>2023-09-28T09:04:30.000Z</time>
      </trkpt>
      <trkpt lat="40.1505" lon="20.5687">
        <ele>608.65002441406</ele>
        <time>2023-09-28T09:04:29.000Z</time>
      </trkpt>
      <trkpt lat="40.15064" lon="20.56864">
        <ele>610.09002685547</ele>
        <time>2023-09-28T09:04:28.000Z</time>
      </trkpt>
      <trkpt lat="40.15107" lon="20.56843">
        <ele>612.02001953125</ele>
        <time>2023-09-28T09:04:25.000Z</time>
      </trkpt>
      <trkpt lat="40.15121" lon="20.56833">
        <ele>613.46002197266</ele>
        <time>2023-09-28T09:04:24.000Z</time>
      </trkpt>
      <trkpt lat="40.15124" lon="20.5683">
        <ele>613.94000244141</ele>
        <time>2023-09-28T09:04:23.000Z</time>
      </trkpt>
      <trkpt lat="40.15143" lon="20.56812">
        <ele>615.38000488281</ele>
        <time>2023-09-28T09:04:22.000Z</time>
      </trkpt>
      <trkpt lat="40.15153" lon="20.56801">
        <ele>616.82000732422</ele>
        <time>2023-09-28T09:04:21.000Z</time>
      </trkpt>
      <trkpt lat="40.15163" lon="20.5679">
        <ele>618.26000976562</ele>
        <time>2023-09-28T09:04:20.000Z</time>
      </trkpt>
      <trkpt lat="40.15169" lon="20.56779">
        <ele>619.22998046875</ele>
        <time>2023-09-28T09:04:19.000Z</time>
      </trkpt>
      <trkpt lat="40.15175" lon="20.56767">
        <ele>620.66998291016</ele>
        <time>2023-09-28T09:04:18.000Z</time>
      </trkpt>
      <trkpt lat="40.15177" lon="20.56753">
        <ele>621.63000488281</ele>
        <time>2023-09-28T09:04:17.000Z</time>
      </trkpt>
      <trkpt lat="40.15177" lon="20.56738">
        <ele>623.07000732422</ele>
        <time>2023-09-28T09:04:16.000Z</time>
      </trkpt>
      <trkpt lat="40.15174" lon="20.56722">
        <ele>624.03002929688</ele>
        <time>2023-09-28T09:04:15.000Z</time>
      </trkpt>
      <trkpt lat="40.15169" lon="20.56707">
        <ele>624.51000976562</ele>
        <time>2023-09-28T09:04:14.000Z</time>
      </trkpt>
      <trkpt lat="40.15164" lon="20.56694">
        <ele>625.46997070312</ele>
        <time>2023-09-28T09:04:13.000Z</time>
      </trkpt>
      <trkpt lat="40.15158" lon="20.56679">
        <ele>626.91998291016</ele>
        <time>2023-09-28T09:04:12.000Z</time>
      </trkpt>
      <trkpt lat="40.15156" lon="20.56667">
        <ele>627.88000488281</ele>
        <time>2023-09-28T09:04:11.000Z</time>
      </trkpt>
      <trkpt lat="40.15157" lon="20.56658">
        <ele>628.84002685547</ele>
        <time>2023-09-28T09:04:10.000Z</time>
      </trkpt>
      <trkpt lat="40.1516" lon="20.5665">
        <ele>629.79998779297</ele>
        <time>2023-09-28T09:04:09.000Z</time>
      </trkpt>
      <trkpt lat="40.15167" lon="20.56643">
        <ele>629.79998779297</ele>
        <time>2023-09-28T09:04:08.000Z</time>
      </trkpt>
      <trkpt lat="40.15174" lon="20.56638">
        <ele>630.28002929688</ele>
        <time>2023-09-28T09:04:07.000Z</time>
      </trkpt>
      <trkpt lat="40.15182" lon="20.56636">
        <ele>630.76000976562</ele>
        <time>2023-09-28T09:04:06.000Z</time>
      </trkpt>
      <trkpt lat="40.1519" lon="20.56637">
        <ele>631.71997070312</ele>
        <time>2023-09-28T09:04:05.000Z</time>
      </trkpt>
      <trkpt lat="40.15196" lon="20.56639">
        <ele>631.71997070312</ele>
        <time>2023-09-28T09:04:04.000Z</time>
      </trkpt>
      <trkpt lat="40.15205" lon="20.56643">
        <ele>632.67999267578</ele>
        <time>2023-09-28T09:04:03.000Z</time>
      </trkpt>
      <trkpt lat="40.15209" lon="20.56647">
        <ele>633.16998291016</ele>
        <time>2023-09-28T09:04:02.000Z</time>
      </trkpt>
      <trkpt lat="40.1522" lon="20.56657">
        <ele>634.13000488281</ele>
        <time>2023-09-28T09:04:01.000Z</time>
      </trkpt>
      <trkpt lat="40.15226" lon="20.56664">
        <ele>634.60998535156</ele>
        <time>2023-09-28T09:04:00.000Z</time>
      </trkpt>
      <trkpt lat="40.15235" lon="20.56672">
        <ele>635.09002685547</ele>
        <time>2023-09-28T09:03:59.000Z</time>
      </trkpt>
      <trkpt lat="40.15238" lon="20.56674">
        <ele>635.57000732422</ele>
        <time>2023-09-28T09:03:58.000Z</time>
      </trkpt>
      <trkpt lat="40.15253" lon="20.56685">
        <ele>637.01000976562</ele>
        <time>2023-09-28T09:03:57.000Z</time>
      </trkpt>
      <trkpt lat="40.15259" lon="20.5669">
        <ele>637.48999023438</ele>
        <time>2023-09-28T09:03:56.000Z</time>
      </trkpt>
      <trkpt lat="40.15271" lon="20.56698">
        <ele>637.96997070312</ele>
        <time>2023-09-28T09:03:55.000Z</time>
      </trkpt>
      <trkpt lat="40.15278" lon="20.56702">
        <ele>638.92999267578</ele>
        <time>2023-09-28T09:03:54.000Z</time>
      </trkpt>
      <trkpt lat="40.15285" lon="20.56706">
        <ele>639.40997314453</ele>
        <time>2023-09-28T09:03:53.000Z</time>
      </trkpt>
      <trkpt lat="40.15289" lon="20.56712">
        <ele>640.38000488281</ele>
        <time>2023-09-28T09:03:52.000Z</time>
      </trkpt>
      <trkpt lat="40.15293" lon="20.56721">
        <ele>641.34002685547</ele>
        <time>2023-09-28T09:03:51.000Z</time>
      </trkpt>
      <trkpt lat="40.15293" lon="20.56725">
        <ele>641.82000732422</ele>
        <time>2023-09-28T09:03:50.000Z</time>
      </trkpt>
      <trkpt lat="40.15296" lon="20.5674">
        <ele>642.78002929688</ele>
        <time>2023-09-28T09:03:49.000Z</time>
      </trkpt>
      <trkpt lat="40.15298" lon="20.56751">
        <ele>643.26000976562</ele>
        <time>2023-09-28T09:03:48.000Z</time>
      </trkpt>
      <trkpt lat="40.15302" lon="20.56759">
        <ele>643.73999023438</ele>
        <time>2023-09-28T09:03:47.000Z</time>
      </trkpt>
      <trkpt lat="40.15307" lon="20.56765">
        <ele>644.21997070312</ele>
        <time>2023-09-28T09:03:46.000Z</time>
      </trkpt>
      <trkpt lat="40.15312" lon="20.56769">
        <ele>644.21997070312</ele>
        <time>2023-09-28T09:03:45.000Z</time>
      </trkpt>
      <trkpt lat="40.15318" lon="20.56771">
        <ele>644.70001220703</ele>
        <time>2023-09-28T09:03:44.000Z</time>
      </trkpt>
      <trkpt lat="40.15324" lon="20.56772">
        <ele>644.70001220703</ele>
        <time>2023-09-28T09:03:43.000Z</time>
      </trkpt>
      <trkpt lat="40.15332" lon="20.56771">
        <ele>644.70001220703</ele>
        <time>2023-09-28T09:03:42.000Z</time>
      </trkpt>
      <trkpt lat="40.15338" lon="20.56769">
        <ele>645.17999267578</ele>
        <time>2023-09-28T09:03:41.000Z</time>
      </trkpt>
      <trkpt lat="40.15348" lon="20.56766">
        <ele>645.17999267578</ele>
        <time>2023-09-28T09:03:40.000Z</time>
      </trkpt>
      <trkpt lat="40.15354" lon="20.56765">
        <ele>645.17999267578</ele>
        <time>2023-09-28T09:03:39.000Z</time>
      </trkpt>
      <trkpt lat="40.1536" lon="20.56766">
        <ele>645.65997314453</ele>
        <time>2023-09-28T09:03:38.000Z</time>
      </trkpt>
      <trkpt lat="40.15367" lon="20.56769">
        <ele>645.65997314453</ele>
        <time>2023-09-28T09:03:37.000Z</time>
      </trkpt>
      <trkpt lat="40.15373" lon="20.56773">
        <ele>645.65997314453</ele>
        <time>2023-09-28T09:03:36.000Z</time>
      </trkpt>
      <trkpt lat="40.15378" lon="20.56777">
        <ele>645.65997314453</ele>
        <time>2023-09-28T09:03:35.000Z</time>
      </trkpt>
      <trkpt lat="40.15385" lon="20.56781">
        <ele>645.65997314453</ele>
        <time>2023-09-28T09:03:34.000Z</time>
      </trkpt>
      <trkpt lat="40.15391" lon="20.56782">
        <ele>645.65997314453</ele>
        <time>2023-09-28T09:03:33.000Z</time>
      </trkpt>
      <trkpt lat="40.15402" lon="20.56785">
        <ele>645.65997314453</ele>
        <time>2023-09-28T09:03:32.000Z</time>
      </trkpt>
      <trkpt lat="40.1541" lon="20.56786">
        <ele>645.17999267578</ele>
        <time>2023-09-28T09:03:31.000Z</time>
      </trkpt>
      <trkpt lat="40.15417" lon="20.56785">
        <ele>644.70001220703</ele>
        <time>2023-09-28T09:03:30.000Z</time>
      </trkpt>
      <trkpt lat="40.15423" lon="20.56782">
        <ele>644.21997070312</ele>
        <time>2023-09-28T09:03:29.000Z</time>
      </trkpt>
      <trkpt lat="40.15429" lon="20.56774">
        <ele>643.73999023438</ele>
        <time>2023-09-28T09:03:28.000Z</time>
      </trkpt>
      <trkpt lat="40.15433" lon="20.56764">
        <ele>643.26000976562</ele>
        <time>2023-09-28T09:03:27.000Z</time>
      </trkpt>
      <trkpt lat="40.15434" lon="20.56758">
        <ele>643.26000976562</ele>
        <time>2023-09-28T09:03:26.000Z</time>
      </trkpt>
      <trkpt lat="40.15437" lon="20.56743">
        <ele>642.78002929688</ele>
        <time>2023-09-28T09:03:25.000Z</time>
      </trkpt>
      <trkpt lat="40.15441" lon="20.56736">
        <ele>642.78002929688</ele>
        <time>2023-09-28T09:03:24.000Z</time>
      </trkpt>
      <trkpt lat="40.15445" lon="20.56729">
        <ele>642.78002929688</ele>
        <time>2023-09-28T09:03:23.000Z</time>
      </trkpt>
      <trkpt lat="40.1545" lon="20.56725">
        <ele>642.78002929688</ele>
        <time>2023-09-28T09:03:22.000Z</time>
      </trkpt>
      <trkpt lat="40.15456" lon="20.56721">
        <ele>642.29998779297</ele>
        <time>2023-09-28T09:03:21.000Z</time>
      </trkpt>
      <trkpt lat="40.15464" lon="20.56718">
        <ele>642.29998779297</ele>
        <time>2023-09-28T09:03:20.000Z</time>
      </trkpt>
      <trkpt lat="40.1547" lon="20.56718">
        <ele>642.29998779297</ele>
        <time>2023-09-28T09:03:19.000Z</time>
      </trkpt>
      <trkpt lat="40.15479" lon="20.56718">
        <ele>641.82000732422</ele>
        <time>2023-09-28T09:03:18.000Z</time>
      </trkpt>
      <trkpt lat="40.15485" lon="20.5672">
        <ele>641.82000732422</ele>
        <time>2023-09-28T09:03:17.000Z</time>
      </trkpt>
      <trkpt lat="40.15491" lon="20.56723">
        <ele>642.29998779297</ele>
        <time>2023-09-28T09:03:16.000Z</time>
      </trkpt>
      <trkpt lat="40.15496" lon="20.56728">
        <ele>642.29998779297</ele>
        <time>2023-09-28T09:03:15.000Z</time>
      </trkpt>
      <trkpt lat="40.15501" lon="20.56734">
        <ele>642.29998779297</ele>
        <time>2023-09-28T09:03:14.000Z</time>
      </trkpt>
      <trkpt lat="40.15509" lon="20.56743">
        <ele>641.82000732422</ele>
        <time>2023-09-28T09:03:13.000Z</time>
      </trkpt>
      <trkpt lat="40.15517" lon="20.5675">
        <ele>641.34002685547</ele>
        <time>2023-09-28T09:03:12.000Z</time>
      </trkpt>
      <trkpt lat="40.15526" lon="20.56755">
        <ele>641.34002685547</ele>
        <time>2023-09-28T09:03:11.000Z</time>
      </trkpt>
      <trkpt lat="40.15537" lon="20.56761">
        <ele>640.85998535156</ele>
        <time>2023-09-28T09:03:10.000Z</time>
      </trkpt>
      <trkpt lat="40.15545" lon="20.56766">
        <ele>639.89001464844</ele>
        <time>2023-09-28T09:03:09.000Z</time>
      </trkpt>
      <trkpt lat="40.15554" lon="20.56773">
        <ele>638.92999267578</ele>
        <time>2023-09-28T09:03:08.000Z</time>
      </trkpt>
      <trkpt lat="40.15562" lon="20.56778">
        <ele>638.45001220703</ele>
        <time>2023-09-28T09:03:07.000Z</time>
      </trkpt>
      <trkpt lat="40.15571" lon="20.5678">
        <ele>638.45001220703</ele>
        <time>2023-09-28T09:03:06.000Z</time>
      </trkpt>
      <trkpt lat="40.1558" lon="20.56779">
        <ele>638.45001220703</ele>
        <time>2023-09-28T09:03:05.000Z</time>
      </trkpt>
      <trkpt lat="40.1559" lon="20.56777">
        <ele>638.45001220703</ele>
        <time>2023-09-28T09:03:04.000Z</time>
      </trkpt>
      <trkpt lat="40.15615" lon="20.56771">
        <ele>637.96997070312</ele>
        <time>2023-09-28T09:03:02.000Z</time>
      </trkpt>
      <trkpt lat="40.15628" lon="20.56767">
        <ele>638.45001220703</ele>
        <time>2023-09-28T09:03:01.000Z</time>
      </trkpt>
      <trkpt lat="40.15639" lon="20.56764">
        <ele>638.92999267578</ele>
        <time>2023-09-28T09:03:00.000Z</time>
      </trkpt>
      <trkpt lat="40.15645" lon="20.56761">
        <ele>638.92999267578</ele>
        <time>2023-09-28T09:02:59.000Z</time>
      </trkpt>
      <trkpt lat="40.15659" lon="20.56754">
        <ele>639.40997314453</ele>
        <time>2023-09-28T09:02:58.000Z</time>
      </trkpt>
      <trkpt lat="40.15669" lon="20.56749">
        <ele>640.85998535156</ele>
        <time>2023-09-28T09:02:57.000Z</time>
      </trkpt>
      <trkpt lat="40.15677" lon="20.56748">
        <ele>641.82000732422</ele>
        <time>2023-09-28T09:02:56.000Z</time>
      </trkpt>
      <trkpt lat="40.15683" lon="20.56749">
        <ele>642.78002929688</ele>
        <time>2023-09-28T09:02:55.000Z</time>
      </trkpt>
      <trkpt lat="40.15689" lon="20.56753">
        <ele>643.26000976562</ele>
        <time>2023-09-28T09:02:54.000Z</time>
      </trkpt>
      <trkpt lat="40.15692" lon="20.56756">
        <ele>643.73999023438</ele>
        <time>2023-09-28T09:02:53.000Z</time>
      </trkpt>
      <trkpt lat="40.157" lon="20.56765">
        <ele>645.17999267578</ele>
        <time>2023-09-28T09:02:52.000Z</time>
      </trkpt>
      <trkpt lat="40.15707" lon="20.56771">
        <ele>646.14001464844</ele>
        <time>2023-09-28T09:02:51.000Z</time>
      </trkpt>
      <trkpt lat="40.15717" lon="20.56776">
        <ele>647.09997558594</ele>
        <time>2023-09-28T09:02:50.000Z</time>
      </trkpt>
      <trkpt lat="40.15725" lon="20.56779">
        <ele>648.07000732422</ele>
        <time>2023-09-28T09:02:49.000Z</time>
      </trkpt>
      <trkpt lat="40.15729" lon="20.5678">
        <ele>648.54998779297</ele>
        <time>2023-09-28T09:02:48.000Z</time>
      </trkpt>
      <trkpt lat="40.15746" lon="20.56783">
        <ele>649.98999023438</ele>
        <time>2023-09-28T09:02:47.000Z</time>
      </trkpt>
      <trkpt lat="40.1577" lon="20.56789">
        <ele>651.90997314453</ele>
        <time>2023-09-28T09:02:45.000Z</time>
      </trkpt>
      <trkpt lat="40.15781" lon="20.5679">
        <ele>652.39001464844</ele>
        <time>2023-09-28T09:02:44.000Z</time>
      </trkpt>
      <trkpt lat="40.1579" lon="20.56788">
        <ele>653.34997558594</ele>
        <time>2023-09-28T09:02:43.000Z</time>
      </trkpt>
      <trkpt lat="40.15797" lon="20.56784">
        <ele>653.83001708984</ele>
        <time>2023-09-28T09:02:42.000Z</time>
      </trkpt>
      <trkpt lat="40.15803" lon="20.56778">
        <ele>654.30999755859</ele>
        <time>2023-09-28T09:02:41.000Z</time>
      </trkpt>
      <trkpt lat="40.15807" lon="20.5677">
        <ele>655.28002929688</ele>
        <time>2023-09-28T09:02:40.000Z</time>
      </trkpt>
      <trkpt lat="40.1581" lon="20.56762">
        <ele>655.76000976562</ele>
        <time>2023-09-28T09:02:39.000Z</time>
      </trkpt>
      <trkpt lat="40.15812" lon="20.56752">
        <ele>656.23999023438</ele>
        <time>2023-09-28T09:02:38.000Z</time>
      </trkpt>
      <trkpt lat="40.15815" lon="20.56739">
        <ele>656.23999023438</ele>
        <time>2023-09-28T09:02:36.000Z</time>
      </trkpt>
      <trkpt lat="40.15817" lon="20.56725">
        <ele>656.71997070312</ele>
        <time>2023-09-28T09:02:34.000Z</time>
      </trkpt>
      <trkpt lat="40.15817" lon="20.56722">
        <ele>656.71997070312</ele>
        <time>2023-09-28T09:02:33.000Z</time>
      </trkpt>
      <trkpt lat="40.15825" lon="20.56704">
        <ele>656.71997070312</ele>
        <time>2023-09-28T09:02:28.000Z</time>
      </trkpt>
      <trkpt lat="40.15828" lon="20.56704">
        <ele>651.90997314453</ele>
        <time>2023-09-28T09:00:39.000Z</time>
      </trkpt>
      <trkpt lat="40.15836" lon="20.56702">
        <ele>652.39001464844</ele>
        <time>2023-09-28T09:00:32.000Z</time>
      </trkpt>
      <trkpt lat="40.1584" lon="20.56702">
        <ele>652.86999511719</ele>
        <time>2023-09-28T09:00:31.000Z</time>
      </trkpt>
      <trkpt lat="40.15847" lon="20.56702">
        <ele>652.86999511719</ele>
        <time>2023-09-28T09:00:30.000Z</time>
      </trkpt>
      <trkpt lat="40.15857" lon="20.56701">
        <ele>652.86999511719</ele>
        <time>2023-09-28T09:00:29.000Z</time>
      </trkpt>
      <trkpt lat="40.15864" lon="20.56699">
        <ele>653.34997558594</ele>
        <time>2023-09-28T09:00:28.000Z</time>
      </trkpt>
      <trkpt lat="40.15874" lon="20.56695">
        <ele>653.34997558594</ele>
        <time>2023-09-28T09:00:27.000Z</time>
      </trkpt>
      <trkpt lat="40.1588" lon="20.56692">
        <ele>653.34997558594</ele>
        <time>2023-09-28T09:00:26.000Z</time>
      </trkpt>
      <trkpt lat="40.15892" lon="20.56685">
        <ele>653.34997558594</ele>
        <time>2023-09-28T09:00:25.000Z</time>
      </trkpt>
      <trkpt lat="40.15903" lon="20.56681">
        <ele>653.34997558594</ele>
        <time>2023-09-28T09:00:24.000Z</time>
      </trkpt>
      <trkpt lat="40.15911" lon="20.56678">
        <ele>652.86999511719</ele>
        <time>2023-09-28T09:00:23.000Z</time>
      </trkpt>
      <trkpt lat="40.1592" lon="20.56677">
        <ele>652.86999511719</ele>
        <time>2023-09-28T09:00:22.000Z</time>
      </trkpt>
      <trkpt lat="40.15931" lon="20.56677">
        <ele>652.39001464844</ele>
        <time>2023-09-28T09:00:21.000Z</time>
      </trkpt>
      <trkpt lat="40.15939" lon="20.56679">
        <ele>652.39001464844</ele>
        <time>2023-09-28T09:00:20.000Z</time>
      </trkpt>
      <trkpt lat="40.15949" lon="20.56683">
        <ele>652.39001464844</ele>
        <time>2023-09-28T09:00:19.000Z</time>
      </trkpt>
      <trkpt lat="40.15958" lon="20.56688">
        <ele>652.39001464844</ele>
        <time>2023-09-28T09:00:18.000Z</time>
      </trkpt>
      <trkpt lat="40.15987" lon="20.56708">
        <ele>652.39001464844</ele>
        <time>2023-09-28T09:00:15.000Z</time>
      </trkpt>
      <trkpt lat="40.15995" lon="20.56713">
        <ele>652.39001464844</ele>
        <time>2023-09-28T09:00:14.000Z</time>
      </trkpt>
      <trkpt lat="40.16003" lon="20.56717">
        <ele>652.86999511719</ele>
        <time>2023-09-28T09:00:13.000Z</time>
      </trkpt>
      <trkpt lat="40.16008" lon="20.56721">
        <ele>652.86999511719</ele>
        <time>2023-09-28T09:00:12.000Z</time>
      </trkpt>
      <trkpt lat="40.16012" lon="20.56725">
        <ele>652.86999511719</ele>
        <time>2023-09-28T09:00:11.000Z</time>
      </trkpt>
      <trkpt lat="40.16015" lon="20.56731">
        <ele>652.86999511719</ele>
        <time>2023-09-28T09:00:10.000Z</time>
      </trkpt>
      <trkpt lat="40.16015" lon="20.56736">
        <ele>652.86999511719</ele>
        <time>2023-09-28T09:00:09.000Z</time>
      </trkpt>
      <trkpt lat="40.16015" lon="20.56743">
        <ele>652.86999511719</ele>
        <time>2023-09-28T09:00:08.000Z</time>
      </trkpt>
      <trkpt lat="40.16015" lon="20.56749">
        <ele>652.86999511719</ele>
        <time>2023-09-28T09:00:07.000Z</time>
      </trkpt>
      <trkpt lat="40.16016" lon="20.56757">
        <ele>652.86999511719</ele>
        <time>2023-09-28T09:00:06.000Z</time>
      </trkpt>
      <trkpt lat="40.16019" lon="20.56767">
        <ele>652.86999511719</ele>
        <time>2023-09-28T09:00:05.000Z</time>
      </trkpt>
      <trkpt lat="40.16022" lon="20.56774">
        <ele>652.86999511719</ele>
        <time>2023-09-28T09:00:04.000Z</time>
      </trkpt>
      <trkpt lat="40.16025" lon="20.5678">
        <ele>653.34997558594</ele>
        <time>2023-09-28T09:00:03.000Z</time>
      </trkpt>
      <trkpt lat="40.16032" lon="20.56791">
        <ele>653.34997558594</ele>
        <time>2023-09-28T09:00:02.000Z</time>
      </trkpt>
      <trkpt lat="40.16036" lon="20.56798">
        <ele>652.86999511719</ele>
        <time>2023-09-28T09:00:01.000Z</time>
      </trkpt>
      <trkpt lat="40.1604" lon="20.56804">
        <ele>653.34997558594</ele>
        <time>2023-09-28T09:00:00.000Z</time>
      </trkpt>
      <trkpt lat="40.16045" lon="20.56806">
        <ele>655.28002929688</ele>
        <time>2023-09-28T08:59:59.000Z</time>
      </trkpt>
      <trkpt lat="40.1605" lon="20.56808">
        <ele>655.76000976562</ele>
        <time>2023-09-28T08:59:58.000Z</time>
      </trkpt>
      <trkpt lat="40.16056" lon="20.56809">
        <ele>655.28002929688</ele>
        <time>2023-09-28T08:59:57.000Z</time>
      </trkpt>
      <trkpt lat="40.16063" lon="20.56811">
        <ele>653.83001708984</ele>
        <time>2023-09-28T08:59:56.000Z</time>
      </trkpt>
      <trkpt lat="40.16072" lon="20.56814">
        <ele>652.86999511719</ele>
        <time>2023-09-28T08:59:55.000Z</time>
      </trkpt>
      <trkpt lat="40.16078" lon="20.56817">
        <ele>652.86999511719</ele>
        <time>2023-09-28T08:59:54.000Z</time>
      </trkpt>
      <trkpt lat="40.16086" lon="20.56818">
        <ele>651.90997314453</ele>
        <time>2023-09-28T08:59:53.000Z</time>
      </trkpt>
      <trkpt lat="40.16091" lon="20.56818">
        <ele>651.42999267578</ele>
        <time>2023-09-28T08:59:52.000Z</time>
      </trkpt>
      <trkpt lat="40.16099" lon="20.5682">
        <ele>651.42999267578</ele>
        <time>2023-09-28T08:59:51.000Z</time>
      </trkpt>
      <trkpt lat="40.16104" lon="20.56821">
        <ele>651.42999267578</ele>
        <time>2023-09-28T08:59:50.000Z</time>
      </trkpt>
      <trkpt lat="40.1611" lon="20.56824">
        <ele>651.42999267578</ele>
        <time>2023-09-28T08:59:49.000Z</time>
      </trkpt>
      <trkpt lat="40.16115" lon="20.56826">
        <ele>651.90997314453</ele>
        <time>2023-09-28T08:59:48.000Z</time>
      </trkpt>
      <trkpt lat="40.16121" lon="20.56828">
        <ele>651.90997314453</ele>
        <time>2023-09-28T08:59:47.000Z</time>
      </trkpt>
      <trkpt lat="40.16126" lon="20.5683">
        <ele>652.39001464844</ele>
        <time>2023-09-28T08:59:46.000Z</time>
      </trkpt>
      <trkpt lat="40.1613" lon="20.56831">
        <ele>652.39001464844</ele>
        <time>2023-09-28T08:59:45.000Z</time>
      </trkpt>
      <trkpt lat="40.16135" lon="20.56831">
        <ele>652.39001464844</ele>
        <time>2023-09-28T08:59:44.000Z</time>
      </trkpt>
      <trkpt lat="40.16136" lon="20.56831">
        <ele>652.39001464844</ele>
        <time>2023-09-28T08:59:43.000Z</time>
      </trkpt>
      <trkpt lat="40.16144" lon="20.56829">
        <ele>651.90997314453</ele>
        <time>2023-09-28T08:59:42.000Z</time>
      </trkpt>
      <trkpt lat="40.16149" lon="20.56829">
        <ele>651.90997314453</ele>
        <time>2023-09-28T08:59:41.000Z</time>
      </trkpt>
      <trkpt lat="40.16162" lon="20.56826">
        <ele>651.90997314453</ele>
        <time>2023-09-28T08:59:39.000Z</time>
      </trkpt>
      <trkpt lat="40.16167" lon="20.56824">
        <ele>651.90997314453</ele>
        <time>2023-09-28T08:59:38.000Z</time>
      </trkpt>
      <trkpt lat="40.1617" lon="20.56824">
        <ele>651.90997314453</ele>
        <time>2023-09-28T08:59:37.000Z</time>
      </trkpt>
      <trkpt lat="40.16176" lon="20.56825">
        <ele>652.39001464844</ele>
        <time>2023-09-28T08:59:27.000Z</time>
      </trkpt>
      <trkpt lat="40.16184" lon="20.56828">
        <ele>650.46997070312</ele>
        <time>2023-09-28T08:58:33.000Z</time>
      </trkpt>
      <trkpt lat="40.16199" lon="20.56835">
        <ele>651.42999267578</ele>
        <time>2023-09-28T08:58:26.000Z</time>
      </trkpt>
      <trkpt lat="40.16205" lon="20.56836">
        <ele>651.90997314453</ele>
        <time>2023-09-28T08:58:25.000Z</time>
      </trkpt>
      <trkpt lat="40.16211" lon="20.56836">
        <ele>652.39001464844</ele>
        <time>2023-09-28T08:58:24.000Z</time>
      </trkpt>
      <trkpt lat="40.1622" lon="20.56834">
        <ele>653.34997558594</ele>
        <time>2023-09-28T08:58:23.000Z</time>
      </trkpt>
      <trkpt lat="40.16227" lon="20.56833">
        <ele>653.83001708984</ele>
        <time>2023-09-28T08:58:22.000Z</time>
      </trkpt>
      <trkpt lat="40.16235" lon="20.56833">
        <ele>654.30999755859</ele>
        <time>2023-09-28T08:58:21.000Z</time>
      </trkpt>
      <trkpt lat="40.16239" lon="20.56833">
        <ele>654.79998779297</ele>
        <time>2023-09-28T08:58:20.000Z</time>
      </trkpt>
      <trkpt lat="40.1625" lon="20.56835">
        <ele>655.76000976562</ele>
        <time>2023-09-28T08:58:19.000Z</time>
      </trkpt>
      <trkpt lat="40.16257" lon="20.56837">
        <ele>656.23999023438</ele>
        <time>2023-09-28T08:58:18.000Z</time>
      </trkpt>
      <trkpt lat="40.16262" lon="20.56839">
        <ele>657.20001220703</ele>
        <time>2023-09-28T08:58:17.000Z</time>
      </trkpt>
      <trkpt lat="40.16265" lon="20.56843">
        <ele>657.67999267578</ele>
        <time>2023-09-28T08:58:16.000Z</time>
      </trkpt>
      <trkpt lat="40.16268" lon="20.5685">
        <ele>658.15997314453</ele>
        <time>2023-09-28T08:58:15.000Z</time>
      </trkpt>
      <trkpt lat="40.1627" lon="20.56857">
        <ele>658.64001464844</ele>
        <time>2023-09-28T08:58:14.000Z</time>
      </trkpt>
      <trkpt lat="40.16273" lon="20.56868">
        <ele>659.11999511719</ele>
        <time>2023-09-28T08:58:13.000Z</time>
      </trkpt>
      <trkpt lat="40.16275" lon="20.56882">
        <ele>660.08001708984</ele>
        <time>2023-09-28T08:58:12.000Z</time>
      </trkpt>
      <trkpt lat="40.16278" lon="20.56893">
        <ele>661.03997802734</ele>
        <time>2023-09-28T08:58:11.000Z</time>
      </trkpt>
      <trkpt lat="40.16282" lon="20.56904">
        <ele>661.52001953125</ele>
        <time>2023-09-28T08:58:10.000Z</time>
      </trkpt>
      <trkpt lat="40.16289" lon="20.56915">
        <ele>662.48999023438</ele>
        <time>2023-09-28T08:58:09.000Z</time>
      </trkpt>
      <trkpt lat="40.16296" lon="20.56925">
        <ele>662.96997070312</ele>
        <time>2023-09-28T08:58:08.000Z</time>
      </trkpt>
      <trkpt lat="40.16297" lon="20.56927">
        <ele>663.45001220703</ele>
        <time>2023-09-28T08:58:07.000Z</time>
      </trkpt>
      <trkpt lat="40.16309" lon="20.56943">
        <ele>664.40997314453</ele>
        <time>2023-09-28T08:58:06.000Z</time>
      </trkpt>
      <trkpt lat="40.16319" lon="20.56956">
        <ele>665.84997558594</ele>
        <time>2023-09-28T08:58:05.000Z</time>
      </trkpt>
      <trkpt lat="40.16325" lon="20.56963">
        <ele>666.33001708984</ele>
        <time>2023-09-28T08:58:04.000Z</time>
      </trkpt>
      <trkpt lat="40.1633" lon="20.56968">
        <ele>666.80999755859</ele>
        <time>2023-09-28T08:58:03.000Z</time>
      </trkpt>
      <trkpt lat="40.16336" lon="20.56974">
        <ele>667.77001953125</ele>
        <time>2023-09-28T08:58:02.000Z</time>
      </trkpt>
      <trkpt lat="40.16343" lon="20.5698">
        <ele>668.72998046875</ele>
        <time>2023-09-28T08:58:01.000Z</time>
      </trkpt>
      <trkpt lat="40.16349" lon="20.56985">
        <ele>669.21997070312</ele>
        <time>2023-09-28T08:58:00.000Z</time>
      </trkpt>
      <trkpt lat="40.16365" lon="20.56997">
        <ele>671.14001464844</ele>
        <time>2023-09-28T08:57:58.000Z</time>
      </trkpt>
      <trkpt lat="40.16371" lon="20.57002">
        <ele>671.61999511719</ele>
        <time>2023-09-28T08:57:57.000Z</time>
      </trkpt>
      <trkpt lat="40.16373" lon="20.57004">
        <ele>671.61999511719</ele>
        <time>2023-09-28T08:57:56.000Z</time>
      </trkpt>
      <trkpt lat="40.16389" lon="20.57012">
        <ele>674.02001953125</ele>
        <time>2023-09-28T08:57:55.000Z</time>
      </trkpt>
      <trkpt lat="40.16395" lon="20.57016">
        <ele>674.5</ele>
        <time>2023-09-28T08:57:54.000Z</time>
      </trkpt>
      <trkpt lat="40.16405" lon="20.57023">
        <ele>675.94000244141</ele>
        <time>2023-09-28T08:57:53.000Z</time>
      </trkpt>
      <trkpt lat="40.16412" lon="20.57028">
        <ele>676.41998291016</ele>
        <time>2023-09-28T08:57:52.000Z</time>
      </trkpt>
      <trkpt lat="40.16423" lon="20.57037">
        <ele>677.86999511719</ele>
        <time>2023-09-28T08:57:51.000Z</time>
      </trkpt>
      <trkpt lat="40.16432" lon="20.57044">
        <ele>678.83001708984</ele>
        <time>2023-09-28T08:57:50.000Z</time>
      </trkpt>
      <trkpt lat="40.1644" lon="20.5705">
        <ele>679.78997802734</ele>
        <time>2023-09-28T08:57:49.000Z</time>
      </trkpt>
      <trkpt lat="40.1645" lon="20.57058">
        <ele>681.22998046875</ele>
        <time>2023-09-28T08:57:48.000Z</time>
      </trkpt>
      <trkpt lat="40.1646" lon="20.57065">
        <ele>682.66998291016</ele>
        <time>2023-09-28T08:57:47.000Z</time>
      </trkpt>
      <trkpt lat="40.16473" lon="20.57076">
        <ele>684.11999511719</ele>
        <time>2023-09-28T08:57:46.000Z</time>
      </trkpt>
      <trkpt lat="40.16482" lon="20.57083">
        <ele>685.08001708984</ele>
        <time>2023-09-28T08:57:45.000Z</time>
      </trkpt>
      <trkpt lat="40.16492" lon="20.57087">
        <ele>685.55999755859</ele>
        <time>2023-09-28T08:57:44.000Z</time>
      </trkpt>
      <trkpt lat="40.16501" lon="20.57089">
        <ele>686.52001953125</ele>
        <time>2023-09-28T08:57:43.000Z</time>
      </trkpt>
      <trkpt lat="40.16511" lon="20.57089">
        <ele>687</ele>
        <time>2023-09-28T08:57:42.000Z</time>
      </trkpt>
      <trkpt lat="40.16519" lon="20.5709">
        <ele>687</ele>
        <time>2023-09-28T08:57:41.000Z</time>
      </trkpt>
      <trkpt lat="40.16526" lon="20.57092">
        <ele>687.47998046875</ele>
        <time>2023-09-28T08:57:40.000Z</time>
      </trkpt>
      <trkpt lat="40.16536" lon="20.57095">
        <ele>687.96002197266</ele>
        <time>2023-09-28T08:57:39.000Z</time>
      </trkpt>
      <trkpt lat="40.16543" lon="20.57097">
        <ele>688.44000244141</ele>
        <time>2023-09-28T08:57:38.000Z</time>
      </trkpt>
      <trkpt lat="40.16549" lon="20.57099">
        <ele>688.44000244141</ele>
        <time>2023-09-28T08:57:37.000Z</time>
      </trkpt>
      <trkpt lat="40.16555" lon="20.57102">
        <ele>688.91998291016</ele>
        <time>2023-09-28T08:57:36.000Z</time>
      </trkpt>
      <trkpt lat="40.16565" lon="20.57106">
        <ele>689.40002441406</ele>
        <time>2023-09-28T08:57:35.000Z</time>
      </trkpt>
      <trkpt lat="40.16573" lon="20.57109">
        <ele>689.88000488281</ele>
        <time>2023-09-28T08:57:34.000Z</time>
      </trkpt>
      <trkpt lat="40.16588" lon="20.57118">
        <ele>691.33001708984</ele>
        <time>2023-09-28T08:57:32.000Z</time>
      </trkpt>
      <trkpt lat="40.16595" lon="20.57121">
        <ele>691.80999755859</ele>
        <time>2023-09-28T08:57:31.000Z</time>
      </trkpt>
      <trkpt lat="40.16598" lon="20.57122">
        <ele>691.80999755859</ele>
        <time>2023-09-28T08:57:30.000Z</time>
      </trkpt>
      <trkpt lat="40.16609" lon="20.57125">
        <ele>692.28997802734</ele>
        <time>2023-09-28T08:57:29.000Z</time>
      </trkpt>
      <trkpt lat="40.1662" lon="20.57127">
        <ele>692.77001953125</ele>
        <time>2023-09-28T08:57:28.000Z</time>
      </trkpt>
      <trkpt lat="40.16629" lon="20.5713">
        <ele>693.25</ele>
        <time>2023-09-28T08:57:27.000Z</time>
      </trkpt>
      <trkpt lat="40.1664" lon="20.57135">
        <ele>693.25</ele>
        <time>2023-09-28T08:57:26.000Z</time>
      </trkpt>
      <trkpt lat="40.16647" lon="20.5714">
        <ele>693.72998046875</ele>
        <time>2023-09-28T08:57:25.000Z</time>
      </trkpt>
      <trkpt lat="40.16655" lon="20.57147">
        <ele>693.72998046875</ele>
        <time>2023-09-28T08:57:24.000Z</time>
      </trkpt>
      <trkpt lat="40.16661" lon="20.57153">
        <ele>694.21002197266</ele>
        <time>2023-09-28T08:57:23.000Z</time>
      </trkpt>
      <trkpt lat="40.16666" lon="20.57161">
        <ele>694.21002197266</ele>
        <time>2023-09-28T08:57:22.000Z</time>
      </trkpt>
      <trkpt lat="40.1667" lon="20.57168">
        <ele>694.21002197266</ele>
        <time>2023-09-28T08:57:21.000Z</time>
      </trkpt>
      <trkpt lat="40.1668" lon="20.57188">
        <ele>695.16998291016</ele>
        <time>2023-09-28T08:57:19.000Z</time>
      </trkpt>
      <trkpt lat="40.16682" lon="20.57192">
        <ele>695.65002441406</ele>
        <time>2023-09-28T08:57:18.000Z</time>
      </trkpt>
      <trkpt lat="40.16689" lon="20.57206">
        <ele>696.13000488281</ele>
        <time>2023-09-28T08:57:17.000Z</time>
      </trkpt>
      <trkpt lat="40.167" lon="20.57229">
        <ele>698.53002929688</ele>
        <time>2023-09-28T08:51:02.000Z</time>
      </trkpt>
      <trkpt lat="40.16703" lon="20.57236">
        <ele>698.53002929688</ele>
        <time>2023-09-28T08:51:01.000Z</time>
      </trkpt>
      <trkpt lat="40.16711" lon="20.57253">
        <ele>699.02001953125</ele>
        <time>2023-09-28T08:50:59.000Z</time>
      </trkpt>
      <trkpt lat="40.16718" lon="20.57267">
        <ele>699.02001953125</ele>
        <time>2023-09-28T08:50:57.000Z</time>
      </trkpt>
      <trkpt lat="40.1672" lon="20.57269">
        <ele>699.02001953125</ele>
        <time>2023-09-28T08:50:56.000Z</time>
      </trkpt>
      <trkpt lat="40.16726" lon="20.57281">
        <ele>699.02001953125</ele>
        <time>2023-09-28T08:50:55.000Z</time>
      </trkpt>
      <trkpt lat="40.16729" lon="20.57286">
        <ele>699.02001953125</ele>
        <time>2023-09-28T08:50:54.000Z</time>
      </trkpt>
      <trkpt lat="40.1673" lon="20.57291">
        <ele>699.02001953125</ele>
        <time>2023-09-28T08:50:53.000Z</time>
      </trkpt>
      <trkpt lat="40.16732" lon="20.57296">
        <ele>699.02001953125</ele>
        <time>2023-09-28T08:50:52.000Z</time>
      </trkpt>
      <trkpt lat="40.16734" lon="20.57302">
        <ele>698.53002929688</ele>
        <time>2023-09-28T08:50:51.000Z</time>
      </trkpt>
      <trkpt lat="40.16737" lon="20.57309">
        <ele>698.53002929688</ele>
        <time>2023-09-28T08:50:50.000Z</time>
      </trkpt>
      <trkpt lat="40.16739" lon="20.57313">
        <ele>698.53002929688</ele>
        <time>2023-09-28T08:50:49.000Z</time>
      </trkpt>
      <trkpt lat="40.16745" lon="20.57323">
        <ele>698.53002929688</ele>
        <time>2023-09-28T08:50:48.000Z</time>
      </trkpt>
      <trkpt lat="40.1675" lon="20.5733">
        <ele>698.53002929688</ele>
        <time>2023-09-28T08:50:47.000Z</time>
      </trkpt>
      <trkpt lat="40.16755" lon="20.57335">
        <ele>698.53002929688</ele>
        <time>2023-09-28T08:50:46.000Z</time>
      </trkpt>
      <trkpt lat="40.1676" lon="20.57339">
        <ele>698.53002929688</ele>
        <time>2023-09-28T08:50:45.000Z</time>
      </trkpt>
      <trkpt lat="40.16768" lon="20.57345">
        <ele>698.53002929688</ele>
        <time>2023-09-28T08:50:43.000Z</time>
      </trkpt>
      <trkpt lat="40.16773" lon="20.57349">
        <ele>698.53002929688</ele>
        <time>2023-09-28T08:50:42.000Z</time>
      </trkpt>
      <trkpt lat="40.16783" lon="20.57355">
        <ele>698.53002929688</ele>
        <time>2023-09-28T08:50:41.000Z</time>
      </trkpt>
      <trkpt lat="40.16787" lon="20.57359">
        <ele>698.53002929688</ele>
        <time>2023-09-28T08:50:40.000Z</time>
      </trkpt>
      <trkpt lat="40.1679" lon="20.57364">
        <ele>698.53002929688</ele>
        <time>2023-09-28T08:50:39.000Z</time>
      </trkpt>
      <trkpt lat="40.16793" lon="20.5737">
        <ele>698.53002929688</ele>
        <time>2023-09-28T08:50:38.000Z</time>
      </trkpt>
      <trkpt lat="40.16794" lon="20.57378">
        <ele>698.53002929688</ele>
        <time>2023-09-28T08:50:37.000Z</time>
      </trkpt>
      <trkpt lat="40.16795" lon="20.57379">
        <ele>698.53002929688</ele>
        <time>2023-09-28T08:50:36.000Z</time>
      </trkpt>
      <trkpt lat="40.16798" lon="20.57395">
        <ele>699.5</ele>
        <time>2023-09-28T08:50:35.000Z</time>
      </trkpt>
      <trkpt lat="40.168" lon="20.57401">
        <ele>699.5</ele>
        <time>2023-09-28T08:50:34.000Z</time>
      </trkpt>
      <trkpt lat="40.16805" lon="20.57411">
        <ele>700.46002197266</ele>
        <time>2023-09-28T08:50:33.000Z</time>
      </trkpt>
      <trkpt lat="40.1681" lon="20.57417">
        <ele>700.94000244141</ele>
        <time>2023-09-28T08:50:32.000Z</time>
      </trkpt>
      <trkpt lat="40.16814" lon="20.57423">
        <ele>701.41998291016</ele>
        <time>2023-09-28T08:50:31.000Z</time>
      </trkpt>
      <trkpt lat="40.16818" lon="20.57431">
        <ele>701.90002441406</ele>
        <time>2023-09-28T08:50:30.000Z</time>
      </trkpt>
      <trkpt lat="40.16819" lon="20.57433">
        <ele>701.90002441406</ele>
        <time>2023-09-28T08:50:29.000Z</time>
      </trkpt>
      <trkpt lat="40.16824" lon="20.57444">
        <ele>702.85998535156</ele>
        <time>2023-09-28T08:50:28.000Z</time>
      </trkpt>
      <trkpt lat="40.16827" lon="20.5745">
        <ele>703.34002685547</ele>
        <time>2023-09-28T08:50:27.000Z</time>
      </trkpt>
      <trkpt lat="40.16829" lon="20.57453">
        <ele>703.34002685547</ele>
        <time>2023-09-28T08:50:26.000Z</time>
      </trkpt>
      <trkpt lat="40.16835" lon="20.5746">
        <ele>703.82000732422</ele>
        <time>2023-09-28T08:50:25.000Z</time>
      </trkpt>
      <trkpt lat="40.16838" lon="20.57463">
        <ele>704.29998779297</ele>
        <time>2023-09-28T08:50:24.000Z</time>
      </trkpt>
      <trkpt lat="40.16845" lon="20.57469">
        <ele>704.78002929688</ele>
        <time>2023-09-28T08:50:22.000Z</time>
      </trkpt>
      <trkpt lat="40.16848" lon="20.57471">
        <ele>705.26000976562</ele>
        <time>2023-09-28T08:50:21.000Z</time>
      </trkpt>
      <trkpt lat="40.1685" lon="20.57472">
        <ele>705.26000976562</ele>
        <time>2023-09-28T08:50:20.000Z</time>
      </trkpt>
      <trkpt lat="40.16879" lon="20.57485">
        <ele>706.22998046875</ele>
        <time>2023-09-28T08:46:06.000Z</time>
      </trkpt>
      <trkpt lat="40.16894" lon="20.57494">
        <ele>706.22998046875</ele>
        <time>2023-09-28T08:45:58.000Z</time>
      </trkpt>
      <trkpt lat="40.16898" lon="20.57498">
        <ele>706.22998046875</ele>
        <time>2023-09-28T08:45:57.000Z</time>
      </trkpt>
      <trkpt lat="40.16901" lon="20.57501">
        <ele>705.75</ele>
        <time>2023-09-28T08:45:56.000Z</time>
      </trkpt>
      <trkpt lat="40.16904" lon="20.57505">
        <ele>705.75</ele>
        <time>2023-09-28T08:45:55.000Z</time>
      </trkpt>
      <trkpt lat="40.16912" lon="20.57516">
        <ele>705.75</ele>
        <time>2023-09-28T08:45:53.000Z</time>
      </trkpt>
      <trkpt lat="40.16917" lon="20.57522">
        <ele>705.26000976562</ele>
        <time>2023-09-28T08:45:52.000Z</time>
      </trkpt>
      <trkpt lat="40.16921" lon="20.57526">
        <ele>705.26000976562</ele>
        <time>2023-09-28T08:45:51.000Z</time>
      </trkpt>
      <trkpt lat="40.16924" lon="20.57531">
        <ele>705.26000976562</ele>
        <time>2023-09-28T08:45:50.000Z</time>
      </trkpt>
      <trkpt lat="40.16926" lon="20.57535">
        <ele>704.78002929688</ele>
        <time>2023-09-28T08:45:49.000Z</time>
      </trkpt>
      <trkpt lat="40.16928" lon="20.5754">
        <ele>704.78002929688</ele>
        <time>2023-09-28T08:45:48.000Z</time>
      </trkpt>
      <trkpt lat="40.16929" lon="20.57545">
        <ele>704.78002929688</ele>
        <time>2023-09-28T08:45:47.000Z</time>
      </trkpt>
      <trkpt lat="40.1693" lon="20.57551">
        <ele>704.29998779297</ele>
        <time>2023-09-28T08:45:46.000Z</time>
      </trkpt>
      <trkpt lat="40.1693" lon="20.57555">
        <ele>704.29998779297</ele>
        <time>2023-09-28T08:45:45.000Z</time>
      </trkpt>
      <trkpt lat="40.16931" lon="20.57563">
        <ele>704.29998779297</ele>
        <time>2023-09-28T08:45:44.000Z</time>
      </trkpt>
      <trkpt lat="40.16931" lon="20.57571">
        <ele>704.29998779297</ele>
        <time>2023-09-28T08:45:43.000Z</time>
      </trkpt>
      <trkpt lat="40.1693" lon="20.57578">
        <ele>704.29998779297</ele>
        <time>2023-09-28T08:45:42.000Z</time>
      </trkpt>
      <trkpt lat="40.16927" lon="20.57605">
        <ele>704.78002929688</ele>
        <time>2023-09-28T08:45:39.000Z</time>
      </trkpt>
      <trkpt lat="40.16927" lon="20.57611">
        <ele>705.26000976562</ele>
        <time>2023-09-28T08:45:38.000Z</time>
      </trkpt>
      <trkpt lat="40.16924" lon="20.5763">
        <ele>705.75</ele>
        <time>2023-09-28T08:45:36.000Z</time>
      </trkpt>
      <trkpt lat="40.16921" lon="20.57642">
        <ele>706.22998046875</ele>
        <time>2023-09-28T08:45:35.000Z</time>
      </trkpt>
      <trkpt lat="40.16912" lon="20.57674">
        <ele>707.66998291016</ele>
        <time>2023-09-28T08:45:32.000Z</time>
      </trkpt>
      <trkpt lat="40.16909" lon="20.57684">
        <ele>708.15002441406</ele>
        <time>2023-09-28T08:45:31.000Z</time>
      </trkpt>
      <trkpt lat="40.16908" lon="20.57688">
        <ele>708.15002441406</ele>
        <time>2023-09-28T08:45:30.000Z</time>
      </trkpt>
      <trkpt lat="40.16904" lon="20.577">
        <ele>708.63000488281</ele>
        <time>2023-09-28T08:45:29.000Z</time>
      </trkpt>
      <trkpt lat="40.16901" lon="20.57711">
        <ele>709.10998535156</ele>
        <time>2023-09-28T08:45:28.000Z</time>
      </trkpt>
      <trkpt lat="40.16899" lon="20.57721">
        <ele>709.59002685547</ele>
        <time>2023-09-28T08:45:27.000Z</time>
      </trkpt>
      <trkpt lat="40.16898" lon="20.5773">
        <ele>709.10998535156</ele>
        <time>2023-09-28T08:45:26.000Z</time>
      </trkpt>
      <trkpt lat="40.16899" lon="20.57739">
        <ele>709.10998535156</ele>
        <time>2023-09-28T08:45:25.000Z</time>
      </trkpt>
      <trkpt lat="40.169" lon="20.57745">
        <ele>709.10998535156</ele>
        <time>2023-09-28T08:45:24.000Z</time>
      </trkpt>
      <trkpt lat="40.16902" lon="20.5776">
        <ele>712.60546875</ele>
      </trkpt>
      <trkpt lat="40.16904" lon="20.5777">
        <ele>707.66998291016</ele>
        <time>2024-09-27T15:47:59.000Z</time>
      </trkpt>
      <trkpt lat="40.16892" lon="20.57804">
        <ele>707.66998291016</ele>
        <time>2024-09-27T15:48:09.000Z</time>
      </trkpt>
      <trkpt lat="40.1688" lon="20.57849">
        <ele>710.54998779297</ele>
        <time>2024-09-27T15:48:20.000Z</time>
      </trkpt>
      <trkpt lat="40.1688" lon="20.57854">
        <ele>711.03002929688</ele>
        <time>2024-09-27T15:48:21.000Z</time>
      </trkpt>
      <trkpt lat="40.1688" lon="20.57857">
        <ele>711.03002929688</ele>
        <time>2024-09-27T15:48:22.000Z</time>
      </trkpt>
      <trkpt lat="40.16882" lon="20.57864">
        <ele>711.51000976562</ele>
        <time>2024-09-27T15:48:23.000Z</time>
      </trkpt>
      <trkpt lat="40.16885" lon="20.57885">
        <ele>712.46997070312</ele>
        <time>2024-09-27T15:48:25.000Z</time>
      </trkpt>
      <trkpt lat="40.16886" lon="20.57887">
        <ele>712.46997070312</ele>
        <time>2024-09-27T15:48:26.000Z</time>
      </trkpt>
      <trkpt lat="40.16888" lon="20.57895">
        <ele>712.95001220703</ele>
        <time>2024-09-27T15:48:27.000Z</time>
      </trkpt>
      <trkpt lat="40.1689" lon="20.57902">
        <ele>713.44000244141</ele>
        <time>2024-09-27T15:48:28.000Z</time>
      </trkpt>
      <trkpt lat="40.16894" lon="20.57909">
        <ele>713.91998291016</ele>
        <time>2024-09-27T15:48:29.000Z</time>
      </trkpt>
      <trkpt lat="40.169" lon="20.57918">
        <ele>714.88000488281</ele>
        <time>2024-09-27T15:48:30.000Z</time>
      </trkpt>
      <trkpt lat="40.16903" lon="20.57923">
        <ele>715.84002685547</ele>
        <time>2024-09-27T15:48:31.000Z</time>
      </trkpt>
      <trkpt lat="40.16908" lon="20.57928">
        <ele>716.32000732422</ele>
        <time>2024-09-27T15:48:32.000Z</time>
      </trkpt>
      <trkpt lat="40.1693" lon="20.57947">
        <ele>719.20001220703</ele>
        <time>2024-09-27T15:48:35.000Z</time>
      </trkpt>
      <trkpt lat="40.16943" lon="20.57957">
        <ele>720.65002441406</ele>
        <time>2024-09-27T15:48:37.000Z</time>
      </trkpt>
      <trkpt lat="40.16947" lon="20.57961">
        <ele>721.13000488281</ele>
        <time>2024-09-27T15:48:38.000Z</time>
      </trkpt>
      <trkpt lat="40.16949" lon="20.57963">
        <ele>721.60998535156</ele>
        <time>2024-09-27T15:48:39.000Z</time>
      </trkpt>
      <trkpt lat="40.16955" lon="20.5797">
        <ele>722.57000732422</ele>
        <time>2024-09-27T15:48:40.000Z</time>
      </trkpt>
      <trkpt lat="40.16958" lon="20.57977">
        <ele>723.04998779297</ele>
        <time>2024-09-27T15:48:41.000Z</time>
      </trkpt>
      <trkpt lat="40.16961" lon="20.57984">
        <ele>723.53002929688</ele>
        <time>2024-09-27T15:48:42.000Z</time>
      </trkpt>
      <trkpt lat="40.16962" lon="20.57993">
        <ele>724.01000976562</ele>
        <time>2024-09-27T15:48:43.000Z</time>
      </trkpt>
      <trkpt lat="40.16964" lon="20.58012">
        <ele>724.96997070312</ele>
        <time>2024-09-27T15:48:45.000Z</time>
      </trkpt>
      <trkpt lat="40.16964" lon="20.58024">
        <ele>724.96997070312</ele>
        <time>2024-09-27T15:48:46.000Z</time>
      </trkpt>
      <trkpt lat="40.16964" lon="20.58029">
        <ele>725.45001220703</ele>
        <time>2024-09-27T15:48:47.000Z</time>
      </trkpt>
      <trkpt lat="40.16965" lon="20.58038">
        <ele>725.45001220703</ele>
        <time>2024-09-27T15:48:48.000Z</time>
      </trkpt>
      <trkpt lat="40.16966" lon="20.58047">
        <ele>725.92999267578</ele>
        <time>2024-09-27T15:48:49.000Z</time>
      </trkpt>
      <trkpt lat="40.16965" lon="20.58055">
        <ele>726.40997314453</ele>
        <time>2024-09-27T15:48:50.000Z</time>
      </trkpt>
      <trkpt lat="40.16965" lon="20.58065">
        <ele>726.89001464844</ele>
        <time>2024-09-27T15:48:51.000Z</time>
      </trkpt>
      <trkpt lat="40.16964" lon="20.58073">
        <ele>727.36999511719</ele>
        <time>2024-09-27T15:48:52.000Z</time>
      </trkpt>
      <trkpt lat="40.16962" lon="20.58087">
        <ele>728.82000732422</ele>
        <time>2024-09-27T15:48:53.000Z</time>
      </trkpt>
      <trkpt lat="40.1696" lon="20.58093">
        <ele>728.82000732422</ele>
        <time>2024-09-27T15:48:54.000Z</time>
      </trkpt>
      <trkpt lat="40.16959" lon="20.58101">
        <ele>729.29998779297</ele>
        <time>2024-09-27T15:48:55.000Z</time>
      </trkpt>
      <trkpt lat="40.16956" lon="20.58111">
        <ele>729.78002929688</ele>
        <time>2024-09-27T15:48:56.000Z</time>
      </trkpt>
      <trkpt lat="40.16952" lon="20.58124">
        <ele>730.26000976562</ele>
        <time>2024-09-27T15:48:57.000Z</time>
      </trkpt>
      <trkpt lat="40.16951" lon="20.58128">
        <ele>730.26000976562</ele>
        <time>2024-09-27T15:48:58.000Z</time>
      </trkpt>
      <trkpt lat="40.16945" lon="20.58154">
        <ele>730.26000976562</ele>
        <time>2024-09-27T15:49:01.000Z</time>
      </trkpt>
      <trkpt lat="40.16943" lon="20.58164">
        <ele>729.78002929688</ele>
        <time>2024-09-27T15:49:02.000Z</time>
      </trkpt>
      <trkpt lat="40.16943" lon="20.58174">
        <ele>730.26000976562</ele>
        <time>2024-09-27T15:49:03.000Z</time>
      </trkpt>
      <trkpt lat="40.16945" lon="20.58184">
        <ele>730.26000976562</ele>
        <time>2024-09-27T15:49:04.000Z</time>
      </trkpt>
      <trkpt lat="40.16947" lon="20.58194">
        <ele>730.26000976562</ele>
        <time>2024-09-27T15:49:05.000Z</time>
      </trkpt>
      <trkpt lat="40.16949" lon="20.58206">
        <ele>730.26000976562</ele>
        <time>2024-09-27T15:49:06.000Z</time>
      </trkpt>
      <trkpt lat="40.16949" lon="20.58215">
        <ele>730.26000976562</ele>
        <time>2024-09-27T15:49:07.000Z</time>
      </trkpt>
      <trkpt lat="40.16949" lon="20.58227">
        <ele>730.26000976562</ele>
        <time>2024-09-27T15:49:08.000Z</time>
      </trkpt>
      <trkpt lat="40.16947" lon="20.58245">
        <ele>730.26000976562</ele>
        <time>2024-09-27T15:49:09.000Z</time>
      </trkpt>
      <trkpt lat="40.16947" lon="20.58248">
        <ele>730.26000976562</ele>
        <time>2024-09-27T15:49:10.000Z</time>
      </trkpt>
      <trkpt lat="40.16947" lon="20.58257">
        <ele>730.26000976562</ele>
        <time>2024-09-27T15:49:11.000Z</time>
      </trkpt>
      <trkpt lat="40.16948" lon="20.58267">
        <ele>729.78002929688</ele>
        <time>2024-09-27T15:49:12.000Z</time>
      </trkpt>
      <trkpt lat="40.16957" lon="20.58306">
        <ele>731.21997070312</ele>
        <time>2024-09-27T15:49:15.000Z</time>
      </trkpt>
      <trkpt lat="40.16959" lon="20.58315">
        <ele>732.17999267578</ele>
        <time>2024-09-27T15:49:16.000Z</time>
      </trkpt>
      <trkpt lat="40.1696" lon="20.58319">
        <ele>732.17999267578</ele>
        <time>2024-09-27T15:49:17.000Z</time>
      </trkpt>
      <trkpt lat="40.1696" lon="20.5833">
        <ele>733.14001464844</ele>
        <time>2024-09-27T15:49:18.000Z</time>
      </trkpt>
      <trkpt lat="40.16959" lon="20.5834">
        <ele>733.61999511719</ele>
        <time>2024-09-27T15:49:19.000Z</time>
      </trkpt>
      <trkpt lat="40.16956" lon="20.58349">
        <ele>734.09997558594</ele>
        <time>2024-09-27T15:49:20.000Z</time>
      </trkpt>
      <trkpt lat="40.1695" lon="20.58357">
        <ele>734.58001708984</ele>
        <time>2024-09-27T15:49:21.000Z</time>
      </trkpt>
      <trkpt lat="40.16943" lon="20.58363">
        <ele>735.07000732422</ele>
        <time>2024-09-27T15:49:22.000Z</time>
      </trkpt>
      <trkpt lat="40.16905" lon="20.58385">
        <ele>738.42999267578</ele>
        <time>2024-09-27T15:49:26.000Z</time>
      </trkpt>
      <trkpt lat="40.16882" lon="20.58394">
        <ele>739.86999511719</ele>
        <time>2024-09-27T15:49:28.000Z</time>
      </trkpt>
      <trkpt lat="40.16881" lon="20.58394">
        <ele>739.86999511719</ele>
        <time>2024-09-27T15:49:29.000Z</time>
      </trkpt>
      <trkpt lat="40.16872" lon="20.58399">
        <ele>740.83001708984</ele>
        <time>2024-09-27T15:49:30.000Z</time>
      </trkpt>
      <trkpt lat="40.16864" lon="20.58405">
        <ele>741.30999755859</ele>
        <time>2024-09-27T15:49:31.000Z</time>
      </trkpt>
      <trkpt lat="40.16855" lon="20.58415">
        <ele>741.78997802734</ele>
        <time>2024-09-27T15:49:32.000Z</time>
      </trkpt>
      <trkpt lat="40.1685" lon="20.5842">
        <ele>742.28002929688</ele>
        <time>2024-09-27T15:49:33.000Z</time>
      </trkpt>
      <trkpt lat="40.16843" lon="20.58423">
        <ele>743.23999023438</ele>
        <time>2024-09-27T15:49:34.000Z</time>
      </trkpt>
      <trkpt lat="40.16837" lon="20.58423">
        <ele>743.71997070312</ele>
        <time>2024-09-27T15:49:35.000Z</time>
      </trkpt>
      <trkpt lat="40.16832" lon="20.58418">
        <ele>744.67999267578</ele>
        <time>2024-09-27T15:49:36.000Z</time>
      </trkpt>
      <trkpt lat="40.16829" lon="20.58411">
        <ele>745.15997314453</ele>
        <time>2024-09-27T15:49:37.000Z</time>
      </trkpt>
      <trkpt lat="40.16829" lon="20.58403">
        <ele>745.64001464844</ele>
        <time>2024-09-27T15:49:38.000Z</time>
      </trkpt>
      <trkpt lat="40.16832" lon="20.58394">
        <ele>746.11999511719</ele>
        <time>2024-09-27T15:49:39.000Z</time>
      </trkpt>
      <trkpt lat="40.16836" lon="20.58388">
        <ele>746.59997558594</ele>
        <time>2024-09-27T15:49:40.000Z</time>
      </trkpt>
      <trkpt lat="40.16842" lon="20.58384">
        <ele>746.59997558594</ele>
        <time>2024-09-27T15:49:41.000Z</time>
      </trkpt>
      <trkpt lat="40.1685" lon="20.58381">
        <ele>747.55999755859</ele>
        <time>2024-09-27T15:49:42.000Z</time>
      </trkpt>
      <trkpt lat="40.16859" lon="20.58378">
        <ele>748.03997802734</ele>
        <time>2024-09-27T15:49:43.000Z</time>
      </trkpt>
      <trkpt lat="40.16864" lon="20.58376">
        <ele>748.52001953125</ele>
        <time>2024-09-27T15:49:44.000Z</time>
      </trkpt>
      <trkpt lat="40.16871" lon="20.58372">
        <ele>749.48999023438</ele>
        <time>2024-09-27T15:49:45.000Z</time>
      </trkpt>
      <trkpt lat="40.16876" lon="20.58365">
        <ele>749.96997070312</ele>
        <time>2024-09-27T15:49:46.000Z</time>
      </trkpt>
      <trkpt lat="40.16882" lon="20.58355">
        <ele>750.45001220703</ele>
        <time>2024-09-27T15:49:47.000Z</time>
      </trkpt>
      <trkpt lat="40.16885" lon="20.58345">
        <ele>750.92999267578</ele>
        <time>2024-09-27T15:49:48.000Z</time>
      </trkpt>
      <trkpt lat="40.16886" lon="20.58334">
        <ele>751.40997314453</ele>
        <time>2024-09-27T15:49:49.000Z</time>
      </trkpt>
      <trkpt lat="40.16886" lon="20.58324">
        <ele>751.89001464844</ele>
        <time>2024-09-27T15:49:50.000Z</time>
      </trkpt>
      <trkpt lat="40.16884" lon="20.58303">
        <ele>753.33001708984</ele>
        <time>2024-09-27T15:49:51.000Z</time>
      </trkpt>
      <trkpt lat="40.16884" lon="20.58301">
        <ele>753.33001708984</ele>
        <time>2024-09-27T15:49:52.000Z</time>
      </trkpt>
      <trkpt lat="40.1688" lon="20.58272">
        <ele>754.28997802734</ele>
        <time>2024-09-27T15:49:54.000Z</time>
      </trkpt>
      <trkpt lat="40.16878" lon="20.58263">
        <ele>754.77001953125</ele>
        <time>2024-09-27T15:49:55.000Z</time>
      </trkpt>
      <trkpt lat="40.16875" lon="20.58255">
        <ele>755.25</ele>
        <time>2024-09-27T15:49:56.000Z</time>
      </trkpt>
      <trkpt lat="40.1687" lon="20.58244">
        <ele>755.72998046875</ele>
        <time>2024-09-27T15:49:57.000Z</time>
      </trkpt>
      <trkpt lat="40.16865" lon="20.58235">
        <ele>756.21002197266</ele>
        <time>2024-09-27T15:49:58.000Z</time>
      </trkpt>
      <trkpt lat="40.16859" lon="20.58227">
        <ele>756.69000244141</ele>
        <time>2024-09-27T15:49:59.000Z</time>
      </trkpt>
      <trkpt lat="40.16838" lon="20.58205">
        <ele>758.14001464844</ele>
        <time>2024-09-27T15:50:01.000Z</time>
      </trkpt>
      <trkpt lat="40.16837" lon="20.58203">
        <ele>758.14001464844</ele>
        <time>2024-09-27T15:50:02.000Z</time>
      </trkpt>
      <trkpt lat="40.16831" lon="20.58194">
        <ele>758.61999511719</ele>
        <time>2024-09-27T15:50:03.000Z</time>
      </trkpt>
      <trkpt lat="40.16827" lon="20.58185">
        <ele>759.09997558594</ele>
        <time>2024-09-27T15:50:04.000Z</time>
      </trkpt>
      <trkpt lat="40.16822" lon="20.58172">
        <ele>759.58001708984</ele>
        <time>2024-09-27T15:50:05.000Z</time>
      </trkpt>
      <trkpt lat="40.16815" lon="20.58151">
        <ele>761.02001953125</ele>
        <time>2024-09-27T15:50:07.000Z</time>
      </trkpt>
      <trkpt lat="40.16812" lon="20.58142">
        <ele>761.02001953125</ele>
        <time>2024-09-27T15:50:08.000Z</time>
      </trkpt>
      <trkpt lat="40.16807" lon="20.58133">
        <ele>761.97998046875</ele>
        <time>2024-09-27T15:50:09.000Z</time>
      </trkpt>
      <trkpt lat="40.16799" lon="20.58125">
        <ele>762.46002197266</ele>
        <time>2024-09-27T15:50:10.000Z</time>
      </trkpt>
      <trkpt lat="40.16792" lon="20.58118">
        <ele>762.94000244141</ele>
        <time>2024-09-27T15:50:11.000Z</time>
      </trkpt>
      <trkpt lat="40.16786" lon="20.58113">
        <ele>763.41998291016</ele>
        <time>2024-09-27T15:50:12.000Z</time>
      </trkpt>
      <trkpt lat="40.16779" lon="20.58106">
        <ele>764.39001464844</ele>
        <time>2024-09-27T15:50:13.000Z</time>
      </trkpt>
      <trkpt lat="40.16773" lon="20.58097">
        <ele>765.34997558594</ele>
        <time>2024-09-27T15:50:14.000Z</time>
      </trkpt>
      <trkpt lat="40.16767" lon="20.58087">
        <ele>766.30999755859</ele>
        <time>2024-09-27T15:50:15.000Z</time>
      </trkpt>
      <trkpt lat="40.16765" lon="20.58081">
        <ele>766.78997802734</ele>
        <time>2024-09-27T15:50:16.000Z</time>
      </trkpt>
      <trkpt lat="40.16762" lon="20.58072">
        <ele>767.75</ele>
        <time>2024-09-27T15:50:17.000Z</time>
      </trkpt>
      <trkpt lat="40.16762" lon="20.58063">
        <ele>768.22998046875</ele>
        <time>2024-09-27T15:50:18.000Z</time>
      </trkpt>
      <trkpt lat="40.16764" lon="20.58056">
        <ele>768.71002197266</ele>
        <time>2024-09-27T15:50:19.000Z</time>
      </trkpt>
      <trkpt lat="40.16768" lon="20.5805">
        <ele>769.66998291016</ele>
        <time>2024-09-27T15:50:20.000Z</time>
      </trkpt>
      <trkpt lat="40.16774" lon="20.58045">
        <ele>770.15002441406</ele>
        <time>2024-09-27T15:50:21.000Z</time>
      </trkpt>
      <trkpt lat="40.16779" lon="20.58041">
        <ele>771.10998535156</ele>
        <time>2024-09-27T15:50:22.000Z</time>
      </trkpt>
      <trkpt lat="40.16783" lon="20.58035">
        <ele>771.59997558594</ele>
        <time>2024-09-27T15:50:23.000Z</time>
      </trkpt>
      <trkpt lat="40.16785" lon="20.58028">
        <ele>771.59997558594</ele>
        <time>2024-09-27T15:50:24.000Z</time>
      </trkpt>
      <trkpt lat="40.16784" lon="20.58021">
        <ele>771.59997558594</ele>
        <time>2024-09-27T15:50:25.000Z</time>
      </trkpt>
      <trkpt lat="40.16781" lon="20.58016">
        <ele>772.08001708984</ele>
        <time>2024-09-27T15:50:26.000Z</time>
      </trkpt>
      <trkpt lat="40.16775" lon="20.58013">
        <ele>772.08001708984</ele>
        <time>2024-09-27T15:50:27.000Z</time>
      </trkpt>
      <trkpt lat="40.16768" lon="20.58013">
        <ele>773.03997802734</ele>
        <time>2024-09-27T15:50:28.000Z</time>
      </trkpt>
      <trkpt lat="40.16761" lon="20.58016">
        <ele>773.03997802734</ele>
        <time>2024-09-27T15:50:29.000Z</time>
      </trkpt>
      <trkpt lat="40.16755" lon="20.58021">
        <ele>774</ele>
        <time>2024-09-27T15:50:30.000Z</time>
      </trkpt>
      <trkpt lat="40.16748" lon="20.58026">
        <ele>774</ele>
        <time>2024-09-27T15:50:31.000Z</time>
      </trkpt>
      <trkpt lat="40.16742" lon="20.5803">
        <ele>774.47998046875</ele>
        <time>2024-09-27T15:50:32.000Z</time>
      </trkpt>
      <trkpt lat="40.16734" lon="20.58034">
        <ele>774.96002197266</ele>
        <time>2024-09-27T15:50:33.000Z</time>
      </trkpt>
      <trkpt lat="40.16725" lon="20.58038">
        <ele>775.91998291016</ele>
        <time>2024-09-27T15:50:34.000Z</time>
      </trkpt>
      <trkpt lat="40.16721" lon="20.5804">
        <ele>776.40002441406</ele>
        <time>2024-09-27T15:50:35.000Z</time>
      </trkpt>
      <trkpt lat="40.16715" lon="20.58045">
        <ele>777.35998535156</ele>
        <time>2024-09-27T15:50:36.000Z</time>
      </trkpt>
      <trkpt lat="40.16709" lon="20.58052">
        <ele>777.84002685547</ele>
        <time>2024-09-27T15:50:37.000Z</time>
      </trkpt>
      <trkpt lat="40.16706" lon="20.58061">
        <ele>778.80999755859</ele>
        <time>2024-09-27T15:50:38.000Z</time>
      </trkpt>
      <trkpt lat="40.16705" lon="20.58071">
        <ele>779.77001953125</ele>
        <time>2024-09-27T15:50:39.000Z</time>
      </trkpt>
      <trkpt lat="40.16706" lon="20.58081">
        <ele>780.25</ele>
        <time>2024-09-27T15:50:40.000Z</time>
      </trkpt>
      <trkpt lat="40.1673" lon="20.5815">
        <ele>784.09002685547</ele>
        <time>2024-09-27T15:50:47.000Z</time>
      </trkpt>
      <trkpt lat="40.16732" lon="20.58156">
        <ele>784.57000732422</ele>
        <time>2024-09-27T15:50:48.000Z</time>
      </trkpt>
      <trkpt lat="40.1674" lon="20.58177">
        <ele>785.53002929688</ele>
        <time>2024-09-27T15:50:50.000Z</time>
      </trkpt>
      <trkpt lat="40.16741" lon="20.58181">
        <ele>786.02001953125</ele>
        <time>2024-09-27T15:50:51.000Z</time>
      </trkpt>
      <trkpt lat="40.16743" lon="20.58189">
        <ele>786.5</ele>
        <time>2024-09-27T15:50:52.000Z</time>
      </trkpt>
      <trkpt lat="40.16744" lon="20.58197">
        <ele>786.97998046875</ele>
        <time>2024-09-27T15:50:53.000Z</time>
      </trkpt>
      <trkpt lat="40.16745" lon="20.58204">
        <ele>787.46002197266</ele>
        <time>2024-09-27T15:50:54.000Z</time>
      </trkpt>
      <trkpt lat="40.16744" lon="20.58215">
        <ele>788.41998291016</ele>
        <time>2024-09-27T15:50:55.000Z</time>
      </trkpt>
      <trkpt lat="40.16742" lon="20.58225">
        <ele>788.90002441406</ele>
        <time>2024-09-27T15:50:56.000Z</time>
      </trkpt>
      <trkpt lat="40.16739" lon="20.58238">
        <ele>789.85998535156</ele>
        <time>2024-09-27T15:50:57.000Z</time>
      </trkpt>
      <trkpt lat="40.16736" lon="20.58249">
        <ele>790.34002685547</ele>
        <time>2024-09-27T15:50:58.000Z</time>
      </trkpt>
      <trkpt lat="40.16723" lon="20.58286">
        <ele>792.73999023438</ele>
        <time>2024-09-27T15:51:01.000Z</time>
      </trkpt>
      <trkpt lat="40.16721" lon="20.58291">
        <ele>793.21997070312</ele>
        <time>2024-09-27T15:51:02.000Z</time>
      </trkpt>
      <trkpt lat="40.16715" lon="20.58305">
        <ele>793.21997070312</ele>
        <time>2024-09-27T15:51:03.000Z</time>
      </trkpt>
      <trkpt lat="40.16695" lon="20.58345">
        <ele>794.66998291016</ele>
        <time>2024-09-27T15:51:08.000Z</time>
      </trkpt>
      <trkpt lat="40.16682" lon="20.58371">
        <ele>795.63000488281</ele>
        <time>2024-09-27T15:51:11.000Z</time>
      </trkpt>
      <trkpt lat="40.16679" lon="20.58375">
        <ele>795.63000488281</ele>
        <time>2024-09-27T15:51:12.000Z</time>
      </trkpt>
      <trkpt lat="40.16669" lon="20.5839">
        <ele>796.59002685547</ele>
        <time>2024-09-27T15:51:13.000Z</time>
      </trkpt>
      <trkpt lat="40.16665" lon="20.58397">
        <ele>796.59002685547</ele>
        <time>2024-09-27T15:51:14.000Z</time>
      </trkpt>
      <trkpt lat="40.16661" lon="20.58401">
        <ele>797.07000732422</ele>
        <time>2024-09-27T15:51:15.000Z</time>
      </trkpt>
      <trkpt lat="40.16654" lon="20.5841">
        <ele>797.54998779297</ele>
        <time>2024-09-27T15:51:16.000Z</time>
      </trkpt>
      <trkpt lat="40.1664" lon="20.58425">
        <ele>798.51000976562</ele>
        <time>2024-09-27T15:51:17.000Z</time>
      </trkpt>
      <trkpt lat="40.16604" lon="20.5846">
        <ele>799.95001220703</ele>
        <time>2024-09-27T15:51:22.000Z</time>
      </trkpt>
      <trkpt lat="40.16578" lon="20.58483">
        <ele>800.91998291016</ele>
        <time>2024-09-27T15:51:25.000Z</time>
      </trkpt>
      <trkpt lat="40.16574" lon="20.58488">
        <ele>801.40002441406</ele>
        <time>2024-09-27T15:51:26.000Z</time>
      </trkpt>
      <trkpt lat="40.16567" lon="20.58496">
        <ele>801.88000488281</ele>
        <time>2024-09-27T15:51:27.000Z</time>
      </trkpt>
      <trkpt lat="40.1656" lon="20.58506">
        <ele>802.84002685547</ele>
        <time>2024-09-27T15:51:28.000Z</time>
      </trkpt>
      <trkpt lat="40.16551" lon="20.5852">
        <ele>803.79998779297</ele>
        <time>2024-09-27T15:51:29.000Z</time>
      </trkpt>
      <trkpt lat="40.16548" lon="20.58527">
        <ele>804.28002929688</ele>
        <time>2024-09-27T15:51:30.000Z</time>
      </trkpt>
      <trkpt lat="40.16533" lon="20.58556">
        <ele>806.20001220703</ele>
        <time>2024-09-27T15:51:34.000Z</time>
      </trkpt>
      <trkpt lat="40.16529" lon="20.58564">
        <ele>806.20001220703</ele>
        <time>2024-09-27T15:51:35.000Z</time>
      </trkpt>
      <trkpt lat="40.16506" lon="20.58597">
        <ele>807.15997314453</ele>
        <time>2024-09-27T15:51:38.000Z</time>
      </trkpt>
      <trkpt lat="40.16505" lon="20.58598">
        <ele>807.15997314453</ele>
        <time>2024-09-27T15:51:39.000Z</time>
      </trkpt>
      <trkpt lat="40.16498" lon="20.58607">
        <ele>808.13000488281</ele>
        <time>2024-09-27T15:51:40.000Z</time>
      </trkpt>
      <trkpt lat="40.16491" lon="20.58613">
        <ele>808.60998535156</ele>
        <time>2024-09-27T15:51:41.000Z</time>
      </trkpt>
      <trkpt lat="40.16483" lon="20.58617">
        <ele>809.57000732422</ele>
        <time>2024-09-27T15:51:42.000Z</time>
      </trkpt>
      <trkpt lat="40.16472" lon="20.58622">
        <ele>811.01000976562</ele>
        <time>2024-09-27T15:51:43.000Z</time>
      </trkpt>
      <trkpt lat="40.16468" lon="20.58624">
        <ele>811.01000976562</ele>
        <time>2024-09-27T15:51:44.000Z</time>
      </trkpt>
      <trkpt lat="40.16461" lon="20.58629">
        <ele>811.96997070312</ele>
        <time>2024-09-27T15:51:45.000Z</time>
      </trkpt>
      <trkpt lat="40.16454" lon="20.58635">
        <ele>812.45001220703</ele>
        <time>2024-09-27T15:51:46.000Z</time>
      </trkpt>
      <trkpt lat="40.16445" lon="20.58646">
        <ele>812.92999267578</ele>
        <time>2024-09-27T15:51:47.000Z</time>
      </trkpt>
      <trkpt lat="40.16441" lon="20.58652">
        <ele>813.89001464844</ele>
        <time>2024-09-27T15:51:48.000Z</time>
      </trkpt>
      <trkpt lat="40.16436" lon="20.58662">
        <ele>814.84997558594</ele>
        <time>2024-09-27T15:51:49.000Z</time>
      </trkpt>
      <trkpt lat="40.1643" lon="20.58673">
        <ele>815.34002685547</ele>
        <time>2024-09-27T15:51:50.000Z</time>
      </trkpt>
      <trkpt lat="40.16427" lon="20.58678">
        <ele>815.82000732422</ele>
        <time>2024-09-27T15:51:51.000Z</time>
      </trkpt>
      <trkpt lat="40.16421" lon="20.58686">
        <ele>816.78002929688</ele>
        <time>2024-09-27T15:51:52.000Z</time>
      </trkpt>
      <trkpt lat="40.16413" lon="20.58693">
        <ele>817.26000976562</ele>
        <time>2024-09-27T15:51:53.000Z</time>
      </trkpt>
      <trkpt lat="40.16406" lon="20.58697">
        <ele>817.73999023438</ele>
        <time>2024-09-27T15:51:54.000Z</time>
      </trkpt>
      <trkpt lat="40.16396" lon="20.58702">
        <ele>818.21997070312</ele>
        <time>2024-09-27T15:51:55.000Z</time>
      </trkpt>
      <trkpt lat="40.16334" lon="20.58725">
        <ele>821.09997558594</ele>
        <time>2024-09-27T15:52:01.000Z</time>
      </trkpt>
      <trkpt lat="40.16329" lon="20.58727">
        <ele>821.58001708984</ele>
        <time>2024-09-27T15:52:02.000Z</time>
      </trkpt>
      <trkpt lat="40.1632" lon="20.58733">
        <ele>821.58001708984</ele>
        <time>2024-09-27T15:52:03.000Z</time>
      </trkpt>
      <trkpt lat="40.16312" lon="20.58739">
        <ele>822.05999755859</ele>
        <time>2024-09-27T15:52:04.000Z</time>
      </trkpt>
      <trkpt lat="40.16304" lon="20.58748">
        <ele>822.54998779297</ele>
        <time>2024-09-27T15:52:05.000Z</time>
      </trkpt>
      <trkpt lat="40.16299" lon="20.58755">
        <ele>823.03002929688</ele>
        <time>2024-09-27T15:52:06.000Z</time>
      </trkpt>
      <trkpt lat="40.16285" lon="20.58777">
        <ele>823.98999023438</ele>
        <time>2024-09-27T15:52:08.000Z</time>
      </trkpt>
      <trkpt lat="40.16233" lon="20.58876">
        <ele>827.83001708984</ele>
        <time>2024-09-27T15:52:16.000Z</time>
      </trkpt>
      <trkpt lat="40.1623" lon="20.58881">
        <ele>828.30999755859</ele>
        <time>2024-09-27T15:52:17.000Z</time>
      </trkpt>
      <trkpt lat="40.16225" lon="20.58888">
        <ele>828.78997802734</ele>
        <time>2024-09-27T15:52:18.000Z</time>
      </trkpt>
      <trkpt lat="40.16218" lon="20.58896">
        <ele>829.27001953125</ele>
        <time>2024-09-27T15:52:19.000Z</time>
      </trkpt>
      <trkpt lat="40.1621" lon="20.58902">
        <ele>829.76000976562</ele>
        <time>2024-09-27T15:52:20.000Z</time>
      </trkpt>
      <trkpt lat="40.16201" lon="20.58907">
        <ele>830.23999023438</ele>
        <time>2024-09-27T15:52:21.000Z</time>
      </trkpt>
      <trkpt lat="40.16191" lon="20.5891">
        <ele>830.23999023438</ele>
        <time>2024-09-27T15:52:22.000Z</time>
      </trkpt>
      <trkpt lat="40.16169" lon="20.58913">
        <ele>831.20001220703</ele>
        <time>2024-09-27T15:52:24.000Z</time>
      </trkpt>
      <trkpt lat="40.16158" lon="20.58915">
        <ele>831.67999267578</ele>
        <time>2024-09-27T15:52:25.000Z</time>
      </trkpt>
      <trkpt lat="40.16146" lon="20.5892">
        <ele>832.64001464844</ele>
        <time>2024-09-27T15:52:26.000Z</time>
      </trkpt>
      <trkpt lat="40.16138" lon="20.58924">
        <ele>833.11999511719</ele>
        <time>2024-09-27T15:52:27.000Z</time>
      </trkpt>
      <trkpt lat="40.16127" lon="20.5893">
        <ele>833.59997558594</ele>
        <time>2024-09-27T15:52:28.000Z</time>
      </trkpt>
      <trkpt lat="40.16079" lon="20.58965">
        <ele>837.45001220703</ele>
        <time>2024-09-27T15:52:33.000Z</time>
      </trkpt>
      <trkpt lat="40.16072" lon="20.58971">
        <ele>837.92999267578</ele>
        <time>2024-09-27T15:52:34.000Z</time>
      </trkpt>
      <trkpt lat="40.16066" lon="20.58979">
        <ele>838.89001464844</ele>
        <time>2024-09-27T15:52:35.000Z</time>
      </trkpt>
      <trkpt lat="40.16049" lon="20.59015">
        <ele>841.77001953125</ele>
        <time>2024-09-27T15:52:38.000Z</time>
      </trkpt>
      <trkpt lat="40.16048" lon="20.59018">
        <ele>841.77001953125</ele>
        <time>2024-09-27T15:52:39.000Z</time>
      </trkpt>
      <trkpt lat="40.16032" lon="20.59046">
        <ele>843.21002197266</ele>
        <time>2024-09-27T15:52:42.000Z</time>
      </trkpt>
      <trkpt lat="40.15973" lon="20.59126">
        <ele>844.65997314453</ele>
        <time>2024-09-27T15:52:50.000Z</time>
      </trkpt>
      <trkpt lat="40.1597" lon="20.5913">
        <ele>845.14001464844</ele>
        <time>2024-09-27T15:52:51.000Z</time>
      </trkpt>
      <trkpt lat="40.15957" lon="20.59152">
        <ele>847.05999755859</ele>
        <time>2024-09-27T15:52:53.000Z</time>
      </trkpt>
      <trkpt lat="40.15948" lon="20.59172">
        <ele>848.02001953125</ele>
        <time>2024-09-27T15:52:55.000Z</time>
      </trkpt>
      <trkpt lat="40.15924" lon="20.59214">
        <ele>849.94000244141</ele>
        <time>2024-09-27T15:52:59.000Z</time>
      </trkpt>
      <trkpt lat="40.15857" lon="20.59324">
        <ele>854.27001953125</ele>
        <time>2024-09-27T15:53:09.000Z</time>
      </trkpt>
      <trkpt lat="40.1583" lon="20.59364">
        <ele>855.22998046875</ele>
        <time>2024-09-27T15:53:12.000Z</time>
      </trkpt>
      <trkpt lat="40.15826" lon="20.5937">
        <ele>855.71002197266</ele>
        <time>2024-09-27T15:53:13.000Z</time>
      </trkpt>
      <trkpt lat="40.15821" lon="20.5938">
        <ele>856.19000244141</ele>
        <time>2024-09-27T15:53:14.000Z</time>
      </trkpt>
      <trkpt lat="40.15814" lon="20.59393">
        <ele>856.66998291016</ele>
        <time>2024-09-27T15:53:15.000Z</time>
      </trkpt>
      <trkpt lat="40.15784" lon="20.59449">
        <ele>859.55999755859</ele>
        <time>2024-09-27T15:53:20.000Z</time>
      </trkpt>
      <trkpt lat="40.15775" lon="20.59468">
        <ele>860.52001953125</ele>
        <time>2024-09-27T15:53:22.000Z</time>
      </trkpt>
      <trkpt lat="40.15771" lon="20.59477">
        <ele>861.47998046875</ele>
        <time>2024-09-27T15:53:23.000Z</time>
      </trkpt>
      <trkpt lat="40.15766" lon="20.59484">
        <ele>861.96002197266</ele>
        <time>2024-09-27T15:53:24.000Z</time>
      </trkpt>
      <trkpt lat="40.15757" lon="20.59492">
        <ele>863.40002441406</ele>
        <time>2024-09-27T15:53:25.000Z</time>
      </trkpt>
      <trkpt lat="40.15753" lon="20.59495">
        <ele>863.88000488281</ele>
        <time>2024-09-27T15:53:26.000Z</time>
      </trkpt>
      <trkpt lat="40.15741" lon="20.59504">
        <ele>864.84002685547</ele>
        <time>2024-09-27T15:53:27.000Z</time>
      </trkpt>
      <trkpt lat="40.15735" lon="20.59507">
        <ele>865.32000732422</ele>
        <time>2024-09-27T15:53:28.000Z</time>
      </trkpt>
      <trkpt lat="40.15726" lon="20.59511">
        <ele>866.28997802734</ele>
        <time>2024-09-27T15:53:29.000Z</time>
      </trkpt>
      <trkpt lat="40.15712" lon="20.59517">
        <ele>867.25</ele>
        <time>2024-09-27T15:53:30.000Z</time>
      </trkpt>
      <trkpt lat="40.15709" lon="20.59518">
        <ele>867.25</ele>
        <time>2024-09-27T15:53:31.000Z</time>
      </trkpt>
      <trkpt lat="40.15697" lon="20.59521">
        <ele>868.21002197266</ele>
        <time>2024-09-27T15:53:32.000Z</time>
      </trkpt>
      <trkpt lat="40.15691" lon="20.59522">
        <ele>868.69000244141</ele>
        <time>2024-09-27T15:53:33.000Z</time>
      </trkpt>
      <trkpt lat="40.15679" lon="20.59523">
        <ele>869.65002441406</ele>
        <time>2024-09-27T15:53:34.000Z</time>
      </trkpt>
      <trkpt lat="40.15676" lon="20.59523">
        <ele>869.65002441406</ele>
        <time>2024-09-27T15:53:35.000Z</time>
      </trkpt>
      <trkpt lat="40.15671" lon="20.59525">
        <ele>869.65002441406</ele>
        <time>2024-09-27T15:53:36.000Z</time>
      </trkpt>
      <trkpt lat="40.15668" lon="20.59529">
        <ele>870.13000488281</ele>
        <time>2024-09-27T15:53:37.000Z</time>
      </trkpt>
      <trkpt lat="40.15665" lon="20.59535">
        <ele>870.60998535156</ele>
        <time>2024-09-27T15:53:38.000Z</time>
      </trkpt>
      <trkpt lat="40.15665" lon="20.59542">
        <ele>870.60998535156</ele>
        <time>2024-09-27T15:53:39.000Z</time>
      </trkpt>
      <trkpt lat="40.15666" lon="20.5955">
        <ele>870.60998535156</ele>
        <time>2024-09-27T15:53:40.000Z</time>
      </trkpt>
      <trkpt lat="40.1567" lon="20.59558">
        <ele>871.09002685547</ele>
        <time>2024-09-27T15:53:41.000Z</time>
      </trkpt>
      <trkpt lat="40.15676" lon="20.59566">
        <ele>871.09002685547</ele>
        <time>2024-09-27T15:53:42.000Z</time>
      </trkpt>
      <trkpt lat="40.15687" lon="20.59579">
        <ele>872.04998779297</ele>
        <time>2024-09-27T15:53:43.000Z</time>
      </trkpt>
      <trkpt lat="40.15691" lon="20.59584">
        <ele>872.53002929688</ele>
        <time>2024-09-27T15:53:44.000Z</time>
      </trkpt>
      <trkpt lat="40.15705" lon="20.59603">
        <ele>873.97998046875</ele>
        <time>2024-09-27T15:53:46.000Z</time>
      </trkpt>
      <trkpt lat="40.15707" lon="20.59606">
        <ele>874.46002197266</ele>
        <time>2024-09-27T15:53:47.000Z</time>
      </trkpt>
      <trkpt lat="40.15713" lon="20.59616">
        <ele>874.94000244141</ele>
        <time>2024-09-27T15:53:48.000Z</time>
      </trkpt>
      <trkpt lat="40.1572" lon="20.59628">
        <ele>875.90002441406</ele>
        <time>2024-09-27T15:53:49.000Z</time>
      </trkpt>
      <trkpt lat="40.15724" lon="20.59636">
        <ele>876.38000488281</ele>
        <time>2024-09-27T15:53:50.000Z</time>
      </trkpt>
      <trkpt lat="40.15731" lon="20.59649">
        <ele>877.82000732422</ele>
        <time>2024-09-27T15:53:51.000Z</time>
      </trkpt>
      <trkpt lat="40.15732" lon="20.59651">
        <ele>877.82000732422</ele>
        <time>2024-09-27T15:53:52.000Z</time>
      </trkpt>
      <trkpt lat="40.15747" lon="20.59676">
        <ele>880.21997070312</ele>
        <time>2024-09-27T15:53:54.000Z</time>
      </trkpt>
      <trkpt lat="40.15749" lon="20.5968">
        <ele>880.71002197266</ele>
        <time>2024-09-27T15:53:55.000Z</time>
      </trkpt>
      <trkpt lat="40.15752" lon="20.59687">
        <ele>881.19000244141</ele>
        <time>2024-09-27T15:53:56.000Z</time>
      </trkpt>
      <trkpt lat="40.15759" lon="20.59708">
        <ele>882.63000488281</ele>
        <time>2024-09-27T15:53:58.000Z</time>
      </trkpt>
      <trkpt lat="40.15761" lon="20.59715">
        <ele>883.10998535156</ele>
        <time>2024-09-27T15:53:59.000Z</time>
      </trkpt>
      <trkpt lat="40.15762" lon="20.59724">
        <ele>884.07000732422</ele>
        <time>2024-09-27T15:54:00.000Z</time>
      </trkpt>
      <trkpt lat="40.15761" lon="20.59733">
        <ele>884.54998779297</ele>
        <time>2024-09-27T15:54:01.000Z</time>
      </trkpt>
      <trkpt lat="40.15757" lon="20.59741">
        <ele>885.51000976562</ele>
        <time>2024-09-27T15:54:02.000Z</time>
      </trkpt>
      <trkpt lat="40.15751" lon="20.59753">
        <ele>886.46997070312</ele>
        <time>2024-09-27T15:54:03.000Z</time>
      </trkpt>
      <trkpt lat="40.15745" lon="20.59762">
        <ele>887.42999267578</ele>
        <time>2024-09-27T15:54:04.000Z</time>
      </trkpt>
      <trkpt lat="40.15739" lon="20.59769">
        <ele>887.90997314453</ele>
        <time>2024-09-27T15:54:05.000Z</time>
      </trkpt>
      <trkpt lat="40.15732" lon="20.59777">
        <ele>888.88000488281</ele>
        <time>2024-09-27T15:54:06.000Z</time>
      </trkpt>
      <trkpt lat="40.15723" lon="20.59785">
        <ele>889.35998535156</ele>
        <time>2024-09-27T15:54:07.000Z</time>
      </trkpt>
      <trkpt lat="40.15714" lon="20.59792">
        <ele>889.84002685547</ele>
        <time>2024-09-27T15:54:08.000Z</time>
      </trkpt>
      <trkpt lat="40.15694" lon="20.59803">
        <ele>890.79998779297</ele>
        <time>2024-09-27T15:54:10.000Z</time>
      </trkpt>
      <trkpt lat="40.15682" lon="20.5981">
        <ele>891.28002929688</ele>
        <time>2024-09-27T15:54:11.000Z</time>
      </trkpt>
      <trkpt lat="40.15675" lon="20.59817">
        <ele>891.28002929688</ele>
        <time>2024-09-27T15:54:12.000Z</time>
      </trkpt>
      <trkpt lat="40.15667" lon="20.59826">
        <ele>891.76000976562</ele>
        <time>2024-09-27T15:54:13.000Z</time>
      </trkpt>
      <trkpt lat="40.15654" lon="20.59845">
        <ele>892.23999023438</ele>
        <time>2024-09-27T15:54:15.000Z</time>
      </trkpt>
      <trkpt lat="40.15648" lon="20.59854">
        <ele>892.23999023438</ele>
        <time>2024-09-27T15:54:16.000Z</time>
      </trkpt>
      <trkpt lat="40.15641" lon="20.59861">
        <ele>892.71997070312</ele>
        <time>2024-09-27T15:54:17.000Z</time>
      </trkpt>
      <trkpt lat="40.15634" lon="20.59868">
        <ele>892.71997070312</ele>
        <time>2024-09-27T15:54:18.000Z</time>
      </trkpt>
      <trkpt lat="40.15606" lon="20.5989">
        <ele>893.67999267578</ele>
        <time>2024-09-27T15:54:21.000Z</time>
      </trkpt>
      <trkpt lat="40.15603" lon="20.59893">
        <ele>894.15997314453</ele>
        <time>2024-09-27T15:54:22.000Z</time>
      </trkpt>
      <trkpt lat="40.15578" lon="20.59907">
        <ele>895.60998535156</ele>
        <time>2024-09-27T15:54:25.000Z</time>
      </trkpt>
      <trkpt lat="40.15566" lon="20.59915">
        <ele>896.09002685547</ele>
        <time>2024-09-27T15:54:26.000Z</time>
      </trkpt>
      <trkpt lat="40.15563" lon="20.59917">
        <ele>896.09002685547</ele>
        <time>2024-09-27T15:54:27.000Z</time>
      </trkpt>
      <trkpt lat="40.15556" lon="20.59923">
        <ele>896.09002685547</ele>
        <time>2024-09-27T15:54:28.000Z</time>
      </trkpt>
      <trkpt lat="40.1555" lon="20.5993">
        <ele>896.57000732422</ele>
        <time>2024-09-27T15:54:29.000Z</time>
      </trkpt>
      <trkpt lat="40.15545" lon="20.59938">
        <ele>896.57000732422</ele>
        <time>2024-09-27T15:54:30.000Z</time>
      </trkpt>
      <trkpt lat="40.15539" lon="20.59949">
        <ele>897.04998779297</ele>
        <time>2024-09-27T15:54:31.000Z</time>
      </trkpt>
      <trkpt lat="40.15532" lon="20.59962">
        <ele>897.53002929688</ele>
        <time>2024-09-27T15:54:32.000Z</time>
      </trkpt>
      <trkpt lat="40.15531" lon="20.59963">
        <ele>897.53002929688</ele>
        <time>2024-09-27T15:54:33.000Z</time>
      </trkpt>
      <trkpt lat="40.15527" lon="20.59971">
        <ele>897.53002929688</ele>
        <time>2024-09-27T15:54:34.000Z</time>
      </trkpt>
      <trkpt lat="40.15521" lon="20.59978">
        <ele>898.01000976562</ele>
        <time>2024-09-27T15:54:35.000Z</time>
      </trkpt>
      <trkpt lat="40.15514" lon="20.59986">
        <ele>898.01000976562</ele>
        <time>2024-09-27T15:54:36.000Z</time>
      </trkpt>
      <trkpt lat="40.15507" lon="20.59992">
        <ele>898.01000976562</ele>
        <time>2024-09-27T15:54:37.000Z</time>
      </trkpt>
      <trkpt lat="40.155" lon="20.59998">
        <ele>898.01000976562</ele>
        <time>2024-09-27T15:54:38.000Z</time>
      </trkpt>
      <trkpt lat="40.1549" lon="20.60004">
        <ele>898.01000976562</ele>
        <time>2024-09-27T15:54:39.000Z</time>
      </trkpt>
      <trkpt lat="40.15485" lon="20.60007">
        <ele>898.01000976562</ele>
        <time>2024-09-27T15:54:40.000Z</time>
      </trkpt>
      <trkpt lat="40.15476" lon="20.60011">
        <ele>898.01000976562</ele>
        <time>2024-09-27T15:54:41.000Z</time>
      </trkpt>
      <trkpt lat="40.15467" lon="20.60015">
        <ele>898.01000976562</ele>
        <time>2024-09-27T15:54:42.000Z</time>
      </trkpt>
      <trkpt lat="40.1545" lon="20.60022">
        <ele>898.01000976562</ele>
        <time>2024-09-27T15:54:44.000Z</time>
      </trkpt>
      <trkpt lat="40.15444" lon="20.60025">
        <ele>897.53002929688</ele>
        <time>2024-09-27T15:54:45.000Z</time>
      </trkpt>
      <trkpt lat="40.15434" lon="20.60028">
        <ele>897.53002929688</ele>
        <time>2024-09-27T15:54:46.000Z</time>
      </trkpt>
      <trkpt lat="40.15424" lon="20.60032">
        <ele>897.53002929688</ele>
        <time>2024-09-27T15:54:47.000Z</time>
      </trkpt>
      <trkpt lat="40.15421" lon="20.60033">
        <ele>897.53002929688</ele>
        <time>2024-09-27T15:54:48.000Z</time>
      </trkpt>
      <trkpt lat="40.15413" lon="20.60037">
        <ele>897.53002929688</ele>
        <time>2024-09-27T15:54:49.000Z</time>
      </trkpt>
      <trkpt lat="40.15407" lon="20.60041">
        <ele>897.53002929688</ele>
        <time>2024-09-27T15:54:50.000Z</time>
      </trkpt>
      <trkpt lat="40.154" lon="20.60047">
        <ele>897.53002929688</ele>
        <time>2024-09-27T15:54:51.000Z</time>
      </trkpt>
      <trkpt lat="40.15394" lon="20.60055">
        <ele>897.53002929688</ele>
        <time>2024-09-27T15:54:52.000Z</time>
      </trkpt>
      <trkpt lat="40.15388" lon="20.60064">
        <ele>897.53002929688</ele>
        <time>2024-09-27T15:54:53.000Z</time>
      </trkpt>
      <trkpt lat="40.15383" lon="20.60074">
        <ele>898.01000976562</ele>
        <time>2024-09-27T15:54:54.000Z</time>
      </trkpt>
      <trkpt lat="40.1538" lon="20.60081">
        <ele>898.01000976562</ele>
        <time>2024-09-27T15:54:55.000Z</time>
      </trkpt>
      <trkpt lat="40.15376" lon="20.60091">
        <ele>898.01000976562</ele>
        <time>2024-09-27T15:54:56.000Z</time>
      </trkpt>
      <trkpt lat="40.15373" lon="20.60097">
        <ele>898.48999023438</ele>
        <time>2024-09-27T15:54:57.000Z</time>
      </trkpt>
      <trkpt lat="40.15368" lon="20.60103">
        <ele>898.96997070312</ele>
        <time>2024-09-27T15:54:58.000Z</time>
      </trkpt>
      <trkpt lat="40.15362" lon="20.60108">
        <ele>899.45001220703</ele>
        <time>2024-09-27T15:54:59.000Z</time>
      </trkpt>
      <trkpt lat="40.15355" lon="20.60111">
        <ele>899.92999267578</ele>
        <time>2024-09-27T15:55:00.000Z</time>
      </trkpt>
      <trkpt lat="40.15348" lon="20.60112">
        <ele>899.92999267578</ele>
        <time>2024-09-27T15:55:01.000Z</time>
      </trkpt>
      <trkpt lat="40.15341" lon="20.6011">
        <ele>899.92999267578</ele>
        <time>2024-09-27T15:55:02.000Z</time>
      </trkpt>
      <trkpt lat="40.15335" lon="20.60106">
        <ele>899.92999267578</ele>
        <time>2024-09-27T15:55:03.000Z</time>
      </trkpt>
      <trkpt lat="40.15323" lon="20.60094">
        <ele>899.92999267578</ele>
        <time>2024-09-27T15:55:05.000Z</time>
      </trkpt>
      <trkpt lat="40.15318" lon="20.60089">
        <ele>899.92999267578</ele>
        <time>2024-09-27T15:55:06.000Z</time>
      </trkpt>
      <trkpt lat="40.15309" lon="20.60076">
        <ele>899.92999267578</ele>
        <time>2024-09-27T15:55:07.000Z</time>
      </trkpt>
      <trkpt lat="40.15306" lon="20.60071">
        <ele>899.92999267578</ele>
        <time>2024-09-27T15:55:08.000Z</time>
      </trkpt>
      <trkpt lat="40.15294" lon="20.60053">
        <ele>899.92999267578</ele>
        <time>2024-09-27T15:55:10.000Z</time>
      </trkpt>
      <trkpt lat="40.15289" lon="20.60045">
        <ele>899.92999267578</ele>
        <time>2024-09-27T15:55:12.000Z</time>
      </trkpt>
      <trkpt lat="40.15284" lon="20.60038">
        <ele>899.92999267578</ele>
        <time>2024-09-27T15:55:13.000Z</time>
      </trkpt>
      <trkpt lat="40.15281" lon="20.60031">
        <ele>899.92999267578</ele>
        <time>2024-09-27T15:55:14.000Z</time>
      </trkpt>
      <trkpt lat="40.15277" lon="20.60021">
        <ele>899.92999267578</ele>
        <time>2024-09-27T15:55:15.000Z</time>
      </trkpt>
      <trkpt lat="40.15275" lon="20.60012">
        <ele>899.92999267578</ele>
        <time>2024-09-27T15:55:16.000Z</time>
      </trkpt>
      <trkpt lat="40.15272" lon="20.59999">
        <ele>899.45001220703</ele>
        <time>2024-09-27T15:55:18.000Z</time>
      </trkpt>
      <trkpt lat="40.15271" lon="20.59991">
        <ele>899.92999267578</ele>
        <time>2024-09-27T15:55:19.000Z</time>
      </trkpt>
      <trkpt lat="40.15269" lon="20.59975">
        <ele>901.36999511719</ele>
        <time>2024-09-27T15:55:27.000Z</time>
      </trkpt>
      <trkpt lat="40.15268" lon="20.59955">
        <ele>901.84997558594</ele>
        <time>2024-09-27T15:55:34.000Z</time>
      </trkpt>
      <trkpt lat="40.15264" lon="20.59945">
        <ele>905.5390625</ele>
      </trkpt>
      <trkpt lat="40.15258" lon="20.59937">
        <ele>905.57421875</ele>
        <extensions>
          <visugpx:TrkExtension xmlns:visugpx="https://www.visugpx.com/editgpx/">
            <visugpx:node>1</visugpx:node>
            </visugpx:TrkExtension>
        </extensions>
      </trkpt>
    </trkseg>
  </trk>
</gpx>